<?xml version="1.0" encoding="UTF-8" standalone="no" ?>
<gpx xmlns="http://www.topografix.com/GPX/1/1" xmlns:xsi="http://www.w3.org/2001/XMLSchema-instance" xsi:schemaLocation="http://www.topografix.com/GPX/1/1 http://www.topografix.com/GPX/1/1/gpx.xsd" version="1.1" creator="VisuGPX - https://www.visugpx.com">
  <metadata>
    <name>Auxerre Véselay </name>
    <desc><![CDATA[46° marche Auxerre Vézelay
Croqpom]]></desc>
  </metadata>
  <trk>
    <name><![CDATA[26-AVR-15 16:42:55]]></name>
    <trkseg>
      <trkpt lat="47.78017" lon="3.57792">
        <ele>177.02</ele>
        <time>2015-04-26T04:01:25Z</time>
      </trkpt>
      <trkpt lat="47.78018" lon="3.57791">
        <ele>177.02</ele>
        <time>2015-04-26T04:01:26Z</time>
      </trkpt>
      <trkpt lat="47.78019" lon="3.57793">
        <ele>173.17</ele>
        <time>2015-04-26T04:01:27Z</time>
      </trkpt>
      <trkpt lat="47.78021" lon="3.57792">
        <ele>178.94</ele>
        <time>2015-04-26T04:01:28Z</time>
      </trkpt>
      <trkpt lat="47.7803" lon="3.57796">
        <ele>176.54</ele>
        <time>2015-04-26T04:01:43Z</time>
      </trkpt>
      <trkpt lat="47.78034" lon="3.57795">
        <ele>176.54</ele>
        <time>2015-04-26T04:02:03Z</time>
      </trkpt>
      <trkpt lat="47.78033" lon="3.57797">
        <ele>173.66</ele>
        <time>2015-04-26T04:02:13Z</time>
      </trkpt>
      <trkpt lat="47.78033" lon="3.57795">
        <ele>171.25</ele>
        <time>2015-04-26T04:02:17Z</time>
      </trkpt>
      <trkpt lat="47.78034" lon="3.57793">
        <ele>167.89</ele>
        <time>2015-04-26T04:02:23Z</time>
      </trkpt>
      <trkpt lat="47.78034" lon="3.57791">
        <ele>164.52</ele>
        <time>2015-04-26T04:02:29Z</time>
      </trkpt>
      <trkpt lat="47.78033" lon="3.57792">
        <ele>162.12</ele>
        <time>2015-04-26T04:02:37Z</time>
      </trkpt>
      <trkpt lat="47.78032" lon="3.57793">
        <ele>160.68</ele>
        <time>2015-04-26T04:02:40Z</time>
      </trkpt>
      <trkpt lat="47.78032" lon="3.57794">
        <ele>160.2</ele>
        <time>2015-04-26T04:02:44Z</time>
      </trkpt>
      <trkpt lat="47.78032" lon="3.57794">
        <ele>154.91</ele>
        <time>2015-04-26T04:02:47Z</time>
      </trkpt>
      <trkpt lat="47.78032" lon="3.57794">
        <ele>160.68</ele>
        <time>2015-04-26T04:02:48Z</time>
      </trkpt>
      <trkpt lat="47.78032" lon="3.57795">
        <ele>157.31</ele>
        <time>2015-04-26T04:02:51Z</time>
      </trkpt>
      <trkpt lat="47.78032" lon="3.57795">
        <ele>157.31</ele>
        <time>2015-04-26T04:02:52Z</time>
      </trkpt>
      <trkpt lat="47.78031" lon="3.57793">
        <ele>153.95</ele>
        <time>2015-04-26T04:03:05Z</time>
      </trkpt>
      <trkpt lat="47.7803" lon="3.57792">
        <ele>145.3</ele>
        <time>2015-04-26T04:03:16Z</time>
      </trkpt>
      <trkpt lat="47.7803" lon="3.57792">
        <ele>158.75</ele>
        <time>2015-04-26T04:03:17Z</time>
      </trkpt>
      <trkpt lat="47.7803" lon="3.57792">
        <ele>152.03</ele>
        <time>2015-04-26T04:03:18Z</time>
      </trkpt>
      <trkpt lat="47.78031" lon="3.57793">
        <ele>151.06</ele>
        <time>2015-04-26T04:03:22Z</time>
      </trkpt>
      <trkpt lat="47.78034" lon="3.57792">
        <ele>150.1</ele>
        <time>2015-04-26T04:03:42Z</time>
      </trkpt>
      <trkpt lat="47.78033" lon="3.57793">
        <ele>151.06</ele>
        <time>2015-04-26T04:03:48Z</time>
      </trkpt>
      <trkpt lat="47.78033" lon="3.57793">
        <ele>148.18</ele>
        <time>2015-04-26T04:03:50Z</time>
      </trkpt>
      <trkpt lat="47.78033" lon="3.57793">
        <ele>148.18</ele>
        <time>2015-04-26T04:03:51Z</time>
      </trkpt>
      <trkpt lat="47.78033" lon="3.57793">
        <ele>155.39</ele>
        <time>2015-04-26T04:03:52Z</time>
      </trkpt>
      <trkpt lat="47.78033" lon="3.57793">
        <ele>151.54</ele>
        <time>2015-04-26T04:03:53Z</time>
      </trkpt>
      <trkpt lat="47.78034" lon="3.57793">
        <ele>151.54</ele>
        <time>2015-04-26T04:04:09Z</time>
      </trkpt>
      <trkpt lat="47.78033" lon="3.57793">
        <ele>152.03</ele>
        <time>2015-04-26T04:04:25Z</time>
      </trkpt>
      <trkpt lat="47.78035" lon="3.57792">
        <ele>151.54</ele>
        <time>2015-04-26T04:04:48Z</time>
      </trkpt>
      <trkpt lat="47.78036" lon="3.57792">
        <ele>151.54</ele>
        <time>2015-04-26T04:05:12Z</time>
      </trkpt>
      <trkpt lat="47.78035" lon="3.57792">
        <ele>151.06</ele>
        <time>2015-04-26T04:05:29Z</time>
      </trkpt>
      <trkpt lat="47.78036" lon="3.57792">
        <ele>146.74</ele>
        <time>2015-04-26T04:05:32Z</time>
      </trkpt>
      <trkpt lat="47.78036" lon="3.57792">
        <ele>146.74</ele>
        <time>2015-04-26T04:05:33Z</time>
      </trkpt>
      <trkpt lat="47.78036" lon="3.57792">
        <ele>154.91</ele>
        <time>2015-04-26T04:05:34Z</time>
      </trkpt>
      <trkpt lat="47.78036" lon="3.57792">
        <ele>152.03</ele>
        <time>2015-04-26T04:05:35Z</time>
      </trkpt>
      <trkpt lat="47.78035" lon="3.57792">
        <ele>152.03</ele>
        <time>2015-04-26T04:05:56Z</time>
      </trkpt>
      <trkpt lat="47.78035" lon="3.57793">
        <ele>143.85</ele>
        <time>2015-04-26T04:06:14Z</time>
      </trkpt>
      <trkpt lat="47.78035" lon="3.57793">
        <ele>156.83</ele>
        <time>2015-04-26T04:06:15Z</time>
      </trkpt>
      <trkpt lat="47.78035" lon="3.57793">
        <ele>152.51</ele>
        <time>2015-04-26T04:06:16Z</time>
      </trkpt>
      <trkpt lat="47.78035" lon="3.57793">
        <ele>146.74</ele>
        <time>2015-04-26T04:06:20Z</time>
      </trkpt>
      <trkpt lat="47.78035" lon="3.57793">
        <ele>155.39</ele>
        <time>2015-04-26T04:06:21Z</time>
      </trkpt>
      <trkpt lat="47.78035" lon="3.57793">
        <ele>151.54</ele>
        <time>2015-04-26T04:06:22Z</time>
      </trkpt>
      <trkpt lat="47.78035" lon="3.57792">
        <ele>151.54</ele>
        <time>2015-04-26T04:06:44Z</time>
      </trkpt>
      <trkpt lat="47.78035" lon="3.57793">
        <ele>151.54</ele>
        <time>2015-04-26T04:07:07Z</time>
      </trkpt>
      <trkpt lat="47.78034" lon="3.57793">
        <ele>152.03</ele>
        <time>2015-04-26T04:07:28Z</time>
      </trkpt>
      <trkpt lat="47.78035" lon="3.57792">
        <ele>151.54</ele>
        <time>2015-04-26T04:07:52Z</time>
      </trkpt>
      <trkpt lat="47.78035" lon="3.57792">
        <ele>147.22</ele>
        <time>2015-04-26T04:08:05Z</time>
      </trkpt>
      <trkpt lat="47.78035" lon="3.57792">
        <ele>153.95</ele>
        <time>2015-04-26T04:08:06Z</time>
      </trkpt>
      <trkpt lat="47.78035" lon="3.57793">
        <ele>150.58</ele>
        <time>2015-04-26T04:08:09Z</time>
      </trkpt>
      <trkpt lat="47.78035" lon="3.57792">
        <ele>152.03</ele>
        <time>2015-04-26T04:08:27Z</time>
      </trkpt>
      <trkpt lat="47.78035" lon="3.57793">
        <ele>152.03</ele>
        <time>2015-04-26T04:08:52Z</time>
      </trkpt>
      <trkpt lat="47.78035" lon="3.57794">
        <ele>151.54</ele>
        <time>2015-04-26T04:09:06Z</time>
      </trkpt>
      <trkpt lat="47.78035" lon="3.57798">
        <ele>151.06</ele>
        <time>2015-04-26T04:09:15Z</time>
      </trkpt>
      <trkpt lat="47.78024" lon="3.57815">
        <ele>151.54</ele>
        <time>2015-04-26T04:09:26Z</time>
      </trkpt>
      <trkpt lat="47.78012" lon="3.57833">
        <ele>152.99</ele>
        <time>2015-04-26T04:09:41Z</time>
      </trkpt>
      <trkpt lat="47.77997" lon="3.57848">
        <ele>152.03</ele>
        <time>2015-04-26T04:09:55Z</time>
      </trkpt>
      <trkpt lat="47.77983" lon="3.5786">
        <ele>152.99</ele>
        <time>2015-04-26T04:10:08Z</time>
      </trkpt>
      <trkpt lat="47.77969" lon="3.57877">
        <ele>153.95</ele>
        <time>2015-04-26T04:10:22Z</time>
      </trkpt>
      <trkpt lat="47.77962" lon="3.57885">
        <ele>153.95</ele>
        <time>2015-04-26T04:10:29Z</time>
      </trkpt>
      <trkpt lat="47.77945" lon="3.57877">
        <ele>154.91</ele>
        <time>2015-04-26T04:10:43Z</time>
      </trkpt>
      <trkpt lat="47.77934" lon="3.57853">
        <ele>155.39</ele>
        <time>2015-04-26T04:10:58Z</time>
      </trkpt>
      <trkpt lat="47.77934" lon="3.57852">
        <ele>155.39</ele>
        <time>2015-04-26T04:10:59Z</time>
      </trkpt>
      <trkpt lat="47.77924" lon="3.57827">
        <ele>156.35</ele>
        <time>2015-04-26T04:11:12Z</time>
      </trkpt>
      <trkpt lat="47.7792" lon="3.57815">
        <ele>156.35</ele>
        <time>2015-04-26T04:11:19Z</time>
      </trkpt>
      <trkpt lat="47.77912" lon="3.57796">
        <ele>156.83</ele>
        <time>2015-04-26T04:11:31Z</time>
      </trkpt>
      <trkpt lat="47.77908" lon="3.57789">
        <ele>156.83</ele>
        <time>2015-04-26T04:11:35Z</time>
      </trkpt>
      <trkpt lat="47.77907" lon="3.57784">
        <ele>157.31</ele>
        <time>2015-04-26T04:11:37Z</time>
      </trkpt>
      <trkpt lat="47.77905" lon="3.57776">
        <ele>157.31</ele>
        <time>2015-04-26T04:11:41Z</time>
      </trkpt>
      <trkpt lat="47.77892" lon="3.57751">
        <ele>157.31</ele>
        <time>2015-04-26T04:11:56Z</time>
      </trkpt>
      <trkpt lat="47.77892" lon="3.57749">
        <ele>157.31</ele>
        <time>2015-04-26T04:11:57Z</time>
      </trkpt>
      <trkpt lat="47.77887" lon="3.57739">
        <ele>157.31</ele>
        <time>2015-04-26T04:12:03Z</time>
      </trkpt>
      <trkpt lat="47.7788" lon="3.57709">
        <ele>157.31</ele>
        <time>2015-04-26T04:12:19Z</time>
      </trkpt>
      <trkpt lat="47.77874" lon="3.57681">
        <ele>156.83</ele>
        <time>2015-04-26T04:12:33Z</time>
      </trkpt>
      <trkpt lat="47.77871" lon="3.57659">
        <ele>156.35</ele>
        <time>2015-04-26T04:12:44Z</time>
      </trkpt>
      <trkpt lat="47.77866" lon="3.57649">
        <ele>156.35</ele>
        <time>2015-04-26T04:12:51Z</time>
      </trkpt>
      <trkpt lat="47.77843" lon="3.57659">
        <ele>156.83</ele>
        <time>2015-04-26T04:13:08Z</time>
      </trkpt>
      <trkpt lat="47.77828" lon="3.57665">
        <ele>157.79</ele>
        <time>2015-04-26T04:13:22Z</time>
      </trkpt>
      <trkpt lat="47.77812" lon="3.57672">
        <ele>157.79</ele>
        <time>2015-04-26T04:13:35Z</time>
      </trkpt>
      <trkpt lat="47.77797" lon="3.5768">
        <ele>159.24</ele>
        <time>2015-04-26T04:13:48Z</time>
      </trkpt>
      <trkpt lat="47.7778" lon="3.5769">
        <ele>160.68</ele>
        <time>2015-04-26T04:14:02Z</time>
      </trkpt>
      <trkpt lat="47.77764" lon="3.57699">
        <ele>161.16</ele>
        <time>2015-04-26T04:14:15Z</time>
      </trkpt>
      <trkpt lat="47.77749" lon="3.57708">
        <ele>162.6</ele>
        <time>2015-04-26T04:14:28Z</time>
      </trkpt>
      <trkpt lat="47.77743" lon="3.57711">
        <ele>163.08</ele>
        <time>2015-04-26T04:14:33Z</time>
      </trkpt>
      <trkpt lat="47.77731" lon="3.57717">
        <ele>164.04</ele>
        <time>2015-04-26T04:14:43Z</time>
      </trkpt>
      <trkpt lat="47.77725" lon="3.57722">
        <ele>164.52</ele>
        <time>2015-04-26T04:14:49Z</time>
      </trkpt>
      <trkpt lat="47.77709" lon="3.5773">
        <ele>165</ele>
        <time>2015-04-26T04:15:02Z</time>
      </trkpt>
      <trkpt lat="47.77692" lon="3.5774">
        <ele>166.45</ele>
        <time>2015-04-26T04:15:16Z</time>
      </trkpt>
      <trkpt lat="47.77675" lon="3.57749">
        <ele>167.41</ele>
        <time>2015-04-26T04:15:30Z</time>
      </trkpt>
      <trkpt lat="47.77673" lon="3.57751">
        <ele>167.89</ele>
        <time>2015-04-26T04:15:32Z</time>
      </trkpt>
      <trkpt lat="47.77661" lon="3.57759">
        <ele>168.85</ele>
        <time>2015-04-26T04:15:43Z</time>
      </trkpt>
      <trkpt lat="47.77642" lon="3.57766">
        <ele>169.81</ele>
        <time>2015-04-26T04:15:58Z</time>
      </trkpt>
      <trkpt lat="47.77622" lon="3.57779">
        <ele>170.77</ele>
        <time>2015-04-26T04:16:14Z</time>
      </trkpt>
      <trkpt lat="47.77606" lon="3.57787">
        <ele>171.73</ele>
        <time>2015-04-26T04:16:28Z</time>
      </trkpt>
      <trkpt lat="47.77598" lon="3.57792">
        <ele>171.73</ele>
        <time>2015-04-26T04:16:34Z</time>
      </trkpt>
      <trkpt lat="47.77586" lon="3.578">
        <ele>172.69</ele>
        <time>2015-04-26T04:16:43Z</time>
      </trkpt>
      <trkpt lat="47.77566" lon="3.57811">
        <ele>172.69</ele>
        <time>2015-04-26T04:17:00Z</time>
      </trkpt>
      <trkpt lat="47.77547" lon="3.57825">
        <ele>173.66</ele>
        <time>2015-04-26T04:17:15Z</time>
      </trkpt>
      <trkpt lat="47.77528" lon="3.57837">
        <ele>174.14</ele>
        <time>2015-04-26T04:17:31Z</time>
      </trkpt>
      <trkpt lat="47.77506" lon="3.57853">
        <ele>175.1</ele>
        <time>2015-04-26T04:17:48Z</time>
      </trkpt>
      <trkpt lat="47.77503" lon="3.57854">
        <ele>175.1</ele>
        <time>2015-04-26T04:17:50Z</time>
      </trkpt>
      <trkpt lat="47.77481" lon="3.57872">
        <ele>175.58</ele>
        <time>2015-04-26T04:18:08Z</time>
      </trkpt>
      <trkpt lat="47.77472" lon="3.57877">
        <ele>176.06</ele>
        <time>2015-04-26T04:18:15Z</time>
      </trkpt>
      <trkpt lat="47.77452" lon="3.57895">
        <ele>176.54</ele>
        <time>2015-04-26T04:18:31Z</time>
      </trkpt>
      <trkpt lat="47.77432" lon="3.5791">
        <ele>176.54</ele>
        <time>2015-04-26T04:18:47Z</time>
      </trkpt>
      <trkpt lat="47.77416" lon="3.57921">
        <ele>177.5</ele>
        <time>2015-04-26T04:19:01Z</time>
      </trkpt>
      <trkpt lat="47.77396" lon="3.57935">
        <ele>177.5</ele>
        <time>2015-04-26T04:19:16Z</time>
      </trkpt>
      <trkpt lat="47.77375" lon="3.57949">
        <ele>177.98</ele>
        <time>2015-04-26T04:19:33Z</time>
      </trkpt>
      <trkpt lat="47.77353" lon="3.57963">
        <ele>178.46</ele>
        <time>2015-04-26T04:19:49Z</time>
      </trkpt>
      <trkpt lat="47.77334" lon="3.57973">
        <ele>178.94</ele>
        <time>2015-04-26T04:20:05Z</time>
      </trkpt>
      <trkpt lat="47.7732" lon="3.5798">
        <ele>178.46</ele>
        <time>2015-04-26T04:20:15Z</time>
      </trkpt>
      <trkpt lat="47.77303" lon="3.57989">
        <ele>178.94</ele>
        <time>2015-04-26T04:20:29Z</time>
      </trkpt>
      <trkpt lat="47.77291" lon="3.57993">
        <ele>178.94</ele>
        <time>2015-04-26T04:20:38Z</time>
      </trkpt>
      <trkpt lat="47.77279" lon="3.57997">
        <ele>179.42</ele>
        <time>2015-04-26T04:20:47Z</time>
      </trkpt>
      <trkpt lat="47.77269" lon="3.58002">
        <ele>179.9</ele>
        <time>2015-04-26T04:20:54Z</time>
      </trkpt>
      <trkpt lat="47.7726" lon="3.58008">
        <ele>179.9</ele>
        <time>2015-04-26T04:21:01Z</time>
      </trkpt>
      <trkpt lat="47.77254" lon="3.5801">
        <ele>179.9</ele>
        <time>2015-04-26T04:21:07Z</time>
      </trkpt>
      <trkpt lat="47.77245" lon="3.58012">
        <ele>179.9</ele>
        <time>2015-04-26T04:21:13Z</time>
      </trkpt>
      <trkpt lat="47.77221" lon="3.58018">
        <ele>180.38</ele>
        <time>2015-04-26T04:21:30Z</time>
      </trkpt>
      <trkpt lat="47.77202" lon="3.58022">
        <ele>180.38</ele>
        <time>2015-04-26T04:21:43Z</time>
      </trkpt>
      <trkpt lat="47.77198" lon="3.58022">
        <ele>180.38</ele>
        <time>2015-04-26T04:21:46Z</time>
      </trkpt>
      <trkpt lat="47.77193" lon="3.58024">
        <ele>180.38</ele>
        <time>2015-04-26T04:21:50Z</time>
      </trkpt>
      <trkpt lat="47.77172" lon="3.58034">
        <ele>180.87</ele>
        <time>2015-04-26T04:22:06Z</time>
      </trkpt>
      <trkpt lat="47.77168" lon="3.58034">
        <ele>180.87</ele>
        <time>2015-04-26T04:22:09Z</time>
      </trkpt>
      <trkpt lat="47.7716" lon="3.58035">
        <ele>180.87</ele>
        <time>2015-04-26T04:22:15Z</time>
      </trkpt>
      <trkpt lat="47.77138" lon="3.58047">
        <ele>181.35</ele>
        <time>2015-04-26T04:22:31Z</time>
      </trkpt>
      <trkpt lat="47.77118" lon="3.58052">
        <ele>181.83</ele>
        <time>2015-04-26T04:22:46Z</time>
      </trkpt>
      <trkpt lat="47.771" lon="3.58061">
        <ele>181.83</ele>
        <time>2015-04-26T04:22:59Z</time>
      </trkpt>
      <trkpt lat="47.77096" lon="3.58062">
        <ele>182.31</ele>
        <time>2015-04-26T04:23:03Z</time>
      </trkpt>
      <trkpt lat="47.77076" lon="3.5807">
        <ele>182.79</ele>
        <time>2015-04-26T04:23:18Z</time>
      </trkpt>
      <trkpt lat="47.77056" lon="3.58083">
        <ele>182.31</ele>
        <time>2015-04-26T04:23:32Z</time>
      </trkpt>
      <trkpt lat="47.77036" lon="3.58088">
        <ele>182.31</ele>
        <time>2015-04-26T04:23:47Z</time>
      </trkpt>
      <trkpt lat="47.77035" lon="3.58088">
        <ele>182.31</ele>
        <time>2015-04-26T04:23:48Z</time>
      </trkpt>
      <trkpt lat="47.77027" lon="3.58094">
        <ele>182.31</ele>
        <time>2015-04-26T04:23:54Z</time>
      </trkpt>
      <trkpt lat="47.77019" lon="3.58098">
        <ele>181.83</ele>
        <time>2015-04-26T04:24:00Z</time>
      </trkpt>
      <trkpt lat="47.77001" lon="3.58113">
        <ele>181.83</ele>
        <time>2015-04-26T04:24:14Z</time>
      </trkpt>
      <trkpt lat="47.7698" lon="3.58122">
        <ele>181.35</ele>
        <time>2015-04-26T04:24:30Z</time>
      </trkpt>
      <trkpt lat="47.76962" lon="3.58133">
        <ele>180.38</ele>
        <time>2015-04-26T04:24:44Z</time>
      </trkpt>
      <trkpt lat="47.76956" lon="3.58139">
        <ele>179.42</ele>
        <time>2015-04-26T04:24:49Z</time>
      </trkpt>
      <trkpt lat="47.76938" lon="3.58153">
        <ele>178.46</ele>
        <time>2015-04-26T04:25:02Z</time>
      </trkpt>
      <trkpt lat="47.76921" lon="3.58166">
        <ele>177.02</ele>
        <time>2015-04-26T04:25:15Z</time>
      </trkpt>
      <trkpt lat="47.76898" lon="3.58182">
        <ele>176.06</ele>
        <time>2015-04-26T04:25:31Z</time>
      </trkpt>
      <trkpt lat="47.76881" lon="3.58194">
        <ele>176.06</ele>
        <time>2015-04-26T04:25:44Z</time>
      </trkpt>
      <trkpt lat="47.7686" lon="3.58209">
        <ele>174.62</ele>
        <time>2015-04-26T04:26:01Z</time>
      </trkpt>
      <trkpt lat="47.7684" lon="3.58221">
        <ele>173.17</ele>
        <time>2015-04-26T04:26:16Z</time>
      </trkpt>
      <trkpt lat="47.7682" lon="3.58233">
        <ele>171.73</ele>
        <time>2015-04-26T04:26:29Z</time>
      </trkpt>
      <trkpt lat="47.76798" lon="3.58246">
        <ele>171.73</ele>
        <time>2015-04-26T04:26:45Z</time>
      </trkpt>
      <trkpt lat="47.76781" lon="3.58256">
        <ele>172.21</ele>
        <time>2015-04-26T04:26:57Z</time>
      </trkpt>
      <trkpt lat="47.76765" lon="3.58264">
        <ele>172.21</ele>
        <time>2015-04-26T04:27:10Z</time>
      </trkpt>
      <trkpt lat="47.76747" lon="3.58273">
        <ele>173.66</ele>
        <time>2015-04-26T04:27:23Z</time>
      </trkpt>
      <trkpt lat="47.76731" lon="3.58281">
        <ele>175.1</ele>
        <time>2015-04-26T04:27:36Z</time>
      </trkpt>
      <trkpt lat="47.7673" lon="3.58282">
        <ele>174.62</ele>
        <time>2015-04-26T04:27:37Z</time>
      </trkpt>
      <trkpt lat="47.76713" lon="3.58292">
        <ele>176.54</ele>
        <time>2015-04-26T04:27:50Z</time>
      </trkpt>
      <trkpt lat="47.76712" lon="3.58292">
        <ele>177.02</ele>
        <time>2015-04-26T04:27:51Z</time>
      </trkpt>
      <trkpt lat="47.76707" lon="3.58295">
        <ele>177.02</ele>
        <time>2015-04-26T04:27:55Z</time>
      </trkpt>
      <trkpt lat="47.76696" lon="3.58301">
        <ele>178.46</ele>
        <time>2015-04-26T04:28:04Z</time>
      </trkpt>
      <trkpt lat="47.76688" lon="3.58303">
        <ele>178.94</ele>
        <time>2015-04-26T04:28:09Z</time>
      </trkpt>
      <trkpt lat="47.76678" lon="3.5831">
        <ele>179.9</ele>
        <time>2015-04-26T04:28:17Z</time>
      </trkpt>
      <trkpt lat="47.76661" lon="3.58321">
        <ele>182.31</ele>
        <time>2015-04-26T04:28:30Z</time>
      </trkpt>
      <trkpt lat="47.76643" lon="3.58334">
        <ele>183.75</ele>
        <time>2015-04-26T04:28:45Z</time>
      </trkpt>
      <trkpt lat="47.76623" lon="3.5835">
        <ele>185.19</ele>
        <time>2015-04-26T04:29:00Z</time>
      </trkpt>
      <trkpt lat="47.76602" lon="3.58365">
        <ele>186.63</ele>
        <time>2015-04-26T04:29:16Z</time>
      </trkpt>
      <trkpt lat="47.76594" lon="3.58369">
        <ele>187.11</ele>
        <time>2015-04-26T04:29:22Z</time>
      </trkpt>
      <trkpt lat="47.76591" lon="3.58372">
        <ele>187.11</ele>
        <time>2015-04-26T04:29:25Z</time>
      </trkpt>
      <trkpt lat="47.76585" lon="3.58375">
        <ele>187.59</ele>
        <time>2015-04-26T04:29:29Z</time>
      </trkpt>
      <trkpt lat="47.76564" lon="3.58391">
        <ele>188.08</ele>
        <time>2015-04-26T04:29:44Z</time>
      </trkpt>
      <trkpt lat="47.76544" lon="3.58403">
        <ele>189.04</ele>
        <time>2015-04-26T04:29:57Z</time>
      </trkpt>
      <trkpt lat="47.76523" lon="3.58415">
        <ele>190</ele>
        <time>2015-04-26T04:30:10Z</time>
      </trkpt>
      <trkpt lat="47.765" lon="3.58421">
        <ele>190.48</ele>
        <time>2015-04-26T04:30:24Z</time>
      </trkpt>
      <trkpt lat="47.76493" lon="3.58423">
        <ele>190.48</ele>
        <time>2015-04-26T04:30:29Z</time>
      </trkpt>
      <trkpt lat="47.76472" lon="3.58433">
        <ele>190.96</ele>
        <time>2015-04-26T04:30:43Z</time>
      </trkpt>
      <trkpt lat="47.76463" lon="3.58439">
        <ele>191.92</ele>
        <time>2015-04-26T04:30:49Z</time>
      </trkpt>
      <trkpt lat="47.76435" lon="3.58451">
        <ele>191.92</ele>
        <time>2015-04-26T04:31:04Z</time>
      </trkpt>
      <trkpt lat="47.7641" lon="3.5846">
        <ele>191.92</ele>
        <time>2015-04-26T04:31:18Z</time>
      </trkpt>
      <trkpt lat="47.76395" lon="3.58468">
        <ele>193.84</ele>
        <time>2015-04-26T04:31:27Z</time>
      </trkpt>
      <trkpt lat="47.76382" lon="3.58473">
        <ele>194.32</ele>
        <time>2015-04-26T04:31:35Z</time>
      </trkpt>
      <trkpt lat="47.76359" lon="3.58482">
        <ele>193.84</ele>
        <time>2015-04-26T04:31:50Z</time>
      </trkpt>
      <trkpt lat="47.76342" lon="3.58492">
        <ele>193.84</ele>
        <time>2015-04-26T04:32:02Z</time>
      </trkpt>
      <trkpt lat="47.76317" lon="3.58504">
        <ele>193.36</ele>
        <time>2015-04-26T04:32:19Z</time>
      </trkpt>
      <trkpt lat="47.76296" lon="3.58514">
        <ele>192.4</ele>
        <time>2015-04-26T04:32:33Z</time>
      </trkpt>
      <trkpt lat="47.76274" lon="3.58521">
        <ele>191.92</ele>
        <time>2015-04-26T04:32:47Z</time>
      </trkpt>
      <trkpt lat="47.76255" lon="3.58527">
        <ele>190</ele>
        <time>2015-04-26T04:33:01Z</time>
      </trkpt>
      <trkpt lat="47.76234" lon="3.58532">
        <ele>189.04</ele>
        <time>2015-04-26T04:33:15Z</time>
      </trkpt>
      <trkpt lat="47.76213" lon="3.58543">
        <ele>187.59</ele>
        <time>2015-04-26T04:33:29Z</time>
      </trkpt>
      <trkpt lat="47.76187" lon="3.58557">
        <ele>186.63</ele>
        <time>2015-04-26T04:33:46Z</time>
      </trkpt>
      <trkpt lat="47.76179" lon="3.58563">
        <ele>187.11</ele>
        <time>2015-04-26T04:33:53Z</time>
      </trkpt>
      <trkpt lat="47.76159" lon="3.58569">
        <ele>186.63</ele>
        <time>2015-04-26T04:34:07Z</time>
      </trkpt>
      <trkpt lat="47.76137" lon="3.58581">
        <ele>187.59</ele>
        <time>2015-04-26T04:34:22Z</time>
      </trkpt>
      <trkpt lat="47.76135" lon="3.58582">
        <ele>187.11</ele>
        <time>2015-04-26T04:34:24Z</time>
      </trkpt>
      <trkpt lat="47.76131" lon="3.58585">
        <ele>187.59</ele>
        <time>2015-04-26T04:34:28Z</time>
      </trkpt>
      <trkpt lat="47.76114" lon="3.58589">
        <ele>188.08</ele>
        <time>2015-04-26T04:34:39Z</time>
      </trkpt>
      <trkpt lat="47.76089" lon="3.58605">
        <ele>187.59</ele>
        <time>2015-04-26T04:34:56Z</time>
      </trkpt>
      <trkpt lat="47.76071" lon="3.58617">
        <ele>187.11</ele>
        <time>2015-04-26T04:35:11Z</time>
      </trkpt>
      <trkpt lat="47.76055" lon="3.58632">
        <ele>187.11</ele>
        <time>2015-04-26T04:35:23Z</time>
      </trkpt>
      <trkpt lat="47.76033" lon="3.58652">
        <ele>186.15</ele>
        <time>2015-04-26T04:35:38Z</time>
      </trkpt>
      <trkpt lat="47.76019" lon="3.58661">
        <ele>185.19</ele>
        <time>2015-04-26T04:35:51Z</time>
      </trkpt>
      <trkpt lat="47.76012" lon="3.5867">
        <ele>184.71</ele>
        <time>2015-04-26T04:35:58Z</time>
      </trkpt>
      <trkpt lat="47.7599" lon="3.58689">
        <ele>183.27</ele>
        <time>2015-04-26T04:36:13Z</time>
      </trkpt>
      <trkpt lat="47.75988" lon="3.58691">
        <ele>183.27</ele>
        <time>2015-04-26T04:36:15Z</time>
      </trkpt>
      <trkpt lat="47.75977" lon="3.58696">
        <ele>182.79</ele>
        <time>2015-04-26T04:36:24Z</time>
      </trkpt>
      <trkpt lat="47.75954" lon="3.58717">
        <ele>181.35</ele>
        <time>2015-04-26T04:36:41Z</time>
      </trkpt>
      <trkpt lat="47.75944" lon="3.58726">
        <ele>180.87</ele>
        <time>2015-04-26T04:36:50Z</time>
      </trkpt>
      <trkpt lat="47.75922" lon="3.58742">
        <ele>179.42</ele>
        <time>2015-04-26T04:37:06Z</time>
      </trkpt>
      <trkpt lat="47.75904" lon="3.58751">
        <ele>176.54</ele>
        <time>2015-04-26T04:37:19Z</time>
      </trkpt>
      <trkpt lat="47.75889" lon="3.58755">
        <ele>173.17</ele>
        <time>2015-04-26T04:37:33Z</time>
      </trkpt>
      <trkpt lat="47.75884" lon="3.58757">
        <ele>171.73</ele>
        <time>2015-04-26T04:37:37Z</time>
      </trkpt>
      <trkpt lat="47.75873" lon="3.5876">
        <ele>168.85</ele>
        <time>2015-04-26T04:37:45Z</time>
      </trkpt>
      <trkpt lat="47.75869" lon="3.58761">
        <ele>166.93</ele>
        <time>2015-04-26T04:37:49Z</time>
      </trkpt>
      <trkpt lat="47.7586" lon="3.58761">
        <ele>164.52</ele>
        <time>2015-04-26T04:37:56Z</time>
      </trkpt>
      <trkpt lat="47.75851" lon="3.58763">
        <ele>161.16</ele>
        <time>2015-04-26T04:38:04Z</time>
      </trkpt>
      <trkpt lat="47.75851" lon="3.58763">
        <ele>161.16</ele>
        <time>2015-04-26T04:38:05Z</time>
      </trkpt>
      <trkpt lat="47.75845" lon="3.58762">
        <ele>159.24</ele>
        <time>2015-04-26T04:38:11Z</time>
      </trkpt>
      <trkpt lat="47.75842" lon="3.58763">
        <ele>157.79</ele>
        <time>2015-04-26T04:38:14Z</time>
      </trkpt>
      <trkpt lat="47.75829" lon="3.58757">
        <ele>154.43</ele>
        <time>2015-04-26T04:38:25Z</time>
      </trkpt>
      <trkpt lat="47.75826" lon="3.58755">
        <ele>154.43</ele>
        <time>2015-04-26T04:38:28Z</time>
      </trkpt>
      <trkpt lat="47.75816" lon="3.58754">
        <ele>151.06</ele>
        <time>2015-04-26T04:38:38Z</time>
      </trkpt>
      <trkpt lat="47.75807" lon="3.58755">
        <ele>148.66</ele>
        <time>2015-04-26T04:38:47Z</time>
      </trkpt>
      <trkpt lat="47.75795" lon="3.58755">
        <ele>145.3</ele>
        <time>2015-04-26T04:38:58Z</time>
      </trkpt>
      <trkpt lat="47.75787" lon="3.58759">
        <ele>141.93</ele>
        <time>2015-04-26T04:39:10Z</time>
      </trkpt>
      <trkpt lat="47.7578" lon="3.58762">
        <ele>140.01</ele>
        <time>2015-04-26T04:39:17Z</time>
      </trkpt>
      <trkpt lat="47.75779" lon="3.58762">
        <ele>139.53</ele>
        <time>2015-04-26T04:39:18Z</time>
      </trkpt>
      <trkpt lat="47.75776" lon="3.58763">
        <ele>139.05</ele>
        <time>2015-04-26T04:39:20Z</time>
      </trkpt>
      <trkpt lat="47.75773" lon="3.58765">
        <ele>138.09</ele>
        <time>2015-04-26T04:39:22Z</time>
      </trkpt>
      <trkpt lat="47.75762" lon="3.58773">
        <ele>135.2</ele>
        <time>2015-04-26T04:39:33Z</time>
      </trkpt>
      <trkpt lat="47.7575" lon="3.58776">
        <ele>131.84</ele>
        <time>2015-04-26T04:39:44Z</time>
      </trkpt>
      <trkpt lat="47.75741" lon="3.58779">
        <ele>128.95</ele>
        <time>2015-04-26T04:39:54Z</time>
      </trkpt>
      <trkpt lat="47.75728" lon="3.58783">
        <ele>125.59</ele>
        <time>2015-04-26T04:40:04Z</time>
      </trkpt>
      <trkpt lat="47.7572" lon="3.58787">
        <ele>122.71</ele>
        <time>2015-04-26T04:40:14Z</time>
      </trkpt>
      <trkpt lat="47.75707" lon="3.58797">
        <ele>119.34</ele>
        <time>2015-04-26T04:40:25Z</time>
      </trkpt>
      <trkpt lat="47.75701" lon="3.588">
        <ele>118.86</ele>
        <time>2015-04-26T04:40:29Z</time>
      </trkpt>
      <trkpt lat="47.75697" lon="3.58801">
        <ele>117.42</ele>
        <time>2015-04-26T04:40:32Z</time>
      </trkpt>
      <trkpt lat="47.75688" lon="3.58803">
        <ele>115.5</ele>
        <time>2015-04-26T04:40:38Z</time>
      </trkpt>
      <trkpt lat="47.75681" lon="3.58808">
        <ele>114.05</ele>
        <time>2015-04-26T04:40:42Z</time>
      </trkpt>
      <trkpt lat="47.75668" lon="3.58819">
        <ele>112.13</ele>
        <time>2015-04-26T04:40:51Z</time>
      </trkpt>
      <trkpt lat="47.75651" lon="3.5883">
        <ele>108.77</ele>
        <time>2015-04-26T04:41:03Z</time>
      </trkpt>
      <trkpt lat="47.75629" lon="3.58835">
        <ele>106.36</ele>
        <time>2015-04-26T04:41:16Z</time>
      </trkpt>
      <trkpt lat="47.75624" lon="3.58836">
        <ele>104.92</ele>
        <time>2015-04-26T04:41:22Z</time>
      </trkpt>
      <trkpt lat="47.75616" lon="3.58845">
        <ele>104.44</ele>
        <time>2015-04-26T04:41:27Z</time>
      </trkpt>
      <trkpt lat="47.75606" lon="3.58874">
        <ele>103.96</ele>
        <time>2015-04-26T04:41:43Z</time>
      </trkpt>
      <trkpt lat="47.75602" lon="3.58904">
        <ele>103</ele>
        <time>2015-04-26T04:41:56Z</time>
      </trkpt>
      <trkpt lat="47.75599" lon="3.58925">
        <ele>102.52</ele>
        <time>2015-04-26T04:42:08Z</time>
      </trkpt>
      <trkpt lat="47.75596" lon="3.58952">
        <ele>101.56</ele>
        <time>2015-04-26T04:42:21Z</time>
      </trkpt>
      <trkpt lat="47.75574" lon="3.58968">
        <ele>100.6</ele>
        <time>2015-04-26T04:42:36Z</time>
      </trkpt>
      <trkpt lat="47.75567" lon="3.58969">
        <ele>101.56</ele>
        <time>2015-04-26T04:42:40Z</time>
      </trkpt>
      <trkpt lat="47.75558" lon="3.58978">
        <ele>101.08</ele>
        <time>2015-04-26T04:42:45Z</time>
      </trkpt>
      <trkpt lat="47.7555" lon="3.58987">
        <ele>100.11</ele>
        <time>2015-04-26T04:42:52Z</time>
      </trkpt>
      <trkpt lat="47.75544" lon="3.5899">
        <ele>99.63</ele>
        <time>2015-04-26T04:42:58Z</time>
      </trkpt>
      <trkpt lat="47.7553" lon="3.58991">
        <ele>99.63</ele>
        <time>2015-04-26T04:43:07Z</time>
      </trkpt>
      <trkpt lat="47.75525" lon="3.58991">
        <ele>99.63</ele>
        <time>2015-04-26T04:43:10Z</time>
      </trkpt>
      <trkpt lat="47.75512" lon="3.5899">
        <ele>100.11</ele>
        <time>2015-04-26T04:43:16Z</time>
      </trkpt>
      <trkpt lat="47.75488" lon="3.58993">
        <ele>99.15</ele>
        <time>2015-04-26T04:43:30Z</time>
      </trkpt>
      <trkpt lat="47.75471" lon="3.59016">
        <ele>99.63</ele>
        <time>2015-04-26T04:43:44Z</time>
      </trkpt>
      <trkpt lat="47.7546" lon="3.59043">
        <ele>101.08</ele>
        <time>2015-04-26T04:43:57Z</time>
      </trkpt>
      <trkpt lat="47.75449" lon="3.59069">
        <ele>101.56</ele>
        <time>2015-04-26T04:44:11Z</time>
      </trkpt>
      <trkpt lat="47.75438" lon="3.59097">
        <ele>102.04</ele>
        <time>2015-04-26T04:44:23Z</time>
      </trkpt>
      <trkpt lat="47.75431" lon="3.59124">
        <ele>102.04</ele>
        <time>2015-04-26T04:44:37Z</time>
      </trkpt>
      <trkpt lat="47.75419" lon="3.59149">
        <ele>102.04</ele>
        <time>2015-04-26T04:44:50Z</time>
      </trkpt>
      <trkpt lat="47.75407" lon="3.59176">
        <ele>102.52</ele>
        <time>2015-04-26T04:45:03Z</time>
      </trkpt>
      <trkpt lat="47.75406" lon="3.59174">
        <ele>100.6</ele>
        <time>2015-04-26T04:45:15Z</time>
      </trkpt>
      <trkpt lat="47.75405" lon="3.59171">
        <ele>98.19</ele>
        <time>2015-04-26T04:45:23Z</time>
      </trkpt>
      <trkpt lat="47.75403" lon="3.59165">
        <ele>98.19</ele>
        <time>2015-04-26T04:45:28Z</time>
      </trkpt>
      <trkpt lat="47.75399" lon="3.59161">
        <ele>98.67</ele>
        <time>2015-04-26T04:45:32Z</time>
      </trkpt>
      <trkpt lat="47.75394" lon="3.59156">
        <ele>98.19</ele>
        <time>2015-04-26T04:45:36Z</time>
      </trkpt>
      <trkpt lat="47.7539" lon="3.5915">
        <ele>98.19</ele>
        <time>2015-04-26T04:45:39Z</time>
      </trkpt>
      <trkpt lat="47.75382" lon="3.59141">
        <ele>98.67</ele>
        <time>2015-04-26T04:45:44Z</time>
      </trkpt>
      <trkpt lat="47.75371" lon="3.59129">
        <ele>98.19</ele>
        <time>2015-04-26T04:45:51Z</time>
      </trkpt>
      <trkpt lat="47.75361" lon="3.5912">
        <ele>98.67</ele>
        <time>2015-04-26T04:45:59Z</time>
      </trkpt>
      <trkpt lat="47.75342" lon="3.59103">
        <ele>98.67</ele>
        <time>2015-04-26T04:46:12Z</time>
      </trkpt>
      <trkpt lat="47.75338" lon="3.59101">
        <ele>98.67</ele>
        <time>2015-04-26T04:46:15Z</time>
      </trkpt>
      <trkpt lat="47.75325" lon="3.59087">
        <ele>98.67</ele>
        <time>2015-04-26T04:46:28Z</time>
      </trkpt>
      <trkpt lat="47.7531" lon="3.59074">
        <ele>98.67</ele>
        <time>2015-04-26T04:46:40Z</time>
      </trkpt>
      <trkpt lat="47.75305" lon="3.59069">
        <ele>98.67</ele>
        <time>2015-04-26T04:46:44Z</time>
      </trkpt>
      <trkpt lat="47.75293" lon="3.59057">
        <ele>98.67</ele>
        <time>2015-04-26T04:46:55Z</time>
      </trkpt>
      <trkpt lat="47.75278" lon="3.59044">
        <ele>98.67</ele>
        <time>2015-04-26T04:47:07Z</time>
      </trkpt>
      <trkpt lat="47.75268" lon="3.59036">
        <ele>99.15</ele>
        <time>2015-04-26T04:47:14Z</time>
      </trkpt>
      <trkpt lat="47.75253" lon="3.59025">
        <ele>98.67</ele>
        <time>2015-04-26T04:47:26Z</time>
      </trkpt>
      <trkpt lat="47.75236" lon="3.59017">
        <ele>99.15</ele>
        <time>2015-04-26T04:47:42Z</time>
      </trkpt>
      <trkpt lat="47.75213" lon="3.59008">
        <ele>99.15</ele>
        <time>2015-04-26T04:47:56Z</time>
      </trkpt>
      <trkpt lat="47.75209" lon="3.59006">
        <ele>99.15</ele>
        <time>2015-04-26T04:47:59Z</time>
      </trkpt>
      <trkpt lat="47.75193" lon="3.58991">
        <ele>98.67</ele>
        <time>2015-04-26T04:48:12Z</time>
      </trkpt>
      <trkpt lat="47.7518" lon="3.58982">
        <ele>98.67</ele>
        <time>2015-04-26T04:48:22Z</time>
      </trkpt>
      <trkpt lat="47.75176" lon="3.5898">
        <ele>99.15</ele>
        <time>2015-04-26T04:48:24Z</time>
      </trkpt>
      <trkpt lat="47.75172" lon="3.58971">
        <ele>98.67</ele>
        <time>2015-04-26T04:48:29Z</time>
      </trkpt>
      <trkpt lat="47.75167" lon="3.58968">
        <ele>99.15</ele>
        <time>2015-04-26T04:48:34Z</time>
      </trkpt>
      <trkpt lat="47.7515" lon="3.58956">
        <ele>98.67</ele>
        <time>2015-04-26T04:48:48Z</time>
      </trkpt>
      <trkpt lat="47.75136" lon="3.5895">
        <ele>99.15</ele>
        <time>2015-04-26T04:48:58Z</time>
      </trkpt>
      <trkpt lat="47.75132" lon="3.58948">
        <ele>98.67</ele>
        <time>2015-04-26T04:49:01Z</time>
      </trkpt>
      <trkpt lat="47.75127" lon="3.58947">
        <ele>98.67</ele>
        <time>2015-04-26T04:49:05Z</time>
      </trkpt>
      <trkpt lat="47.75115" lon="3.58942">
        <ele>98.67</ele>
        <time>2015-04-26T04:49:15Z</time>
      </trkpt>
      <trkpt lat="47.7511" lon="3.5894">
        <ele>98.67</ele>
        <time>2015-04-26T04:49:22Z</time>
      </trkpt>
      <trkpt lat="47.75099" lon="3.58935">
        <ele>98.67</ele>
        <time>2015-04-26T04:49:36Z</time>
      </trkpt>
      <trkpt lat="47.75088" lon="3.58933">
        <ele>98.67</ele>
        <time>2015-04-26T04:49:45Z</time>
      </trkpt>
      <trkpt lat="47.75074" lon="3.58928">
        <ele>98.19</ele>
        <time>2015-04-26T04:49:58Z</time>
      </trkpt>
      <trkpt lat="47.75071" lon="3.58927">
        <ele>98.19</ele>
        <time>2015-04-26T04:50:00Z</time>
      </trkpt>
      <trkpt lat="47.75061" lon="3.58925">
        <ele>98.19</ele>
        <time>2015-04-26T04:50:13Z</time>
      </trkpt>
      <trkpt lat="47.75046" lon="3.58923">
        <ele>98.19</ele>
        <time>2015-04-26T04:50:25Z</time>
      </trkpt>
      <trkpt lat="47.75037" lon="3.58919">
        <ele>98.19</ele>
        <time>2015-04-26T04:50:33Z</time>
      </trkpt>
      <trkpt lat="47.75027" lon="3.58916">
        <ele>98.67</ele>
        <time>2015-04-26T04:50:38Z</time>
      </trkpt>
      <trkpt lat="47.75017" lon="3.58914">
        <ele>98.19</ele>
        <time>2015-04-26T04:50:44Z</time>
      </trkpt>
      <trkpt lat="47.75004" lon="3.58909">
        <ele>98.67</ele>
        <time>2015-04-26T04:50:49Z</time>
      </trkpt>
      <trkpt lat="47.74999" lon="3.58909">
        <ele>98.67</ele>
        <time>2015-04-26T04:50:53Z</time>
      </trkpt>
      <trkpt lat="47.74992" lon="3.58907">
        <ele>98.19</ele>
        <time>2015-04-26T04:50:59Z</time>
      </trkpt>
      <trkpt lat="47.74978" lon="3.58899">
        <ele>98.19</ele>
        <time>2015-04-26T04:51:10Z</time>
      </trkpt>
      <trkpt lat="47.74967" lon="3.58899">
        <ele>97.71</ele>
        <time>2015-04-26T04:51:16Z</time>
      </trkpt>
      <trkpt lat="47.74952" lon="3.58893">
        <ele>97.71</ele>
        <time>2015-04-26T04:51:28Z</time>
      </trkpt>
      <trkpt lat="47.74946" lon="3.5889">
        <ele>98.19</ele>
        <time>2015-04-26T04:51:32Z</time>
      </trkpt>
      <trkpt lat="47.7493" lon="3.58876">
        <ele>97.71</ele>
        <time>2015-04-26T04:51:45Z</time>
      </trkpt>
      <trkpt lat="47.74925" lon="3.58871">
        <ele>98.19</ele>
        <time>2015-04-26T04:51:50Z</time>
      </trkpt>
      <trkpt lat="47.7492" lon="3.58869">
        <ele>98.19</ele>
        <time>2015-04-26T04:51:53Z</time>
      </trkpt>
      <trkpt lat="47.74908" lon="3.58864">
        <ele>98.19</ele>
        <time>2015-04-26T04:52:03Z</time>
      </trkpt>
      <trkpt lat="47.74899" lon="3.58861">
        <ele>98.67</ele>
        <time>2015-04-26T04:52:11Z</time>
      </trkpt>
      <trkpt lat="47.74895" lon="3.58861">
        <ele>98.19</ele>
        <time>2015-04-26T04:52:14Z</time>
      </trkpt>
      <trkpt lat="47.74886" lon="3.58853">
        <ele>97.71</ele>
        <time>2015-04-26T04:52:21Z</time>
      </trkpt>
      <trkpt lat="47.74866" lon="3.58837">
        <ele>98.19</ele>
        <time>2015-04-26T04:52:34Z</time>
      </trkpt>
      <trkpt lat="47.74862" lon="3.58834">
        <ele>98.19</ele>
        <time>2015-04-26T04:52:41Z</time>
      </trkpt>
      <trkpt lat="47.74849" lon="3.58828">
        <ele>98.19</ele>
        <time>2015-04-26T04:52:52Z</time>
      </trkpt>
      <trkpt lat="47.74822" lon="3.58811">
        <ele>98.19</ele>
        <time>2015-04-26T04:53:06Z</time>
      </trkpt>
      <trkpt lat="47.74817" lon="3.58808">
        <ele>98.19</ele>
        <time>2015-04-26T04:53:10Z</time>
      </trkpt>
      <trkpt lat="47.74805" lon="3.58802">
        <ele>98.19</ele>
        <time>2015-04-26T04:53:23Z</time>
      </trkpt>
      <trkpt lat="47.74793" lon="3.58795">
        <ele>98.19</ele>
        <time>2015-04-26T04:53:35Z</time>
      </trkpt>
      <trkpt lat="47.7477" lon="3.58784">
        <ele>97.71</ele>
        <time>2015-04-26T04:53:49Z</time>
      </trkpt>
      <trkpt lat="47.74753" lon="3.58775">
        <ele>97.71</ele>
        <time>2015-04-26T04:54:03Z</time>
      </trkpt>
      <trkpt lat="47.74733" lon="3.58762">
        <ele>98.19</ele>
        <time>2015-04-26T04:54:19Z</time>
      </trkpt>
      <trkpt lat="47.74728" lon="3.58759">
        <ele>98.19</ele>
        <time>2015-04-26T04:54:23Z</time>
      </trkpt>
      <trkpt lat="47.74719" lon="3.58745">
        <ele>97.71</ele>
        <time>2015-04-26T04:54:30Z</time>
      </trkpt>
      <trkpt lat="47.74709" lon="3.58739">
        <ele>97.71</ele>
        <time>2015-04-26T04:54:40Z</time>
      </trkpt>
      <trkpt lat="47.74691" lon="3.58736">
        <ele>98.19</ele>
        <time>2015-04-26T04:54:51Z</time>
      </trkpt>
      <trkpt lat="47.7467" lon="3.58728">
        <ele>98.19</ele>
        <time>2015-04-26T04:55:04Z</time>
      </trkpt>
      <trkpt lat="47.74648" lon="3.58721">
        <ele>97.71</ele>
        <time>2015-04-26T04:55:18Z</time>
      </trkpt>
      <trkpt lat="47.74628" lon="3.58719">
        <ele>98.19</ele>
        <time>2015-04-26T04:55:32Z</time>
      </trkpt>
      <trkpt lat="47.74623" lon="3.58719">
        <ele>97.71</ele>
        <time>2015-04-26T04:55:37Z</time>
      </trkpt>
      <trkpt lat="47.74615" lon="3.58719">
        <ele>97.71</ele>
        <time>2015-04-26T04:55:43Z</time>
      </trkpt>
      <trkpt lat="47.74611" lon="3.58718">
        <ele>97.71</ele>
        <time>2015-04-26T04:55:46Z</time>
      </trkpt>
      <trkpt lat="47.74607" lon="3.58717">
        <ele>98.19</ele>
        <time>2015-04-26T04:55:49Z</time>
      </trkpt>
      <trkpt lat="47.74589" lon="3.58721">
        <ele>98.19</ele>
        <time>2015-04-26T04:56:02Z</time>
      </trkpt>
      <trkpt lat="47.74581" lon="3.58724">
        <ele>98.19</ele>
        <time>2015-04-26T04:56:07Z</time>
      </trkpt>
      <trkpt lat="47.74565" lon="3.58726">
        <ele>97.71</ele>
        <time>2015-04-26T04:56:20Z</time>
      </trkpt>
      <trkpt lat="47.74562" lon="3.58727">
        <ele>98.19</ele>
        <time>2015-04-26T04:56:22Z</time>
      </trkpt>
      <trkpt lat="47.74554" lon="3.58727">
        <ele>97.71</ele>
        <time>2015-04-26T04:56:28Z</time>
      </trkpt>
      <trkpt lat="47.7455" lon="3.58728">
        <ele>98.19</ele>
        <time>2015-04-26T04:56:31Z</time>
      </trkpt>
      <trkpt lat="47.7454" lon="3.58733">
        <ele>97.71</ele>
        <time>2015-04-26T04:56:40Z</time>
      </trkpt>
      <trkpt lat="47.74521" lon="3.58739">
        <ele>97.71</ele>
        <time>2015-04-26T04:56:54Z</time>
      </trkpt>
      <trkpt lat="47.74518" lon="3.5874">
        <ele>97.71</ele>
        <time>2015-04-26T04:56:57Z</time>
      </trkpt>
      <trkpt lat="47.74513" lon="3.58744">
        <ele>97.71</ele>
        <time>2015-04-26T04:57:01Z</time>
      </trkpt>
      <trkpt lat="47.74498" lon="3.5875">
        <ele>97.71</ele>
        <time>2015-04-26T04:57:12Z</time>
      </trkpt>
      <trkpt lat="47.74495" lon="3.58751">
        <ele>97.71</ele>
        <time>2015-04-26T04:57:14Z</time>
      </trkpt>
      <trkpt lat="47.74482" lon="3.58754">
        <ele>97.71</ele>
        <time>2015-04-26T04:57:21Z</time>
      </trkpt>
      <trkpt lat="47.74477" lon="3.58759">
        <ele>98.19</ele>
        <time>2015-04-26T04:57:25Z</time>
      </trkpt>
      <trkpt lat="47.74469" lon="3.58762">
        <ele>97.71</ele>
        <time>2015-04-26T04:57:30Z</time>
      </trkpt>
      <trkpt lat="47.74459" lon="3.58772">
        <ele>98.19</ele>
        <time>2015-04-26T04:57:43Z</time>
      </trkpt>
      <trkpt lat="47.74454" lon="3.58778">
        <ele>98.19</ele>
        <time>2015-04-26T04:57:49Z</time>
      </trkpt>
      <trkpt lat="47.74442" lon="3.58783">
        <ele>97.71</ele>
        <time>2015-04-26T04:58:01Z</time>
      </trkpt>
      <trkpt lat="47.7443" lon="3.58794">
        <ele>97.71</ele>
        <time>2015-04-26T04:58:13Z</time>
      </trkpt>
      <trkpt lat="47.74416" lon="3.588">
        <ele>97.23</ele>
        <time>2015-04-26T04:58:22Z</time>
      </trkpt>
      <trkpt lat="47.74407" lon="3.58806">
        <ele>97.71</ele>
        <time>2015-04-26T04:58:30Z</time>
      </trkpt>
      <trkpt lat="47.74399" lon="3.58812">
        <ele>97.71</ele>
        <time>2015-04-26T04:58:37Z</time>
      </trkpt>
      <trkpt lat="47.74389" lon="3.58816">
        <ele>97.71</ele>
        <time>2015-04-26T04:58:45Z</time>
      </trkpt>
      <trkpt lat="47.74378" lon="3.58821">
        <ele>97.23</ele>
        <time>2015-04-26T04:58:53Z</time>
      </trkpt>
      <trkpt lat="47.74359" lon="3.58831">
        <ele>97.23</ele>
        <time>2015-04-26T04:59:04Z</time>
      </trkpt>
      <trkpt lat="47.74348" lon="3.58837">
        <ele>97.71</ele>
        <time>2015-04-26T04:59:14Z</time>
      </trkpt>
      <trkpt lat="47.74344" lon="3.58841">
        <ele>97.71</ele>
        <time>2015-04-26T04:59:18Z</time>
      </trkpt>
      <trkpt lat="47.74329" lon="3.5885">
        <ele>96.75</ele>
        <time>2015-04-26T04:59:28Z</time>
      </trkpt>
      <trkpt lat="47.74326" lon="3.5885">
        <ele>96.75</ele>
        <time>2015-04-26T04:59:30Z</time>
      </trkpt>
      <trkpt lat="47.74314" lon="3.5886">
        <ele>97.71</ele>
        <time>2015-04-26T04:59:38Z</time>
      </trkpt>
      <trkpt lat="47.74306" lon="3.58867">
        <ele>97.71</ele>
        <time>2015-04-26T04:59:44Z</time>
      </trkpt>
      <trkpt lat="47.74284" lon="3.5888">
        <ele>97.23</ele>
        <time>2015-04-26T04:59:59Z</time>
      </trkpt>
      <trkpt lat="47.74275" lon="3.58885">
        <ele>97.71</ele>
        <time>2015-04-26T05:00:07Z</time>
      </trkpt>
      <trkpt lat="47.74267" lon="3.58893">
        <ele>97.71</ele>
        <time>2015-04-26T05:00:15Z</time>
      </trkpt>
      <trkpt lat="47.74256" lon="3.58904">
        <ele>97.23</ele>
        <time>2015-04-26T05:00:28Z</time>
      </trkpt>
      <trkpt lat="47.74242" lon="3.58911">
        <ele>97.23</ele>
        <time>2015-04-26T05:00:37Z</time>
      </trkpt>
      <trkpt lat="47.74221" lon="3.58927">
        <ele>98.19</ele>
        <time>2015-04-26T05:00:52Z</time>
      </trkpt>
      <trkpt lat="47.74208" lon="3.58937">
        <ele>97.23</ele>
        <time>2015-04-26T05:01:01Z</time>
      </trkpt>
      <trkpt lat="47.74192" lon="3.58947">
        <ele>97.71</ele>
        <time>2015-04-26T05:01:14Z</time>
      </trkpt>
      <trkpt lat="47.74171" lon="3.58968">
        <ele>97.71</ele>
        <time>2015-04-26T05:01:31Z</time>
      </trkpt>
      <trkpt lat="47.74159" lon="3.58976">
        <ele>97.71</ele>
        <time>2015-04-26T05:01:40Z</time>
      </trkpt>
      <trkpt lat="47.74147" lon="3.58988">
        <ele>97.71</ele>
        <time>2015-04-26T05:01:52Z</time>
      </trkpt>
      <trkpt lat="47.74145" lon="3.58992">
        <ele>97.23</ele>
        <time>2015-04-26T05:01:55Z</time>
      </trkpt>
      <trkpt lat="47.7414" lon="3.59002">
        <ele>97.23</ele>
        <time>2015-04-26T05:02:02Z</time>
      </trkpt>
      <trkpt lat="47.74142" lon="3.59012">
        <ele>97.71</ele>
        <time>2015-04-26T05:02:16Z</time>
      </trkpt>
      <trkpt lat="47.74141" lon="3.59015">
        <ele>97.71</ele>
        <time>2015-04-26T05:02:44Z</time>
      </trkpt>
      <trkpt lat="47.74135" lon="3.59005">
        <ele>97.71</ele>
        <time>2015-04-26T05:03:00Z</time>
      </trkpt>
      <trkpt lat="47.74135" lon="3.59005">
        <ele>97.23</ele>
        <time>2015-04-26T05:03:17Z</time>
      </trkpt>
      <trkpt lat="47.74134" lon="3.59005">
        <ele>97.23</ele>
        <time>2015-04-26T05:03:40Z</time>
      </trkpt>
      <trkpt lat="47.74133" lon="3.59004">
        <ele>97.23</ele>
        <time>2015-04-26T05:04:07Z</time>
      </trkpt>
      <trkpt lat="47.74133" lon="3.59005">
        <ele>97.71</ele>
        <time>2015-04-26T05:04:12Z</time>
      </trkpt>
      <trkpt lat="47.74122" lon="3.59018">
        <ele>97.23</ele>
        <time>2015-04-26T05:04:26Z</time>
      </trkpt>
      <trkpt lat="47.7412" lon="3.59021">
        <ele>97.23</ele>
        <time>2015-04-26T05:04:28Z</time>
      </trkpt>
      <trkpt lat="47.74109" lon="3.59036">
        <ele>97.23</ele>
        <time>2015-04-26T05:04:37Z</time>
      </trkpt>
      <trkpt lat="47.74107" lon="3.59059">
        <ele>97.71</ele>
        <time>2015-04-26T05:04:49Z</time>
      </trkpt>
      <trkpt lat="47.74105" lon="3.59072">
        <ele>98.19</ele>
        <time>2015-04-26T05:04:55Z</time>
      </trkpt>
      <trkpt lat="47.74103" lon="3.59077">
        <ele>98.19</ele>
        <time>2015-04-26T05:04:57Z</time>
      </trkpt>
      <trkpt lat="47.74102" lon="3.59097">
        <ele>98.67</ele>
        <time>2015-04-26T05:05:05Z</time>
      </trkpt>
      <trkpt lat="47.74104" lon="3.59112">
        <ele>98.67</ele>
        <time>2015-04-26T05:05:14Z</time>
      </trkpt>
      <trkpt lat="47.74106" lon="3.59119">
        <ele>98.67</ele>
        <time>2015-04-26T05:05:17Z</time>
      </trkpt>
      <trkpt lat="47.7411" lon="3.59153">
        <ele>98.67</ele>
        <time>2015-04-26T05:05:30Z</time>
      </trkpt>
      <trkpt lat="47.74114" lon="3.59186">
        <ele>98.67</ele>
        <time>2015-04-26T05:05:45Z</time>
      </trkpt>
      <trkpt lat="47.74116" lon="3.59204">
        <ele>98.67</ele>
        <time>2015-04-26T05:05:54Z</time>
      </trkpt>
      <trkpt lat="47.74115" lon="3.59213">
        <ele>98.67</ele>
        <time>2015-04-26T05:05:58Z</time>
      </trkpt>
      <trkpt lat="47.74118" lon="3.59235">
        <ele>98.67</ele>
        <time>2015-04-26T05:06:08Z</time>
      </trkpt>
      <trkpt lat="47.74122" lon="3.59258">
        <ele>99.15</ele>
        <time>2015-04-26T05:06:19Z</time>
      </trkpt>
      <trkpt lat="47.74121" lon="3.59279">
        <ele>99.15</ele>
        <time>2015-04-26T05:06:29Z</time>
      </trkpt>
      <trkpt lat="47.74111" lon="3.59284">
        <ele>99.15</ele>
        <time>2015-04-26T05:06:33Z</time>
      </trkpt>
      <trkpt lat="47.74089" lon="3.5929">
        <ele>99.63</ele>
        <time>2015-04-26T05:06:48Z</time>
      </trkpt>
      <trkpt lat="47.74066" lon="3.59297">
        <ele>99.15</ele>
        <time>2015-04-26T05:07:03Z</time>
      </trkpt>
      <trkpt lat="47.74053" lon="3.59302">
        <ele>98.67</ele>
        <time>2015-04-26T05:07:13Z</time>
      </trkpt>
      <trkpt lat="47.74044" lon="3.59305">
        <ele>99.15</ele>
        <time>2015-04-26T05:07:22Z</time>
      </trkpt>
      <trkpt lat="47.7404" lon="3.59312">
        <ele>99.15</ele>
        <time>2015-04-26T05:07:26Z</time>
      </trkpt>
      <trkpt lat="47.74024" lon="3.59343">
        <ele>99.63</ele>
        <time>2015-04-26T05:07:42Z</time>
      </trkpt>
      <trkpt lat="47.74023" lon="3.59344">
        <ele>99.15</ele>
        <time>2015-04-26T05:07:43Z</time>
      </trkpt>
      <trkpt lat="47.74018" lon="3.59353">
        <ele>99.63</ele>
        <time>2015-04-26T05:07:48Z</time>
      </trkpt>
      <trkpt lat="47.74017" lon="3.59359">
        <ele>99.15</ele>
        <time>2015-04-26T05:07:51Z</time>
      </trkpt>
      <trkpt lat="47.74018" lon="3.59362">
        <ele>99.63</ele>
        <time>2015-04-26T05:07:53Z</time>
      </trkpt>
      <trkpt lat="47.74019" lon="3.59365">
        <ele>99.63</ele>
        <time>2015-04-26T05:07:55Z</time>
      </trkpt>
      <trkpt lat="47.74019" lon="3.59391">
        <ele>99.63</ele>
        <time>2015-04-26T05:08:06Z</time>
      </trkpt>
      <trkpt lat="47.74019" lon="3.59421">
        <ele>99.63</ele>
        <time>2015-04-26T05:08:18Z</time>
      </trkpt>
      <trkpt lat="47.74018" lon="3.59425">
        <ele>99.63</ele>
        <time>2015-04-26T05:08:20Z</time>
      </trkpt>
      <trkpt lat="47.74018" lon="3.59446">
        <ele>99.15</ele>
        <time>2015-04-26T05:08:30Z</time>
      </trkpt>
      <trkpt lat="47.74018" lon="3.59454">
        <ele>100.6</ele>
        <time>2015-04-26T05:08:33Z</time>
      </trkpt>
      <trkpt lat="47.74019" lon="3.59469">
        <ele>100.11</ele>
        <time>2015-04-26T05:08:40Z</time>
      </trkpt>
      <trkpt lat="47.7402" lon="3.59477">
        <ele>102.52</ele>
        <time>2015-04-26T05:08:43Z</time>
      </trkpt>
      <trkpt lat="47.7402" lon="3.5948">
        <ele>101.08</ele>
        <time>2015-04-26T05:08:44Z</time>
      </trkpt>
      <trkpt lat="47.74021" lon="3.59485">
        <ele>100.11</ele>
        <time>2015-04-26T05:08:46Z</time>
      </trkpt>
      <trkpt lat="47.74021" lon="3.59516">
        <ele>100.11</ele>
        <time>2015-04-26T05:09:01Z</time>
      </trkpt>
      <trkpt lat="47.74023" lon="3.59532">
        <ele>100.11</ele>
        <time>2015-04-26T05:09:09Z</time>
      </trkpt>
      <trkpt lat="47.74024" lon="3.59544">
        <ele>100.11</ele>
        <time>2015-04-26T05:09:15Z</time>
      </trkpt>
      <trkpt lat="47.74024" lon="3.59566">
        <ele>100.11</ele>
        <time>2015-04-26T05:09:26Z</time>
      </trkpt>
      <trkpt lat="47.74025" lon="3.59596">
        <ele>100.11</ele>
        <time>2015-04-26T05:09:40Z</time>
      </trkpt>
      <trkpt lat="47.74027" lon="3.59644">
        <ele>99.63</ele>
        <time>2015-04-26T05:09:58Z</time>
      </trkpt>
      <trkpt lat="47.74024" lon="3.59651">
        <ele>99.15</ele>
        <time>2015-04-26T05:10:02Z</time>
      </trkpt>
      <trkpt lat="47.74024" lon="3.59676">
        <ele>100.11</ele>
        <time>2015-04-26T05:10:13Z</time>
      </trkpt>
      <trkpt lat="47.74024" lon="3.59699">
        <ele>99.63</ele>
        <time>2015-04-26T05:10:24Z</time>
      </trkpt>
      <trkpt lat="47.74025" lon="3.59729">
        <ele>100.11</ele>
        <time>2015-04-26T05:10:37Z</time>
      </trkpt>
      <trkpt lat="47.74025" lon="3.59752">
        <ele>100.6</ele>
        <time>2015-04-26T05:10:48Z</time>
      </trkpt>
      <trkpt lat="47.74025" lon="3.59775">
        <ele>101.08</ele>
        <time>2015-04-26T05:10:59Z</time>
      </trkpt>
      <trkpt lat="47.7402" lon="3.5978">
        <ele>101.56</ele>
        <time>2015-04-26T05:11:03Z</time>
      </trkpt>
      <trkpt lat="47.74011" lon="3.59781">
        <ele>101.56</ele>
        <time>2015-04-26T05:11:09Z</time>
      </trkpt>
      <trkpt lat="47.74005" lon="3.59782">
        <ele>101.08</ele>
        <time>2015-04-26T05:11:13Z</time>
      </trkpt>
      <trkpt lat="47.74002" lon="3.59783">
        <ele>101.08</ele>
        <time>2015-04-26T05:11:15Z</time>
      </trkpt>
      <trkpt lat="47.73983" lon="3.59788">
        <ele>101.08</ele>
        <time>2015-04-26T05:11:29Z</time>
      </trkpt>
      <trkpt lat="47.7396" lon="3.59786">
        <ele>100.6</ele>
        <time>2015-04-26T05:11:44Z</time>
      </trkpt>
      <trkpt lat="47.73937" lon="3.59793">
        <ele>100.6</ele>
        <time>2015-04-26T05:11:59Z</time>
      </trkpt>
      <trkpt lat="47.73919" lon="3.59794">
        <ele>100.11</ele>
        <time>2015-04-26T05:12:13Z</time>
      </trkpt>
      <trkpt lat="47.73902" lon="3.59806">
        <ele>100.6</ele>
        <time>2015-04-26T05:12:25Z</time>
      </trkpt>
      <trkpt lat="47.73885" lon="3.59809">
        <ele>100.6</ele>
        <time>2015-04-26T05:12:39Z</time>
      </trkpt>
      <trkpt lat="47.73884" lon="3.5981">
        <ele>100.6</ele>
        <time>2015-04-26T05:12:40Z</time>
      </trkpt>
      <trkpt lat="47.73877" lon="3.59815">
        <ele>100.6</ele>
        <time>2015-04-26T05:12:45Z</time>
      </trkpt>
      <trkpt lat="47.73865" lon="3.59821">
        <ele>101.08</ele>
        <time>2015-04-26T05:12:54Z</time>
      </trkpt>
      <trkpt lat="47.73853" lon="3.59825">
        <ele>100.6</ele>
        <time>2015-04-26T05:13:05Z</time>
      </trkpt>
      <trkpt lat="47.7384" lon="3.59834">
        <ele>101.08</ele>
        <time>2015-04-26T05:13:14Z</time>
      </trkpt>
      <trkpt lat="47.73837" lon="3.59837">
        <ele>101.08</ele>
        <time>2015-04-26T05:13:17Z</time>
      </trkpt>
      <trkpt lat="47.73829" lon="3.59841">
        <ele>100.6</ele>
        <time>2015-04-26T05:13:22Z</time>
      </trkpt>
      <trkpt lat="47.73817" lon="3.59851">
        <ele>100.6</ele>
        <time>2015-04-26T05:13:33Z</time>
      </trkpt>
      <trkpt lat="47.73814" lon="3.59859">
        <ele>101.08</ele>
        <time>2015-04-26T05:13:37Z</time>
      </trkpt>
      <trkpt lat="47.73817" lon="3.5988">
        <ele>100.6</ele>
        <time>2015-04-26T05:13:48Z</time>
      </trkpt>
      <trkpt lat="47.73817" lon="3.59882">
        <ele>100.6</ele>
        <time>2015-04-26T05:13:49Z</time>
      </trkpt>
      <trkpt lat="47.73822" lon="3.59893">
        <ele>100.6</ele>
        <time>2015-04-26T05:13:55Z</time>
      </trkpt>
      <trkpt lat="47.73823" lon="3.59899">
        <ele>101.08</ele>
        <time>2015-04-26T05:13:58Z</time>
      </trkpt>
      <trkpt lat="47.73825" lon="3.59907">
        <ele>101.08</ele>
        <time>2015-04-26T05:14:02Z</time>
      </trkpt>
      <trkpt lat="47.73827" lon="3.59919">
        <ele>100.6</ele>
        <time>2015-04-26T05:14:08Z</time>
      </trkpt>
      <trkpt lat="47.73827" lon="3.59928">
        <ele>100.6</ele>
        <time>2015-04-26T05:14:12Z</time>
      </trkpt>
      <trkpt lat="47.73823" lon="3.59954">
        <ele>100.6</ele>
        <time>2015-04-26T05:14:21Z</time>
      </trkpt>
      <trkpt lat="47.73824" lon="3.5997">
        <ele>101.08</ele>
        <time>2015-04-26T05:14:30Z</time>
      </trkpt>
      <trkpt lat="47.73824" lon="3.5998">
        <ele>101.08</ele>
        <time>2015-04-26T05:14:35Z</time>
      </trkpt>
      <trkpt lat="47.73826" lon="3.59997">
        <ele>101.56</ele>
        <time>2015-04-26T05:14:42Z</time>
      </trkpt>
      <trkpt lat="47.73828" lon="3.60019">
        <ele>101.56</ele>
        <time>2015-04-26T05:14:55Z</time>
      </trkpt>
      <trkpt lat="47.7383" lon="3.60026">
        <ele>101.56</ele>
        <time>2015-04-26T05:14:58Z</time>
      </trkpt>
      <trkpt lat="47.7383" lon="3.60031">
        <ele>101.56</ele>
        <time>2015-04-26T05:15:00Z</time>
      </trkpt>
      <trkpt lat="47.73834" lon="3.60048">
        <ele>101.56</ele>
        <time>2015-04-26T05:15:07Z</time>
      </trkpt>
      <trkpt lat="47.73843" lon="3.60077">
        <ele>101.56</ele>
        <time>2015-04-26T05:15:22Z</time>
      </trkpt>
      <trkpt lat="47.73847" lon="3.60088">
        <ele>101.56</ele>
        <time>2015-04-26T05:15:28Z</time>
      </trkpt>
      <trkpt lat="47.73854" lon="3.60113">
        <ele>101.56</ele>
        <time>2015-04-26T05:15:41Z</time>
      </trkpt>
      <trkpt lat="47.73859" lon="3.60143">
        <ele>101.56</ele>
        <time>2015-04-26T05:15:55Z</time>
      </trkpt>
      <trkpt lat="47.7386" lon="3.60148">
        <ele>101.56</ele>
        <time>2015-04-26T05:15:57Z</time>
      </trkpt>
      <trkpt lat="47.73862" lon="3.60161">
        <ele>101.56</ele>
        <time>2015-04-26T05:16:04Z</time>
      </trkpt>
      <trkpt lat="47.73871" lon="3.60186">
        <ele>102.04</ele>
        <time>2015-04-26T05:16:18Z</time>
      </trkpt>
      <trkpt lat="47.73876" lon="3.60212">
        <ele>102.52</ele>
        <time>2015-04-26T05:16:30Z</time>
      </trkpt>
      <trkpt lat="47.73884" lon="3.60238">
        <ele>102.52</ele>
        <time>2015-04-26T05:16:42Z</time>
      </trkpt>
      <trkpt lat="47.73886" lon="3.60263">
        <ele>103</ele>
        <time>2015-04-26T05:16:55Z</time>
      </trkpt>
      <trkpt lat="47.73896" lon="3.60286">
        <ele>103.96</ele>
        <time>2015-04-26T05:17:08Z</time>
      </trkpt>
      <trkpt lat="47.73906" lon="3.60309">
        <ele>104.44</ele>
        <time>2015-04-26T05:17:20Z</time>
      </trkpt>
      <trkpt lat="47.73919" lon="3.60328">
        <ele>104.44</ele>
        <time>2015-04-26T05:17:31Z</time>
      </trkpt>
      <trkpt lat="47.73933" lon="3.60352">
        <ele>104.44</ele>
        <time>2015-04-26T05:17:47Z</time>
      </trkpt>
      <trkpt lat="47.73945" lon="3.60378">
        <ele>103.96</ele>
        <time>2015-04-26T05:18:00Z</time>
      </trkpt>
      <trkpt lat="47.73954" lon="3.60413">
        <ele>103.48</ele>
        <time>2015-04-26T05:18:17Z</time>
      </trkpt>
      <trkpt lat="47.73959" lon="3.60439">
        <ele>103.48</ele>
        <time>2015-04-26T05:18:30Z</time>
      </trkpt>
      <trkpt lat="47.73966" lon="3.60463">
        <ele>103.48</ele>
        <time>2015-04-26T05:18:43Z</time>
      </trkpt>
      <trkpt lat="47.73968" lon="3.60472">
        <ele>103.96</ele>
        <time>2015-04-26T05:18:48Z</time>
      </trkpt>
      <trkpt lat="47.73957" lon="3.60482">
        <ele>103.96</ele>
        <time>2015-04-26T05:18:58Z</time>
      </trkpt>
      <trkpt lat="47.73943" lon="3.60492">
        <ele>104.44</ele>
        <time>2015-04-26T05:19:08Z</time>
      </trkpt>
      <trkpt lat="47.73925" lon="3.60497">
        <ele>104.44</ele>
        <time>2015-04-26T05:19:21Z</time>
      </trkpt>
      <trkpt lat="47.73908" lon="3.60506">
        <ele>104.92</ele>
        <time>2015-04-26T05:19:34Z</time>
      </trkpt>
      <trkpt lat="47.73895" lon="3.60512">
        <ele>104.92</ele>
        <time>2015-04-26T05:19:43Z</time>
      </trkpt>
      <trkpt lat="47.73884" lon="3.60517">
        <ele>104.92</ele>
        <time>2015-04-26T05:19:50Z</time>
      </trkpt>
      <trkpt lat="47.73862" lon="3.60528">
        <ele>104.92</ele>
        <time>2015-04-26T05:20:07Z</time>
      </trkpt>
      <trkpt lat="47.73853" lon="3.60533">
        <ele>100.6</ele>
        <time>2015-04-26T05:20:13Z</time>
      </trkpt>
      <trkpt lat="47.7385" lon="3.60536">
        <ele>104.92</ele>
        <time>2015-04-26T05:20:15Z</time>
      </trkpt>
      <trkpt lat="47.73847" lon="3.6055">
        <ele>105.4</ele>
        <time>2015-04-26T05:20:23Z</time>
      </trkpt>
      <trkpt lat="47.73855" lon="3.60574">
        <ele>105.4</ele>
        <time>2015-04-26T05:20:37Z</time>
      </trkpt>
      <trkpt lat="47.73852" lon="3.60583">
        <ele>105.88</ele>
        <time>2015-04-26T05:20:42Z</time>
      </trkpt>
      <trkpt lat="47.73841" lon="3.60597">
        <ele>106.36</ele>
        <time>2015-04-26T05:20:52Z</time>
      </trkpt>
      <trkpt lat="47.73833" lon="3.60603">
        <ele>106.36</ele>
        <time>2015-04-26T05:20:59Z</time>
      </trkpt>
      <trkpt lat="47.73817" lon="3.60611">
        <ele>106.84</ele>
        <time>2015-04-26T05:21:11Z</time>
      </trkpt>
      <trkpt lat="47.738" lon="3.60609">
        <ele>106.36</ele>
        <time>2015-04-26T05:21:22Z</time>
      </trkpt>
      <trkpt lat="47.7378" lon="3.60604">
        <ele>106.84</ele>
        <time>2015-04-26T05:21:35Z</time>
      </trkpt>
      <trkpt lat="47.73772" lon="3.60605">
        <ele>106.84</ele>
        <time>2015-04-26T05:21:40Z</time>
      </trkpt>
      <trkpt lat="47.73761" lon="3.60607">
        <ele>106.36</ele>
        <time>2015-04-26T05:21:47Z</time>
      </trkpt>
      <trkpt lat="47.73741" lon="3.60608">
        <ele>105.88</ele>
        <time>2015-04-26T05:22:01Z</time>
      </trkpt>
      <trkpt lat="47.73738" lon="3.60608">
        <ele>105.88</ele>
        <time>2015-04-26T05:22:03Z</time>
      </trkpt>
      <trkpt lat="47.73734" lon="3.6061">
        <ele>106.36</ele>
        <time>2015-04-26T05:22:06Z</time>
      </trkpt>
      <trkpt lat="47.73733" lon="3.60615">
        <ele>106.84</ele>
        <time>2015-04-26T05:22:09Z</time>
      </trkpt>
      <trkpt lat="47.73737" lon="3.60651">
        <ele>106.84</ele>
        <time>2015-04-26T05:22:24Z</time>
      </trkpt>
      <trkpt lat="47.73739" lon="3.60666">
        <ele>107.32</ele>
        <time>2015-04-26T05:22:32Z</time>
      </trkpt>
      <trkpt lat="47.73739" lon="3.60673">
        <ele>107.81</ele>
        <time>2015-04-26T05:22:35Z</time>
      </trkpt>
      <trkpt lat="47.73743" lon="3.607">
        <ele>108.77</ele>
        <time>2015-04-26T05:22:48Z</time>
      </trkpt>
      <trkpt lat="47.73744" lon="3.60705">
        <ele>108.77</ele>
        <time>2015-04-26T05:22:50Z</time>
      </trkpt>
      <trkpt lat="47.73747" lon="3.6072">
        <ele>109.25</ele>
        <time>2015-04-26T05:22:56Z</time>
      </trkpt>
      <trkpt lat="47.73751" lon="3.60748">
        <ele>110.21</ele>
        <time>2015-04-26T05:23:08Z</time>
      </trkpt>
      <trkpt lat="47.73753" lon="3.60759">
        <ele>111.65</ele>
        <time>2015-04-26T05:23:14Z</time>
      </trkpt>
      <trkpt lat="47.73754" lon="3.60767">
        <ele>112.13</ele>
        <time>2015-04-26T05:23:17Z</time>
      </trkpt>
      <trkpt lat="47.73753" lon="3.60794">
        <ele>113.09</ele>
        <time>2015-04-26T05:23:28Z</time>
      </trkpt>
      <trkpt lat="47.73754" lon="3.60823">
        <ele>115.01</ele>
        <time>2015-04-26T05:23:42Z</time>
      </trkpt>
      <trkpt lat="47.73753" lon="3.60855">
        <ele>116.46</ele>
        <time>2015-04-26T05:23:56Z</time>
      </trkpt>
      <trkpt lat="47.73752" lon="3.60884">
        <ele>118.38</ele>
        <time>2015-04-26T05:24:09Z</time>
      </trkpt>
      <trkpt lat="47.73754" lon="3.60901">
        <ele>119.82</ele>
        <time>2015-04-26T05:24:19Z</time>
      </trkpt>
      <trkpt lat="47.73752" lon="3.60919">
        <ele>121.26</ele>
        <time>2015-04-26T05:24:27Z</time>
      </trkpt>
      <trkpt lat="47.73751" lon="3.60929">
        <ele>121.74</ele>
        <time>2015-04-26T05:24:32Z</time>
      </trkpt>
      <trkpt lat="47.73751" lon="3.60933">
        <ele>122.22</ele>
        <time>2015-04-26T05:24:34Z</time>
      </trkpt>
      <trkpt lat="47.73749" lon="3.60949">
        <ele>123.19</ele>
        <time>2015-04-26T05:24:41Z</time>
      </trkpt>
      <trkpt lat="47.73747" lon="3.60958">
        <ele>123.19</ele>
        <time>2015-04-26T05:24:45Z</time>
      </trkpt>
      <trkpt lat="47.73746" lon="3.60974">
        <ele>124.15</ele>
        <time>2015-04-26T05:24:52Z</time>
      </trkpt>
      <trkpt lat="47.73745" lon="3.61">
        <ele>125.59</ele>
        <time>2015-04-26T05:25:04Z</time>
      </trkpt>
      <trkpt lat="47.73743" lon="3.61013">
        <ele>127.03</ele>
        <time>2015-04-26T05:25:11Z</time>
      </trkpt>
      <trkpt lat="47.73741" lon="3.61035">
        <ele>128.95</ele>
        <time>2015-04-26T05:25:22Z</time>
      </trkpt>
      <trkpt lat="47.73739" lon="3.61062">
        <ele>131.36</ele>
        <time>2015-04-26T05:25:37Z</time>
      </trkpt>
      <trkpt lat="47.73738" lon="3.61069">
        <ele>131.84</ele>
        <time>2015-04-26T05:25:40Z</time>
      </trkpt>
      <trkpt lat="47.73737" lon="3.61072">
        <ele>131.84</ele>
        <time>2015-04-26T05:25:42Z</time>
      </trkpt>
      <trkpt lat="47.73738" lon="3.61076">
        <ele>132.32</ele>
        <time>2015-04-26T05:25:44Z</time>
      </trkpt>
      <trkpt lat="47.73737" lon="3.61087">
        <ele>133.28</ele>
        <time>2015-04-26T05:25:50Z</time>
      </trkpt>
      <trkpt lat="47.73736" lon="3.611">
        <ele>133.76</ele>
        <time>2015-04-26T05:25:56Z</time>
      </trkpt>
      <trkpt lat="47.73736" lon="3.6111">
        <ele>134.72</ele>
        <time>2015-04-26T05:26:00Z</time>
      </trkpt>
      <trkpt lat="47.73733" lon="3.6112">
        <ele>135.68</ele>
        <time>2015-04-26T05:26:06Z</time>
      </trkpt>
      <trkpt lat="47.73717" lon="3.61126">
        <ele>136.64</ele>
        <time>2015-04-26T05:26:19Z</time>
      </trkpt>
      <trkpt lat="47.73697" lon="3.61133">
        <ele>137.13</ele>
        <time>2015-04-26T05:26:32Z</time>
      </trkpt>
      <trkpt lat="47.73691" lon="3.61137">
        <ele>138.09</ele>
        <time>2015-04-26T05:26:37Z</time>
      </trkpt>
      <trkpt lat="47.73689" lon="3.61154">
        <ele>139.05</ele>
        <time>2015-04-26T05:26:45Z</time>
      </trkpt>
      <trkpt lat="47.73688" lon="3.61162">
        <ele>140.01</ele>
        <time>2015-04-26T05:26:50Z</time>
      </trkpt>
      <trkpt lat="47.73687" lon="3.61188">
        <ele>142.41</ele>
        <time>2015-04-26T05:27:03Z</time>
      </trkpt>
      <trkpt lat="47.73684" lon="3.61209">
        <ele>144.82</ele>
        <time>2015-04-26T05:27:15Z</time>
      </trkpt>
      <trkpt lat="47.73681" lon="3.6122">
        <ele>146.26</ele>
        <time>2015-04-26T05:27:22Z</time>
      </trkpt>
      <trkpt lat="47.73681" lon="3.61223">
        <ele>146.74</ele>
        <time>2015-04-26T05:27:24Z</time>
      </trkpt>
      <trkpt lat="47.73679" lon="3.61247">
        <ele>149.14</ele>
        <time>2015-04-26T05:27:37Z</time>
      </trkpt>
      <trkpt lat="47.73677" lon="3.61265">
        <ele>152.03</ele>
        <time>2015-04-26T05:27:50Z</time>
      </trkpt>
      <trkpt lat="47.73675" lon="3.61287">
        <ele>154.91</ele>
        <time>2015-04-26T05:28:04Z</time>
      </trkpt>
      <trkpt lat="47.73674" lon="3.61306">
        <ele>157.31</ele>
        <time>2015-04-26T05:28:15Z</time>
      </trkpt>
      <trkpt lat="47.73672" lon="3.61315">
        <ele>158.27</ele>
        <time>2015-04-26T05:28:21Z</time>
      </trkpt>
      <trkpt lat="47.7367" lon="3.61336">
        <ele>160.68</ele>
        <time>2015-04-26T05:28:32Z</time>
      </trkpt>
      <trkpt lat="47.73667" lon="3.61362">
        <ele>163.56</ele>
        <time>2015-04-26T05:28:47Z</time>
      </trkpt>
      <trkpt lat="47.73668" lon="3.61366">
        <ele>164.04</ele>
        <time>2015-04-26T05:28:49Z</time>
      </trkpt>
      <trkpt lat="47.73665" lon="3.61379">
        <ele>165.48</ele>
        <time>2015-04-26T05:28:57Z</time>
      </trkpt>
      <trkpt lat="47.73665" lon="3.61385">
        <ele>166.93</ele>
        <time>2015-04-26T05:29:01Z</time>
      </trkpt>
      <trkpt lat="47.73672" lon="3.61407">
        <ele>168.37</ele>
        <time>2015-04-26T05:29:14Z</time>
      </trkpt>
      <trkpt lat="47.73685" lon="3.61423">
        <ele>170.77</ele>
        <time>2015-04-26T05:29:28Z</time>
      </trkpt>
      <trkpt lat="47.7369" lon="3.61431">
        <ele>170.77</ele>
        <time>2015-04-26T05:29:35Z</time>
      </trkpt>
      <trkpt lat="47.73697" lon="3.61441">
        <ele>172.21</ele>
        <time>2015-04-26T05:29:41Z</time>
      </trkpt>
      <trkpt lat="47.73699" lon="3.61443">
        <ele>172.21</ele>
        <time>2015-04-26T05:29:43Z</time>
      </trkpt>
      <trkpt lat="47.73711" lon="3.61459">
        <ele>173.66</ele>
        <time>2015-04-26T05:29:55Z</time>
      </trkpt>
      <trkpt lat="47.73718" lon="3.61468">
        <ele>174.14</ele>
        <time>2015-04-26T05:30:03Z</time>
      </trkpt>
      <trkpt lat="47.73741" lon="3.61482">
        <ele>173.66</ele>
        <time>2015-04-26T05:30:18Z</time>
      </trkpt>
      <trkpt lat="47.73758" lon="3.61498">
        <ele>172.21</ele>
        <time>2015-04-26T05:30:32Z</time>
      </trkpt>
      <trkpt lat="47.73771" lon="3.61514">
        <ele>172.21</ele>
        <time>2015-04-26T05:30:42Z</time>
      </trkpt>
      <trkpt lat="47.73787" lon="3.61531">
        <ele>171.73</ele>
        <time>2015-04-26T05:30:55Z</time>
      </trkpt>
      <trkpt lat="47.73806" lon="3.61553">
        <ele>172.21</ele>
        <time>2015-04-26T05:31:09Z</time>
      </trkpt>
      <trkpt lat="47.73824" lon="3.61574">
        <ele>171.25</ele>
        <time>2015-04-26T05:31:23Z</time>
      </trkpt>
      <trkpt lat="47.73827" lon="3.61578">
        <ele>170.77</ele>
        <time>2015-04-26T05:31:26Z</time>
      </trkpt>
      <trkpt lat="47.73838" lon="3.61602">
        <ele>170.77</ele>
        <time>2015-04-26T05:31:39Z</time>
      </trkpt>
      <trkpt lat="47.73853" lon="3.61631">
        <ele>170.29</ele>
        <time>2015-04-26T05:31:53Z</time>
      </trkpt>
      <trkpt lat="47.73864" lon="3.61658">
        <ele>171.25</ele>
        <time>2015-04-26T05:32:07Z</time>
      </trkpt>
      <trkpt lat="47.73873" lon="3.61686">
        <ele>170.77</ele>
        <time>2015-04-26T05:32:20Z</time>
      </trkpt>
      <trkpt lat="47.73882" lon="3.6171">
        <ele>171.25</ele>
        <time>2015-04-26T05:32:32Z</time>
      </trkpt>
      <trkpt lat="47.73885" lon="3.61736">
        <ele>171.73</ele>
        <time>2015-04-26T05:32:44Z</time>
      </trkpt>
      <trkpt lat="47.73867" lon="3.61748">
        <ele>174.14</ele>
        <time>2015-04-26T05:32:57Z</time>
      </trkpt>
      <trkpt lat="47.73863" lon="3.61752">
        <ele>174.14</ele>
        <time>2015-04-26T05:33:00Z</time>
      </trkpt>
      <trkpt lat="47.73857" lon="3.61757">
        <ele>175.1</ele>
        <time>2015-04-26T05:33:04Z</time>
      </trkpt>
      <trkpt lat="47.73838" lon="3.61776">
        <ele>176.54</ele>
        <time>2015-04-26T05:33:19Z</time>
      </trkpt>
      <trkpt lat="47.73821" lon="3.61797">
        <ele>177.98</ele>
        <time>2015-04-26T05:33:33Z</time>
      </trkpt>
      <trkpt lat="47.738" lon="3.61819">
        <ele>178.46</ele>
        <time>2015-04-26T05:33:49Z</time>
      </trkpt>
      <trkpt lat="47.73788" lon="3.61851">
        <ele>178.94</ele>
        <time>2015-04-26T05:34:05Z</time>
      </trkpt>
      <trkpt lat="47.73786" lon="3.61867">
        <ele>178.94</ele>
        <time>2015-04-26T05:34:12Z</time>
      </trkpt>
      <trkpt lat="47.73781" lon="3.61883">
        <ele>178.94</ele>
        <time>2015-04-26T05:34:19Z</time>
      </trkpt>
      <trkpt lat="47.73765" lon="3.61901">
        <ele>179.42</ele>
        <time>2015-04-26T05:34:32Z</time>
      </trkpt>
      <trkpt lat="47.73749" lon="3.61908">
        <ele>179.9</ele>
        <time>2015-04-26T05:34:43Z</time>
      </trkpt>
      <trkpt lat="47.7374" lon="3.61906">
        <ele>179.9</ele>
        <time>2015-04-26T05:34:50Z</time>
      </trkpt>
      <trkpt lat="47.73714" lon="3.61896">
        <ele>180.38</ele>
        <time>2015-04-26T05:35:05Z</time>
      </trkpt>
      <trkpt lat="47.73708" lon="3.61891">
        <ele>180.38</ele>
        <time>2015-04-26T05:35:10Z</time>
      </trkpt>
      <trkpt lat="47.73699" lon="3.61882">
        <ele>180.87</ele>
        <time>2015-04-26T05:35:18Z</time>
      </trkpt>
      <trkpt lat="47.7368" lon="3.61872">
        <ele>181.83</ele>
        <time>2015-04-26T05:35:30Z</time>
      </trkpt>
      <trkpt lat="47.73656" lon="3.61858">
        <ele>182.79</ele>
        <time>2015-04-26T05:35:45Z</time>
      </trkpt>
      <trkpt lat="47.73642" lon="3.61847">
        <ele>183.27</ele>
        <time>2015-04-26T05:35:54Z</time>
      </trkpt>
      <trkpt lat="47.73615" lon="3.61837">
        <ele>183.75</ele>
        <time>2015-04-26T05:36:11Z</time>
      </trkpt>
      <trkpt lat="47.73595" lon="3.61826">
        <ele>184.71</ele>
        <time>2015-04-26T05:36:26Z</time>
      </trkpt>
      <trkpt lat="47.73578" lon="3.61817">
        <ele>185.19</ele>
        <time>2015-04-26T05:36:37Z</time>
      </trkpt>
      <trkpt lat="47.73568" lon="3.61816">
        <ele>184.71</ele>
        <time>2015-04-26T05:36:43Z</time>
      </trkpt>
      <trkpt lat="47.73561" lon="3.61815">
        <ele>185.19</ele>
        <time>2015-04-26T05:36:47Z</time>
      </trkpt>
      <trkpt lat="47.73539" lon="3.61809">
        <ele>185.67</ele>
        <time>2015-04-26T05:37:01Z</time>
      </trkpt>
      <trkpt lat="47.73523" lon="3.61821">
        <ele>184.71</ele>
        <time>2015-04-26T05:37:14Z</time>
      </trkpt>
      <trkpt lat="47.73513" lon="3.61847">
        <ele>182.79</ele>
        <time>2015-04-26T05:37:27Z</time>
      </trkpt>
      <trkpt lat="47.73501" lon="3.61871">
        <ele>182.31</ele>
        <time>2015-04-26T05:37:38Z</time>
      </trkpt>
      <trkpt lat="47.73497" lon="3.61883">
        <ele>182.31</ele>
        <time>2015-04-26T05:37:44Z</time>
      </trkpt>
      <trkpt lat="47.73494" lon="3.61891">
        <ele>182.31</ele>
        <time>2015-04-26T05:37:48Z</time>
      </trkpt>
      <trkpt lat="47.73489" lon="3.61902">
        <ele>181.83</ele>
        <time>2015-04-26T05:37:54Z</time>
      </trkpt>
      <trkpt lat="47.73483" lon="3.61931">
        <ele>181.83</ele>
        <time>2015-04-26T05:38:06Z</time>
      </trkpt>
      <trkpt lat="47.73483" lon="3.61939">
        <ele>180.87</ele>
        <time>2015-04-26T05:38:09Z</time>
      </trkpt>
      <trkpt lat="47.73485" lon="3.61956">
        <ele>180.87</ele>
        <time>2015-04-26T05:38:15Z</time>
      </trkpt>
      <trkpt lat="47.73485" lon="3.61981">
        <ele>180.87</ele>
        <time>2015-04-26T05:38:25Z</time>
      </trkpt>
      <trkpt lat="47.73483" lon="3.62031">
        <ele>179.9</ele>
        <time>2015-04-26T05:38:44Z</time>
      </trkpt>
      <trkpt lat="47.7348" lon="3.6206">
        <ele>179.42</ele>
        <time>2015-04-26T05:38:56Z</time>
      </trkpt>
      <trkpt lat="47.73476" lon="3.62092">
        <ele>180.38</ele>
        <time>2015-04-26T05:39:08Z</time>
      </trkpt>
      <trkpt lat="47.73467" lon="3.62112">
        <ele>180.38</ele>
        <time>2015-04-26T05:39:19Z</time>
      </trkpt>
      <trkpt lat="47.73457" lon="3.62137">
        <ele>180.38</ele>
        <time>2015-04-26T05:39:32Z</time>
      </trkpt>
      <trkpt lat="47.73457" lon="3.62144">
        <ele>180.87</ele>
        <time>2015-04-26T05:39:35Z</time>
      </trkpt>
      <trkpt lat="47.7346" lon="3.62163">
        <ele>180.87</ele>
        <time>2015-04-26T05:39:42Z</time>
      </trkpt>
      <trkpt lat="47.73449" lon="3.62189">
        <ele>183.75</ele>
        <time>2015-04-26T05:39:56Z</time>
      </trkpt>
      <trkpt lat="47.73433" lon="3.62206">
        <ele>185.67</ele>
        <time>2015-04-26T05:40:09Z</time>
      </trkpt>
      <trkpt lat="47.73419" lon="3.62229">
        <ele>187.59</ele>
        <time>2015-04-26T05:40:23Z</time>
      </trkpt>
      <trkpt lat="47.73405" lon="3.62246">
        <ele>189.52</ele>
        <time>2015-04-26T05:40:36Z</time>
      </trkpt>
      <trkpt lat="47.73393" lon="3.62263">
        <ele>191.44</ele>
        <time>2015-04-26T05:40:49Z</time>
      </trkpt>
      <trkpt lat="47.73388" lon="3.62273">
        <ele>192.4</ele>
        <time>2015-04-26T05:40:55Z</time>
      </trkpt>
      <trkpt lat="47.73377" lon="3.62283">
        <ele>193.36</ele>
        <time>2015-04-26T05:41:04Z</time>
      </trkpt>
      <trkpt lat="47.73362" lon="3.62302">
        <ele>196.25</ele>
        <time>2015-04-26T05:41:19Z</time>
      </trkpt>
      <trkpt lat="47.73359" lon="3.62308">
        <ele>197.21</ele>
        <time>2015-04-26T05:41:23Z</time>
      </trkpt>
      <trkpt lat="47.73352" lon="3.62316">
        <ele>198.65</ele>
        <time>2015-04-26T05:41:30Z</time>
      </trkpt>
      <trkpt lat="47.73342" lon="3.62327">
        <ele>199.61</ele>
        <time>2015-04-26T05:41:39Z</time>
      </trkpt>
      <trkpt lat="47.73323" lon="3.62322">
        <ele>202.49</ele>
        <time>2015-04-26T05:41:53Z</time>
      </trkpt>
      <trkpt lat="47.73317" lon="3.62312">
        <ele>202.49</ele>
        <time>2015-04-26T05:42:01Z</time>
      </trkpt>
      <trkpt lat="47.73314" lon="3.62307">
        <ele>202.98</ele>
        <time>2015-04-26T05:42:06Z</time>
      </trkpt>
      <trkpt lat="47.73301" lon="3.62281">
        <ele>202.98</ele>
        <time>2015-04-26T05:42:20Z</time>
      </trkpt>
      <trkpt lat="47.73286" lon="3.62257">
        <ele>202.98</ele>
        <time>2015-04-26T05:42:33Z</time>
      </trkpt>
      <trkpt lat="47.73266" lon="3.62225">
        <ele>203.46</ele>
        <time>2015-04-26T05:42:48Z</time>
      </trkpt>
      <trkpt lat="47.73247" lon="3.62191">
        <ele>203.46</ele>
        <time>2015-04-26T05:43:06Z</time>
      </trkpt>
      <trkpt lat="47.7323" lon="3.62161">
        <ele>204.42</ele>
        <time>2015-04-26T05:43:21Z</time>
      </trkpt>
      <trkpt lat="47.73217" lon="3.62139">
        <ele>204.9</ele>
        <time>2015-04-26T05:43:35Z</time>
      </trkpt>
      <trkpt lat="47.73202" lon="3.62118">
        <ele>205.86</ele>
        <time>2015-04-26T05:43:50Z</time>
      </trkpt>
      <trkpt lat="47.73177" lon="3.62093">
        <ele>206.34</ele>
        <time>2015-04-26T05:44:06Z</time>
      </trkpt>
      <trkpt lat="47.73156" lon="3.62068">
        <ele>206.82</ele>
        <time>2015-04-26T05:44:22Z</time>
      </trkpt>
      <trkpt lat="47.73135" lon="3.62046">
        <ele>207.3</ele>
        <time>2015-04-26T05:44:37Z</time>
      </trkpt>
      <trkpt lat="47.73118" lon="3.62025">
        <ele>207.3</ele>
        <time>2015-04-26T05:44:50Z</time>
      </trkpt>
      <trkpt lat="47.73097" lon="3.62008">
        <ele>207.3</ele>
        <time>2015-04-26T05:45:04Z</time>
      </trkpt>
      <trkpt lat="47.7308" lon="3.62023">
        <ele>206.82</ele>
        <time>2015-04-26T05:45:16Z</time>
      </trkpt>
      <trkpt lat="47.73065" lon="3.62043">
        <ele>207.3</ele>
        <time>2015-04-26T05:45:29Z</time>
      </trkpt>
      <trkpt lat="47.73051" lon="3.62064">
        <ele>207.78</ele>
        <time>2015-04-26T05:45:43Z</time>
      </trkpt>
      <trkpt lat="47.73036" lon="3.62093">
        <ele>208.26</ele>
        <time>2015-04-26T05:45:57Z</time>
      </trkpt>
      <trkpt lat="47.73029" lon="3.62122">
        <ele>209.22</ele>
        <time>2015-04-26T05:46:09Z</time>
      </trkpt>
      <trkpt lat="47.73024" lon="3.62149">
        <ele>210.19</ele>
        <time>2015-04-26T05:46:20Z</time>
      </trkpt>
      <trkpt lat="47.73023" lon="3.6218">
        <ele>211.15</ele>
        <time>2015-04-26T05:46:32Z</time>
      </trkpt>
      <trkpt lat="47.73024" lon="3.62216">
        <ele>213.07</ele>
        <time>2015-04-26T05:46:45Z</time>
      </trkpt>
      <trkpt lat="47.73024" lon="3.62218">
        <ele>212.59</ele>
        <time>2015-04-26T05:46:46Z</time>
      </trkpt>
      <trkpt lat="47.73025" lon="3.6224">
        <ele>213.07</ele>
        <time>2015-04-26T05:46:56Z</time>
      </trkpt>
      <trkpt lat="47.73026" lon="3.62269">
        <ele>214.03</ele>
        <time>2015-04-26T05:47:09Z</time>
      </trkpt>
      <trkpt lat="47.73026" lon="3.62308">
        <ele>214.99</ele>
        <time>2015-04-26T05:47:24Z</time>
      </trkpt>
      <trkpt lat="47.73022" lon="3.62348">
        <ele>214.99</ele>
        <time>2015-04-26T05:47:41Z</time>
      </trkpt>
      <trkpt lat="47.73021" lon="3.62384">
        <ele>215.47</ele>
        <time>2015-04-26T05:47:55Z</time>
      </trkpt>
      <trkpt lat="47.73021" lon="3.62425">
        <ele>216.91</ele>
        <time>2015-04-26T05:48:10Z</time>
      </trkpt>
      <trkpt lat="47.73022" lon="3.62448">
        <ele>217.4</ele>
        <time>2015-04-26T05:48:20Z</time>
      </trkpt>
      <trkpt lat="47.73027" lon="3.62481">
        <ele>216.91</ele>
        <time>2015-04-26T05:48:34Z</time>
      </trkpt>
      <trkpt lat="47.73035" lon="3.62526">
        <ele>216.43</ele>
        <time>2015-04-26T05:48:50Z</time>
      </trkpt>
      <trkpt lat="47.73035" lon="3.62533">
        <ele>216.43</ele>
        <time>2015-04-26T05:48:53Z</time>
      </trkpt>
      <trkpt lat="47.73031" lon="3.62563">
        <ele>214.51</ele>
        <time>2015-04-26T05:49:06Z</time>
      </trkpt>
      <trkpt lat="47.73023" lon="3.62591">
        <ele>212.11</ele>
        <time>2015-04-26T05:49:19Z</time>
      </trkpt>
      <trkpt lat="47.73019" lon="3.62608">
        <ele>211.63</ele>
        <time>2015-04-26T05:49:26Z</time>
      </trkpt>
      <trkpt lat="47.73011" lon="3.62649">
        <ele>210.19</ele>
        <time>2015-04-26T05:49:42Z</time>
      </trkpt>
      <trkpt lat="47.73005" lon="3.62674">
        <ele>209.22</ele>
        <time>2015-04-26T05:49:53Z</time>
      </trkpt>
      <trkpt lat="47.73002" lon="3.62689">
        <ele>208.74</ele>
        <time>2015-04-26T05:50:00Z</time>
      </trkpt>
      <trkpt lat="47.72993" lon="3.62725">
        <ele>207.3</ele>
        <time>2015-04-26T05:50:16Z</time>
      </trkpt>
      <trkpt lat="47.7299" lon="3.62754">
        <ele>205.86</ele>
        <time>2015-04-26T05:50:29Z</time>
      </trkpt>
      <trkpt lat="47.72991" lon="3.62764">
        <ele>205.86</ele>
        <time>2015-04-26T05:50:33Z</time>
      </trkpt>
      <trkpt lat="47.73003" lon="3.62808">
        <ele>205.38</ele>
        <time>2015-04-26T05:50:50Z</time>
      </trkpt>
      <trkpt lat="47.73017" lon="3.62843">
        <ele>205.86</ele>
        <time>2015-04-26T05:51:05Z</time>
      </trkpt>
      <trkpt lat="47.73031" lon="3.62873">
        <ele>206.34</ele>
        <time>2015-04-26T05:51:18Z</time>
      </trkpt>
      <trkpt lat="47.73045" lon="3.62907">
        <ele>206.34</ele>
        <time>2015-04-26T05:51:33Z</time>
      </trkpt>
      <trkpt lat="47.73058" lon="3.62932">
        <ele>206.82</ele>
        <time>2015-04-26T05:51:47Z</time>
      </trkpt>
      <trkpt lat="47.73075" lon="3.62961">
        <ele>207.3</ele>
        <time>2015-04-26T05:52:01Z</time>
      </trkpt>
      <trkpt lat="47.73092" lon="3.62992">
        <ele>207.78</ele>
        <time>2015-04-26T05:52:17Z</time>
      </trkpt>
      <trkpt lat="47.73098" lon="3.63008">
        <ele>207.78</ele>
        <time>2015-04-26T05:52:25Z</time>
      </trkpt>
      <trkpt lat="47.73103" lon="3.63019">
        <ele>207.78</ele>
        <time>2015-04-26T05:52:30Z</time>
      </trkpt>
      <trkpt lat="47.73123" lon="3.63052">
        <ele>206.82</ele>
        <time>2015-04-26T05:52:45Z</time>
      </trkpt>
      <trkpt lat="47.73125" lon="3.63063">
        <ele>206.34</ele>
        <time>2015-04-26T05:52:50Z</time>
      </trkpt>
      <trkpt lat="47.73141" lon="3.63088">
        <ele>205.86</ele>
        <time>2015-04-26T05:53:02Z</time>
      </trkpt>
      <trkpt lat="47.73145" lon="3.63098">
        <ele>204.9</ele>
        <time>2015-04-26T05:53:06Z</time>
      </trkpt>
      <trkpt lat="47.73151" lon="3.63111">
        <ele>203.94</ele>
        <time>2015-04-26T05:53:13Z</time>
      </trkpt>
      <trkpt lat="47.73159" lon="3.6314">
        <ele>201.53</ele>
        <time>2015-04-26T05:53:27Z</time>
      </trkpt>
      <trkpt lat="47.73159" lon="3.63142">
        <ele>201.53</ele>
        <time>2015-04-26T05:53:28Z</time>
      </trkpt>
      <trkpt lat="47.73165" lon="3.63159">
        <ele>200.09</ele>
        <time>2015-04-26T05:53:35Z</time>
      </trkpt>
      <trkpt lat="47.73173" lon="3.63188">
        <ele>198.17</ele>
        <time>2015-04-26T05:53:47Z</time>
      </trkpt>
      <trkpt lat="47.73184" lon="3.63217">
        <ele>197.21</ele>
        <time>2015-04-26T05:53:59Z</time>
      </trkpt>
      <trkpt lat="47.73194" lon="3.63249">
        <ele>196.25</ele>
        <time>2015-04-26T05:54:12Z</time>
      </trkpt>
      <trkpt lat="47.73201" lon="3.63287">
        <ele>196.25</ele>
        <time>2015-04-26T05:54:28Z</time>
      </trkpt>
      <trkpt lat="47.73205" lon="3.63323">
        <ele>196.25</ele>
        <time>2015-04-26T05:54:41Z</time>
      </trkpt>
      <trkpt lat="47.73219" lon="3.63351">
        <ele>195.28</ele>
        <time>2015-04-26T05:54:54Z</time>
      </trkpt>
      <trkpt lat="47.73238" lon="3.63375">
        <ele>193.84</ele>
        <time>2015-04-26T05:55:10Z</time>
      </trkpt>
      <trkpt lat="47.73237" lon="3.63385">
        <ele>193.36</ele>
        <time>2015-04-26T05:55:15Z</time>
      </trkpt>
      <trkpt lat="47.73218" lon="3.63382">
        <ele>195.28</ele>
        <time>2015-04-26T05:55:29Z</time>
      </trkpt>
      <trkpt lat="47.73194" lon="3.6338">
        <ele>197.69</ele>
        <time>2015-04-26T05:55:45Z</time>
      </trkpt>
      <trkpt lat="47.73184" lon="3.63382">
        <ele>194.32</ele>
        <time>2015-04-26T05:55:57Z</time>
      </trkpt>
      <trkpt lat="47.73184" lon="3.63382">
        <ele>197.69</ele>
        <time>2015-04-26T05:55:58Z</time>
      </trkpt>
      <trkpt lat="47.73184" lon="3.63382">
        <ele>208.26</ele>
        <time>2015-04-26T05:55:59Z</time>
      </trkpt>
      <trkpt lat="47.73184" lon="3.63382">
        <ele>202.01</ele>
        <time>2015-04-26T05:56:00Z</time>
      </trkpt>
      <trkpt lat="47.73184" lon="3.63382">
        <ele>198.17</ele>
        <time>2015-04-26T05:56:01Z</time>
      </trkpt>
      <trkpt lat="47.73184" lon="3.63382">
        <ele>198.17</ele>
        <time>2015-04-26T05:56:02Z</time>
      </trkpt>
      <trkpt lat="47.73185" lon="3.63384">
        <ele>198.65</ele>
        <time>2015-04-26T05:56:08Z</time>
      </trkpt>
      <trkpt lat="47.73185" lon="3.63384">
        <ele>198.17</ele>
        <time>2015-04-26T05:56:13Z</time>
      </trkpt>
      <trkpt lat="47.73185" lon="3.63382">
        <ele>198.65</ele>
        <time>2015-04-26T05:56:16Z</time>
      </trkpt>
      <trkpt lat="47.73179" lon="3.63382">
        <ele>197.69</ele>
        <time>2015-04-26T05:56:20Z</time>
      </trkpt>
      <trkpt lat="47.73173" lon="3.63383">
        <ele>201.53</ele>
        <time>2015-04-26T05:56:23Z</time>
      </trkpt>
      <trkpt lat="47.73172" lon="3.63384">
        <ele>199.13</ele>
        <time>2015-04-26T05:56:24Z</time>
      </trkpt>
      <trkpt lat="47.7317" lon="3.63385">
        <ele>199.61</ele>
        <time>2015-04-26T05:56:25Z</time>
      </trkpt>
      <trkpt lat="47.73167" lon="3.63388">
        <ele>198.17</ele>
        <time>2015-04-26T05:56:27Z</time>
      </trkpt>
      <trkpt lat="47.73165" lon="3.63389">
        <ele>201.05</ele>
        <time>2015-04-26T05:56:29Z</time>
      </trkpt>
      <trkpt lat="47.73162" lon="3.63389">
        <ele>199.61</ele>
        <time>2015-04-26T05:56:31Z</time>
      </trkpt>
      <trkpt lat="47.73156" lon="3.63394">
        <ele>195.28</ele>
        <time>2015-04-26T05:56:36Z</time>
      </trkpt>
      <trkpt lat="47.73154" lon="3.63397">
        <ele>201.05</ele>
        <time>2015-04-26T05:56:38Z</time>
      </trkpt>
      <trkpt lat="47.73149" lon="3.63406">
        <ele>200.09</ele>
        <time>2015-04-26T05:56:42Z</time>
      </trkpt>
      <trkpt lat="47.73129" lon="3.6342">
        <ele>201.05</ele>
        <time>2015-04-26T05:56:55Z</time>
      </trkpt>
      <trkpt lat="47.73108" lon="3.6343">
        <ele>203.94</ele>
        <time>2015-04-26T05:57:09Z</time>
      </trkpt>
      <trkpt lat="47.73105" lon="3.63431">
        <ele>199.13</ele>
        <time>2015-04-26T05:57:11Z</time>
      </trkpt>
      <trkpt lat="47.73103" lon="3.63432">
        <ele>202.98</ele>
        <time>2015-04-26T05:57:12Z</time>
      </trkpt>
      <trkpt lat="47.73101" lon="3.63432">
        <ele>197.69</ele>
        <time>2015-04-26T05:57:13Z</time>
      </trkpt>
      <trkpt lat="47.731" lon="3.63432">
        <ele>204.9</ele>
        <time>2015-04-26T05:57:14Z</time>
      </trkpt>
      <trkpt lat="47.73096" lon="3.63432">
        <ele>201.53</ele>
        <time>2015-04-26T05:57:16Z</time>
      </trkpt>
      <trkpt lat="47.73074" lon="3.63434">
        <ele>202.01</ele>
        <time>2015-04-26T05:57:30Z</time>
      </trkpt>
      <trkpt lat="47.73043" lon="3.63431">
        <ele>202.49</ele>
        <time>2015-04-26T05:57:47Z</time>
      </trkpt>
      <trkpt lat="47.7304" lon="3.6343">
        <ele>202.49</ele>
        <time>2015-04-26T05:57:49Z</time>
      </trkpt>
      <trkpt lat="47.73015" lon="3.63426">
        <ele>203.94</ele>
        <time>2015-04-26T05:58:05Z</time>
      </trkpt>
      <trkpt lat="47.72986" lon="3.63424">
        <ele>204.9</ele>
        <time>2015-04-26T05:58:21Z</time>
      </trkpt>
      <trkpt lat="47.72963" lon="3.63417">
        <ele>204.9</ele>
        <time>2015-04-26T05:58:35Z</time>
      </trkpt>
      <trkpt lat="47.72942" lon="3.63408">
        <ele>205.38</ele>
        <time>2015-04-26T05:58:50Z</time>
      </trkpt>
      <trkpt lat="47.72919" lon="3.63403">
        <ele>206.34</ele>
        <time>2015-04-26T05:59:05Z</time>
      </trkpt>
      <trkpt lat="47.72888" lon="3.63393">
        <ele>206.82</ele>
        <time>2015-04-26T05:59:23Z</time>
      </trkpt>
      <trkpt lat="47.72865" lon="3.63375">
        <ele>205.86</ele>
        <time>2015-04-26T05:59:36Z</time>
      </trkpt>
      <trkpt lat="47.72846" lon="3.63356">
        <ele>205.38</ele>
        <time>2015-04-26T05:59:49Z</time>
      </trkpt>
      <trkpt lat="47.72819" lon="3.6333">
        <ele>204.9</ele>
        <time>2015-04-26T06:00:07Z</time>
      </trkpt>
      <trkpt lat="47.72794" lon="3.63307">
        <ele>204.9</ele>
        <time>2015-04-26T06:00:24Z</time>
      </trkpt>
      <trkpt lat="47.72776" lon="3.6329">
        <ele>204.42</ele>
        <time>2015-04-26T06:00:38Z</time>
      </trkpt>
      <trkpt lat="47.7276" lon="3.63281">
        <ele>204.42</ele>
        <time>2015-04-26T06:00:48Z</time>
      </trkpt>
      <trkpt lat="47.72748" lon="3.63285">
        <ele>205.86</ele>
        <time>2015-04-26T06:00:56Z</time>
      </trkpt>
      <trkpt lat="47.72745" lon="3.6329">
        <ele>206.82</ele>
        <time>2015-04-26T06:00:59Z</time>
      </trkpt>
      <trkpt lat="47.72745" lon="3.63304">
        <ele>207.78</ele>
        <time>2015-04-26T06:01:05Z</time>
      </trkpt>
      <trkpt lat="47.72744" lon="3.63326">
        <ele>209.22</ele>
        <time>2015-04-26T06:01:16Z</time>
      </trkpt>
      <trkpt lat="47.7274" lon="3.63335">
        <ele>210.19</ele>
        <time>2015-04-26T06:01:21Z</time>
      </trkpt>
      <trkpt lat="47.72735" lon="3.63366">
        <ele>212.11</ele>
        <time>2015-04-26T06:01:34Z</time>
      </trkpt>
      <trkpt lat="47.72738" lon="3.63365">
        <ele>212.11</ele>
        <time>2015-04-26T06:01:37Z</time>
      </trkpt>
      <trkpt lat="47.72743" lon="3.63364">
        <ele>212.59</ele>
        <time>2015-04-26T06:01:53Z</time>
      </trkpt>
      <trkpt lat="47.72743" lon="3.63365">
        <ele>212.59</ele>
        <time>2015-04-26T06:02:09Z</time>
      </trkpt>
      <trkpt lat="47.72733" lon="3.63379">
        <ele>212.59</ele>
        <time>2015-04-26T06:02:20Z</time>
      </trkpt>
      <trkpt lat="47.72725" lon="3.63386">
        <ele>213.07</ele>
        <time>2015-04-26T06:02:26Z</time>
      </trkpt>
      <trkpt lat="47.72719" lon="3.634">
        <ele>212.11</ele>
        <time>2015-04-26T06:02:34Z</time>
      </trkpt>
      <trkpt lat="47.72717" lon="3.63418">
        <ele>211.63</ele>
        <time>2015-04-26T06:02:41Z</time>
      </trkpt>
      <trkpt lat="47.72713" lon="3.63428">
        <ele>211.63</ele>
        <time>2015-04-26T06:02:45Z</time>
      </trkpt>
      <trkpt lat="47.72711" lon="3.63443">
        <ele>211.63</ele>
        <time>2015-04-26T06:02:50Z</time>
      </trkpt>
      <trkpt lat="47.72705" lon="3.63457">
        <ele>211.15</ele>
        <time>2015-04-26T06:02:56Z</time>
      </trkpt>
      <trkpt lat="47.72699" lon="3.63473">
        <ele>211.15</ele>
        <time>2015-04-26T06:03:04Z</time>
      </trkpt>
      <trkpt lat="47.72694" lon="3.63493">
        <ele>211.15</ele>
        <time>2015-04-26T06:03:11Z</time>
      </trkpt>
      <trkpt lat="47.72682" lon="3.63532">
        <ele>211.63</ele>
        <time>2015-04-26T06:03:25Z</time>
      </trkpt>
      <trkpt lat="47.72671" lon="3.63552">
        <ele>211.15</ele>
        <time>2015-04-26T06:03:36Z</time>
      </trkpt>
      <trkpt lat="47.7266" lon="3.63582">
        <ele>211.63</ele>
        <time>2015-04-26T06:03:51Z</time>
      </trkpt>
      <trkpt lat="47.72654" lon="3.63603">
        <ele>211.63</ele>
        <time>2015-04-26T06:04:01Z</time>
      </trkpt>
      <trkpt lat="47.72649" lon="3.63617">
        <ele>211.15</ele>
        <time>2015-04-26T06:04:08Z</time>
      </trkpt>
      <trkpt lat="47.72645" lon="3.63638">
        <ele>211.63</ele>
        <time>2015-04-26T06:04:17Z</time>
      </trkpt>
      <trkpt lat="47.72647" lon="3.63646">
        <ele>212.11</ele>
        <time>2015-04-26T06:04:21Z</time>
      </trkpt>
      <trkpt lat="47.72642" lon="3.63684">
        <ele>211.63</ele>
        <time>2015-04-26T06:04:36Z</time>
      </trkpt>
      <trkpt lat="47.72637" lon="3.63716">
        <ele>211.63</ele>
        <time>2015-04-26T06:04:50Z</time>
      </trkpt>
      <trkpt lat="47.72635" lon="3.63746">
        <ele>211.63</ele>
        <time>2015-04-26T06:05:01Z</time>
      </trkpt>
      <trkpt lat="47.72634" lon="3.63781">
        <ele>211.15</ele>
        <time>2015-04-26T06:05:15Z</time>
      </trkpt>
      <trkpt lat="47.72636" lon="3.63816">
        <ele>210.19</ele>
        <time>2015-04-26T06:05:26Z</time>
      </trkpt>
      <trkpt lat="47.72639" lon="3.63852">
        <ele>209.7</ele>
        <time>2015-04-26T06:05:39Z</time>
      </trkpt>
      <trkpt lat="47.72645" lon="3.63875">
        <ele>208.74</ele>
        <time>2015-04-26T06:05:51Z</time>
      </trkpt>
      <trkpt lat="47.72652" lon="3.63897">
        <ele>209.22</ele>
        <time>2015-04-26T06:06:01Z</time>
      </trkpt>
      <trkpt lat="47.72661" lon="3.63921">
        <ele>210.19</ele>
        <time>2015-04-26T06:06:13Z</time>
      </trkpt>
      <trkpt lat="47.72664" lon="3.63927">
        <ele>210.67</ele>
        <time>2015-04-26T06:06:16Z</time>
      </trkpt>
      <trkpt lat="47.72678" lon="3.63944">
        <ele>211.15</ele>
        <time>2015-04-26T06:06:27Z</time>
      </trkpt>
      <trkpt lat="47.72685" lon="3.63957">
        <ele>210.67</ele>
        <time>2015-04-26T06:06:34Z</time>
      </trkpt>
      <trkpt lat="47.72693" lon="3.63966">
        <ele>211.63</ele>
        <time>2015-04-26T06:06:40Z</time>
      </trkpt>
      <trkpt lat="47.727" lon="3.63975">
        <ele>211.63</ele>
        <time>2015-04-26T06:06:47Z</time>
      </trkpt>
      <trkpt lat="47.72703" lon="3.63982">
        <ele>211.63</ele>
        <time>2015-04-26T06:06:50Z</time>
      </trkpt>
      <trkpt lat="47.72711" lon="3.64011">
        <ele>212.59</ele>
        <time>2015-04-26T06:07:02Z</time>
      </trkpt>
      <trkpt lat="47.72713" lon="3.64015">
        <ele>212.59</ele>
        <time>2015-04-26T06:07:04Z</time>
      </trkpt>
      <trkpt lat="47.72713" lon="3.64035">
        <ele>212.59</ele>
        <time>2015-04-26T06:07:11Z</time>
      </trkpt>
      <trkpt lat="47.72714" lon="3.64046">
        <ele>212.59</ele>
        <time>2015-04-26T06:07:15Z</time>
      </trkpt>
      <trkpt lat="47.72712" lon="3.64057">
        <ele>212.11</ele>
        <time>2015-04-26T06:07:19Z</time>
      </trkpt>
      <trkpt lat="47.72709" lon="3.64092">
        <ele>210.67</ele>
        <time>2015-04-26T06:07:29Z</time>
      </trkpt>
      <trkpt lat="47.72709" lon="3.64108">
        <ele>210.19</ele>
        <time>2015-04-26T06:07:36Z</time>
      </trkpt>
      <trkpt lat="47.72709" lon="3.64136">
        <ele>211.15</ele>
        <time>2015-04-26T06:07:47Z</time>
      </trkpt>
      <trkpt lat="47.72705" lon="3.64159">
        <ele>211.63</ele>
        <time>2015-04-26T06:07:57Z</time>
      </trkpt>
      <trkpt lat="47.72692" lon="3.64192">
        <ele>211.15</ele>
        <time>2015-04-26T06:08:12Z</time>
      </trkpt>
      <trkpt lat="47.72683" lon="3.64225">
        <ele>210.67</ele>
        <time>2015-04-26T06:08:25Z</time>
      </trkpt>
      <trkpt lat="47.72671" lon="3.64247">
        <ele>209.22</ele>
        <time>2015-04-26T06:08:37Z</time>
      </trkpt>
      <trkpt lat="47.72656" lon="3.64281">
        <ele>207.78</ele>
        <time>2015-04-26T06:08:53Z</time>
      </trkpt>
      <trkpt lat="47.72646" lon="3.64317">
        <ele>207.3</ele>
        <time>2015-04-26T06:09:07Z</time>
      </trkpt>
      <trkpt lat="47.72647" lon="3.64339">
        <ele>207.3</ele>
        <time>2015-04-26T06:09:17Z</time>
      </trkpt>
      <trkpt lat="47.72656" lon="3.6437">
        <ele>207.3</ele>
        <time>2015-04-26T06:09:30Z</time>
      </trkpt>
      <trkpt lat="47.72664" lon="3.64398">
        <ele>207.78</ele>
        <time>2015-04-26T06:09:41Z</time>
      </trkpt>
      <trkpt lat="47.72674" lon="3.64425">
        <ele>208.26</ele>
        <time>2015-04-26T06:09:54Z</time>
      </trkpt>
      <trkpt lat="47.72688" lon="3.64456">
        <ele>208.74</ele>
        <time>2015-04-26T06:10:09Z</time>
      </trkpt>
      <trkpt lat="47.72697" lon="3.64493">
        <ele>208.74</ele>
        <time>2015-04-26T06:10:25Z</time>
      </trkpt>
      <trkpt lat="47.72696" lon="3.64525">
        <ele>207.78</ele>
        <time>2015-04-26T06:10:38Z</time>
      </trkpt>
      <trkpt lat="47.72701" lon="3.64548">
        <ele>206.82</ele>
        <time>2015-04-26T06:10:47Z</time>
      </trkpt>
      <trkpt lat="47.72706" lon="3.64555">
        <ele>207.3</ele>
        <time>2015-04-26T06:10:51Z</time>
      </trkpt>
      <trkpt lat="47.72728" lon="3.64575">
        <ele>208.74</ele>
        <time>2015-04-26T06:11:07Z</time>
      </trkpt>
      <trkpt lat="47.72748" lon="3.64592">
        <ele>209.7</ele>
        <time>2015-04-26T06:11:20Z</time>
      </trkpt>
      <trkpt lat="47.7276" lon="3.64604">
        <ele>210.19</ele>
        <time>2015-04-26T06:11:30Z</time>
      </trkpt>
      <trkpt lat="47.72768" lon="3.64619">
        <ele>210.67</ele>
        <time>2015-04-26T06:11:41Z</time>
      </trkpt>
      <trkpt lat="47.72767" lon="3.6462">
        <ele>210.67</ele>
        <time>2015-04-26T06:11:52Z</time>
      </trkpt>
      <trkpt lat="47.72767" lon="3.64622">
        <ele>211.15</ele>
        <time>2015-04-26T06:12:06Z</time>
      </trkpt>
      <trkpt lat="47.72766" lon="3.64624">
        <ele>211.15</ele>
        <time>2015-04-26T06:12:22Z</time>
      </trkpt>
      <trkpt lat="47.72767" lon="3.6462">
        <ele>211.15</ele>
        <time>2015-04-26T06:12:33Z</time>
      </trkpt>
      <trkpt lat="47.72766" lon="3.64621">
        <ele>211.15</ele>
        <time>2015-04-26T06:12:51Z</time>
      </trkpt>
      <trkpt lat="47.72766" lon="3.64621">
        <ele>211.15</ele>
        <time>2015-04-26T06:13:11Z</time>
      </trkpt>
      <trkpt lat="47.72766" lon="3.64621">
        <ele>211.15</ele>
        <time>2015-04-26T06:13:38Z</time>
      </trkpt>
      <trkpt lat="47.72766" lon="3.64621">
        <ele>211.15</ele>
        <time>2015-04-26T06:14:01Z</time>
      </trkpt>
      <trkpt lat="47.72763" lon="3.64626">
        <ele>211.15</ele>
        <time>2015-04-26T06:14:12Z</time>
      </trkpt>
      <trkpt lat="47.72762" lon="3.64624">
        <ele>211.15</ele>
        <time>2015-04-26T06:14:24Z</time>
      </trkpt>
      <trkpt lat="47.72766" lon="3.6462">
        <ele>211.63</ele>
        <time>2015-04-26T06:14:37Z</time>
      </trkpt>
      <trkpt lat="47.72766" lon="3.64621">
        <ele>210.67</ele>
        <time>2015-04-26T06:14:57Z</time>
      </trkpt>
      <trkpt lat="47.72766" lon="3.64622">
        <ele>210.67</ele>
        <time>2015-04-26T06:15:11Z</time>
      </trkpt>
      <trkpt lat="47.72766" lon="3.64622">
        <ele>211.15</ele>
        <time>2015-04-26T06:15:26Z</time>
      </trkpt>
      <trkpt lat="47.72761" lon="3.64623">
        <ele>211.15</ele>
        <time>2015-04-26T06:15:38Z</time>
      </trkpt>
      <trkpt lat="47.72758" lon="3.64628">
        <ele>210.67</ele>
        <time>2015-04-26T06:15:48Z</time>
      </trkpt>
      <trkpt lat="47.72752" lon="3.64634">
        <ele>210.67</ele>
        <time>2015-04-26T06:15:55Z</time>
      </trkpt>
      <trkpt lat="47.72748" lon="3.64638">
        <ele>210.67</ele>
        <time>2015-04-26T06:15:59Z</time>
      </trkpt>
      <trkpt lat="47.72732" lon="3.64656">
        <ele>211.15</ele>
        <time>2015-04-26T06:16:14Z</time>
      </trkpt>
      <trkpt lat="47.72712" lon="3.64681">
        <ele>211.63</ele>
        <time>2015-04-26T06:16:30Z</time>
      </trkpt>
      <trkpt lat="47.72691" lon="3.64708">
        <ele>212.11</ele>
        <time>2015-04-26T06:16:46Z</time>
      </trkpt>
      <trkpt lat="47.72671" lon="3.64729">
        <ele>213.07</ele>
        <time>2015-04-26T06:17:02Z</time>
      </trkpt>
      <trkpt lat="47.72667" lon="3.64735">
        <ele>213.55</ele>
        <time>2015-04-26T06:17:06Z</time>
      </trkpt>
      <trkpt lat="47.7265" lon="3.64759">
        <ele>214.99</ele>
        <time>2015-04-26T06:17:21Z</time>
      </trkpt>
      <trkpt lat="47.72644" lon="3.64768">
        <ele>215.47</ele>
        <time>2015-04-26T06:17:27Z</time>
      </trkpt>
      <trkpt lat="47.72619" lon="3.64783">
        <ele>217.4</ele>
        <time>2015-04-26T06:17:43Z</time>
      </trkpt>
      <trkpt lat="47.72609" lon="3.64787">
        <ele>218.84</ele>
        <time>2015-04-26T06:17:51Z</time>
      </trkpt>
      <trkpt lat="47.72583" lon="3.64797">
        <ele>221.72</ele>
        <time>2015-04-26T06:18:08Z</time>
      </trkpt>
      <trkpt lat="47.72564" lon="3.648">
        <ele>223.64</ele>
        <time>2015-04-26T06:18:21Z</time>
      </trkpt>
      <trkpt lat="47.72553" lon="3.64805">
        <ele>225.09</ele>
        <time>2015-04-26T06:18:28Z</time>
      </trkpt>
      <trkpt lat="47.72542" lon="3.64809">
        <ele>226.53</ele>
        <time>2015-04-26T06:18:37Z</time>
      </trkpt>
      <trkpt lat="47.72518" lon="3.64817">
        <ele>230.37</ele>
        <time>2015-04-26T06:18:54Z</time>
      </trkpt>
      <trkpt lat="47.72513" lon="3.64819">
        <ele>230.85</ele>
        <time>2015-04-26T06:18:58Z</time>
      </trkpt>
      <trkpt lat="47.72496" lon="3.64827">
        <ele>232.78</ele>
        <time>2015-04-26T06:19:09Z</time>
      </trkpt>
      <trkpt lat="47.72475" lon="3.64834">
        <ele>234.7</ele>
        <time>2015-04-26T06:19:23Z</time>
      </trkpt>
      <trkpt lat="47.72453" lon="3.64847">
        <ele>236.14</ele>
        <time>2015-04-26T06:19:37Z</time>
      </trkpt>
      <trkpt lat="47.7243" lon="3.64852">
        <ele>235.66</ele>
        <time>2015-04-26T06:19:50Z</time>
      </trkpt>
      <trkpt lat="47.72407" lon="3.64851">
        <ele>235.18</ele>
        <time>2015-04-26T06:20:05Z</time>
      </trkpt>
      <trkpt lat="47.7238" lon="3.64858">
        <ele>234.7</ele>
        <time>2015-04-26T06:20:20Z</time>
      </trkpt>
      <trkpt lat="47.7237" lon="3.64858">
        <ele>233.74</ele>
        <time>2015-04-26T06:20:25Z</time>
      </trkpt>
      <trkpt lat="47.72366" lon="3.64858">
        <ele>233.74</ele>
        <time>2015-04-26T06:20:27Z</time>
      </trkpt>
      <trkpt lat="47.72349" lon="3.64859">
        <ele>233.26</ele>
        <time>2015-04-26T06:20:37Z</time>
      </trkpt>
      <trkpt lat="47.72342" lon="3.64857">
        <ele>233.26</ele>
        <time>2015-04-26T06:20:41Z</time>
      </trkpt>
      <trkpt lat="47.72316" lon="3.64862">
        <ele>232.78</ele>
        <time>2015-04-26T06:20:56Z</time>
      </trkpt>
      <trkpt lat="47.72293" lon="3.64865">
        <ele>232.78</ele>
        <time>2015-04-26T06:21:10Z</time>
      </trkpt>
      <trkpt lat="47.72287" lon="3.64865">
        <ele>232.3</ele>
        <time>2015-04-26T06:21:14Z</time>
      </trkpt>
      <trkpt lat="47.72269" lon="3.64866">
        <ele>230.85</ele>
        <time>2015-04-26T06:21:25Z</time>
      </trkpt>
      <trkpt lat="47.72244" lon="3.64862">
        <ele>229.89</ele>
        <time>2015-04-26T06:21:39Z</time>
      </trkpt>
      <trkpt lat="47.72235" lon="3.6486">
        <ele>229.41</ele>
        <time>2015-04-26T06:21:45Z</time>
      </trkpt>
      <trkpt lat="47.72218" lon="3.64851">
        <ele>229.41</ele>
        <time>2015-04-26T06:21:57Z</time>
      </trkpt>
      <trkpt lat="47.72205" lon="3.64849">
        <ele>229.41</ele>
        <time>2015-04-26T06:22:05Z</time>
      </trkpt>
      <trkpt lat="47.72188" lon="3.64843">
        <ele>230.37</ele>
        <time>2015-04-26T06:22:18Z</time>
      </trkpt>
      <trkpt lat="47.72182" lon="3.64837">
        <ele>230.85</ele>
        <time>2015-04-26T06:22:22Z</time>
      </trkpt>
      <trkpt lat="47.72168" lon="3.64828">
        <ele>232.3</ele>
        <time>2015-04-26T06:22:31Z</time>
      </trkpt>
      <trkpt lat="47.7216" lon="3.64828">
        <ele>232.78</ele>
        <time>2015-04-26T06:22:36Z</time>
      </trkpt>
      <trkpt lat="47.7214" lon="3.6482">
        <ele>235.18</ele>
        <time>2015-04-26T06:22:48Z</time>
      </trkpt>
      <trkpt lat="47.72125" lon="3.64809">
        <ele>237.58</ele>
        <time>2015-04-26T06:23:00Z</time>
      </trkpt>
      <trkpt lat="47.72121" lon="3.64804">
        <ele>237.58</ele>
        <time>2015-04-26T06:23:05Z</time>
      </trkpt>
      <trkpt lat="47.72118" lon="3.64796">
        <ele>238.06</ele>
        <time>2015-04-26T06:23:10Z</time>
      </trkpt>
      <trkpt lat="47.72109" lon="3.64768">
        <ele>238.06</ele>
        <time>2015-04-26T06:23:21Z</time>
      </trkpt>
      <trkpt lat="47.72107" lon="3.64763">
        <ele>238.54</ele>
        <time>2015-04-26T06:23:23Z</time>
      </trkpt>
      <trkpt lat="47.72101" lon="3.64735">
        <ele>239.51</ele>
        <time>2015-04-26T06:23:38Z</time>
      </trkpt>
      <trkpt lat="47.72092" lon="3.64704">
        <ele>239.99</ele>
        <time>2015-04-26T06:23:53Z</time>
      </trkpt>
      <trkpt lat="47.72086" lon="3.64691">
        <ele>239.51</ele>
        <time>2015-04-26T06:23:59Z</time>
      </trkpt>
      <trkpt lat="47.72075" lon="3.64669">
        <ele>239.51</ele>
        <time>2015-04-26T06:24:09Z</time>
      </trkpt>
      <trkpt lat="47.72071" lon="3.64661">
        <ele>239.51</ele>
        <time>2015-04-26T06:24:14Z</time>
      </trkpt>
      <trkpt lat="47.72061" lon="3.64642">
        <ele>239.51</ele>
        <time>2015-04-26T06:24:22Z</time>
      </trkpt>
      <trkpt lat="47.72052" lon="3.64617">
        <ele>239.51</ele>
        <time>2015-04-26T06:24:32Z</time>
      </trkpt>
      <trkpt lat="47.72045" lon="3.64603">
        <ele>239.51</ele>
        <time>2015-04-26T06:24:39Z</time>
      </trkpt>
      <trkpt lat="47.72038" lon="3.6459">
        <ele>239.51</ele>
        <time>2015-04-26T06:24:45Z</time>
      </trkpt>
      <trkpt lat="47.72033" lon="3.64581">
        <ele>239.51</ele>
        <time>2015-04-26T06:24:50Z</time>
      </trkpt>
      <trkpt lat="47.72024" lon="3.64564">
        <ele>239.99</ele>
        <time>2015-04-26T06:24:59Z</time>
      </trkpt>
      <trkpt lat="47.72021" lon="3.64559">
        <ele>240.47</ele>
        <time>2015-04-26T06:25:03Z</time>
      </trkpt>
      <trkpt lat="47.72016" lon="3.64549">
        <ele>240.47</ele>
        <time>2015-04-26T06:25:08Z</time>
      </trkpt>
      <trkpt lat="47.72015" lon="3.64539">
        <ele>240.47</ele>
        <time>2015-04-26T06:25:12Z</time>
      </trkpt>
      <trkpt lat="47.72009" lon="3.64518">
        <ele>240.47</ele>
        <time>2015-04-26T06:25:20Z</time>
      </trkpt>
      <trkpt lat="47.72008" lon="3.64513">
        <ele>240.47</ele>
        <time>2015-04-26T06:25:22Z</time>
      </trkpt>
      <trkpt lat="47.72001" lon="3.64496">
        <ele>240.47</ele>
        <time>2015-04-26T06:25:31Z</time>
      </trkpt>
      <trkpt lat="47.71985" lon="3.64463">
        <ele>240.47</ele>
        <time>2015-04-26T06:25:48Z</time>
      </trkpt>
      <trkpt lat="47.71973" lon="3.64438">
        <ele>241.43</ele>
        <time>2015-04-26T06:26:01Z</time>
      </trkpt>
      <trkpt lat="47.71962" lon="3.64416">
        <ele>241.43</ele>
        <time>2015-04-26T06:26:13Z</time>
      </trkpt>
      <trkpt lat="47.71947" lon="3.64399">
        <ele>242.39</ele>
        <time>2015-04-26T06:26:26Z</time>
      </trkpt>
      <trkpt lat="47.71925" lon="3.64386">
        <ele>242.87</ele>
        <time>2015-04-26T06:26:41Z</time>
      </trkpt>
      <trkpt lat="47.71911" lon="3.64377">
        <ele>244.79</ele>
        <time>2015-04-26T06:26:52Z</time>
      </trkpt>
      <trkpt lat="47.71896" lon="3.64365">
        <ele>245.75</ele>
        <time>2015-04-26T06:27:02Z</time>
      </trkpt>
      <trkpt lat="47.71889" lon="3.64358">
        <ele>246.23</ele>
        <time>2015-04-26T06:27:08Z</time>
      </trkpt>
      <trkpt lat="47.71875" lon="3.64345">
        <ele>246.72</ele>
        <time>2015-04-26T06:27:19Z</time>
      </trkpt>
      <trkpt lat="47.71868" lon="3.64341">
        <ele>246.72</ele>
        <time>2015-04-26T06:27:23Z</time>
      </trkpt>
      <trkpt lat="47.71841" lon="3.64331">
        <ele>247.68</ele>
        <time>2015-04-26T06:27:38Z</time>
      </trkpt>
      <trkpt lat="47.71816" lon="3.64326">
        <ele>248.16</ele>
        <time>2015-04-26T06:27:53Z</time>
      </trkpt>
      <trkpt lat="47.71814" lon="3.64325">
        <ele>247.2</ele>
        <time>2015-04-26T06:27:55Z</time>
      </trkpt>
      <trkpt lat="47.71803" lon="3.64317">
        <ele>245.75</ele>
        <time>2015-04-26T06:28:01Z</time>
      </trkpt>
      <trkpt lat="47.7178" lon="3.6431">
        <ele>242.87</ele>
        <time>2015-04-26T06:28:14Z</time>
      </trkpt>
      <trkpt lat="47.71756" lon="3.64307">
        <ele>239.99</ele>
        <time>2015-04-26T06:28:27Z</time>
      </trkpt>
      <trkpt lat="47.71738" lon="3.64308">
        <ele>236.62</ele>
        <time>2015-04-26T06:28:39Z</time>
      </trkpt>
      <trkpt lat="47.71731" lon="3.6431">
        <ele>235.66</ele>
        <time>2015-04-26T06:28:44Z</time>
      </trkpt>
      <trkpt lat="47.71722" lon="3.64309">
        <ele>234.7</ele>
        <time>2015-04-26T06:28:50Z</time>
      </trkpt>
      <trkpt lat="47.71702" lon="3.64301">
        <ele>231.33</ele>
        <time>2015-04-26T06:29:04Z</time>
      </trkpt>
      <trkpt lat="47.71682" lon="3.64291">
        <ele>228.93</ele>
        <time>2015-04-26T06:29:17Z</time>
      </trkpt>
      <trkpt lat="47.71662" lon="3.64288">
        <ele>225.57</ele>
        <time>2015-04-26T06:29:29Z</time>
      </trkpt>
      <trkpt lat="47.71656" lon="3.64287">
        <ele>225.09</ele>
        <time>2015-04-26T06:29:33Z</time>
      </trkpt>
      <trkpt lat="47.71652" lon="3.64294">
        <ele>223.64</ele>
        <time>2015-04-26T06:29:37Z</time>
      </trkpt>
      <trkpt lat="47.71649" lon="3.64329">
        <ele>224.12</ele>
        <time>2015-04-26T06:29:51Z</time>
      </trkpt>
      <trkpt lat="47.71649" lon="3.64368">
        <ele>223.64</ele>
        <time>2015-04-26T06:30:06Z</time>
      </trkpt>
      <trkpt lat="47.71647" lon="3.64399">
        <ele>223.64</ele>
        <time>2015-04-26T06:30:19Z</time>
      </trkpt>
      <trkpt lat="47.71646" lon="3.6443">
        <ele>223.16</ele>
        <time>2015-04-26T06:30:32Z</time>
      </trkpt>
      <trkpt lat="47.71645" lon="3.64469">
        <ele>222.2</ele>
        <time>2015-04-26T06:30:47Z</time>
      </trkpt>
      <trkpt lat="47.71645" lon="3.64475">
        <ele>221.72</ele>
        <time>2015-04-26T06:30:50Z</time>
      </trkpt>
      <trkpt lat="47.71655" lon="3.64504">
        <ele>221.72</ele>
        <time>2015-04-26T06:31:03Z</time>
      </trkpt>
      <trkpt lat="47.71658" lon="3.64507">
        <ele>221.72</ele>
        <time>2015-04-26T06:31:05Z</time>
      </trkpt>
      <trkpt lat="47.71668" lon="3.64535">
        <ele>223.64</ele>
        <time>2015-04-26T06:31:19Z</time>
      </trkpt>
      <trkpt lat="47.71669" lon="3.64536">
        <ele>223.64</ele>
        <time>2015-04-26T06:31:20Z</time>
      </trkpt>
      <trkpt lat="47.71671" lon="3.64541">
        <ele>224.12</ele>
        <time>2015-04-26T06:31:23Z</time>
      </trkpt>
      <trkpt lat="47.71678" lon="3.64573">
        <ele>225.09</ele>
        <time>2015-04-26T06:31:36Z</time>
      </trkpt>
      <trkpt lat="47.71677" lon="3.64605">
        <ele>224.61</ele>
        <time>2015-04-26T06:31:50Z</time>
      </trkpt>
      <trkpt lat="47.71665" lon="3.64639">
        <ele>224.12</ele>
        <time>2015-04-26T06:32:05Z</time>
      </trkpt>
      <trkpt lat="47.71658" lon="3.64652">
        <ele>223.64</ele>
        <time>2015-04-26T06:32:13Z</time>
      </trkpt>
      <trkpt lat="47.71645" lon="3.64688">
        <ele>223.16</ele>
        <time>2015-04-26T06:32:28Z</time>
      </trkpt>
      <trkpt lat="47.71641" lon="3.6471">
        <ele>222.2</ele>
        <time>2015-04-26T06:32:38Z</time>
      </trkpt>
      <trkpt lat="47.71639" lon="3.64725">
        <ele>221.72</ele>
        <time>2015-04-26T06:32:45Z</time>
      </trkpt>
      <trkpt lat="47.71639" lon="3.6476">
        <ele>222.2</ele>
        <time>2015-04-26T06:33:00Z</time>
      </trkpt>
      <trkpt lat="47.71653" lon="3.64764">
        <ele>224.12</ele>
        <time>2015-04-26T06:33:13Z</time>
      </trkpt>
      <trkpt lat="47.71667" lon="3.6476">
        <ele>227.49</ele>
        <time>2015-04-26T06:33:25Z</time>
      </trkpt>
      <trkpt lat="47.71681" lon="3.64758">
        <ele>230.37</ele>
        <time>2015-04-26T06:33:37Z</time>
      </trkpt>
      <trkpt lat="47.71698" lon="3.64762">
        <ele>232.78</ele>
        <time>2015-04-26T06:33:50Z</time>
      </trkpt>
      <trkpt lat="47.71703" lon="3.64792">
        <ele>233.74</ele>
        <time>2015-04-26T06:34:03Z</time>
      </trkpt>
      <trkpt lat="47.71704" lon="3.64798">
        <ele>233.74</ele>
        <time>2015-04-26T06:34:06Z</time>
      </trkpt>
      <trkpt lat="47.71704" lon="3.64807">
        <ele>234.22</ele>
        <time>2015-04-26T06:34:10Z</time>
      </trkpt>
      <trkpt lat="47.71709" lon="3.6484">
        <ele>234.22</ele>
        <time>2015-04-26T06:34:24Z</time>
      </trkpt>
      <trkpt lat="47.71717" lon="3.64871">
        <ele>233.74</ele>
        <time>2015-04-26T06:34:38Z</time>
      </trkpt>
      <trkpt lat="47.71723" lon="3.64907">
        <ele>233.74</ele>
        <time>2015-04-26T06:34:53Z</time>
      </trkpt>
      <trkpt lat="47.71729" lon="3.64918">
        <ele>234.22</ele>
        <time>2015-04-26T06:34:58Z</time>
      </trkpt>
      <trkpt lat="47.71744" lon="3.64947">
        <ele>234.7</ele>
        <time>2015-04-26T06:35:11Z</time>
      </trkpt>
      <trkpt lat="47.71755" lon="3.6498">
        <ele>235.18</ele>
        <time>2015-04-26T06:35:24Z</time>
      </trkpt>
      <trkpt lat="47.71757" lon="3.64984">
        <ele>235.66</ele>
        <time>2015-04-26T06:35:26Z</time>
      </trkpt>
      <trkpt lat="47.71761" lon="3.64994">
        <ele>236.14</ele>
        <time>2015-04-26T06:35:32Z</time>
      </trkpt>
      <trkpt lat="47.71773" lon="3.65017">
        <ele>236.62</ele>
        <time>2015-04-26T06:35:42Z</time>
      </trkpt>
      <trkpt lat="47.71783" lon="3.65032">
        <ele>237.1</ele>
        <time>2015-04-26T06:35:50Z</time>
      </trkpt>
      <trkpt lat="47.71788" lon="3.65047">
        <ele>237.1</ele>
        <time>2015-04-26T06:35:57Z</time>
      </trkpt>
      <trkpt lat="47.71797" lon="3.6507">
        <ele>237.58</ele>
        <time>2015-04-26T06:36:07Z</time>
      </trkpt>
      <trkpt lat="47.71799" lon="3.65076">
        <ele>237.58</ele>
        <time>2015-04-26T06:36:09Z</time>
      </trkpt>
      <trkpt lat="47.71803" lon="3.65084">
        <ele>237.58</ele>
        <time>2015-04-26T06:36:13Z</time>
      </trkpt>
      <trkpt lat="47.71806" lon="3.65097">
        <ele>238.06</ele>
        <time>2015-04-26T06:36:18Z</time>
      </trkpt>
      <trkpt lat="47.71815" lon="3.65127">
        <ele>238.06</ele>
        <time>2015-04-26T06:36:34Z</time>
      </trkpt>
      <trkpt lat="47.71821" lon="3.65159">
        <ele>236.14</ele>
        <time>2015-04-26T06:36:48Z</time>
      </trkpt>
      <trkpt lat="47.71822" lon="3.65166">
        <ele>235.66</ele>
        <time>2015-04-26T06:36:51Z</time>
      </trkpt>
      <trkpt lat="47.71821" lon="3.65183">
        <ele>234.7</ele>
        <time>2015-04-26T06:36:57Z</time>
      </trkpt>
      <trkpt lat="47.71818" lon="3.65198">
        <ele>233.26</ele>
        <time>2015-04-26T06:37:03Z</time>
      </trkpt>
      <trkpt lat="47.71815" lon="3.65204">
        <ele>232.78</ele>
        <time>2015-04-26T06:37:06Z</time>
      </trkpt>
      <trkpt lat="47.7181" lon="3.65218">
        <ele>231.33</ele>
        <time>2015-04-26T06:37:12Z</time>
      </trkpt>
      <trkpt lat="47.71803" lon="3.65237">
        <ele>229.41</ele>
        <time>2015-04-26T06:37:21Z</time>
      </trkpt>
      <trkpt lat="47.71791" lon="3.65264">
        <ele>228.45</ele>
        <time>2015-04-26T06:37:33Z</time>
      </trkpt>
      <trkpt lat="47.71774" lon="3.65298">
        <ele>228.45</ele>
        <time>2015-04-26T06:37:49Z</time>
      </trkpt>
      <trkpt lat="47.7176" lon="3.65322">
        <ele>227.49</ele>
        <time>2015-04-26T06:38:02Z</time>
      </trkpt>
      <trkpt lat="47.71744" lon="3.65349">
        <ele>227.01</ele>
        <time>2015-04-26T06:38:15Z</time>
      </trkpt>
      <trkpt lat="47.71734" lon="3.65381">
        <ele>226.05</ele>
        <time>2015-04-26T06:38:28Z</time>
      </trkpt>
      <trkpt lat="47.71725" lon="3.65416">
        <ele>224.61</ele>
        <time>2015-04-26T06:38:43Z</time>
      </trkpt>
      <trkpt lat="47.71716" lon="3.65447">
        <ele>222.2</ele>
        <time>2015-04-26T06:38:57Z</time>
      </trkpt>
      <trkpt lat="47.71708" lon="3.65479">
        <ele>221.72</ele>
        <time>2015-04-26T06:39:11Z</time>
      </trkpt>
      <trkpt lat="47.71701" lon="3.65509">
        <ele>220.76</ele>
        <time>2015-04-26T06:39:23Z</time>
      </trkpt>
      <trkpt lat="47.71695" lon="3.65525">
        <ele>220.28</ele>
        <time>2015-04-26T06:39:31Z</time>
      </trkpt>
      <trkpt lat="47.71682" lon="3.65556">
        <ele>220.76</ele>
        <time>2015-04-26T06:39:46Z</time>
      </trkpt>
      <trkpt lat="47.71681" lon="3.65559">
        <ele>220.76</ele>
        <time>2015-04-26T06:39:48Z</time>
      </trkpt>
      <trkpt lat="47.71679" lon="3.65564">
        <ele>220.76</ele>
        <time>2015-04-26T06:39:52Z</time>
      </trkpt>
      <trkpt lat="47.71672" lon="3.65585">
        <ele>221.72</ele>
        <time>2015-04-26T06:40:01Z</time>
      </trkpt>
      <trkpt lat="47.71666" lon="3.656">
        <ele>221.72</ele>
        <time>2015-04-26T06:40:09Z</time>
      </trkpt>
      <trkpt lat="47.71661" lon="3.6561">
        <ele>222.2</ele>
        <time>2015-04-26T06:40:15Z</time>
      </trkpt>
      <trkpt lat="47.71641" lon="3.65623">
        <ele>220.76</ele>
        <time>2015-04-26T06:40:28Z</time>
      </trkpt>
      <trkpt lat="47.71622" lon="3.65621">
        <ele>218.84</ele>
        <time>2015-04-26T06:40:39Z</time>
      </trkpt>
      <trkpt lat="47.71599" lon="3.65618">
        <ele>216.43</ele>
        <time>2015-04-26T06:40:54Z</time>
      </trkpt>
      <trkpt lat="47.71579" lon="3.65614">
        <ele>214.51</ele>
        <time>2015-04-26T06:41:07Z</time>
      </trkpt>
      <trkpt lat="47.7156" lon="3.65614">
        <ele>213.07</ele>
        <time>2015-04-26T06:41:19Z</time>
      </trkpt>
      <trkpt lat="47.71538" lon="3.65615">
        <ele>209.7</ele>
        <time>2015-04-26T06:41:33Z</time>
      </trkpt>
      <trkpt lat="47.71516" lon="3.65615">
        <ele>207.78</ele>
        <time>2015-04-26T06:41:47Z</time>
      </trkpt>
      <trkpt lat="47.71494" lon="3.65623">
        <ele>205.38</ele>
        <time>2015-04-26T06:42:02Z</time>
      </trkpt>
      <trkpt lat="47.7147" lon="3.65635">
        <ele>202.01</ele>
        <time>2015-04-26T06:42:17Z</time>
      </trkpt>
      <trkpt lat="47.71451" lon="3.65642">
        <ele>199.13</ele>
        <time>2015-04-26T06:42:30Z</time>
      </trkpt>
      <trkpt lat="47.71431" lon="3.6565">
        <ele>195.77</ele>
        <time>2015-04-26T06:42:43Z</time>
      </trkpt>
      <trkpt lat="47.71412" lon="3.65667">
        <ele>192.88</ele>
        <time>2015-04-26T06:42:57Z</time>
      </trkpt>
      <trkpt lat="47.71405" lon="3.65692">
        <ele>190</ele>
        <time>2015-04-26T06:43:09Z</time>
      </trkpt>
      <trkpt lat="47.71396" lon="3.65729">
        <ele>187.11</ele>
        <time>2015-04-26T06:43:25Z</time>
      </trkpt>
      <trkpt lat="47.71395" lon="3.65731">
        <ele>187.11</ele>
        <time>2015-04-26T06:43:26Z</time>
      </trkpt>
      <trkpt lat="47.71387" lon="3.65764">
        <ele>183.75</ele>
        <time>2015-04-26T06:43:42Z</time>
      </trkpt>
      <trkpt lat="47.7138" lon="3.65797">
        <ele>180.87</ele>
        <time>2015-04-26T06:43:56Z</time>
      </trkpt>
      <trkpt lat="47.71374" lon="3.65829">
        <ele>178.46</ele>
        <time>2015-04-26T06:44:10Z</time>
      </trkpt>
      <trkpt lat="47.71373" lon="3.65859">
        <ele>175.58</ele>
        <time>2015-04-26T06:44:23Z</time>
      </trkpt>
      <trkpt lat="47.71371" lon="3.65888">
        <ele>173.17</ele>
        <time>2015-04-26T06:44:35Z</time>
      </trkpt>
      <trkpt lat="47.71367" lon="3.65917">
        <ele>170.29</ele>
        <time>2015-04-26T06:44:48Z</time>
      </trkpt>
      <trkpt lat="47.71362" lon="3.65949">
        <ele>166.93</ele>
        <time>2015-04-26T06:45:02Z</time>
      </trkpt>
      <trkpt lat="47.71357" lon="3.65972">
        <ele>165</ele>
        <time>2015-04-26T06:45:13Z</time>
      </trkpt>
      <trkpt lat="47.71359" lon="3.65969">
        <ele>160.68</ele>
        <time>2015-04-26T06:45:15Z</time>
      </trkpt>
      <trkpt lat="47.71359" lon="3.65968">
        <ele>163.08</ele>
        <time>2015-04-26T06:45:16Z</time>
      </trkpt>
      <trkpt lat="47.7136" lon="3.65968">
        <ele>168.85</ele>
        <time>2015-04-26T06:45:17Z</time>
      </trkpt>
      <trkpt lat="47.7136" lon="3.65968">
        <ele>164.04</ele>
        <time>2015-04-26T06:45:18Z</time>
      </trkpt>
      <trkpt lat="47.7136" lon="3.65968">
        <ele>166.45</ele>
        <time>2015-04-26T06:45:32Z</time>
      </trkpt>
      <trkpt lat="47.71359" lon="3.6597">
        <ele>164.52</ele>
        <time>2015-04-26T06:45:35Z</time>
      </trkpt>
      <trkpt lat="47.71353" lon="3.65991">
        <ele>161.16</ele>
        <time>2015-04-26T06:45:43Z</time>
      </trkpt>
      <trkpt lat="47.71353" lon="3.65995">
        <ele>165.48</ele>
        <time>2015-04-26T06:45:44Z</time>
      </trkpt>
      <trkpt lat="47.71352" lon="3.65998">
        <ele>159.72</ele>
        <time>2015-04-26T06:45:45Z</time>
      </trkpt>
      <trkpt lat="47.71351" lon="3.66001">
        <ele>165</ele>
        <time>2015-04-26T06:45:46Z</time>
      </trkpt>
      <trkpt lat="47.71351" lon="3.66013">
        <ele>161.64</ele>
        <time>2015-04-26T06:45:50Z</time>
      </trkpt>
      <trkpt lat="47.71351" lon="3.66016">
        <ele>161.64</ele>
        <time>2015-04-26T06:45:51Z</time>
      </trkpt>
      <trkpt lat="47.71352" lon="3.66022">
        <ele>160.68</ele>
        <time>2015-04-26T06:45:54Z</time>
      </trkpt>
      <trkpt lat="47.71355" lon="3.66034">
        <ele>160.2</ele>
        <time>2015-04-26T06:45:58Z</time>
      </trkpt>
      <trkpt lat="47.71359" lon="3.66046">
        <ele>158.75</ele>
        <time>2015-04-26T06:46:02Z</time>
      </trkpt>
      <trkpt lat="47.71362" lon="3.66052">
        <ele>159.24</ele>
        <time>2015-04-26T06:46:04Z</time>
      </trkpt>
      <trkpt lat="47.71373" lon="3.66086">
        <ele>154.43</ele>
        <time>2015-04-26T06:46:17Z</time>
      </trkpt>
      <trkpt lat="47.71376" lon="3.66109">
        <ele>150.1</ele>
        <time>2015-04-26T06:46:26Z</time>
      </trkpt>
      <trkpt lat="47.71376" lon="3.66112">
        <ele>158.27</ele>
        <time>2015-04-26T06:46:27Z</time>
      </trkpt>
      <trkpt lat="47.71375" lon="3.66114">
        <ele>154.43</ele>
        <time>2015-04-26T06:46:28Z</time>
      </trkpt>
      <trkpt lat="47.71374" lon="3.6613">
        <ele>150.58</ele>
        <time>2015-04-26T06:46:37Z</time>
      </trkpt>
      <trkpt lat="47.71373" lon="3.66132">
        <ele>159.24</ele>
        <time>2015-04-26T06:46:38Z</time>
      </trkpt>
      <trkpt lat="47.71372" lon="3.66136">
        <ele>159.24</ele>
        <time>2015-04-26T06:46:39Z</time>
      </trkpt>
      <trkpt lat="47.71371" lon="3.66139">
        <ele>155.39</ele>
        <time>2015-04-26T06:46:40Z</time>
      </trkpt>
      <trkpt lat="47.71371" lon="3.66142">
        <ele>156.35</ele>
        <time>2015-04-26T06:46:41Z</time>
      </trkpt>
      <trkpt lat="47.71368" lon="3.66155">
        <ele>157.31</ele>
        <time>2015-04-26T06:46:47Z</time>
      </trkpt>
      <trkpt lat="47.71373" lon="3.66183">
        <ele>160.68</ele>
        <time>2015-04-26T06:47:00Z</time>
      </trkpt>
      <trkpt lat="47.7138" lon="3.66199">
        <ele>161.64</ele>
        <time>2015-04-26T06:47:07Z</time>
      </trkpt>
      <trkpt lat="47.71396" lon="3.6623">
        <ele>162.6</ele>
        <time>2015-04-26T06:47:23Z</time>
      </trkpt>
      <trkpt lat="47.71409" lon="3.66253">
        <ele>162.6</ele>
        <time>2015-04-26T06:47:36Z</time>
      </trkpt>
      <trkpt lat="47.71416" lon="3.66262">
        <ele>163.08</ele>
        <time>2015-04-26T06:47:42Z</time>
      </trkpt>
      <trkpt lat="47.71431" lon="3.66287">
        <ele>164.04</ele>
        <time>2015-04-26T06:47:56Z</time>
      </trkpt>
      <trkpt lat="47.71436" lon="3.66295">
        <ele>165</ele>
        <time>2015-04-26T06:48:00Z</time>
      </trkpt>
      <trkpt lat="47.71439" lon="3.66302">
        <ele>165</ele>
        <time>2015-04-26T06:48:04Z</time>
      </trkpt>
      <trkpt lat="47.71446" lon="3.66313">
        <ele>165.48</ele>
        <time>2015-04-26T06:48:10Z</time>
      </trkpt>
      <trkpt lat="47.71449" lon="3.66322">
        <ele>165.48</ele>
        <time>2015-04-26T06:48:14Z</time>
      </trkpt>
      <trkpt lat="47.7146" lon="3.66346">
        <ele>165.96</ele>
        <time>2015-04-26T06:48:25Z</time>
      </trkpt>
      <trkpt lat="47.71475" lon="3.66369">
        <ele>165.96</ele>
        <time>2015-04-26T06:48:38Z</time>
      </trkpt>
      <trkpt lat="47.71477" lon="3.66384">
        <ele>166.45</ele>
        <time>2015-04-26T06:48:45Z</time>
      </trkpt>
      <trkpt lat="47.71489" lon="3.66418">
        <ele>165.96</ele>
        <time>2015-04-26T06:49:00Z</time>
      </trkpt>
      <trkpt lat="47.71494" lon="3.66443">
        <ele>165.48</ele>
        <time>2015-04-26T06:49:11Z</time>
      </trkpt>
      <trkpt lat="47.71494" lon="3.66445">
        <ele>166.45</ele>
        <time>2015-04-26T06:49:12Z</time>
      </trkpt>
      <trkpt lat="47.71488" lon="3.66474">
        <ele>166.45</ele>
        <time>2015-04-26T06:49:24Z</time>
      </trkpt>
      <trkpt lat="47.71486" lon="3.66475">
        <ele>166.45</ele>
        <time>2015-04-26T06:49:25Z</time>
      </trkpt>
      <trkpt lat="47.71483" lon="3.66486">
        <ele>165.96</ele>
        <time>2015-04-26T06:49:30Z</time>
      </trkpt>
      <trkpt lat="47.71482" lon="3.66506">
        <ele>166.45</ele>
        <time>2015-04-26T06:49:38Z</time>
      </trkpt>
      <trkpt lat="47.71466" lon="3.66507">
        <ele>167.41</ele>
        <time>2015-04-26T06:49:50Z</time>
      </trkpt>
      <trkpt lat="47.71461" lon="3.66507">
        <ele>167.41</ele>
        <time>2015-04-26T06:49:53Z</time>
      </trkpt>
      <trkpt lat="47.71453" lon="3.6651">
        <ele>168.37</ele>
        <time>2015-04-26T06:49:58Z</time>
      </trkpt>
      <trkpt lat="47.71447" lon="3.66512">
        <ele>168.85</ele>
        <time>2015-04-26T06:50:02Z</time>
      </trkpt>
      <trkpt lat="47.71428" lon="3.66515">
        <ele>170.29</ele>
        <time>2015-04-26T06:50:13Z</time>
      </trkpt>
      <trkpt lat="47.71422" lon="3.66516">
        <ele>171.25</ele>
        <time>2015-04-26T06:50:17Z</time>
      </trkpt>
      <trkpt lat="47.71415" lon="3.66518">
        <ele>171.73</ele>
        <time>2015-04-26T06:50:23Z</time>
      </trkpt>
      <trkpt lat="47.71403" lon="3.66522">
        <ele>173.66</ele>
        <time>2015-04-26T06:50:31Z</time>
      </trkpt>
      <trkpt lat="47.71383" lon="3.66523">
        <ele>175.1</ele>
        <time>2015-04-26T06:50:43Z</time>
      </trkpt>
      <trkpt lat="47.7138" lon="3.66523">
        <ele>175.1</ele>
        <time>2015-04-26T06:50:45Z</time>
      </trkpt>
      <trkpt lat="47.71375" lon="3.6651">
        <ele>176.06</ele>
        <time>2015-04-26T06:50:53Z</time>
      </trkpt>
      <trkpt lat="47.71369" lon="3.66495">
        <ele>175.58</ele>
        <time>2015-04-26T06:51:00Z</time>
      </trkpt>
      <trkpt lat="47.71355" lon="3.66466">
        <ele>175.1</ele>
        <time>2015-04-26T06:51:13Z</time>
      </trkpt>
      <trkpt lat="47.71345" lon="3.66448">
        <ele>174.62</ele>
        <time>2015-04-26T06:51:24Z</time>
      </trkpt>
      <trkpt lat="47.71343" lon="3.66444">
        <ele>174.14</ele>
        <time>2015-04-26T06:51:27Z</time>
      </trkpt>
      <trkpt lat="47.71335" lon="3.66435">
        <ele>173.66</ele>
        <time>2015-04-26T06:51:33Z</time>
      </trkpt>
      <trkpt lat="47.71328" lon="3.66431">
        <ele>173.66</ele>
        <time>2015-04-26T06:51:38Z</time>
      </trkpt>
      <trkpt lat="47.71323" lon="3.66433">
        <ele>174.14</ele>
        <time>2015-04-26T06:51:42Z</time>
      </trkpt>
      <trkpt lat="47.71303" lon="3.66446">
        <ele>175.1</ele>
        <time>2015-04-26T06:51:56Z</time>
      </trkpt>
      <trkpt lat="47.713" lon="3.66447">
        <ele>175.1</ele>
        <time>2015-04-26T06:51:58Z</time>
      </trkpt>
      <trkpt lat="47.71291" lon="3.66457">
        <ele>176.06</ele>
        <time>2015-04-26T06:52:05Z</time>
      </trkpt>
      <trkpt lat="47.71288" lon="3.66461">
        <ele>176.06</ele>
        <time>2015-04-26T06:52:08Z</time>
      </trkpt>
      <trkpt lat="47.71281" lon="3.66471">
        <ele>177.02</ele>
        <time>2015-04-26T06:52:14Z</time>
      </trkpt>
      <trkpt lat="47.71274" lon="3.66478">
        <ele>177.5</ele>
        <time>2015-04-26T06:52:19Z</time>
      </trkpt>
      <trkpt lat="47.71258" lon="3.66493">
        <ele>178.94</ele>
        <time>2015-04-26T06:52:31Z</time>
      </trkpt>
      <trkpt lat="47.7125" lon="3.66495">
        <ele>180.38</ele>
        <time>2015-04-26T06:52:36Z</time>
      </trkpt>
      <trkpt lat="47.71232" lon="3.66509">
        <ele>181.35</ele>
        <time>2015-04-26T06:52:48Z</time>
      </trkpt>
      <trkpt lat="47.71215" lon="3.66523">
        <ele>183.27</ele>
        <time>2015-04-26T06:53:01Z</time>
      </trkpt>
      <trkpt lat="47.712" lon="3.66542">
        <ele>185.19</ele>
        <time>2015-04-26T06:53:14Z</time>
      </trkpt>
      <trkpt lat="47.71194" lon="3.66552">
        <ele>185.67</ele>
        <time>2015-04-26T06:53:20Z</time>
      </trkpt>
      <trkpt lat="47.71182" lon="3.66581">
        <ele>188.56</ele>
        <time>2015-04-26T06:53:35Z</time>
      </trkpt>
      <trkpt lat="47.71168" lon="3.66603">
        <ele>190.96</ele>
        <time>2015-04-26T06:53:49Z</time>
      </trkpt>
      <trkpt lat="47.71155" lon="3.66626">
        <ele>192.88</ele>
        <time>2015-04-26T06:54:02Z</time>
      </trkpt>
      <trkpt lat="47.71139" lon="3.66652">
        <ele>195.77</ele>
        <time>2015-04-26T06:54:18Z</time>
      </trkpt>
      <trkpt lat="47.71137" lon="3.66657">
        <ele>196.25</ele>
        <time>2015-04-26T06:54:22Z</time>
      </trkpt>
      <trkpt lat="47.71127" lon="3.66667">
        <ele>197.21</ele>
        <time>2015-04-26T06:54:29Z</time>
      </trkpt>
      <trkpt lat="47.71112" lon="3.66691">
        <ele>199.61</ele>
        <time>2015-04-26T06:54:43Z</time>
      </trkpt>
      <trkpt lat="47.71098" lon="3.66715">
        <ele>202.49</ele>
        <time>2015-04-26T06:54:56Z</time>
      </trkpt>
      <trkpt lat="47.7108" lon="3.66745">
        <ele>203.94</ele>
        <time>2015-04-26T06:55:11Z</time>
      </trkpt>
      <trkpt lat="47.7106" lon="3.66769">
        <ele>206.34</ele>
        <time>2015-04-26T06:55:27Z</time>
      </trkpt>
      <trkpt lat="47.71045" lon="3.66793">
        <ele>207.78</ele>
        <time>2015-04-26T06:55:41Z</time>
      </trkpt>
      <trkpt lat="47.71037" lon="3.66808">
        <ele>209.7</ele>
        <time>2015-04-26T06:55:49Z</time>
      </trkpt>
      <trkpt lat="47.71032" lon="3.66823">
        <ele>210.19</ele>
        <time>2015-04-26T06:55:57Z</time>
      </trkpt>
      <trkpt lat="47.71019" lon="3.66857">
        <ele>213.55</ele>
        <time>2015-04-26T06:56:14Z</time>
      </trkpt>
      <trkpt lat="47.70997" lon="3.66888">
        <ele>215.95</ele>
        <time>2015-04-26T06:56:32Z</time>
      </trkpt>
      <trkpt lat="47.70983" lon="3.6691">
        <ele>218.36</ele>
        <time>2015-04-26T06:56:44Z</time>
      </trkpt>
      <trkpt lat="47.70972" lon="3.66926">
        <ele>219.8</ele>
        <time>2015-04-26T06:56:54Z</time>
      </trkpt>
      <trkpt lat="47.70967" lon="3.66932">
        <ele>220.28</ele>
        <time>2015-04-26T06:56:58Z</time>
      </trkpt>
      <trkpt lat="47.70945" lon="3.66954">
        <ele>223.16</ele>
        <time>2015-04-26T06:57:14Z</time>
      </trkpt>
      <trkpt lat="47.70943" lon="3.66956">
        <ele>223.16</ele>
        <time>2015-04-26T06:57:16Z</time>
      </trkpt>
      <trkpt lat="47.70939" lon="3.66962">
        <ele>223.16</ele>
        <time>2015-04-26T06:57:20Z</time>
      </trkpt>
      <trkpt lat="47.70936" lon="3.66967">
        <ele>224.61</ele>
        <time>2015-04-26T06:57:23Z</time>
      </trkpt>
      <trkpt lat="47.70916" lon="3.66992">
        <ele>227.49</ele>
        <time>2015-04-26T06:57:40Z</time>
      </trkpt>
      <trkpt lat="47.709" lon="3.6701">
        <ele>229.41</ele>
        <time>2015-04-26T06:57:54Z</time>
      </trkpt>
      <trkpt lat="47.70882" lon="3.67035">
        <ele>232.3</ele>
        <time>2015-04-26T06:58:10Z</time>
      </trkpt>
      <trkpt lat="47.70867" lon="3.6705">
        <ele>234.22</ele>
        <time>2015-04-26T06:58:23Z</time>
      </trkpt>
      <trkpt lat="47.7085" lon="3.6707">
        <ele>237.58</ele>
        <time>2015-04-26T06:58:37Z</time>
      </trkpt>
      <trkpt lat="47.70848" lon="3.67072">
        <ele>237.1</ele>
        <time>2015-04-26T06:58:39Z</time>
      </trkpt>
      <trkpt lat="47.70837" lon="3.67083">
        <ele>238.06</ele>
        <time>2015-04-26T06:58:48Z</time>
      </trkpt>
      <trkpt lat="47.7082" lon="3.67099">
        <ele>241.43</ele>
        <time>2015-04-26T06:59:03Z</time>
      </trkpt>
      <trkpt lat="47.70802" lon="3.67112">
        <ele>244.31</ele>
        <time>2015-04-26T06:59:17Z</time>
      </trkpt>
      <trkpt lat="47.70787" lon="3.67131">
        <ele>246.72</ele>
        <time>2015-04-26T06:59:31Z</time>
      </trkpt>
      <trkpt lat="47.70772" lon="3.67144">
        <ele>250.08</ele>
        <time>2015-04-26T06:59:44Z</time>
      </trkpt>
      <trkpt lat="47.70757" lon="3.67163">
        <ele>252.48</ele>
        <time>2015-04-26T06:59:59Z</time>
      </trkpt>
      <trkpt lat="47.70753" lon="3.67169">
        <ele>254.41</ele>
        <time>2015-04-26T07:00:04Z</time>
      </trkpt>
      <trkpt lat="47.70748" lon="3.67179">
        <ele>255.85</ele>
        <time>2015-04-26T07:00:10Z</time>
      </trkpt>
      <trkpt lat="47.70733" lon="3.672">
        <ele>258.73</ele>
        <time>2015-04-26T07:00:27Z</time>
      </trkpt>
      <trkpt lat="47.70721" lon="3.67218">
        <ele>261.62</ele>
        <time>2015-04-26T07:00:40Z</time>
      </trkpt>
      <trkpt lat="47.70711" lon="3.67238">
        <ele>264.02</ele>
        <time>2015-04-26T07:00:54Z</time>
      </trkpt>
      <trkpt lat="47.70709" lon="3.67244">
        <ele>264.98</ele>
        <time>2015-04-26T07:00:58Z</time>
      </trkpt>
      <trkpt lat="47.70705" lon="3.67258">
        <ele>267.38</ele>
        <time>2015-04-26T07:01:08Z</time>
      </trkpt>
      <trkpt lat="47.70698" lon="3.67256">
        <ele>269.31</ele>
        <time>2015-04-26T07:01:16Z</time>
      </trkpt>
      <trkpt lat="47.70688" lon="3.67243">
        <ele>271.23</ele>
        <time>2015-04-26T07:01:28Z</time>
      </trkpt>
      <trkpt lat="47.70686" lon="3.67239">
        <ele>271.71</ele>
        <time>2015-04-26T07:01:30Z</time>
      </trkpt>
      <trkpt lat="47.70672" lon="3.67223">
        <ele>273.63</ele>
        <time>2015-04-26T07:01:44Z</time>
      </trkpt>
      <trkpt lat="47.70669" lon="3.67221">
        <ele>274.11</ele>
        <time>2015-04-26T07:01:47Z</time>
      </trkpt>
      <trkpt lat="47.70663" lon="3.67217">
        <ele>276.04</ele>
        <time>2015-04-26T07:01:53Z</time>
      </trkpt>
      <trkpt lat="47.70658" lon="3.67191">
        <ele>276.04</ele>
        <time>2015-04-26T07:02:07Z</time>
      </trkpt>
      <trkpt lat="47.70658" lon="3.6719">
        <ele>276.04</ele>
        <time>2015-04-26T07:02:08Z</time>
      </trkpt>
      <trkpt lat="47.70649" lon="3.67172">
        <ele>276.04</ele>
        <time>2015-04-26T07:02:18Z</time>
      </trkpt>
      <trkpt lat="47.70636" lon="3.67159">
        <ele>277.48</ele>
        <time>2015-04-26T07:02:30Z</time>
      </trkpt>
      <trkpt lat="47.70624" lon="3.67146">
        <ele>278.44</ele>
        <time>2015-04-26T07:02:38Z</time>
      </trkpt>
      <trkpt lat="47.70621" lon="3.67143">
        <ele>278.92</ele>
        <time>2015-04-26T07:02:42Z</time>
      </trkpt>
      <trkpt lat="47.70614" lon="3.67133">
        <ele>279.4</ele>
        <time>2015-04-26T07:02:47Z</time>
      </trkpt>
      <trkpt lat="47.70598" lon="3.67104">
        <ele>278.92</ele>
        <time>2015-04-26T07:03:02Z</time>
      </trkpt>
      <trkpt lat="47.70585" lon="3.67091">
        <ele>279.4</ele>
        <time>2015-04-26T07:03:13Z</time>
      </trkpt>
      <trkpt lat="47.70578" lon="3.67082">
        <ele>279.88</ele>
        <time>2015-04-26T07:03:18Z</time>
      </trkpt>
      <trkpt lat="47.70571" lon="3.67072">
        <ele>279.88</ele>
        <time>2015-04-26T07:03:25Z</time>
      </trkpt>
      <trkpt lat="47.70562" lon="3.67062">
        <ele>280.36</ele>
        <time>2015-04-26T07:03:34Z</time>
      </trkpt>
      <trkpt lat="47.7056" lon="3.67061">
        <ele>280.36</ele>
        <time>2015-04-26T07:03:36Z</time>
      </trkpt>
      <trkpt lat="47.70537" lon="3.67045">
        <ele>281.8</ele>
        <time>2015-04-26T07:03:49Z</time>
      </trkpt>
      <trkpt lat="47.70523" lon="3.67033">
        <ele>281.32</ele>
        <time>2015-04-26T07:04:01Z</time>
      </trkpt>
      <trkpt lat="47.70517" lon="3.67023">
        <ele>281.32</ele>
        <time>2015-04-26T07:04:07Z</time>
      </trkpt>
      <trkpt lat="47.70514" lon="3.67018">
        <ele>281.32</ele>
        <time>2015-04-26T07:04:09Z</time>
      </trkpt>
      <trkpt lat="47.70511" lon="3.67012">
        <ele>282.28</ele>
        <time>2015-04-26T07:04:13Z</time>
      </trkpt>
      <trkpt lat="47.705" lon="3.66995">
        <ele>280.84</ele>
        <time>2015-04-26T07:04:25Z</time>
      </trkpt>
      <trkpt lat="47.70494" lon="3.66979">
        <ele>280.36</ele>
        <time>2015-04-26T07:04:31Z</time>
      </trkpt>
      <trkpt lat="47.70486" lon="3.66963">
        <ele>279.88</ele>
        <time>2015-04-26T07:04:40Z</time>
      </trkpt>
      <trkpt lat="47.7047" lon="3.66943">
        <ele>278.92</ele>
        <time>2015-04-26T07:04:51Z</time>
      </trkpt>
      <trkpt lat="47.70455" lon="3.66917">
        <ele>276.52</ele>
        <time>2015-04-26T07:05:03Z</time>
      </trkpt>
      <trkpt lat="47.70441" lon="3.66904">
        <ele>276.52</ele>
        <time>2015-04-26T07:05:12Z</time>
      </trkpt>
      <trkpt lat="47.70421" lon="3.66899">
        <ele>278.92</ele>
        <time>2015-04-26T07:05:27Z</time>
      </trkpt>
      <trkpt lat="47.70399" lon="3.66892">
        <ele>278.92</ele>
        <time>2015-04-26T07:05:41Z</time>
      </trkpt>
      <trkpt lat="47.70383" lon="3.66889">
        <ele>279.88</ele>
        <time>2015-04-26T07:05:52Z</time>
      </trkpt>
      <trkpt lat="47.70363" lon="3.66894">
        <ele>280.36</ele>
        <time>2015-04-26T07:06:05Z</time>
      </trkpt>
      <trkpt lat="47.70362" lon="3.66896">
        <ele>280.36</ele>
        <time>2015-04-26T07:06:06Z</time>
      </trkpt>
      <trkpt lat="47.70352" lon="3.66906">
        <ele>280.36</ele>
        <time>2015-04-26T07:06:14Z</time>
      </trkpt>
      <trkpt lat="47.70335" lon="3.66926">
        <ele>281.32</ele>
        <time>2015-04-26T07:06:29Z</time>
      </trkpt>
      <trkpt lat="47.70334" lon="3.66928">
        <ele>281.32</ele>
        <time>2015-04-26T07:06:30Z</time>
      </trkpt>
      <trkpt lat="47.70328" lon="3.66938">
        <ele>281.32</ele>
        <time>2015-04-26T07:06:36Z</time>
      </trkpt>
      <trkpt lat="47.70326" lon="3.66942">
        <ele>281.32</ele>
        <time>2015-04-26T07:06:38Z</time>
      </trkpt>
      <trkpt lat="47.70322" lon="3.66957">
        <ele>281.32</ele>
        <time>2015-04-26T07:06:45Z</time>
      </trkpt>
      <trkpt lat="47.70326" lon="3.66981">
        <ele>283.25</ele>
        <time>2015-04-26T07:06:59Z</time>
      </trkpt>
      <trkpt lat="47.70323" lon="3.66987">
        <ele>283.73</ele>
        <time>2015-04-26T07:07:03Z</time>
      </trkpt>
      <trkpt lat="47.7032" lon="3.66993">
        <ele>283.25</ele>
        <time>2015-04-26T07:07:06Z</time>
      </trkpt>
      <trkpt lat="47.7032" lon="3.67004">
        <ele>282.77</ele>
        <time>2015-04-26T07:07:12Z</time>
      </trkpt>
      <trkpt lat="47.70321" lon="3.67016">
        <ele>281.8</ele>
        <time>2015-04-26T07:07:19Z</time>
      </trkpt>
      <trkpt lat="47.70322" lon="3.67024">
        <ele>282.77</ele>
        <time>2015-04-26T07:07:23Z</time>
      </trkpt>
      <trkpt lat="47.70324" lon="3.67037">
        <ele>281.8</ele>
        <time>2015-04-26T07:07:29Z</time>
      </trkpt>
      <trkpt lat="47.70326" lon="3.67057">
        <ele>282.77</ele>
        <time>2015-04-26T07:07:37Z</time>
      </trkpt>
      <trkpt lat="47.70331" lon="3.67089">
        <ele>282.77</ele>
        <time>2015-04-26T07:07:50Z</time>
      </trkpt>
      <trkpt lat="47.70332" lon="3.67093">
        <ele>283.25</ele>
        <time>2015-04-26T07:07:52Z</time>
      </trkpt>
      <trkpt lat="47.70334" lon="3.6711">
        <ele>283.73</ele>
        <time>2015-04-26T07:08:00Z</time>
      </trkpt>
      <trkpt lat="47.70334" lon="3.67127">
        <ele>282.77</ele>
        <time>2015-04-26T07:08:07Z</time>
      </trkpt>
      <trkpt lat="47.70334" lon="3.67133">
        <ele>282.77</ele>
        <time>2015-04-26T07:08:10Z</time>
      </trkpt>
      <trkpt lat="47.70343" lon="3.67153">
        <ele>283.73</ele>
        <time>2015-04-26T07:08:24Z</time>
      </trkpt>
      <trkpt lat="47.70346" lon="3.6717">
        <ele>284.21</ele>
        <time>2015-04-26T07:08:32Z</time>
      </trkpt>
      <trkpt lat="47.7035" lon="3.67195">
        <ele>283.73</ele>
        <time>2015-04-26T07:08:41Z</time>
      </trkpt>
      <trkpt lat="47.70355" lon="3.6723">
        <ele>283.25</ele>
        <time>2015-04-26T07:08:56Z</time>
      </trkpt>
      <trkpt lat="47.70359" lon="3.67246">
        <ele>283.25</ele>
        <time>2015-04-26T07:09:03Z</time>
      </trkpt>
      <trkpt lat="47.70366" lon="3.67269">
        <ele>283.73</ele>
        <time>2015-04-26T07:09:15Z</time>
      </trkpt>
      <trkpt lat="47.70368" lon="3.67279">
        <ele>283.73</ele>
        <time>2015-04-26T07:09:20Z</time>
      </trkpt>
      <trkpt lat="47.70369" lon="3.67288">
        <ele>283.73</ele>
        <time>2015-04-26T07:09:24Z</time>
      </trkpt>
      <trkpt lat="47.70378" lon="3.67307">
        <ele>284.21</ele>
        <time>2015-04-26T07:09:33Z</time>
      </trkpt>
      <trkpt lat="47.70386" lon="3.67331">
        <ele>284.69</ele>
        <time>2015-04-26T07:09:45Z</time>
      </trkpt>
      <trkpt lat="47.70389" lon="3.6734">
        <ele>284.69</ele>
        <time>2015-04-26T07:09:55Z</time>
      </trkpt>
      <trkpt lat="47.70389" lon="3.67337">
        <ele>280.84</ele>
        <time>2015-04-26T07:10:02Z</time>
      </trkpt>
      <trkpt lat="47.70389" lon="3.67337">
        <ele>288.05</ele>
        <time>2015-04-26T07:10:03Z</time>
      </trkpt>
      <trkpt lat="47.7039" lon="3.67337">
        <ele>284.69</ele>
        <time>2015-04-26T07:10:07Z</time>
      </trkpt>
      <trkpt lat="47.7039" lon="3.67336">
        <ele>283.25</ele>
        <time>2015-04-26T07:10:11Z</time>
      </trkpt>
      <trkpt lat="47.7039" lon="3.67336">
        <ele>285.17</ele>
        <time>2015-04-26T07:10:13Z</time>
      </trkpt>
      <trkpt lat="47.70388" lon="3.67335">
        <ele>279.4</ele>
        <time>2015-04-26T07:10:22Z</time>
      </trkpt>
      <trkpt lat="47.70388" lon="3.67335">
        <ele>279.4</ele>
        <time>2015-04-26T07:10:23Z</time>
      </trkpt>
      <trkpt lat="47.70388" lon="3.67335">
        <ele>290.46</ele>
        <time>2015-04-26T07:10:24Z</time>
      </trkpt>
      <trkpt lat="47.70388" lon="3.67336">
        <ele>286.13</ele>
        <time>2015-04-26T07:10:25Z</time>
      </trkpt>
      <trkpt lat="47.70388" lon="3.67338">
        <ele>284.69</ele>
        <time>2015-04-26T07:10:27Z</time>
      </trkpt>
      <trkpt lat="47.70391" lon="3.67348">
        <ele>283.25</ele>
        <time>2015-04-26T07:10:32Z</time>
      </trkpt>
      <trkpt lat="47.70393" lon="3.67352">
        <ele>290.46</ele>
        <time>2015-04-26T07:10:35Z</time>
      </trkpt>
      <trkpt lat="47.70393" lon="3.67353">
        <ele>285.65</ele>
        <time>2015-04-26T07:10:36Z</time>
      </trkpt>
      <trkpt lat="47.70394" lon="3.67357">
        <ele>284.21</ele>
        <time>2015-04-26T07:10:38Z</time>
      </trkpt>
      <trkpt lat="47.70397" lon="3.67359">
        <ele>286.61</ele>
        <time>2015-04-26T07:10:40Z</time>
      </trkpt>
      <trkpt lat="47.70407" lon="3.67386">
        <ele>287.57</ele>
        <time>2015-04-26T07:10:54Z</time>
      </trkpt>
      <trkpt lat="47.70411" lon="3.67397">
        <ele>282.28</ele>
        <time>2015-04-26T07:10:59Z</time>
      </trkpt>
      <trkpt lat="47.70412" lon="3.67399">
        <ele>292.86</ele>
        <time>2015-04-26T07:11:00Z</time>
      </trkpt>
      <trkpt lat="47.70412" lon="3.67402">
        <ele>288.53</ele>
        <time>2015-04-26T07:11:01Z</time>
      </trkpt>
      <trkpt lat="47.70414" lon="3.67405">
        <ele>288.05</ele>
        <time>2015-04-26T07:11:03Z</time>
      </trkpt>
      <trkpt lat="47.70418" lon="3.67417">
        <ele>285.65</ele>
        <time>2015-04-26T07:11:11Z</time>
      </trkpt>
      <trkpt lat="47.70421" lon="3.67426">
        <ele>285.17</ele>
        <time>2015-04-26T07:11:15Z</time>
      </trkpt>
      <trkpt lat="47.70423" lon="3.6744">
        <ele>285.65</ele>
        <time>2015-04-26T07:11:19Z</time>
      </trkpt>
      <trkpt lat="47.70423" lon="3.6746">
        <ele>287.09</ele>
        <time>2015-04-26T07:11:25Z</time>
      </trkpt>
      <trkpt lat="47.70432" lon="3.6749">
        <ele>286.13</ele>
        <time>2015-04-26T07:11:38Z</time>
      </trkpt>
      <trkpt lat="47.70437" lon="3.67518">
        <ele>286.61</ele>
        <time>2015-04-26T07:11:51Z</time>
      </trkpt>
      <trkpt lat="47.70443" lon="3.67543">
        <ele>286.61</ele>
        <time>2015-04-26T07:12:06Z</time>
      </trkpt>
      <trkpt lat="47.70446" lon="3.67562">
        <ele>287.09</ele>
        <time>2015-04-26T07:12:14Z</time>
      </trkpt>
      <trkpt lat="47.70453" lon="3.67592">
        <ele>289.49</ele>
        <time>2015-04-26T07:12:28Z</time>
      </trkpt>
      <trkpt lat="47.70457" lon="3.6761">
        <ele>287.57</ele>
        <time>2015-04-26T07:12:37Z</time>
      </trkpt>
      <trkpt lat="47.70459" lon="3.67627">
        <ele>288.53</ele>
        <time>2015-04-26T07:12:44Z</time>
      </trkpt>
      <trkpt lat="47.70461" lon="3.67638">
        <ele>288.05</ele>
        <time>2015-04-26T07:12:48Z</time>
      </trkpt>
      <trkpt lat="47.70459" lon="3.67659">
        <ele>286.13</ele>
        <time>2015-04-26T07:12:56Z</time>
      </trkpt>
      <trkpt lat="47.70457" lon="3.67664">
        <ele>285.17</ele>
        <time>2015-04-26T07:12:59Z</time>
      </trkpt>
      <trkpt lat="47.70451" lon="3.67665">
        <ele>283.25</ele>
        <time>2015-04-26T07:13:04Z</time>
      </trkpt>
      <trkpt lat="47.70446" lon="3.67668">
        <ele>281.32</ele>
        <time>2015-04-26T07:13:09Z</time>
      </trkpt>
      <trkpt lat="47.70442" lon="3.67669">
        <ele>279.4</ele>
        <time>2015-04-26T07:13:14Z</time>
      </trkpt>
      <trkpt lat="47.70435" lon="3.67673">
        <ele>276.04</ele>
        <time>2015-04-26T07:13:23Z</time>
      </trkpt>
      <trkpt lat="47.70434" lon="3.67675">
        <ele>276.04</ele>
        <time>2015-04-26T07:13:25Z</time>
      </trkpt>
      <trkpt lat="47.70425" lon="3.67682">
        <ele>271.71</ele>
        <time>2015-04-26T07:13:38Z</time>
      </trkpt>
      <trkpt lat="47.70416" lon="3.67685">
        <ele>268.35</ele>
        <time>2015-04-26T07:13:49Z</time>
      </trkpt>
      <trkpt lat="47.70412" lon="3.67686">
        <ele>266.9</ele>
        <time>2015-04-26T07:13:53Z</time>
      </trkpt>
      <trkpt lat="47.7041" lon="3.67687">
        <ele>266.42</ele>
        <time>2015-04-26T07:13:55Z</time>
      </trkpt>
      <trkpt lat="47.70399" lon="3.6769">
        <ele>262.58</ele>
        <time>2015-04-26T07:14:05Z</time>
      </trkpt>
      <trkpt lat="47.70398" lon="3.67691">
        <ele>262.58</ele>
        <time>2015-04-26T07:14:06Z</time>
      </trkpt>
      <trkpt lat="47.70395" lon="3.67693">
        <ele>261.14</ele>
        <time>2015-04-26T07:14:09Z</time>
      </trkpt>
      <trkpt lat="47.70392" lon="3.67694">
        <ele>260.17</ele>
        <time>2015-04-26T07:14:12Z</time>
      </trkpt>
      <trkpt lat="47.70384" lon="3.67695">
        <ele>257.77</ele>
        <time>2015-04-26T07:14:18Z</time>
      </trkpt>
      <trkpt lat="47.70373" lon="3.67693">
        <ele>254.41</ele>
        <time>2015-04-26T07:14:28Z</time>
      </trkpt>
      <trkpt lat="47.70361" lon="3.67691">
        <ele>252</ele>
        <time>2015-04-26T07:14:36Z</time>
      </trkpt>
      <trkpt lat="47.70349" lon="3.67693">
        <ele>248.64</ele>
        <time>2015-04-26T07:14:44Z</time>
      </trkpt>
      <trkpt lat="47.70343" lon="3.67696">
        <ele>247.2</ele>
        <time>2015-04-26T07:14:49Z</time>
      </trkpt>
      <trkpt lat="47.70329" lon="3.67699">
        <ele>243.83</ele>
        <time>2015-04-26T07:14:57Z</time>
      </trkpt>
      <trkpt lat="47.70314" lon="3.67704">
        <ele>239.51</ele>
        <time>2015-04-26T07:15:06Z</time>
      </trkpt>
      <trkpt lat="47.70305" lon="3.67706">
        <ele>237.58</ele>
        <time>2015-04-26T07:15:11Z</time>
      </trkpt>
      <trkpt lat="47.70295" lon="3.67708">
        <ele>235.18</ele>
        <time>2015-04-26T07:15:17Z</time>
      </trkpt>
      <trkpt lat="47.70293" lon="3.67711">
        <ele>234.22</ele>
        <time>2015-04-26T07:15:21Z</time>
      </trkpt>
      <trkpt lat="47.70288" lon="3.67713">
        <ele>233.26</ele>
        <time>2015-04-26T07:15:25Z</time>
      </trkpt>
      <trkpt lat="47.7028" lon="3.67719">
        <ele>231.33</ele>
        <time>2015-04-26T07:15:31Z</time>
      </trkpt>
      <trkpt lat="47.70277" lon="3.67725">
        <ele>230.85</ele>
        <time>2015-04-26T07:15:35Z</time>
      </trkpt>
      <trkpt lat="47.70277" lon="3.67737">
        <ele>231.33</ele>
        <time>2015-04-26T07:15:41Z</time>
      </trkpt>
      <trkpt lat="47.7028" lon="3.67771">
        <ele>231.81</ele>
        <time>2015-04-26T07:15:56Z</time>
      </trkpt>
      <trkpt lat="47.70281" lon="3.67788">
        <ele>232.3</ele>
        <time>2015-04-26T07:16:04Z</time>
      </trkpt>
      <trkpt lat="47.70282" lon="3.67792">
        <ele>232.78</ele>
        <time>2015-04-26T07:16:06Z</time>
      </trkpt>
      <trkpt lat="47.70283" lon="3.67796">
        <ele>233.26</ele>
        <time>2015-04-26T07:16:08Z</time>
      </trkpt>
      <trkpt lat="47.70286" lon="3.67804">
        <ele>232.78</ele>
        <time>2015-04-26T07:16:12Z</time>
      </trkpt>
      <trkpt lat="47.70299" lon="3.67831">
        <ele>233.74</ele>
        <time>2015-04-26T07:16:26Z</time>
      </trkpt>
      <trkpt lat="47.70311" lon="3.67848">
        <ele>234.22</ele>
        <time>2015-04-26T07:16:38Z</time>
      </trkpt>
      <trkpt lat="47.70325" lon="3.67862">
        <ele>235.18</ele>
        <time>2015-04-26T07:16:48Z</time>
      </trkpt>
      <trkpt lat="47.70342" lon="3.67885">
        <ele>236.14</ele>
        <time>2015-04-26T07:17:02Z</time>
      </trkpt>
      <trkpt lat="47.70344" lon="3.67889">
        <ele>236.14</ele>
        <time>2015-04-26T07:17:04Z</time>
      </trkpt>
      <trkpt lat="47.70356" lon="3.67899">
        <ele>237.1</ele>
        <time>2015-04-26T07:17:13Z</time>
      </trkpt>
      <trkpt lat="47.70372" lon="3.67914">
        <ele>237.58</ele>
        <time>2015-04-26T07:17:25Z</time>
      </trkpt>
      <trkpt lat="47.70384" lon="3.67934">
        <ele>239.02</ele>
        <time>2015-04-26T07:17:37Z</time>
      </trkpt>
      <trkpt lat="47.70386" lon="3.6794">
        <ele>239.02</ele>
        <time>2015-04-26T07:17:40Z</time>
      </trkpt>
      <trkpt lat="47.70389" lon="3.67945">
        <ele>239.02</ele>
        <time>2015-04-26T07:17:43Z</time>
      </trkpt>
      <trkpt lat="47.70398" lon="3.67959">
        <ele>239.99</ele>
        <time>2015-04-26T07:17:52Z</time>
      </trkpt>
      <trkpt lat="47.70401" lon="3.67967">
        <ele>240.47</ele>
        <time>2015-04-26T07:17:56Z</time>
      </trkpt>
      <trkpt lat="47.70412" lon="3.67992">
        <ele>241.91</ele>
        <time>2015-04-26T07:18:10Z</time>
      </trkpt>
      <trkpt lat="47.70421" lon="3.6802">
        <ele>242.87</ele>
        <time>2015-04-26T07:18:23Z</time>
      </trkpt>
      <trkpt lat="47.70423" lon="3.68027">
        <ele>242.87</ele>
        <time>2015-04-26T07:18:26Z</time>
      </trkpt>
      <trkpt lat="47.70425" lon="3.68036">
        <ele>243.35</ele>
        <time>2015-04-26T07:18:30Z</time>
      </trkpt>
      <trkpt lat="47.70432" lon="3.68074">
        <ele>244.31</ele>
        <time>2015-04-26T07:18:47Z</time>
      </trkpt>
      <trkpt lat="47.70442" lon="3.68105">
        <ele>245.27</ele>
        <time>2015-04-26T07:19:01Z</time>
      </trkpt>
      <trkpt lat="47.70455" lon="3.68139">
        <ele>245.75</ele>
        <time>2015-04-26T07:19:18Z</time>
      </trkpt>
      <trkpt lat="47.70466" lon="3.68162">
        <ele>246.72</ele>
        <time>2015-04-26T07:19:31Z</time>
      </trkpt>
      <trkpt lat="47.70482" lon="3.68192">
        <ele>248.16</ele>
        <time>2015-04-26T07:19:46Z</time>
      </trkpt>
      <trkpt lat="47.70483" lon="3.68194">
        <ele>248.64</ele>
        <time>2015-04-26T07:19:47Z</time>
      </trkpt>
      <trkpt lat="47.70494" lon="3.68212">
        <ele>248.64</ele>
        <time>2015-04-26T07:19:57Z</time>
      </trkpt>
      <trkpt lat="47.7051" lon="3.68235">
        <ele>249.6</ele>
        <time>2015-04-26T07:20:09Z</time>
      </trkpt>
      <trkpt lat="47.70518" lon="3.68244">
        <ele>250.56</ele>
        <time>2015-04-26T07:20:16Z</time>
      </trkpt>
      <trkpt lat="47.7053" lon="3.68269">
        <ele>252.48</ele>
        <time>2015-04-26T07:20:30Z</time>
      </trkpt>
      <trkpt lat="47.70545" lon="3.68293">
        <ele>254.41</ele>
        <time>2015-04-26T07:20:44Z</time>
      </trkpt>
      <trkpt lat="47.70555" lon="3.68304">
        <ele>254.89</ele>
        <time>2015-04-26T07:20:52Z</time>
      </trkpt>
      <trkpt lat="47.7057" lon="3.68326">
        <ele>255.85</ele>
        <time>2015-04-26T07:21:05Z</time>
      </trkpt>
      <trkpt lat="47.70588" lon="3.68346">
        <ele>257.29</ele>
        <time>2015-04-26T07:21:18Z</time>
      </trkpt>
      <trkpt lat="47.70608" lon="3.68377">
        <ele>258.73</ele>
        <time>2015-04-26T07:21:36Z</time>
      </trkpt>
      <trkpt lat="47.70621" lon="3.684">
        <ele>258.73</ele>
        <time>2015-04-26T07:21:49Z</time>
      </trkpt>
      <trkpt lat="47.70643" lon="3.68423">
        <ele>259.69</ele>
        <time>2015-04-26T07:22:04Z</time>
      </trkpt>
      <trkpt lat="47.7066" lon="3.68442">
        <ele>260.17</ele>
        <time>2015-04-26T07:22:14Z</time>
      </trkpt>
      <trkpt lat="47.70666" lon="3.68452">
        <ele>260.17</ele>
        <time>2015-04-26T07:22:19Z</time>
      </trkpt>
      <trkpt lat="47.70684" lon="3.68477">
        <ele>261.14</ele>
        <time>2015-04-26T07:22:34Z</time>
      </trkpt>
      <trkpt lat="47.70698" lon="3.68507">
        <ele>262.1</ele>
        <time>2015-04-26T07:22:50Z</time>
      </trkpt>
      <trkpt lat="47.70715" lon="3.68538">
        <ele>262.1</ele>
        <time>2015-04-26T07:23:06Z</time>
      </trkpt>
      <trkpt lat="47.70728" lon="3.68561">
        <ele>262.58</ele>
        <time>2015-04-26T07:23:17Z</time>
      </trkpt>
      <trkpt lat="47.70743" lon="3.68582">
        <ele>263.06</ele>
        <time>2015-04-26T07:23:29Z</time>
      </trkpt>
      <trkpt lat="47.70749" lon="3.6859">
        <ele>263.06</ele>
        <time>2015-04-26T07:23:35Z</time>
      </trkpt>
      <trkpt lat="47.70754" lon="3.68598">
        <ele>263.54</ele>
        <time>2015-04-26T07:23:40Z</time>
      </trkpt>
      <trkpt lat="47.70774" lon="3.68628">
        <ele>264.5</ele>
        <time>2015-04-26T07:23:57Z</time>
      </trkpt>
      <trkpt lat="47.70781" lon="3.68636">
        <ele>264.98</ele>
        <time>2015-04-26T07:24:02Z</time>
      </trkpt>
      <trkpt lat="47.70788" lon="3.68661">
        <ele>265.46</ele>
        <time>2015-04-26T07:24:14Z</time>
      </trkpt>
      <trkpt lat="47.70779" lon="3.68694">
        <ele>263.54</ele>
        <time>2015-04-26T07:24:31Z</time>
      </trkpt>
      <trkpt lat="47.70762" lon="3.6871">
        <ele>262.58</ele>
        <time>2015-04-26T07:24:44Z</time>
      </trkpt>
      <trkpt lat="47.70737" lon="3.68723">
        <ele>260.65</ele>
        <time>2015-04-26T07:25:00Z</time>
      </trkpt>
      <trkpt lat="47.70719" lon="3.68733">
        <ele>259.21</ele>
        <time>2015-04-26T07:25:12Z</time>
      </trkpt>
      <trkpt lat="47.70696" lon="3.68739">
        <ele>257.77</ele>
        <time>2015-04-26T07:25:27Z</time>
      </trkpt>
      <trkpt lat="47.70678" lon="3.68741">
        <ele>256.33</ele>
        <time>2015-04-26T07:25:40Z</time>
      </trkpt>
      <trkpt lat="47.70654" lon="3.68739">
        <ele>255.37</ele>
        <time>2015-04-26T07:25:54Z</time>
      </trkpt>
      <trkpt lat="47.70635" lon="3.68739">
        <ele>253.93</ele>
        <time>2015-04-26T07:26:06Z</time>
      </trkpt>
      <trkpt lat="47.70613" lon="3.68739">
        <ele>253.93</ele>
        <time>2015-04-26T07:26:20Z</time>
      </trkpt>
      <trkpt lat="47.70592" lon="3.68735">
        <ele>252.48</ele>
        <time>2015-04-26T07:26:34Z</time>
      </trkpt>
      <trkpt lat="47.7057" lon="3.68733">
        <ele>252</ele>
        <time>2015-04-26T07:26:48Z</time>
      </trkpt>
      <trkpt lat="47.70553" lon="3.68727">
        <ele>251.04</ele>
        <time>2015-04-26T07:26:59Z</time>
      </trkpt>
      <trkpt lat="47.70538" lon="3.68725">
        <ele>250.08</ele>
        <time>2015-04-26T07:27:09Z</time>
      </trkpt>
      <trkpt lat="47.70535" lon="3.68724">
        <ele>250.08</ele>
        <time>2015-04-26T07:27:11Z</time>
      </trkpt>
      <trkpt lat="47.70527" lon="3.68723">
        <ele>250.08</ele>
        <time>2015-04-26T07:27:16Z</time>
      </trkpt>
      <trkpt lat="47.70503" lon="3.68723">
        <ele>248.64</ele>
        <time>2015-04-26T07:27:29Z</time>
      </trkpt>
      <trkpt lat="47.70486" lon="3.68721">
        <ele>247.68</ele>
        <time>2015-04-26T07:27:42Z</time>
      </trkpt>
      <trkpt lat="47.70482" lon="3.6872">
        <ele>247.68</ele>
        <time>2015-04-26T07:27:45Z</time>
      </trkpt>
      <trkpt lat="47.70474" lon="3.6872">
        <ele>247.2</ele>
        <time>2015-04-26T07:27:49Z</time>
      </trkpt>
      <trkpt lat="47.70458" lon="3.68722">
        <ele>246.23</ele>
        <time>2015-04-26T07:27:57Z</time>
      </trkpt>
      <trkpt lat="47.70454" lon="3.68723">
        <ele>244.79</ele>
        <time>2015-04-26T07:28:00Z</time>
      </trkpt>
      <trkpt lat="47.70438" lon="3.68724">
        <ele>246.23</ele>
        <time>2015-04-26T07:28:12Z</time>
      </trkpt>
      <trkpt lat="47.70436" lon="3.6872">
        <ele>242.39</ele>
        <time>2015-04-26T07:28:15Z</time>
      </trkpt>
      <trkpt lat="47.70435" lon="3.68715">
        <ele>245.27</ele>
        <time>2015-04-26T07:28:18Z</time>
      </trkpt>
      <trkpt lat="47.70434" lon="3.68714">
        <ele>239.51</ele>
        <time>2015-04-26T07:28:21Z</time>
      </trkpt>
      <trkpt lat="47.70434" lon="3.68714">
        <ele>249.6</ele>
        <time>2015-04-26T07:28:22Z</time>
      </trkpt>
      <trkpt lat="47.70434" lon="3.68714">
        <ele>249.6</ele>
        <time>2015-04-26T07:28:23Z</time>
      </trkpt>
      <trkpt lat="47.70434" lon="3.68714">
        <ele>245.27</ele>
        <time>2015-04-26T07:28:24Z</time>
      </trkpt>
      <trkpt lat="47.70434" lon="3.68713">
        <ele>245.27</ele>
        <time>2015-04-26T07:28:25Z</time>
      </trkpt>
      <trkpt lat="47.70434" lon="3.68712">
        <ele>239.02</ele>
        <time>2015-04-26T07:28:32Z</time>
      </trkpt>
      <trkpt lat="47.70433" lon="3.68711">
        <ele>250.08</ele>
        <time>2015-04-26T07:28:34Z</time>
      </trkpt>
      <trkpt lat="47.70431" lon="3.68711">
        <ele>245.75</ele>
        <time>2015-04-26T07:28:35Z</time>
      </trkpt>
      <trkpt lat="47.70428" lon="3.68711">
        <ele>245.27</ele>
        <time>2015-04-26T07:28:38Z</time>
      </trkpt>
      <trkpt lat="47.70424" lon="3.6871">
        <ele>244.31</ele>
        <time>2015-04-26T07:28:41Z</time>
      </trkpt>
      <trkpt lat="47.7042" lon="3.68709">
        <ele>244.31</ele>
        <time>2015-04-26T07:28:45Z</time>
      </trkpt>
      <trkpt lat="47.70418" lon="3.68709">
        <ele>244.31</ele>
        <time>2015-04-26T07:28:47Z</time>
      </trkpt>
      <trkpt lat="47.70414" lon="3.68715">
        <ele>243.83</ele>
        <time>2015-04-26T07:28:51Z</time>
      </trkpt>
      <trkpt lat="47.70406" lon="3.68723">
        <ele>243.35</ele>
        <time>2015-04-26T07:28:58Z</time>
      </trkpt>
      <trkpt lat="47.70403" lon="3.68723">
        <ele>245.27</ele>
        <time>2015-04-26T07:29:00Z</time>
      </trkpt>
      <trkpt lat="47.70402" lon="3.68722">
        <ele>245.27</ele>
        <time>2015-04-26T07:29:01Z</time>
      </trkpt>
      <trkpt lat="47.70399" lon="3.68722">
        <ele>241.91</ele>
        <time>2015-04-26T07:29:03Z</time>
      </trkpt>
      <trkpt lat="47.70385" lon="3.68723">
        <ele>242.39</ele>
        <time>2015-04-26T07:29:15Z</time>
      </trkpt>
      <trkpt lat="47.70385" lon="3.68723">
        <ele>242.39</ele>
        <time>2015-04-26T07:29:16Z</time>
      </trkpt>
      <trkpt lat="47.70378" lon="3.68721">
        <ele>241.91</ele>
        <time>2015-04-26T07:29:21Z</time>
      </trkpt>
      <trkpt lat="47.70347" lon="3.68718">
        <ele>239.99</ele>
        <time>2015-04-26T07:29:34Z</time>
      </trkpt>
      <trkpt lat="47.70337" lon="3.68716">
        <ele>239.51</ele>
        <time>2015-04-26T07:29:40Z</time>
      </trkpt>
      <trkpt lat="47.70316" lon="3.68712">
        <ele>238.54</ele>
        <time>2015-04-26T07:29:55Z</time>
      </trkpt>
      <trkpt lat="47.70313" lon="3.68712">
        <ele>238.54</ele>
        <time>2015-04-26T07:29:57Z</time>
      </trkpt>
      <trkpt lat="47.70306" lon="3.68711">
        <ele>238.54</ele>
        <time>2015-04-26T07:30:01Z</time>
      </trkpt>
      <trkpt lat="47.70282" lon="3.68706">
        <ele>237.1</ele>
        <time>2015-04-26T07:30:16Z</time>
      </trkpt>
      <trkpt lat="47.70271" lon="3.68705">
        <ele>236.62</ele>
        <time>2015-04-26T07:30:23Z</time>
      </trkpt>
      <trkpt lat="47.70262" lon="3.68705">
        <ele>235.66</ele>
        <time>2015-04-26T07:30:29Z</time>
      </trkpt>
      <trkpt lat="47.70256" lon="3.68705">
        <ele>235.66</ele>
        <time>2015-04-26T07:30:33Z</time>
      </trkpt>
      <trkpt lat="47.70239" lon="3.68702">
        <ele>233.74</ele>
        <time>2015-04-26T07:30:47Z</time>
      </trkpt>
      <trkpt lat="47.70217" lon="3.68698">
        <ele>232.3</ele>
        <time>2015-04-26T07:31:01Z</time>
      </trkpt>
      <trkpt lat="47.70214" lon="3.68697">
        <ele>232.3</ele>
        <time>2015-04-26T07:31:03Z</time>
      </trkpt>
      <trkpt lat="47.70193" lon="3.68687">
        <ele>231.33</ele>
        <time>2015-04-26T07:31:16Z</time>
      </trkpt>
      <trkpt lat="47.7017" lon="3.6868">
        <ele>229.89</ele>
        <time>2015-04-26T07:31:29Z</time>
      </trkpt>
      <trkpt lat="47.70165" lon="3.68681">
        <ele>229.89</ele>
        <time>2015-04-26T07:31:32Z</time>
      </trkpt>
      <trkpt lat="47.70155" lon="3.68683">
        <ele>229.41</ele>
        <time>2015-04-26T07:31:39Z</time>
      </trkpt>
      <trkpt lat="47.70145" lon="3.68682">
        <ele>228.93</ele>
        <time>2015-04-26T07:31:45Z</time>
      </trkpt>
      <trkpt lat="47.70127" lon="3.68683">
        <ele>227.97</ele>
        <time>2015-04-26T07:31:56Z</time>
      </trkpt>
      <trkpt lat="47.70106" lon="3.68685">
        <ele>227.01</ele>
        <time>2015-04-26T07:32:10Z</time>
      </trkpt>
      <trkpt lat="47.70099" lon="3.68689">
        <ele>232.3</ele>
        <time>2015-04-26T07:32:14Z</time>
      </trkpt>
      <trkpt lat="47.70098" lon="3.6869">
        <ele>227.49</ele>
        <time>2015-04-26T07:32:15Z</time>
      </trkpt>
      <trkpt lat="47.70093" lon="3.68691">
        <ele>225.57</ele>
        <time>2015-04-26T07:32:18Z</time>
      </trkpt>
      <trkpt lat="47.7008" lon="3.68701">
        <ele>222.2</ele>
        <time>2015-04-26T07:32:28Z</time>
      </trkpt>
      <trkpt lat="47.70078" lon="3.68701">
        <ele>228.45</ele>
        <time>2015-04-26T07:32:29Z</time>
      </trkpt>
      <trkpt lat="47.70074" lon="3.68702">
        <ele>225.09</ele>
        <time>2015-04-26T07:32:31Z</time>
      </trkpt>
      <trkpt lat="47.70053" lon="3.68717">
        <ele>224.12</ele>
        <time>2015-04-26T07:32:45Z</time>
      </trkpt>
      <trkpt lat="47.70033" lon="3.68729">
        <ele>222.68</ele>
        <time>2015-04-26T07:32:58Z</time>
      </trkpt>
      <trkpt lat="47.70016" lon="3.68739">
        <ele>221.72</ele>
        <time>2015-04-26T07:33:10Z</time>
      </trkpt>
      <trkpt lat="47.70013" lon="3.68742">
        <ele>221.72</ele>
        <time>2015-04-26T07:33:12Z</time>
      </trkpt>
      <trkpt lat="47.69994" lon="3.68753">
        <ele>219.8</ele>
        <time>2015-04-26T07:33:25Z</time>
      </trkpt>
      <trkpt lat="47.69973" lon="3.68764">
        <ele>217.88</ele>
        <time>2015-04-26T07:33:39Z</time>
      </trkpt>
      <trkpt lat="47.69951" lon="3.68781">
        <ele>215.47</ele>
        <time>2015-04-26T07:33:53Z</time>
      </trkpt>
      <trkpt lat="47.69933" lon="3.68794">
        <ele>213.07</ele>
        <time>2015-04-26T07:34:07Z</time>
      </trkpt>
      <trkpt lat="47.69917" lon="3.6881">
        <ele>211.15</ele>
        <time>2015-04-26T07:34:19Z</time>
      </trkpt>
      <trkpt lat="47.69902" lon="3.68825">
        <ele>209.22</ele>
        <time>2015-04-26T07:34:32Z</time>
      </trkpt>
      <trkpt lat="47.69881" lon="3.68845">
        <ele>206.82</ele>
        <time>2015-04-26T07:34:47Z</time>
      </trkpt>
      <trkpt lat="47.69861" lon="3.68866">
        <ele>203.94</ele>
        <time>2015-04-26T07:35:03Z</time>
      </trkpt>
      <trkpt lat="47.69845" lon="3.68881">
        <ele>202.49</ele>
        <time>2015-04-26T07:35:16Z</time>
      </trkpt>
      <trkpt lat="47.69829" lon="3.68896">
        <ele>199.13</ele>
        <time>2015-04-26T07:35:28Z</time>
      </trkpt>
      <trkpt lat="47.69809" lon="3.6891">
        <ele>196.73</ele>
        <time>2015-04-26T07:35:42Z</time>
      </trkpt>
      <trkpt lat="47.69795" lon="3.68921">
        <ele>194.32</ele>
        <time>2015-04-26T07:35:53Z</time>
      </trkpt>
      <trkpt lat="47.69776" lon="3.68934">
        <ele>191.92</ele>
        <time>2015-04-26T07:36:06Z</time>
      </trkpt>
      <trkpt lat="47.69758" lon="3.6895">
        <ele>189.04</ele>
        <time>2015-04-26T07:36:19Z</time>
      </trkpt>
      <trkpt lat="47.69739" lon="3.68968">
        <ele>186.15</ele>
        <time>2015-04-26T07:36:32Z</time>
      </trkpt>
      <trkpt lat="47.69723" lon="3.68986">
        <ele>183.27</ele>
        <time>2015-04-26T07:36:45Z</time>
      </trkpt>
      <trkpt lat="47.69705" lon="3.6901">
        <ele>181.35</ele>
        <time>2015-04-26T07:37:00Z</time>
      </trkpt>
      <trkpt lat="47.69689" lon="3.69032">
        <ele>178.94</ele>
        <time>2015-04-26T07:37:13Z</time>
      </trkpt>
      <trkpt lat="47.69668" lon="3.69047">
        <ele>177.02</ele>
        <time>2015-04-26T07:37:29Z</time>
      </trkpt>
      <trkpt lat="47.69648" lon="3.69053">
        <ele>175.58</ele>
        <time>2015-04-26T07:37:41Z</time>
      </trkpt>
      <trkpt lat="47.69638" lon="3.69053">
        <ele>174.62</ele>
        <time>2015-04-26T07:37:47Z</time>
      </trkpt>
      <trkpt lat="47.69616" lon="3.69047">
        <ele>173.17</ele>
        <time>2015-04-26T07:38:00Z</time>
      </trkpt>
      <trkpt lat="47.69592" lon="3.69033">
        <ele>171.25</ele>
        <time>2015-04-26T07:38:15Z</time>
      </trkpt>
      <trkpt lat="47.69566" lon="3.6902">
        <ele>169.81</ele>
        <time>2015-04-26T07:38:31Z</time>
      </trkpt>
      <trkpt lat="47.69552" lon="3.6901">
        <ele>164.52</ele>
        <time>2015-04-26T07:38:41Z</time>
      </trkpt>
      <trkpt lat="47.69551" lon="3.69009">
        <ele>172.69</ele>
        <time>2015-04-26T07:38:42Z</time>
      </trkpt>
      <trkpt lat="47.69548" lon="3.69006">
        <ele>169.33</ele>
        <time>2015-04-26T07:38:44Z</time>
      </trkpt>
      <trkpt lat="47.6954" lon="3.69003">
        <ele>165.96</ele>
        <time>2015-04-26T07:38:50Z</time>
      </trkpt>
      <trkpt lat="47.69538" lon="3.69002">
        <ele>169.33</ele>
        <time>2015-04-26T07:38:51Z</time>
      </trkpt>
      <trkpt lat="47.69536" lon="3.69001">
        <ele>169.33</ele>
        <time>2015-04-26T07:38:52Z</time>
      </trkpt>
      <trkpt lat="47.69532" lon="3.68998">
        <ele>167.89</ele>
        <time>2015-04-26T07:38:55Z</time>
      </trkpt>
      <trkpt lat="47.69516" lon="3.68993">
        <ele>165</ele>
        <time>2015-04-26T07:39:02Z</time>
      </trkpt>
      <trkpt lat="47.69509" lon="3.6899">
        <ele>171.25</ele>
        <time>2015-04-26T07:39:05Z</time>
      </trkpt>
      <trkpt lat="47.69507" lon="3.6899">
        <ele>167.41</ele>
        <time>2015-04-26T07:39:06Z</time>
      </trkpt>
      <trkpt lat="47.69504" lon="3.6899">
        <ele>165.96</ele>
        <time>2015-04-26T07:39:08Z</time>
      </trkpt>
      <trkpt lat="47.69495" lon="3.6899">
        <ele>164.52</ele>
        <time>2015-04-26T07:39:17Z</time>
      </trkpt>
      <trkpt lat="47.69488" lon="3.68988">
        <ele>165</ele>
        <time>2015-04-26T07:39:21Z</time>
      </trkpt>
      <trkpt lat="47.69466" lon="3.68985">
        <ele>162.6</ele>
        <time>2015-04-26T07:39:35Z</time>
      </trkpt>
      <trkpt lat="47.69444" lon="3.68983">
        <ele>161.16</ele>
        <time>2015-04-26T07:39:50Z</time>
      </trkpt>
      <trkpt lat="47.69417" lon="3.68983">
        <ele>159.72</ele>
        <time>2015-04-26T07:40:04Z</time>
      </trkpt>
      <trkpt lat="47.69396" lon="3.68983">
        <ele>159.24</ele>
        <time>2015-04-26T07:40:17Z</time>
      </trkpt>
      <trkpt lat="47.69373" lon="3.68982">
        <ele>157.79</ele>
        <time>2015-04-26T07:40:32Z</time>
      </trkpt>
      <trkpt lat="47.69355" lon="3.68985">
        <ele>156.83</ele>
        <time>2015-04-26T07:40:45Z</time>
      </trkpt>
      <trkpt lat="47.69352" lon="3.68986">
        <ele>156.35</ele>
        <time>2015-04-26T07:40:47Z</time>
      </trkpt>
      <trkpt lat="47.69347" lon="3.68988">
        <ele>156.35</ele>
        <time>2015-04-26T07:40:51Z</time>
      </trkpt>
      <trkpt lat="47.69325" lon="3.68993">
        <ele>155.39</ele>
        <time>2015-04-26T07:41:04Z</time>
      </trkpt>
      <trkpt lat="47.69319" lon="3.68994">
        <ele>154.43</ele>
        <time>2015-04-26T07:41:08Z</time>
      </trkpt>
      <trkpt lat="47.69309" lon="3.69001">
        <ele>153.95</ele>
        <time>2015-04-26T07:41:16Z</time>
      </trkpt>
      <trkpt lat="47.693" lon="3.69006">
        <ele>153.95</ele>
        <time>2015-04-26T07:41:22Z</time>
      </trkpt>
      <trkpt lat="47.69278" lon="3.69008">
        <ele>152.99</ele>
        <time>2015-04-26T07:41:34Z</time>
      </trkpt>
      <trkpt lat="47.69258" lon="3.69015">
        <ele>152.03</ele>
        <time>2015-04-26T07:41:46Z</time>
      </trkpt>
      <trkpt lat="47.69247" lon="3.69019">
        <ele>151.54</ele>
        <time>2015-04-26T07:41:53Z</time>
      </trkpt>
      <trkpt lat="47.6923" lon="3.69018">
        <ele>151.06</ele>
        <time>2015-04-26T07:42:05Z</time>
      </trkpt>
      <trkpt lat="47.69213" lon="3.69023">
        <ele>150.58</ele>
        <time>2015-04-26T07:42:17Z</time>
      </trkpt>
      <trkpt lat="47.69211" lon="3.69024">
        <ele>150.58</ele>
        <time>2015-04-26T07:42:19Z</time>
      </trkpt>
      <trkpt lat="47.692" lon="3.69022">
        <ele>150.1</ele>
        <time>2015-04-26T07:42:24Z</time>
      </trkpt>
      <trkpt lat="47.69177" lon="3.69026">
        <ele>149.62</ele>
        <time>2015-04-26T07:42:37Z</time>
      </trkpt>
      <trkpt lat="47.69153" lon="3.69025">
        <ele>149.14</ele>
        <time>2015-04-26T07:42:50Z</time>
      </trkpt>
      <trkpt lat="47.69143" lon="3.69025">
        <ele>148.66</ele>
        <time>2015-04-26T07:42:56Z</time>
      </trkpt>
      <trkpt lat="47.69137" lon="3.69029">
        <ele>148.66</ele>
        <time>2015-04-26T07:43:00Z</time>
      </trkpt>
      <trkpt lat="47.69125" lon="3.69029">
        <ele>148.18</ele>
        <time>2015-04-26T07:43:08Z</time>
      </trkpt>
      <trkpt lat="47.69115" lon="3.69026">
        <ele>148.18</ele>
        <time>2015-04-26T07:43:14Z</time>
      </trkpt>
      <trkpt lat="47.691" lon="3.69029">
        <ele>147.7</ele>
        <time>2015-04-26T07:43:26Z</time>
      </trkpt>
      <trkpt lat="47.69095" lon="3.69031">
        <ele>147.7</ele>
        <time>2015-04-26T07:43:29Z</time>
      </trkpt>
      <trkpt lat="47.69082" lon="3.6903">
        <ele>147.22</ele>
        <time>2015-04-26T07:43:37Z</time>
      </trkpt>
      <trkpt lat="47.69061" lon="3.69021">
        <ele>146.74</ele>
        <time>2015-04-26T07:43:49Z</time>
      </trkpt>
      <trkpt lat="47.69043" lon="3.69008">
        <ele>146.26</ele>
        <time>2015-04-26T07:43:58Z</time>
      </trkpt>
      <trkpt lat="47.69036" lon="3.69004">
        <ele>146.26</ele>
        <time>2015-04-26T07:44:02Z</time>
      </trkpt>
      <trkpt lat="47.69015" lon="3.69001">
        <ele>145.3</ele>
        <time>2015-04-26T07:44:12Z</time>
      </trkpt>
      <trkpt lat="47.68994" lon="3.69">
        <ele>144.82</ele>
        <time>2015-04-26T07:44:24Z</time>
      </trkpt>
      <trkpt lat="47.68975" lon="3.69002">
        <ele>143.85</ele>
        <time>2015-04-26T07:44:38Z</time>
      </trkpt>
      <trkpt lat="47.68956" lon="3.68999">
        <ele>143.85</ele>
        <time>2015-04-26T07:44:52Z</time>
      </trkpt>
      <trkpt lat="47.68952" lon="3.68998">
        <ele>143.37</ele>
        <time>2015-04-26T07:44:55Z</time>
      </trkpt>
      <trkpt lat="47.68929" lon="3.68993">
        <ele>142.89</ele>
        <time>2015-04-26T07:45:10Z</time>
      </trkpt>
      <trkpt lat="47.68903" lon="3.68983">
        <ele>142.41</ele>
        <time>2015-04-26T07:45:25Z</time>
      </trkpt>
      <trkpt lat="47.68888" lon="3.68979">
        <ele>139.05</ele>
        <time>2015-04-26T07:45:34Z</time>
      </trkpt>
      <trkpt lat="47.68886" lon="3.68979">
        <ele>144.34</ele>
        <time>2015-04-26T07:45:35Z</time>
      </trkpt>
      <trkpt lat="47.68878" lon="3.68977">
        <ele>140.97</ele>
        <time>2015-04-26T07:45:42Z</time>
      </trkpt>
      <trkpt lat="47.68858" lon="3.68978">
        <ele>141.45</ele>
        <time>2015-04-26T07:45:55Z</time>
      </trkpt>
      <trkpt lat="47.68842" lon="3.68982">
        <ele>140.97</ele>
        <time>2015-04-26T07:46:06Z</time>
      </trkpt>
      <trkpt lat="47.68836" lon="3.68983">
        <ele>140.49</ele>
        <time>2015-04-26T07:46:10Z</time>
      </trkpt>
      <trkpt lat="47.68827" lon="3.68985">
        <ele>140.49</ele>
        <time>2015-04-26T07:46:16Z</time>
      </trkpt>
      <trkpt lat="47.68817" lon="3.68987">
        <ele>140.49</ele>
        <time>2015-04-26T07:46:22Z</time>
      </trkpt>
      <trkpt lat="47.68796" lon="3.68993">
        <ele>139.05</ele>
        <time>2015-04-26T07:46:38Z</time>
      </trkpt>
      <trkpt lat="47.68775" lon="3.69003">
        <ele>138.57</ele>
        <time>2015-04-26T07:46:52Z</time>
      </trkpt>
      <trkpt lat="47.68748" lon="3.6902">
        <ele>138.09</ele>
        <time>2015-04-26T07:47:07Z</time>
      </trkpt>
      <trkpt lat="47.68727" lon="3.6903">
        <ele>137.13</ele>
        <time>2015-04-26T07:47:20Z</time>
      </trkpt>
      <trkpt lat="47.68722" lon="3.69034">
        <ele>137.61</ele>
        <time>2015-04-26T07:47:24Z</time>
      </trkpt>
      <trkpt lat="47.68713" lon="3.69039">
        <ele>137.13</ele>
        <time>2015-04-26T07:47:30Z</time>
      </trkpt>
      <trkpt lat="47.68707" lon="3.69042">
        <ele>136.64</ele>
        <time>2015-04-26T07:47:34Z</time>
      </trkpt>
      <trkpt lat="47.68682" lon="3.69048">
        <ele>136.64</ele>
        <time>2015-04-26T07:47:49Z</time>
      </trkpt>
      <trkpt lat="47.68661" lon="3.69047">
        <ele>136.16</ele>
        <time>2015-04-26T07:48:03Z</time>
      </trkpt>
      <trkpt lat="47.68654" lon="3.69047">
        <ele>136.16</ele>
        <time>2015-04-26T07:48:08Z</time>
      </trkpt>
      <trkpt lat="47.68646" lon="3.69046">
        <ele>135.68</ele>
        <time>2015-04-26T07:48:13Z</time>
      </trkpt>
      <trkpt lat="47.68625" lon="3.69037">
        <ele>135.68</ele>
        <time>2015-04-26T07:48:27Z</time>
      </trkpt>
      <trkpt lat="47.68599" lon="3.69036">
        <ele>134.72</ele>
        <time>2015-04-26T07:48:41Z</time>
      </trkpt>
      <trkpt lat="47.68588" lon="3.69038">
        <ele>134.24</ele>
        <time>2015-04-26T07:48:49Z</time>
      </trkpt>
      <trkpt lat="47.6857" lon="3.69048">
        <ele>134.72</ele>
        <time>2015-04-26T07:49:01Z</time>
      </trkpt>
      <trkpt lat="47.68551" lon="3.69059">
        <ele>134.24</ele>
        <time>2015-04-26T07:49:14Z</time>
      </trkpt>
      <trkpt lat="47.68531" lon="3.69068">
        <ele>133.76</ele>
        <time>2015-04-26T07:49:28Z</time>
      </trkpt>
      <trkpt lat="47.68512" lon="3.69079">
        <ele>133.76</ele>
        <time>2015-04-26T07:49:41Z</time>
      </trkpt>
      <trkpt lat="47.685" lon="3.69087">
        <ele>133.28</ele>
        <time>2015-04-26T07:49:49Z</time>
      </trkpt>
      <trkpt lat="47.68494" lon="3.69092">
        <ele>133.76</ele>
        <time>2015-04-26T07:49:54Z</time>
      </trkpt>
      <trkpt lat="47.68476" lon="3.69101">
        <ele>133.28</ele>
        <time>2015-04-26T07:50:05Z</time>
      </trkpt>
      <trkpt lat="47.68465" lon="3.69089">
        <ele>133.76</ele>
        <time>2015-04-26T07:50:15Z</time>
      </trkpt>
      <trkpt lat="47.68461" lon="3.69083">
        <ele>133.76</ele>
        <time>2015-04-26T07:50:19Z</time>
      </trkpt>
      <trkpt lat="47.68457" lon="3.69079">
        <ele>134.24</ele>
        <time>2015-04-26T07:50:22Z</time>
      </trkpt>
      <trkpt lat="47.68446" lon="3.69069">
        <ele>134.24</ele>
        <time>2015-04-26T07:50:31Z</time>
      </trkpt>
      <trkpt lat="47.68441" lon="3.69069">
        <ele>133.28</ele>
        <time>2015-04-26T07:50:35Z</time>
      </trkpt>
      <trkpt lat="47.6843" lon="3.69081">
        <ele>132.32</ele>
        <time>2015-04-26T07:50:47Z</time>
      </trkpt>
      <trkpt lat="47.68419" lon="3.6908">
        <ele>130.4</ele>
        <time>2015-04-26T07:50:55Z</time>
      </trkpt>
      <trkpt lat="47.68412" lon="3.69084">
        <ele>129.92</ele>
        <time>2015-04-26T07:51:00Z</time>
      </trkpt>
      <trkpt lat="47.684" lon="3.69088">
        <ele>128.95</ele>
        <time>2015-04-26T07:51:06Z</time>
      </trkpt>
      <trkpt lat="47.68371" lon="3.69095">
        <ele>127.03</ele>
        <time>2015-04-26T07:51:21Z</time>
      </trkpt>
      <trkpt lat="47.68368" lon="3.69096">
        <ele>127.03</ele>
        <time>2015-04-26T07:51:23Z</time>
      </trkpt>
      <trkpt lat="47.68361" lon="3.69098">
        <ele>126.55</ele>
        <time>2015-04-26T07:51:27Z</time>
      </trkpt>
      <trkpt lat="47.68339" lon="3.69095">
        <ele>124.15</ele>
        <time>2015-04-26T07:51:41Z</time>
      </trkpt>
      <trkpt lat="47.68337" lon="3.69094">
        <ele>124.15</ele>
        <time>2015-04-26T07:51:43Z</time>
      </trkpt>
      <trkpt lat="47.68322" lon="3.69087">
        <ele>121.74</ele>
        <time>2015-04-26T07:51:56Z</time>
      </trkpt>
      <trkpt lat="47.68305" lon="3.69083">
        <ele>119.82</ele>
        <time>2015-04-26T07:52:08Z</time>
      </trkpt>
      <trkpt lat="47.68293" lon="3.69068">
        <ele>118.86</ele>
        <time>2015-04-26T07:52:17Z</time>
      </trkpt>
      <trkpt lat="47.68288" lon="3.69051">
        <ele>117.9</ele>
        <time>2015-04-26T07:52:25Z</time>
      </trkpt>
      <trkpt lat="47.68283" lon="3.69041">
        <ele>117.9</ele>
        <time>2015-04-26T07:52:31Z</time>
      </trkpt>
      <trkpt lat="47.68277" lon="3.69021">
        <ele>116.94</ele>
        <time>2015-04-26T07:52:40Z</time>
      </trkpt>
      <trkpt lat="47.68272" lon="3.68993">
        <ele>116.94</ele>
        <time>2015-04-26T07:52:52Z</time>
      </trkpt>
      <trkpt lat="47.6827" lon="3.68986">
        <ele>116.46</ele>
        <time>2015-04-26T07:52:55Z</time>
      </trkpt>
      <trkpt lat="47.68265" lon="3.6897">
        <ele>115.98</ele>
        <time>2015-04-26T07:53:04Z</time>
      </trkpt>
      <trkpt lat="47.68255" lon="3.68972">
        <ele>115.98</ele>
        <time>2015-04-26T07:53:11Z</time>
      </trkpt>
      <trkpt lat="47.6824" lon="3.68969">
        <ele>116.46</ele>
        <time>2015-04-26T07:53:22Z</time>
      </trkpt>
      <trkpt lat="47.68225" lon="3.68966">
        <ele>116.46</ele>
        <time>2015-04-26T07:53:30Z</time>
      </trkpt>
      <trkpt lat="47.68201" lon="3.68969">
        <ele>116.94</ele>
        <time>2015-04-26T07:53:43Z</time>
      </trkpt>
      <trkpt lat="47.68188" lon="3.68975">
        <ele>116.94</ele>
        <time>2015-04-26T07:53:50Z</time>
      </trkpt>
      <trkpt lat="47.68179" lon="3.68968">
        <ele>116.46</ele>
        <time>2015-04-26T07:53:55Z</time>
      </trkpt>
      <trkpt lat="47.68159" lon="3.68955">
        <ele>115.98</ele>
        <time>2015-04-26T07:54:08Z</time>
      </trkpt>
      <trkpt lat="47.68158" lon="3.68954">
        <ele>115.98</ele>
        <time>2015-04-26T07:54:09Z</time>
      </trkpt>
      <trkpt lat="47.6815" lon="3.6895">
        <ele>115.5</ele>
        <time>2015-04-26T07:54:15Z</time>
      </trkpt>
      <trkpt lat="47.68141" lon="3.68948">
        <ele>115.01</ele>
        <time>2015-04-26T07:54:20Z</time>
      </trkpt>
      <trkpt lat="47.6813" lon="3.68965">
        <ele>115.01</ele>
        <time>2015-04-26T07:54:31Z</time>
      </trkpt>
      <trkpt lat="47.68125" lon="3.68975">
        <ele>115.01</ele>
        <time>2015-04-26T07:54:37Z</time>
      </trkpt>
      <trkpt lat="47.68113" lon="3.68999">
        <ele>115.5</ele>
        <time>2015-04-26T07:54:50Z</time>
      </trkpt>
      <trkpt lat="47.6811" lon="3.69003">
        <ele>115.5</ele>
        <time>2015-04-26T07:54:53Z</time>
      </trkpt>
      <trkpt lat="47.68108" lon="3.69007">
        <ele>115.5</ele>
        <time>2015-04-26T07:54:56Z</time>
      </trkpt>
      <trkpt lat="47.68099" lon="3.69035">
        <ele>116.46</ele>
        <time>2015-04-26T07:55:10Z</time>
      </trkpt>
      <trkpt lat="47.68096" lon="3.69049">
        <ele>116.94</ele>
        <time>2015-04-26T07:55:23Z</time>
      </trkpt>
      <trkpt lat="47.68095" lon="3.69054">
        <ele>117.42</ele>
        <time>2015-04-26T07:55:26Z</time>
      </trkpt>
      <trkpt lat="47.6809" lon="3.69068">
        <ele>116.94</ele>
        <time>2015-04-26T07:55:33Z</time>
      </trkpt>
      <trkpt lat="47.6808" lon="3.69098">
        <ele>116.94</ele>
        <time>2015-04-26T07:55:48Z</time>
      </trkpt>
      <trkpt lat="47.68081" lon="3.69123">
        <ele>117.42</ele>
        <time>2015-04-26T07:55:57Z</time>
      </trkpt>
      <trkpt lat="47.68065" lon="3.69145">
        <ele>117.42</ele>
        <time>2015-04-26T07:56:11Z</time>
      </trkpt>
      <trkpt lat="47.68048" lon="3.69166">
        <ele>117.9</ele>
        <time>2015-04-26T07:56:25Z</time>
      </trkpt>
      <trkpt lat="47.6803" lon="3.69181">
        <ele>118.38</ele>
        <time>2015-04-26T07:56:38Z</time>
      </trkpt>
      <trkpt lat="47.68017" lon="3.69197">
        <ele>120.3</ele>
        <time>2015-04-26T07:56:49Z</time>
      </trkpt>
      <trkpt lat="47.68013" lon="3.69208">
        <ele>121.74</ele>
        <time>2015-04-26T07:56:56Z</time>
      </trkpt>
      <trkpt lat="47.68009" lon="3.69219">
        <ele>122.71</ele>
        <time>2015-04-26T07:57:02Z</time>
      </trkpt>
      <trkpt lat="47.67998" lon="3.69249">
        <ele>126.07</ele>
        <time>2015-04-26T07:57:16Z</time>
      </trkpt>
      <trkpt lat="47.67985" lon="3.69273">
        <ele>128.95</ele>
        <time>2015-04-26T07:57:29Z</time>
      </trkpt>
      <trkpt lat="47.67975" lon="3.69286">
        <ele>129.92</ele>
        <time>2015-04-26T07:57:38Z</time>
      </trkpt>
      <trkpt lat="47.67969" lon="3.69289">
        <ele>130.4</ele>
        <time>2015-04-26T07:57:42Z</time>
      </trkpt>
      <trkpt lat="47.67947" lon="3.69299">
        <ele>131.36</ele>
        <time>2015-04-26T07:57:56Z</time>
      </trkpt>
      <trkpt lat="47.67943" lon="3.69301">
        <ele>131.84</ele>
        <time>2015-04-26T07:57:58Z</time>
      </trkpt>
      <trkpt lat="47.67918" lon="3.69313">
        <ele>131.84</ele>
        <time>2015-04-26T07:58:12Z</time>
      </trkpt>
      <trkpt lat="47.67901" lon="3.69319">
        <ele>132.32</ele>
        <time>2015-04-26T07:58:22Z</time>
      </trkpt>
      <trkpt lat="47.67891" lon="3.69339">
        <ele>134.24</ele>
        <time>2015-04-26T07:58:34Z</time>
      </trkpt>
      <trkpt lat="47.67886" lon="3.69356">
        <ele>137.13</ele>
        <time>2015-04-26T07:58:45Z</time>
      </trkpt>
      <trkpt lat="47.67883" lon="3.69364">
        <ele>138.57</ele>
        <time>2015-04-26T07:58:51Z</time>
      </trkpt>
      <trkpt lat="47.67873" lon="3.69385">
        <ele>142.41</ele>
        <time>2015-04-26T07:59:04Z</time>
      </trkpt>
      <trkpt lat="47.67865" lon="3.69397">
        <ele>144.34</ele>
        <time>2015-04-26T07:59:12Z</time>
      </trkpt>
      <trkpt lat="47.67854" lon="3.69418">
        <ele>147.22</ele>
        <time>2015-04-26T07:59:25Z</time>
      </trkpt>
      <trkpt lat="47.67852" lon="3.69425">
        <ele>148.18</ele>
        <time>2015-04-26T07:59:30Z</time>
      </trkpt>
      <trkpt lat="47.67848" lon="3.69436">
        <ele>149.62</ele>
        <time>2015-04-26T07:59:35Z</time>
      </trkpt>
      <trkpt lat="47.67838" lon="3.69457">
        <ele>152.51</ele>
        <time>2015-04-26T07:59:48Z</time>
      </trkpt>
      <trkpt lat="47.67832" lon="3.69484">
        <ele>155.39</ele>
        <time>2015-04-26T08:00:05Z</time>
      </trkpt>
      <trkpt lat="47.67827" lon="3.69509">
        <ele>158.27</ele>
        <time>2015-04-26T08:00:20Z</time>
      </trkpt>
      <trkpt lat="47.67821" lon="3.69536">
        <ele>161.16</ele>
        <time>2015-04-26T08:00:33Z</time>
      </trkpt>
      <trkpt lat="47.67817" lon="3.69557">
        <ele>164.04</ele>
        <time>2015-04-26T08:00:46Z</time>
      </trkpt>
      <trkpt lat="47.67815" lon="3.69565">
        <ele>165</ele>
        <time>2015-04-26T08:00:50Z</time>
      </trkpt>
      <trkpt lat="47.67812" lon="3.69587">
        <ele>168.37</ele>
        <time>2015-04-26T08:01:02Z</time>
      </trkpt>
      <trkpt lat="47.67809" lon="3.69609">
        <ele>171.25</ele>
        <time>2015-04-26T08:01:16Z</time>
      </trkpt>
      <trkpt lat="47.67804" lon="3.69627">
        <ele>173.66</ele>
        <time>2015-04-26T08:01:28Z</time>
      </trkpt>
      <trkpt lat="47.678" lon="3.69644">
        <ele>176.54</ele>
        <time>2015-04-26T08:01:38Z</time>
      </trkpt>
      <trkpt lat="47.67789" lon="3.69659">
        <ele>178.94</ele>
        <time>2015-04-26T08:01:51Z</time>
      </trkpt>
      <trkpt lat="47.67782" lon="3.69665">
        <ele>181.35</ele>
        <time>2015-04-26T08:02:00Z</time>
      </trkpt>
      <trkpt lat="47.67765" lon="3.69667">
        <ele>183.75</ele>
        <time>2015-04-26T08:02:15Z</time>
      </trkpt>
      <trkpt lat="47.67751" lon="3.69661">
        <ele>185.67</ele>
        <time>2015-04-26T08:02:26Z</time>
      </trkpt>
      <trkpt lat="47.67743" lon="3.69659">
        <ele>187.59</ele>
        <time>2015-04-26T08:02:34Z</time>
      </trkpt>
      <trkpt lat="47.6774" lon="3.6966">
        <ele>188.08</ele>
        <time>2015-04-26T08:02:38Z</time>
      </trkpt>
      <trkpt lat="47.67731" lon="3.69662">
        <ele>190</ele>
        <time>2015-04-26T08:02:47Z</time>
      </trkpt>
      <trkpt lat="47.67723" lon="3.69667">
        <ele>192.4</ele>
        <time>2015-04-26T08:02:56Z</time>
      </trkpt>
      <trkpt lat="47.67719" lon="3.69669">
        <ele>191.92</ele>
        <time>2015-04-26T08:02:58Z</time>
      </trkpt>
      <trkpt lat="47.67701" lon="3.69676">
        <ele>193.84</ele>
        <time>2015-04-26T08:03:14Z</time>
      </trkpt>
      <trkpt lat="47.677" lon="3.69677">
        <ele>193.36</ele>
        <time>2015-04-26T08:03:15Z</time>
      </trkpt>
      <trkpt lat="47.67689" lon="3.69685">
        <ele>195.28</ele>
        <time>2015-04-26T08:03:24Z</time>
      </trkpt>
      <trkpt lat="47.67687" lon="3.69689">
        <ele>195.77</ele>
        <time>2015-04-26T08:03:27Z</time>
      </trkpt>
      <trkpt lat="47.67679" lon="3.69698">
        <ele>197.21</ele>
        <time>2015-04-26T08:03:39Z</time>
      </trkpt>
      <trkpt lat="47.67659" lon="3.69701">
        <ele>198.65</ele>
        <time>2015-04-26T08:03:51Z</time>
      </trkpt>
      <trkpt lat="47.67646" lon="3.69702">
        <ele>198.17</ele>
        <time>2015-04-26T08:03:59Z</time>
      </trkpt>
      <trkpt lat="47.67641" lon="3.69703">
        <ele>198.65</ele>
        <time>2015-04-26T08:04:02Z</time>
      </trkpt>
      <trkpt lat="47.67634" lon="3.69705">
        <ele>198.17</ele>
        <time>2015-04-26T08:04:06Z</time>
      </trkpt>
      <trkpt lat="47.67626" lon="3.69711">
        <ele>198.17</ele>
        <time>2015-04-26T08:04:11Z</time>
      </trkpt>
      <trkpt lat="47.6762" lon="3.69718">
        <ele>198.17</ele>
        <time>2015-04-26T08:04:17Z</time>
      </trkpt>
      <trkpt lat="47.67617" lon="3.69723">
        <ele>198.65</ele>
        <time>2015-04-26T08:04:19Z</time>
      </trkpt>
      <trkpt lat="47.67611" lon="3.69744">
        <ele>198.65</ele>
        <time>2015-04-26T08:04:28Z</time>
      </trkpt>
      <trkpt lat="47.67613" lon="3.69748">
        <ele>198.17</ele>
        <time>2015-04-26T08:04:30Z</time>
      </trkpt>
      <trkpt lat="47.67618" lon="3.69761">
        <ele>198.65</ele>
        <time>2015-04-26T08:04:36Z</time>
      </trkpt>
      <trkpt lat="47.67623" lon="3.69788">
        <ele>198.17</ele>
        <time>2015-04-26T08:04:50Z</time>
      </trkpt>
      <trkpt lat="47.67621" lon="3.69801">
        <ele>199.13</ele>
        <time>2015-04-26T08:05:02Z</time>
      </trkpt>
      <trkpt lat="47.6762" lon="3.69805">
        <ele>198.65</ele>
        <time>2015-04-26T08:05:17Z</time>
      </trkpt>
      <trkpt lat="47.67626" lon="3.69796">
        <ele>198.65</ele>
        <time>2015-04-26T08:05:28Z</time>
      </trkpt>
      <trkpt lat="47.67631" lon="3.69792">
        <ele>198.17</ele>
        <time>2015-04-26T08:05:44Z</time>
      </trkpt>
      <trkpt lat="47.67626" lon="3.69794">
        <ele>198.65</ele>
        <time>2015-04-26T08:06:00Z</time>
      </trkpt>
      <trkpt lat="47.67623" lon="3.69801">
        <ele>198.65</ele>
        <time>2015-04-26T08:06:04Z</time>
      </trkpt>
      <trkpt lat="47.67621" lon="3.69806">
        <ele>198.65</ele>
        <time>2015-04-26T08:06:10Z</time>
      </trkpt>
      <trkpt lat="47.67614" lon="3.69814">
        <ele>198.65</ele>
        <time>2015-04-26T08:06:16Z</time>
      </trkpt>
      <trkpt lat="47.67604" lon="3.69828">
        <ele>198.65</ele>
        <time>2015-04-26T08:06:24Z</time>
      </trkpt>
      <trkpt lat="47.6759" lon="3.69846">
        <ele>199.13</ele>
        <time>2015-04-26T08:06:36Z</time>
      </trkpt>
      <trkpt lat="47.67579" lon="3.69865">
        <ele>198.65</ele>
        <time>2015-04-26T08:06:48Z</time>
      </trkpt>
      <trkpt lat="47.67572" lon="3.69878">
        <ele>198.65</ele>
        <time>2015-04-26T08:06:56Z</time>
      </trkpt>
      <trkpt lat="47.67558" lon="3.69897">
        <ele>198.65</ele>
        <time>2015-04-26T08:07:07Z</time>
      </trkpt>
      <trkpt lat="47.67551" lon="3.69905">
        <ele>196.25</ele>
        <time>2015-04-26T08:07:12Z</time>
      </trkpt>
      <trkpt lat="47.67546" lon="3.69912">
        <ele>195.28</ele>
        <time>2015-04-26T08:07:16Z</time>
      </trkpt>
      <trkpt lat="47.67544" lon="3.69914">
        <ele>201.05</ele>
        <time>2015-04-26T08:07:17Z</time>
      </trkpt>
      <trkpt lat="47.67542" lon="3.69916">
        <ele>198.65</ele>
        <time>2015-04-26T08:07:19Z</time>
      </trkpt>
      <trkpt lat="47.67526" lon="3.69942">
        <ele>197.69</ele>
        <time>2015-04-26T08:07:35Z</time>
      </trkpt>
      <trkpt lat="47.67513" lon="3.69956">
        <ele>196.25</ele>
        <time>2015-04-26T08:07:46Z</time>
      </trkpt>
      <trkpt lat="47.67497" lon="3.69976">
        <ele>195.28</ele>
        <time>2015-04-26T08:07:58Z</time>
      </trkpt>
      <trkpt lat="47.67483" lon="3.69993">
        <ele>195.28</ele>
        <time>2015-04-26T08:08:09Z</time>
      </trkpt>
      <trkpt lat="47.67472" lon="3.70013">
        <ele>196.73</ele>
        <time>2015-04-26T08:08:22Z</time>
      </trkpt>
      <trkpt lat="47.6746" lon="3.70027">
        <ele>197.69</ele>
        <time>2015-04-26T08:08:30Z</time>
      </trkpt>
      <trkpt lat="47.67453" lon="3.70034">
        <ele>198.17</ele>
        <time>2015-04-26T08:08:35Z</time>
      </trkpt>
      <trkpt lat="47.67442" lon="3.70045">
        <ele>199.61</ele>
        <time>2015-04-26T08:08:44Z</time>
      </trkpt>
      <trkpt lat="47.67424" lon="3.70062">
        <ele>200.57</ele>
        <time>2015-04-26T08:08:58Z</time>
      </trkpt>
      <trkpt lat="47.67401" lon="3.70081">
        <ele>201.53</ele>
        <time>2015-04-26T08:09:12Z</time>
      </trkpt>
      <trkpt lat="47.67383" lon="3.70097">
        <ele>202.01</ele>
        <time>2015-04-26T08:09:25Z</time>
      </trkpt>
      <trkpt lat="47.67365" lon="3.70119">
        <ele>202.49</ele>
        <time>2015-04-26T08:09:38Z</time>
      </trkpt>
      <trkpt lat="47.67347" lon="3.70138">
        <ele>202.49</ele>
        <time>2015-04-26T08:09:51Z</time>
      </trkpt>
      <trkpt lat="47.67329" lon="3.70161">
        <ele>202.49</ele>
        <time>2015-04-26T08:10:04Z</time>
      </trkpt>
      <trkpt lat="47.67314" lon="3.70187">
        <ele>202.01</ele>
        <time>2015-04-26T08:10:19Z</time>
      </trkpt>
      <trkpt lat="47.67298" lon="3.70218">
        <ele>201.53</ele>
        <time>2015-04-26T08:10:34Z</time>
      </trkpt>
      <trkpt lat="47.67295" lon="3.7022">
        <ele>201.53</ele>
        <time>2015-04-26T08:10:36Z</time>
      </trkpt>
      <trkpt lat="47.67279" lon="3.70248">
        <ele>201.05</ele>
        <time>2015-04-26T08:10:51Z</time>
      </trkpt>
      <trkpt lat="47.67272" lon="3.70263">
        <ele>200.57</ele>
        <time>2015-04-26T08:10:58Z</time>
      </trkpt>
      <trkpt lat="47.67254" lon="3.70292">
        <ele>199.13</ele>
        <time>2015-04-26T08:11:14Z</time>
      </trkpt>
      <trkpt lat="47.67233" lon="3.70316">
        <ele>198.17</ele>
        <time>2015-04-26T08:11:28Z</time>
      </trkpt>
      <trkpt lat="47.67224" lon="3.70331">
        <ele>196.73</ele>
        <time>2015-04-26T08:11:37Z</time>
      </trkpt>
      <trkpt lat="47.67216" lon="3.7034">
        <ele>195.77</ele>
        <time>2015-04-26T08:11:44Z</time>
      </trkpt>
      <trkpt lat="47.67202" lon="3.7036">
        <ele>194.32</ele>
        <time>2015-04-26T08:11:54Z</time>
      </trkpt>
      <trkpt lat="47.67187" lon="3.7038">
        <ele>192.4</ele>
        <time>2015-04-26T08:12:06Z</time>
      </trkpt>
      <trkpt lat="47.67172" lon="3.70399">
        <ele>190.96</ele>
        <time>2015-04-26T08:12:18Z</time>
      </trkpt>
      <trkpt lat="47.67167" lon="3.70406">
        <ele>189.52</ele>
        <time>2015-04-26T08:12:22Z</time>
      </trkpt>
      <trkpt lat="47.67165" lon="3.70409">
        <ele>189.52</ele>
        <time>2015-04-26T08:12:24Z</time>
      </trkpt>
      <trkpt lat="47.67152" lon="3.7043">
        <ele>187.59</ele>
        <time>2015-04-26T08:12:37Z</time>
      </trkpt>
      <trkpt lat="47.67148" lon="3.7045">
        <ele>185.19</ele>
        <time>2015-04-26T08:12:45Z</time>
      </trkpt>
      <trkpt lat="47.67145" lon="3.70462">
        <ele>184.71</ele>
        <time>2015-04-26T08:12:50Z</time>
      </trkpt>
      <trkpt lat="47.67137" lon="3.70487">
        <ele>181.83</ele>
        <time>2015-04-26T08:13:00Z</time>
      </trkpt>
      <trkpt lat="47.67128" lon="3.70521">
        <ele>179.9</ele>
        <time>2015-04-26T08:13:14Z</time>
      </trkpt>
      <trkpt lat="47.67122" lon="3.70552">
        <ele>177.02</ele>
        <time>2015-04-26T08:13:26Z</time>
      </trkpt>
      <trkpt lat="47.67113" lon="3.70576">
        <ele>173.66</ele>
        <time>2015-04-26T08:13:35Z</time>
      </trkpt>
      <trkpt lat="47.67112" lon="3.70578">
        <ele>173.66</ele>
        <time>2015-04-26T08:13:36Z</time>
      </trkpt>
      <trkpt lat="47.67104" lon="3.70606">
        <ele>170.29</ele>
        <time>2015-04-26T08:13:47Z</time>
      </trkpt>
      <trkpt lat="47.67096" lon="3.70633">
        <ele>166.93</ele>
        <time>2015-04-26T08:13:57Z</time>
      </trkpt>
      <trkpt lat="47.67084" lon="3.70662">
        <ele>163.56</ele>
        <time>2015-04-26T08:14:09Z</time>
      </trkpt>
      <trkpt lat="47.67074" lon="3.70677">
        <ele>160.68</ele>
        <time>2015-04-26T08:14:16Z</time>
      </trkpt>
      <trkpt lat="47.67063" lon="3.70694">
        <ele>157.79</ele>
        <time>2015-04-26T08:14:24Z</time>
      </trkpt>
      <trkpt lat="47.67058" lon="3.70704">
        <ele>156.83</ele>
        <time>2015-04-26T08:14:28Z</time>
      </trkpt>
      <trkpt lat="47.67039" lon="3.70728">
        <ele>153.95</ele>
        <time>2015-04-26T08:14:41Z</time>
      </trkpt>
      <trkpt lat="47.67019" lon="3.70741">
        <ele>150.58</ele>
        <time>2015-04-26T08:14:52Z</time>
      </trkpt>
      <trkpt lat="47.66998" lon="3.70756">
        <ele>148.66</ele>
        <time>2015-04-26T08:15:05Z</time>
      </trkpt>
      <trkpt lat="47.66978" lon="3.70767">
        <ele>146.26</ele>
        <time>2015-04-26T08:15:17Z</time>
      </trkpt>
      <trkpt lat="47.66957" lon="3.70778">
        <ele>144.34</ele>
        <time>2015-04-26T08:15:30Z</time>
      </trkpt>
      <trkpt lat="47.6694" lon="3.70788">
        <ele>142.89</ele>
        <time>2015-04-26T08:15:40Z</time>
      </trkpt>
      <trkpt lat="47.66929" lon="3.70793">
        <ele>141.93</ele>
        <time>2015-04-26T08:15:47Z</time>
      </trkpt>
      <trkpt lat="47.66924" lon="3.70799">
        <ele>141.45</ele>
        <time>2015-04-26T08:15:51Z</time>
      </trkpt>
      <trkpt lat="47.66905" lon="3.70809">
        <ele>140.01</ele>
        <time>2015-04-26T08:16:02Z</time>
      </trkpt>
      <trkpt lat="47.66898" lon="3.70813">
        <ele>139.53</ele>
        <time>2015-04-26T08:16:06Z</time>
      </trkpt>
      <trkpt lat="47.66874" lon="3.70826">
        <ele>138.09</ele>
        <time>2015-04-26T08:16:20Z</time>
      </trkpt>
      <trkpt lat="47.66851" lon="3.70843">
        <ele>137.13</ele>
        <time>2015-04-26T08:16:34Z</time>
      </trkpt>
      <trkpt lat="47.66823" lon="3.70861">
        <ele>136.64</ele>
        <time>2015-04-26T08:16:52Z</time>
      </trkpt>
      <trkpt lat="47.66799" lon="3.70879">
        <ele>135.2</ele>
        <time>2015-04-26T08:17:07Z</time>
      </trkpt>
      <trkpt lat="47.66794" lon="3.70881">
        <ele>135.2</ele>
        <time>2015-04-26T08:17:10Z</time>
      </trkpt>
      <trkpt lat="47.66769" lon="3.70896">
        <ele>133.76</ele>
        <time>2015-04-26T08:17:25Z</time>
      </trkpt>
      <trkpt lat="47.66748" lon="3.70901">
        <ele>132.32</ele>
        <time>2015-04-26T08:17:37Z</time>
      </trkpt>
      <trkpt lat="47.66724" lon="3.70905">
        <ele>131.36</ele>
        <time>2015-04-26T08:17:51Z</time>
      </trkpt>
      <trkpt lat="47.66704" lon="3.70909">
        <ele>130.4</ele>
        <time>2015-04-26T08:18:04Z</time>
      </trkpt>
      <trkpt lat="47.66683" lon="3.70914">
        <ele>129.92</ele>
        <time>2015-04-26T08:18:17Z</time>
      </trkpt>
      <trkpt lat="47.66682" lon="3.70915">
        <ele>129.43</ele>
        <time>2015-04-26T08:18:18Z</time>
      </trkpt>
      <trkpt lat="47.66678" lon="3.70914">
        <ele>129.43</ele>
        <time>2015-04-26T08:18:21Z</time>
      </trkpt>
      <trkpt lat="47.66672" lon="3.70915">
        <ele>129.43</ele>
        <time>2015-04-26T08:18:25Z</time>
      </trkpt>
      <trkpt lat="47.66667" lon="3.70914">
        <ele>128.95</ele>
        <time>2015-04-26T08:18:29Z</time>
      </trkpt>
      <trkpt lat="47.66663" lon="3.70916">
        <ele>128.95</ele>
        <time>2015-04-26T08:18:31Z</time>
      </trkpt>
      <trkpt lat="47.66638" lon="3.7092">
        <ele>127.99</ele>
        <time>2015-04-26T08:18:46Z</time>
      </trkpt>
      <trkpt lat="47.66619" lon="3.7092">
        <ele>126.55</ele>
        <time>2015-04-26T08:19:00Z</time>
      </trkpt>
      <trkpt lat="47.66597" lon="3.70918">
        <ele>125.11</ele>
        <time>2015-04-26T08:19:13Z</time>
      </trkpt>
      <trkpt lat="47.66593" lon="3.70922">
        <ele>124.63</ele>
        <time>2015-04-26T08:19:16Z</time>
      </trkpt>
      <trkpt lat="47.66584" lon="3.70939">
        <ele>124.63</ele>
        <time>2015-04-26T08:19:27Z</time>
      </trkpt>
      <trkpt lat="47.66583" lon="3.70953">
        <ele>124.15</ele>
        <time>2015-04-26T08:19:32Z</time>
      </trkpt>
      <trkpt lat="47.66584" lon="3.70969">
        <ele>123.67</ele>
        <time>2015-04-26T08:19:38Z</time>
      </trkpt>
      <trkpt lat="47.66585" lon="3.70989">
        <ele>123.67</ele>
        <time>2015-04-26T08:19:46Z</time>
      </trkpt>
      <trkpt lat="47.66577" lon="3.70991">
        <ele>122.71</ele>
        <time>2015-04-26T08:19:51Z</time>
      </trkpt>
      <trkpt lat="47.66568" lon="3.70988">
        <ele>122.22</ele>
        <time>2015-04-26T08:19:55Z</time>
      </trkpt>
      <trkpt lat="47.66543" lon="3.70981">
        <ele>120.78</ele>
        <time>2015-04-26T08:20:10Z</time>
      </trkpt>
      <trkpt lat="47.66519" lon="3.70976">
        <ele>120.3</ele>
        <time>2015-04-26T08:20:24Z</time>
      </trkpt>
      <trkpt lat="47.66507" lon="3.70971">
        <ele>119.82</ele>
        <time>2015-04-26T08:20:33Z</time>
      </trkpt>
      <trkpt lat="47.66501" lon="3.70971">
        <ele>119.34</ele>
        <time>2015-04-26T08:20:37Z</time>
      </trkpt>
      <trkpt lat="47.66485" lon="3.70965">
        <ele>118.86</ele>
        <time>2015-04-26T08:20:47Z</time>
      </trkpt>
      <trkpt lat="47.6648" lon="3.70966">
        <ele>118.38</ele>
        <time>2015-04-26T08:20:51Z</time>
      </trkpt>
      <trkpt lat="47.66458" lon="3.70963">
        <ele>117.42</ele>
        <time>2015-04-26T08:21:04Z</time>
      </trkpt>
      <trkpt lat="47.66437" lon="3.70957">
        <ele>115.98</ele>
        <time>2015-04-26T08:21:18Z</time>
      </trkpt>
      <trkpt lat="47.66416" lon="3.7095">
        <ele>115.01</ele>
        <time>2015-04-26T08:21:31Z</time>
      </trkpt>
      <trkpt lat="47.66393" lon="3.70947">
        <ele>114.53</ele>
        <time>2015-04-26T08:21:44Z</time>
      </trkpt>
      <trkpt lat="47.66373" lon="3.70938">
        <ele>114.05</ele>
        <time>2015-04-26T08:21:56Z</time>
      </trkpt>
      <trkpt lat="47.66352" lon="3.70933">
        <ele>115.01</ele>
        <time>2015-04-26T08:22:10Z</time>
      </trkpt>
      <trkpt lat="47.66351" lon="3.70932">
        <ele>115.01</ele>
        <time>2015-04-26T08:22:11Z</time>
      </trkpt>
      <trkpt lat="47.66329" lon="3.70928">
        <ele>115.98</ele>
        <time>2015-04-26T08:22:25Z</time>
      </trkpt>
      <trkpt lat="47.66306" lon="3.70922">
        <ele>116.94</ele>
        <time>2015-04-26T08:22:40Z</time>
      </trkpt>
      <trkpt lat="47.66281" lon="3.70919">
        <ele>116.94</ele>
        <time>2015-04-26T08:22:56Z</time>
      </trkpt>
      <trkpt lat="47.66258" lon="3.70913">
        <ele>117.42</ele>
        <time>2015-04-26T08:23:11Z</time>
      </trkpt>
      <trkpt lat="47.66233" lon="3.70905">
        <ele>115.98</ele>
        <time>2015-04-26T08:23:27Z</time>
      </trkpt>
      <trkpt lat="47.6622" lon="3.70906">
        <ele>114.53</ele>
        <time>2015-04-26T08:23:40Z</time>
      </trkpt>
      <trkpt lat="47.6622" lon="3.70928">
        <ele>114.05</ele>
        <time>2015-04-26T08:23:50Z</time>
      </trkpt>
      <trkpt lat="47.6622" lon="3.70932">
        <ele>113.57</ele>
        <time>2015-04-26T08:23:52Z</time>
      </trkpt>
      <trkpt lat="47.66217" lon="3.70951">
        <ele>113.57</ele>
        <time>2015-04-26T08:24:00Z</time>
      </trkpt>
      <trkpt lat="47.66216" lon="3.70972">
        <ele>113.57</ele>
        <time>2015-04-26T08:24:08Z</time>
      </trkpt>
      <trkpt lat="47.66217" lon="3.70993">
        <ele>113.09</ele>
        <time>2015-04-26T08:24:17Z</time>
      </trkpt>
      <trkpt lat="47.66214" lon="3.71021">
        <ele>113.57</ele>
        <time>2015-04-26T08:24:30Z</time>
      </trkpt>
      <trkpt lat="47.66214" lon="3.71022">
        <ele>113.09</ele>
        <time>2015-04-26T08:24:31Z</time>
      </trkpt>
      <trkpt lat="47.66214" lon="3.71027">
        <ele>113.09</ele>
        <time>2015-04-26T08:24:33Z</time>
      </trkpt>
      <trkpt lat="47.66213" lon="3.71038">
        <ele>113.09</ele>
        <time>2015-04-26T08:24:38Z</time>
      </trkpt>
      <trkpt lat="47.6621" lon="3.71058">
        <ele>113.57</ele>
        <time>2015-04-26T08:24:48Z</time>
      </trkpt>
      <trkpt lat="47.66209" lon="3.71067">
        <ele>113.57</ele>
        <time>2015-04-26T08:25:01Z</time>
      </trkpt>
      <trkpt lat="47.66212" lon="3.71069">
        <ele>113.09</ele>
        <time>2015-04-26T08:25:15Z</time>
      </trkpt>
      <trkpt lat="47.66212" lon="3.71069">
        <ele>113.09</ele>
        <time>2015-04-26T08:25:33Z</time>
      </trkpt>
      <trkpt lat="47.66211" lon="3.71067">
        <ele>113.09</ele>
        <time>2015-04-26T08:25:39Z</time>
      </trkpt>
      <trkpt lat="47.66209" lon="3.71072">
        <ele>113.09</ele>
        <time>2015-04-26T08:25:52Z</time>
      </trkpt>
      <trkpt lat="47.66206" lon="3.71075">
        <ele>113.09</ele>
        <time>2015-04-26T08:26:07Z</time>
      </trkpt>
      <trkpt lat="47.66206" lon="3.71075">
        <ele>112.61</ele>
        <time>2015-04-26T08:26:18Z</time>
      </trkpt>
      <trkpt lat="47.66206" lon="3.71076">
        <ele>112.61</ele>
        <time>2015-04-26T08:26:42Z</time>
      </trkpt>
      <trkpt lat="47.66207" lon="3.71077">
        <ele>113.09</ele>
        <time>2015-04-26T08:27:11Z</time>
      </trkpt>
      <trkpt lat="47.66207" lon="3.71077">
        <ele>113.09</ele>
        <time>2015-04-26T08:27:22Z</time>
      </trkpt>
      <trkpt lat="47.66206" lon="3.71082">
        <ele>114.05</ele>
        <time>2015-04-26T08:27:32Z</time>
      </trkpt>
      <trkpt lat="47.66205" lon="3.71081">
        <ele>114.53</ele>
        <time>2015-04-26T08:27:36Z</time>
      </trkpt>
      <trkpt lat="47.66205" lon="3.71077">
        <ele>113.57</ele>
        <time>2015-04-26T08:27:47Z</time>
      </trkpt>
      <trkpt lat="47.66206" lon="3.71077">
        <ele>113.57</ele>
        <time>2015-04-26T08:28:02Z</time>
      </trkpt>
      <trkpt lat="47.66208" lon="3.71071">
        <ele>113.57</ele>
        <time>2015-04-26T08:28:16Z</time>
      </trkpt>
      <trkpt lat="47.66207" lon="3.71072">
        <ele>113.57</ele>
        <time>2015-04-26T08:28:33Z</time>
      </trkpt>
      <trkpt lat="47.66207" lon="3.71076">
        <ele>113.57</ele>
        <time>2015-04-26T08:28:45Z</time>
      </trkpt>
      <trkpt lat="47.66207" lon="3.71076">
        <ele>113.57</ele>
        <time>2015-04-26T08:29:09Z</time>
      </trkpt>
      <trkpt lat="47.66203" lon="3.71074">
        <ele>113.57</ele>
        <time>2015-04-26T08:29:23Z</time>
      </trkpt>
      <trkpt lat="47.66204" lon="3.71073">
        <ele>113.09</ele>
        <time>2015-04-26T08:29:44Z</time>
      </trkpt>
      <trkpt lat="47.66203" lon="3.71074">
        <ele>113.09</ele>
        <time>2015-04-26T08:29:58Z</time>
      </trkpt>
      <trkpt lat="47.66206" lon="3.7107">
        <ele>113.09</ele>
        <time>2015-04-26T08:30:08Z</time>
      </trkpt>
      <trkpt lat="47.66207" lon="3.71071">
        <ele>113.57</ele>
        <time>2015-04-26T08:30:23Z</time>
      </trkpt>
      <trkpt lat="47.66209" lon="3.71077">
        <ele>113.57</ele>
        <time>2015-04-26T08:30:35Z</time>
      </trkpt>
      <trkpt lat="47.66205" lon="3.71074">
        <ele>113.09</ele>
        <time>2015-04-26T08:30:48Z</time>
      </trkpt>
      <trkpt lat="47.66206" lon="3.71076">
        <ele>113.57</ele>
        <time>2015-04-26T08:31:04Z</time>
      </trkpt>
      <trkpt lat="47.66208" lon="3.71076">
        <ele>113.57</ele>
        <time>2015-04-26T08:31:21Z</time>
      </trkpt>
      <trkpt lat="47.66206" lon="3.71073">
        <ele>114.05</ele>
        <time>2015-04-26T08:31:32Z</time>
      </trkpt>
      <trkpt lat="47.66206" lon="3.7107">
        <ele>113.57</ele>
        <time>2015-04-26T08:31:49Z</time>
      </trkpt>
      <trkpt lat="47.66206" lon="3.71071">
        <ele>113.57</ele>
        <time>2015-04-26T08:32:00Z</time>
      </trkpt>
      <trkpt lat="47.66205" lon="3.71074">
        <ele>113.57</ele>
        <time>2015-04-26T08:32:13Z</time>
      </trkpt>
      <trkpt lat="47.66206" lon="3.71083">
        <ele>113.57</ele>
        <time>2015-04-26T08:32:26Z</time>
      </trkpt>
      <trkpt lat="47.66208" lon="3.71083">
        <ele>113.57</ele>
        <time>2015-04-26T08:32:40Z</time>
      </trkpt>
      <trkpt lat="47.66207" lon="3.71081">
        <ele>113.09</ele>
        <time>2015-04-26T08:32:53Z</time>
      </trkpt>
      <trkpt lat="47.66207" lon="3.71077">
        <ele>113.57</ele>
        <time>2015-04-26T08:33:04Z</time>
      </trkpt>
      <trkpt lat="47.66208" lon="3.71076">
        <ele>113.57</ele>
        <time>2015-04-26T08:33:20Z</time>
      </trkpt>
      <trkpt lat="47.66206" lon="3.71071">
        <ele>113.57</ele>
        <time>2015-04-26T08:33:27Z</time>
      </trkpt>
      <trkpt lat="47.66213" lon="3.7107">
        <ele>114.05</ele>
        <time>2015-04-26T08:33:38Z</time>
      </trkpt>
      <trkpt lat="47.66211" lon="3.71067">
        <ele>113.57</ele>
        <time>2015-04-26T08:33:43Z</time>
      </trkpt>
      <trkpt lat="47.66204" lon="3.71068">
        <ele>113.57</ele>
        <time>2015-04-26T08:33:49Z</time>
      </trkpt>
      <trkpt lat="47.66199" lon="3.71078">
        <ele>114.05</ele>
        <time>2015-04-26T08:33:55Z</time>
      </trkpt>
      <trkpt lat="47.66194" lon="3.71088">
        <ele>113.57</ele>
        <time>2015-04-26T08:34:01Z</time>
      </trkpt>
      <trkpt lat="47.66177" lon="3.71098">
        <ele>114.05</ele>
        <time>2015-04-26T08:34:14Z</time>
      </trkpt>
      <trkpt lat="47.66158" lon="3.71112">
        <ele>114.05</ele>
        <time>2015-04-26T08:34:28Z</time>
      </trkpt>
      <trkpt lat="47.66138" lon="3.71125">
        <ele>114.53</ele>
        <time>2015-04-26T08:34:42Z</time>
      </trkpt>
      <trkpt lat="47.66115" lon="3.71142">
        <ele>115.5</ele>
        <time>2015-04-26T08:34:58Z</time>
      </trkpt>
      <trkpt lat="47.66095" lon="3.71156">
        <ele>115.98</ele>
        <time>2015-04-26T08:35:11Z</time>
      </trkpt>
      <trkpt lat="47.66076" lon="3.71168">
        <ele>116.94</ele>
        <time>2015-04-26T08:35:23Z</time>
      </trkpt>
      <trkpt lat="47.66062" lon="3.71183">
        <ele>118.38</ele>
        <time>2015-04-26T08:35:35Z</time>
      </trkpt>
      <trkpt lat="47.66056" lon="3.71187">
        <ele>119.34</ele>
        <time>2015-04-26T08:35:39Z</time>
      </trkpt>
      <trkpt lat="47.66045" lon="3.71215">
        <ele>120.78</ele>
        <time>2015-04-26T08:35:53Z</time>
      </trkpt>
      <trkpt lat="47.66039" lon="3.71227">
        <ele>121.26</ele>
        <time>2015-04-26T08:35:59Z</time>
      </trkpt>
      <trkpt lat="47.66036" lon="3.71233">
        <ele>121.26</ele>
        <time>2015-04-26T08:36:03Z</time>
      </trkpt>
      <trkpt lat="47.66021" lon="3.71252">
        <ele>122.22</ele>
        <time>2015-04-26T08:36:16Z</time>
      </trkpt>
      <trkpt lat="47.66001" lon="3.71265">
        <ele>123.19</ele>
        <time>2015-04-26T08:36:30Z</time>
      </trkpt>
      <trkpt lat="47.65982" lon="3.71281">
        <ele>123.67</ele>
        <time>2015-04-26T08:36:45Z</time>
      </trkpt>
      <trkpt lat="47.6598" lon="3.71284">
        <ele>124.15</ele>
        <time>2015-04-26T08:36:47Z</time>
      </trkpt>
      <trkpt lat="47.65978" lon="3.71292">
        <ele>124.15</ele>
        <time>2015-04-26T08:36:51Z</time>
      </trkpt>
      <trkpt lat="47.65976" lon="3.713">
        <ele>124.15</ele>
        <time>2015-04-26T08:36:55Z</time>
      </trkpt>
      <trkpt lat="47.65967" lon="3.71328">
        <ele>124.15</ele>
        <time>2015-04-26T08:37:08Z</time>
      </trkpt>
      <trkpt lat="47.65962" lon="3.71348">
        <ele>123.67</ele>
        <time>2015-04-26T08:37:17Z</time>
      </trkpt>
      <trkpt lat="47.65953" lon="3.71377">
        <ele>124.15</ele>
        <time>2015-04-26T08:37:31Z</time>
      </trkpt>
      <trkpt lat="47.65942" lon="3.71412">
        <ele>125.59</ele>
        <time>2015-04-26T08:37:48Z</time>
      </trkpt>
      <trkpt lat="47.65941" lon="3.71414">
        <ele>125.59</ele>
        <time>2015-04-26T08:37:49Z</time>
      </trkpt>
      <trkpt lat="47.65931" lon="3.71443">
        <ele>125.59</ele>
        <time>2015-04-26T08:38:03Z</time>
      </trkpt>
      <trkpt lat="47.65924" lon="3.71475">
        <ele>125.59</ele>
        <time>2015-04-26T08:38:17Z</time>
      </trkpt>
      <trkpt lat="47.65916" lon="3.71505">
        <ele>125.59</ele>
        <time>2015-04-26T08:38:31Z</time>
      </trkpt>
      <trkpt lat="47.65901" lon="3.71532">
        <ele>125.59</ele>
        <time>2015-04-26T08:38:46Z</time>
      </trkpt>
      <trkpt lat="47.65884" lon="3.71554">
        <ele>126.07</ele>
        <time>2015-04-26T08:39:00Z</time>
      </trkpt>
      <trkpt lat="47.6587" lon="3.7158">
        <ele>126.55</ele>
        <time>2015-04-26T08:39:14Z</time>
      </trkpt>
      <trkpt lat="47.65855" lon="3.71604">
        <ele>127.03</ele>
        <time>2015-04-26T08:39:28Z</time>
      </trkpt>
      <trkpt lat="47.6584" lon="3.71631">
        <ele>127.03</ele>
        <time>2015-04-26T08:39:43Z</time>
      </trkpt>
      <trkpt lat="47.65839" lon="3.71633">
        <ele>127.51</ele>
        <time>2015-04-26T08:39:44Z</time>
      </trkpt>
      <trkpt lat="47.6583" lon="3.71652">
        <ele>127.51</ele>
        <time>2015-04-26T08:39:54Z</time>
      </trkpt>
      <trkpt lat="47.65815" lon="3.71685">
        <ele>127.51</ele>
        <time>2015-04-26T08:40:12Z</time>
      </trkpt>
      <trkpt lat="47.65813" lon="3.71688">
        <ele>127.51</ele>
        <time>2015-04-26T08:40:14Z</time>
      </trkpt>
      <trkpt lat="47.65809" lon="3.71699">
        <ele>127.99</ele>
        <time>2015-04-26T08:40:20Z</time>
      </trkpt>
      <trkpt lat="47.65804" lon="3.71713">
        <ele>127.99</ele>
        <time>2015-04-26T08:40:28Z</time>
      </trkpt>
      <trkpt lat="47.65799" lon="3.71724">
        <ele>128.47</ele>
        <time>2015-04-26T08:40:33Z</time>
      </trkpt>
      <trkpt lat="47.65785" lon="3.71756">
        <ele>128.47</ele>
        <time>2015-04-26T08:40:47Z</time>
      </trkpt>
      <trkpt lat="47.65777" lon="3.71789">
        <ele>128.95</ele>
        <time>2015-04-26T08:41:03Z</time>
      </trkpt>
      <trkpt lat="47.65768" lon="3.71825">
        <ele>129.43</ele>
        <time>2015-04-26T08:41:20Z</time>
      </trkpt>
      <trkpt lat="47.65762" lon="3.71849">
        <ele>129.92</ele>
        <time>2015-04-26T08:41:33Z</time>
      </trkpt>
      <trkpt lat="47.6575" lon="3.7188">
        <ele>129.92</ele>
        <time>2015-04-26T08:41:48Z</time>
      </trkpt>
      <trkpt lat="47.65742" lon="3.71921">
        <ele>130.4</ele>
        <time>2015-04-26T08:42:06Z</time>
      </trkpt>
      <trkpt lat="47.65741" lon="3.71931">
        <ele>130.88</ele>
        <time>2015-04-26T08:42:11Z</time>
      </trkpt>
      <trkpt lat="47.65734" lon="3.71946">
        <ele>130.88</ele>
        <time>2015-04-26T08:42:19Z</time>
      </trkpt>
      <trkpt lat="47.65723" lon="3.7198">
        <ele>131.36</ele>
        <time>2015-04-26T08:42:35Z</time>
      </trkpt>
      <trkpt lat="47.65722" lon="3.72016">
        <ele>131.84</ele>
        <time>2015-04-26T08:42:50Z</time>
      </trkpt>
      <trkpt lat="47.6572" lon="3.72028">
        <ele>131.84</ele>
        <time>2015-04-26T08:42:56Z</time>
      </trkpt>
      <trkpt lat="47.65712" lon="3.72052">
        <ele>132.32</ele>
        <time>2015-04-26T08:43:08Z</time>
      </trkpt>
      <trkpt lat="47.65706" lon="3.72066">
        <ele>132.8</ele>
        <time>2015-04-26T08:43:15Z</time>
      </trkpt>
      <trkpt lat="47.65701" lon="3.72103">
        <ele>133.28</ele>
        <time>2015-04-26T08:43:31Z</time>
      </trkpt>
      <trkpt lat="47.65698" lon="3.72123">
        <ele>133.76</ele>
        <time>2015-04-26T08:43:40Z</time>
      </trkpt>
      <trkpt lat="47.6569" lon="3.72155">
        <ele>134.24</ele>
        <time>2015-04-26T08:43:56Z</time>
      </trkpt>
      <trkpt lat="47.65675" lon="3.72186">
        <ele>135.2</ele>
        <time>2015-04-26T08:44:11Z</time>
      </trkpt>
      <trkpt lat="47.6567" lon="3.72217">
        <ele>136.16</ele>
        <time>2015-04-26T08:44:25Z</time>
      </trkpt>
      <trkpt lat="47.65661" lon="3.72242">
        <ele>137.13</ele>
        <time>2015-04-26T08:44:39Z</time>
      </trkpt>
      <trkpt lat="47.65649" lon="3.72269">
        <ele>138.09</ele>
        <time>2015-04-26T08:44:54Z</time>
      </trkpt>
      <trkpt lat="47.6564" lon="3.72298">
        <ele>139.05</ele>
        <time>2015-04-26T08:45:08Z</time>
      </trkpt>
      <trkpt lat="47.65635" lon="3.7231">
        <ele>139.53</ele>
        <time>2015-04-26T08:45:15Z</time>
      </trkpt>
      <trkpt lat="47.65623" lon="3.72345">
        <ele>140.49</ele>
        <time>2015-04-26T08:45:31Z</time>
      </trkpt>
      <trkpt lat="47.6562" lon="3.72354">
        <ele>140.49</ele>
        <time>2015-04-26T08:45:36Z</time>
      </trkpt>
      <trkpt lat="47.65617" lon="3.72359">
        <ele>140.49</ele>
        <time>2015-04-26T08:45:40Z</time>
      </trkpt>
      <trkpt lat="47.65608" lon="3.72376">
        <ele>140.97</ele>
        <time>2015-04-26T08:45:50Z</time>
      </trkpt>
      <trkpt lat="47.65593" lon="3.72407">
        <ele>140.49</ele>
        <time>2015-04-26T08:46:06Z</time>
      </trkpt>
      <trkpt lat="47.65583" lon="3.72433">
        <ele>140.49</ele>
        <time>2015-04-26T08:46:20Z</time>
      </trkpt>
      <trkpt lat="47.65567" lon="3.72457">
        <ele>139.05</ele>
        <time>2015-04-26T08:46:37Z</time>
      </trkpt>
      <trkpt lat="47.65553" lon="3.72476">
        <ele>138.57</ele>
        <time>2015-04-26T08:46:48Z</time>
      </trkpt>
      <trkpt lat="47.65543" lon="3.72491">
        <ele>137.61</ele>
        <time>2015-04-26T08:46:58Z</time>
      </trkpt>
      <trkpt lat="47.65528" lon="3.72507">
        <ele>135.68</ele>
        <time>2015-04-26T08:47:11Z</time>
      </trkpt>
      <trkpt lat="47.65512" lon="3.7253">
        <ele>134.24</ele>
        <time>2015-04-26T08:47:26Z</time>
      </trkpt>
      <trkpt lat="47.65509" lon="3.72533">
        <ele>134.24</ele>
        <time>2015-04-26T08:47:28Z</time>
      </trkpt>
      <trkpt lat="47.65498" lon="3.72544">
        <ele>133.28</ele>
        <time>2015-04-26T08:47:36Z</time>
      </trkpt>
      <trkpt lat="47.65483" lon="3.72554">
        <ele>131.36</ele>
        <time>2015-04-26T08:47:45Z</time>
      </trkpt>
      <trkpt lat="47.65476" lon="3.72554">
        <ele>130.88</ele>
        <time>2015-04-26T08:47:49Z</time>
      </trkpt>
      <trkpt lat="47.65473" lon="3.72556">
        <ele>131.36</ele>
        <time>2015-04-26T08:47:51Z</time>
      </trkpt>
      <trkpt lat="47.65466" lon="3.72561">
        <ele>130.4</ele>
        <time>2015-04-26T08:47:56Z</time>
      </trkpt>
      <trkpt lat="47.65455" lon="3.72566">
        <ele>128.95</ele>
        <time>2015-04-26T08:48:03Z</time>
      </trkpt>
      <trkpt lat="47.65439" lon="3.72574">
        <ele>126.55</ele>
        <time>2015-04-26T08:48:17Z</time>
      </trkpt>
      <trkpt lat="47.65415" lon="3.72586">
        <ele>124.15</ele>
        <time>2015-04-26T08:48:32Z</time>
      </trkpt>
      <trkpt lat="47.65395" lon="3.726">
        <ele>122.22</ele>
        <time>2015-04-26T08:48:45Z</time>
      </trkpt>
      <trkpt lat="47.65373" lon="3.7261">
        <ele>120.3</ele>
        <time>2015-04-26T08:49:00Z</time>
      </trkpt>
      <trkpt lat="47.65365" lon="3.72613">
        <ele>120.3</ele>
        <time>2015-04-26T08:49:05Z</time>
      </trkpt>
      <trkpt lat="47.65347" lon="3.72616">
        <ele>119.34</ele>
        <time>2015-04-26T08:49:17Z</time>
      </trkpt>
      <trkpt lat="47.65328" lon="3.72622">
        <ele>118.38</ele>
        <time>2015-04-26T08:49:29Z</time>
      </trkpt>
      <trkpt lat="47.65305" lon="3.72628">
        <ele>118.38</ele>
        <time>2015-04-26T08:49:44Z</time>
      </trkpt>
      <trkpt lat="47.65304" lon="3.72628">
        <ele>118.38</ele>
        <time>2015-04-26T08:49:45Z</time>
      </trkpt>
      <trkpt lat="47.6529" lon="3.72637">
        <ele>118.38</ele>
        <time>2015-04-26T08:49:58Z</time>
      </trkpt>
      <trkpt lat="47.65286" lon="3.72638">
        <ele>118.38</ele>
        <time>2015-04-26T08:50:02Z</time>
      </trkpt>
      <trkpt lat="47.65264" lon="3.72641">
        <ele>118.86</ele>
        <time>2015-04-26T08:50:15Z</time>
      </trkpt>
      <trkpt lat="47.65242" lon="3.72634">
        <ele>119.82</ele>
        <time>2015-04-26T08:50:31Z</time>
      </trkpt>
      <trkpt lat="47.65214" lon="3.72631">
        <ele>121.26</ele>
        <time>2015-04-26T08:50:47Z</time>
      </trkpt>
      <trkpt lat="47.65189" lon="3.72628">
        <ele>121.74</ele>
        <time>2015-04-26T08:51:02Z</time>
      </trkpt>
      <trkpt lat="47.65166" lon="3.72619">
        <ele>121.26</ele>
        <time>2015-04-26T08:51:17Z</time>
      </trkpt>
      <trkpt lat="47.65159" lon="3.72619">
        <ele>121.26</ele>
        <time>2015-04-26T08:51:20Z</time>
      </trkpt>
      <trkpt lat="47.65135" lon="3.72619">
        <ele>120.78</ele>
        <time>2015-04-26T08:51:34Z</time>
      </trkpt>
      <trkpt lat="47.65111" lon="3.72614">
        <ele>121.26</ele>
        <time>2015-04-26T08:51:51Z</time>
      </trkpt>
      <trkpt lat="47.65092" lon="3.72609">
        <ele>122.22</ele>
        <time>2015-04-26T08:52:05Z</time>
      </trkpt>
      <trkpt lat="47.65065" lon="3.72605">
        <ele>122.22</ele>
        <time>2015-04-26T08:52:22Z</time>
      </trkpt>
      <trkpt lat="47.65045" lon="3.726">
        <ele>122.22</ele>
        <time>2015-04-26T08:52:36Z</time>
      </trkpt>
      <trkpt lat="47.65031" lon="3.72597">
        <ele>123.19</ele>
        <time>2015-04-26T08:52:44Z</time>
      </trkpt>
      <trkpt lat="47.65017" lon="3.72593">
        <ele>123.19</ele>
        <time>2015-04-26T08:52:51Z</time>
      </trkpt>
      <trkpt lat="47.64993" lon="3.72586">
        <ele>124.63</ele>
        <time>2015-04-26T08:53:05Z</time>
      </trkpt>
      <trkpt lat="47.64974" lon="3.72576">
        <ele>126.07</ele>
        <time>2015-04-26T08:53:19Z</time>
      </trkpt>
      <trkpt lat="47.64954" lon="3.72566">
        <ele>127.99</ele>
        <time>2015-04-26T08:53:35Z</time>
      </trkpt>
      <trkpt lat="47.6494" lon="3.72557">
        <ele>130.4</ele>
        <time>2015-04-26T08:53:46Z</time>
      </trkpt>
      <trkpt lat="47.64921" lon="3.72546">
        <ele>133.76</ele>
        <time>2015-04-26T08:54:00Z</time>
      </trkpt>
      <trkpt lat="47.64896" lon="3.72534">
        <ele>135.68</ele>
        <time>2015-04-26T08:54:16Z</time>
      </trkpt>
      <trkpt lat="47.64873" lon="3.72522">
        <ele>137.61</ele>
        <time>2015-04-26T08:54:32Z</time>
      </trkpt>
      <trkpt lat="47.64857" lon="3.72514">
        <ele>139.53</ele>
        <time>2015-04-26T08:54:44Z</time>
      </trkpt>
      <trkpt lat="47.64831" lon="3.72506">
        <ele>141.45</ele>
        <time>2015-04-26T08:54:59Z</time>
      </trkpt>
      <trkpt lat="47.64808" lon="3.72499">
        <ele>143.37</ele>
        <time>2015-04-26T08:55:13Z</time>
      </trkpt>
      <trkpt lat="47.64788" lon="3.72491">
        <ele>145.78</ele>
        <time>2015-04-26T08:55:28Z</time>
      </trkpt>
      <trkpt lat="47.64767" lon="3.72488">
        <ele>148.18</ele>
        <time>2015-04-26T08:55:43Z</time>
      </trkpt>
      <trkpt lat="47.64759" lon="3.72488">
        <ele>149.62</ele>
        <time>2015-04-26T08:55:51Z</time>
      </trkpt>
      <trkpt lat="47.6475" lon="3.72487">
        <ele>150.58</ele>
        <time>2015-04-26T08:55:58Z</time>
      </trkpt>
      <trkpt lat="47.64731" lon="3.72482">
        <ele>151.06</ele>
        <time>2015-04-26T08:56:13Z</time>
      </trkpt>
      <trkpt lat="47.64721" lon="3.72482">
        <ele>151.54</ele>
        <time>2015-04-26T08:56:20Z</time>
      </trkpt>
      <trkpt lat="47.64709" lon="3.72482">
        <ele>151.54</ele>
        <time>2015-04-26T08:56:27Z</time>
      </trkpt>
      <trkpt lat="47.64685" lon="3.72482">
        <ele>151.54</ele>
        <time>2015-04-26T08:56:38Z</time>
      </trkpt>
      <trkpt lat="47.64679" lon="3.72485">
        <ele>151.06</ele>
        <time>2015-04-26T08:56:41Z</time>
      </trkpt>
      <trkpt lat="47.64651" lon="3.72495">
        <ele>151.06</ele>
        <time>2015-04-26T08:56:57Z</time>
      </trkpt>
      <trkpt lat="47.6463" lon="3.72501">
        <ele>150.1</ele>
        <time>2015-04-26T08:57:12Z</time>
      </trkpt>
      <trkpt lat="47.64626" lon="3.72504">
        <ele>150.1</ele>
        <time>2015-04-26T08:57:15Z</time>
      </trkpt>
      <trkpt lat="47.646" lon="3.72517">
        <ele>149.14</ele>
        <time>2015-04-26T08:57:29Z</time>
      </trkpt>
      <trkpt lat="47.64571" lon="3.72532">
        <ele>149.14</ele>
        <time>2015-04-26T08:57:42Z</time>
      </trkpt>
      <trkpt lat="47.64549" lon="3.72543">
        <ele>149.62</ele>
        <time>2015-04-26T08:57:54Z</time>
      </trkpt>
      <trkpt lat="47.64529" lon="3.72555">
        <ele>150.1</ele>
        <time>2015-04-26T08:58:08Z</time>
      </trkpt>
      <trkpt lat="47.64527" lon="3.72555">
        <ele>150.1</ele>
        <time>2015-04-26T08:58:09Z</time>
      </trkpt>
      <trkpt lat="47.6452" lon="3.72559">
        <ele>150.1</ele>
        <time>2015-04-26T08:58:13Z</time>
      </trkpt>
      <trkpt lat="47.645" lon="3.72569">
        <ele>149.62</ele>
        <time>2015-04-26T08:58:27Z</time>
      </trkpt>
      <trkpt lat="47.6449" lon="3.72574">
        <ele>149.62</ele>
        <time>2015-04-26T08:58:35Z</time>
      </trkpt>
      <trkpt lat="47.6448" lon="3.72579">
        <ele>149.14</ele>
        <time>2015-04-26T08:58:43Z</time>
      </trkpt>
      <trkpt lat="47.64472" lon="3.72585">
        <ele>149.14</ele>
        <time>2015-04-26T08:58:48Z</time>
      </trkpt>
      <trkpt lat="47.64467" lon="3.72591">
        <ele>149.14</ele>
        <time>2015-04-26T08:58:51Z</time>
      </trkpt>
      <trkpt lat="47.6445" lon="3.72608">
        <ele>147.22</ele>
        <time>2015-04-26T08:59:03Z</time>
      </trkpt>
      <trkpt lat="47.64435" lon="3.72622">
        <ele>146.26</ele>
        <time>2015-04-26T08:59:17Z</time>
      </trkpt>
      <trkpt lat="47.64426" lon="3.72628">
        <ele>146.26</ele>
        <time>2015-04-26T08:59:23Z</time>
      </trkpt>
      <trkpt lat="47.64415" lon="3.7264">
        <ele>145.78</ele>
        <time>2015-04-26T08:59:32Z</time>
      </trkpt>
      <trkpt lat="47.64409" lon="3.72645">
        <ele>145.78</ele>
        <time>2015-04-26T08:59:35Z</time>
      </trkpt>
      <trkpt lat="47.64399" lon="3.72655">
        <ele>144.34</ele>
        <time>2015-04-26T08:59:41Z</time>
      </trkpt>
      <trkpt lat="47.64379" lon="3.72683">
        <ele>141.45</ele>
        <time>2015-04-26T08:59:56Z</time>
      </trkpt>
      <trkpt lat="47.64371" lon="3.72692">
        <ele>140.49</ele>
        <time>2015-04-26T09:00:03Z</time>
      </trkpt>
      <trkpt lat="47.64368" lon="3.72696">
        <ele>140.01</ele>
        <time>2015-04-26T09:00:05Z</time>
      </trkpt>
      <trkpt lat="47.64352" lon="3.72717">
        <ele>137.61</ele>
        <time>2015-04-26T09:00:18Z</time>
      </trkpt>
      <trkpt lat="47.64338" lon="3.72744">
        <ele>137.61</ele>
        <time>2015-04-26T09:00:32Z</time>
      </trkpt>
      <trkpt lat="47.64327" lon="3.72764">
        <ele>136.16</ele>
        <time>2015-04-26T09:00:43Z</time>
      </trkpt>
      <trkpt lat="47.64318" lon="3.72777">
        <ele>135.68</ele>
        <time>2015-04-26T09:00:50Z</time>
      </trkpt>
      <trkpt lat="47.64306" lon="3.72801">
        <ele>134.72</ele>
        <time>2015-04-26T09:01:03Z</time>
      </trkpt>
      <trkpt lat="47.64295" lon="3.72814">
        <ele>134.24</ele>
        <time>2015-04-26T09:01:10Z</time>
      </trkpt>
      <trkpt lat="47.64286" lon="3.72824">
        <ele>134.24</ele>
        <time>2015-04-26T09:01:16Z</time>
      </trkpt>
      <trkpt lat="47.6427" lon="3.72833">
        <ele>133.28</ele>
        <time>2015-04-26T09:01:28Z</time>
      </trkpt>
      <trkpt lat="47.64261" lon="3.72834">
        <ele>132.8</ele>
        <time>2015-04-26T09:01:34Z</time>
      </trkpt>
      <trkpt lat="47.64244" lon="3.72839">
        <ele>130.88</ele>
        <time>2015-04-26T09:01:47Z</time>
      </trkpt>
      <trkpt lat="47.64234" lon="3.72839">
        <ele>127.99</ele>
        <time>2015-04-26T09:02:00Z</time>
      </trkpt>
      <trkpt lat="47.64221" lon="3.72837">
        <ele>126.07</ele>
        <time>2015-04-26T09:02:07Z</time>
      </trkpt>
      <trkpt lat="47.64208" lon="3.72843">
        <ele>125.11</ele>
        <time>2015-04-26T09:02:14Z</time>
      </trkpt>
      <trkpt lat="47.642" lon="3.72851">
        <ele>125.11</ele>
        <time>2015-04-26T09:02:23Z</time>
      </trkpt>
      <trkpt lat="47.64202" lon="3.72864">
        <ele>124.63</ele>
        <time>2015-04-26T09:02:31Z</time>
      </trkpt>
      <trkpt lat="47.64202" lon="3.72881">
        <ele>124.15</ele>
        <time>2015-04-26T09:02:38Z</time>
      </trkpt>
      <trkpt lat="47.642" lon="3.72907">
        <ele>124.15</ele>
        <time>2015-04-26T09:02:49Z</time>
      </trkpt>
      <trkpt lat="47.6419" lon="3.72926">
        <ele>123.19</ele>
        <time>2015-04-26T09:03:00Z</time>
      </trkpt>
      <trkpt lat="47.64187" lon="3.72932">
        <ele>122.71</ele>
        <time>2015-04-26T09:03:03Z</time>
      </trkpt>
      <trkpt lat="47.64176" lon="3.72956">
        <ele>122.22</ele>
        <time>2015-04-26T09:03:16Z</time>
      </trkpt>
      <trkpt lat="47.64166" lon="3.72973">
        <ele>121.26</ele>
        <time>2015-04-26T09:03:28Z</time>
      </trkpt>
      <trkpt lat="47.64161" lon="3.72981">
        <ele>119.82</ele>
        <time>2015-04-26T09:03:33Z</time>
      </trkpt>
      <trkpt lat="47.64155" lon="3.73005">
        <ele>119.82</ele>
        <time>2015-04-26T09:03:40Z</time>
      </trkpt>
      <trkpt lat="47.64151" lon="3.73024">
        <ele>118.86</ele>
        <time>2015-04-26T09:03:45Z</time>
      </trkpt>
      <trkpt lat="47.64136" lon="3.73061">
        <ele>117.9</ele>
        <time>2015-04-26T09:04:00Z</time>
      </trkpt>
      <trkpt lat="47.64135" lon="3.73063">
        <ele>108.77</ele>
        <time>2015-04-26T09:04:02Z</time>
      </trkpt>
      <trkpt lat="47.64134" lon="3.73064">
        <ele>126.55</ele>
        <time>2015-04-26T09:04:03Z</time>
      </trkpt>
      <trkpt lat="47.64134" lon="3.73066">
        <ele>118.38</ele>
        <time>2015-04-26T09:04:04Z</time>
      </trkpt>
      <trkpt lat="47.64131" lon="3.73074">
        <ele>119.82</ele>
        <time>2015-04-26T09:04:08Z</time>
      </trkpt>
      <trkpt lat="47.64122" lon="3.73083">
        <ele>117.42</ele>
        <time>2015-04-26T09:04:12Z</time>
      </trkpt>
      <trkpt lat="47.64114" lon="3.73098">
        <ele>116.94</ele>
        <time>2015-04-26T09:04:18Z</time>
      </trkpt>
      <trkpt lat="47.64112" lon="3.73101">
        <ele>114.05</ele>
        <time>2015-04-26T09:04:20Z</time>
      </trkpt>
      <trkpt lat="47.64111" lon="3.73103">
        <ele>119.82</ele>
        <time>2015-04-26T09:04:21Z</time>
      </trkpt>
      <trkpt lat="47.64107" lon="3.7311">
        <ele>116.46</ele>
        <time>2015-04-26T09:04:24Z</time>
      </trkpt>
      <trkpt lat="47.64095" lon="3.73128">
        <ele>116.94</ele>
        <time>2015-04-26T09:04:32Z</time>
      </trkpt>
      <trkpt lat="47.64081" lon="3.73153">
        <ele>116.94</ele>
        <time>2015-04-26T09:04:45Z</time>
      </trkpt>
      <trkpt lat="47.64072" lon="3.73159">
        <ele>115.98</ele>
        <time>2015-04-26T09:04:53Z</time>
      </trkpt>
      <trkpt lat="47.6407" lon="3.73163">
        <ele>116.94</ele>
        <time>2015-04-26T09:04:55Z</time>
      </trkpt>
      <trkpt lat="47.64052" lon="3.7319">
        <ele>116.94</ele>
        <time>2015-04-26T09:05:08Z</time>
      </trkpt>
      <trkpt lat="47.64045" lon="3.73195">
        <ele>116.94</ele>
        <time>2015-04-26T09:05:14Z</time>
      </trkpt>
      <trkpt lat="47.64037" lon="3.73207">
        <ele>116.46</ele>
        <time>2015-04-26T09:05:19Z</time>
      </trkpt>
      <trkpt lat="47.64019" lon="3.73231">
        <ele>116.46</ele>
        <time>2015-04-26T09:05:33Z</time>
      </trkpt>
      <trkpt lat="47.64012" lon="3.73236">
        <ele>116.94</ele>
        <time>2015-04-26T09:05:38Z</time>
      </trkpt>
      <trkpt lat="47.64004" lon="3.73252">
        <ele>116.46</ele>
        <time>2015-04-26T09:05:46Z</time>
      </trkpt>
      <trkpt lat="47.63985" lon="3.73283">
        <ele>116.46</ele>
        <time>2015-04-26T09:06:00Z</time>
      </trkpt>
      <trkpt lat="47.6398" lon="3.73288">
        <ele>116.94</ele>
        <time>2015-04-26T09:06:03Z</time>
      </trkpt>
      <trkpt lat="47.63969" lon="3.73295">
        <ele>117.42</ele>
        <time>2015-04-26T09:06:10Z</time>
      </trkpt>
      <trkpt lat="47.63966" lon="3.73294">
        <ele>117.42</ele>
        <time>2015-04-26T09:06:12Z</time>
      </trkpt>
      <trkpt lat="47.63963" lon="3.73298">
        <ele>116.94</ele>
        <time>2015-04-26T09:06:15Z</time>
      </trkpt>
      <trkpt lat="47.63955" lon="3.73309">
        <ele>117.9</ele>
        <time>2015-04-26T09:06:21Z</time>
      </trkpt>
      <trkpt lat="47.6395" lon="3.73313">
        <ele>117.9</ele>
        <time>2015-04-26T09:06:24Z</time>
      </trkpt>
      <trkpt lat="47.63944" lon="3.73316">
        <ele>118.38</ele>
        <time>2015-04-26T09:06:29Z</time>
      </trkpt>
      <trkpt lat="47.63926" lon="3.73339">
        <ele>117.42</ele>
        <time>2015-04-26T09:06:41Z</time>
      </trkpt>
      <trkpt lat="47.63925" lon="3.7334">
        <ele>117.9</ele>
        <time>2015-04-26T09:06:42Z</time>
      </trkpt>
      <trkpt lat="47.63917" lon="3.73346">
        <ele>117.9</ele>
        <time>2015-04-26T09:06:48Z</time>
      </trkpt>
      <trkpt lat="47.63897" lon="3.73359">
        <ele>118.38</ele>
        <time>2015-04-26T09:07:02Z</time>
      </trkpt>
      <trkpt lat="47.63879" lon="3.73375">
        <ele>118.38</ele>
        <time>2015-04-26T09:07:14Z</time>
      </trkpt>
      <trkpt lat="47.63876" lon="3.73376">
        <ele>118.38</ele>
        <time>2015-04-26T09:07:16Z</time>
      </trkpt>
      <trkpt lat="47.63874" lon="3.73377">
        <ele>117.42</ele>
        <time>2015-04-26T09:07:18Z</time>
      </trkpt>
      <trkpt lat="47.63854" lon="3.73401">
        <ele>117.9</ele>
        <time>2015-04-26T09:07:32Z</time>
      </trkpt>
      <trkpt lat="47.63842" lon="3.73412">
        <ele>117.42</ele>
        <time>2015-04-26T09:07:40Z</time>
      </trkpt>
      <trkpt lat="47.63826" lon="3.73416">
        <ele>117.42</ele>
        <time>2015-04-26T09:07:50Z</time>
      </trkpt>
      <trkpt lat="47.63816" lon="3.73424">
        <ele>117.9</ele>
        <time>2015-04-26T09:07:56Z</time>
      </trkpt>
      <trkpt lat="47.63811" lon="3.73433">
        <ele>118.38</ele>
        <time>2015-04-26T09:08:00Z</time>
      </trkpt>
      <trkpt lat="47.63803" lon="3.73448">
        <ele>117.9</ele>
        <time>2015-04-26T09:08:09Z</time>
      </trkpt>
      <trkpt lat="47.63788" lon="3.73466">
        <ele>117.9</ele>
        <time>2015-04-26T09:08:21Z</time>
      </trkpt>
      <trkpt lat="47.63778" lon="3.73474">
        <ele>118.38</ele>
        <time>2015-04-26T09:08:27Z</time>
      </trkpt>
      <trkpt lat="47.63774" lon="3.73486">
        <ele>117.9</ele>
        <time>2015-04-26T09:08:32Z</time>
      </trkpt>
      <trkpt lat="47.63763" lon="3.73516">
        <ele>117.9</ele>
        <time>2015-04-26T09:08:45Z</time>
      </trkpt>
      <trkpt lat="47.63758" lon="3.73525">
        <ele>117.9</ele>
        <time>2015-04-26T09:08:50Z</time>
      </trkpt>
      <trkpt lat="47.63756" lon="3.73535">
        <ele>117.9</ele>
        <time>2015-04-26T09:08:56Z</time>
      </trkpt>
      <trkpt lat="47.63754" lon="3.73537">
        <ele>117.42</ele>
        <time>2015-04-26T09:08:58Z</time>
      </trkpt>
      <trkpt lat="47.63748" lon="3.73547">
        <ele>117.9</ele>
        <time>2015-04-26T09:09:04Z</time>
      </trkpt>
      <trkpt lat="47.63741" lon="3.73555">
        <ele>117.42</ele>
        <time>2015-04-26T09:09:11Z</time>
      </trkpt>
      <trkpt lat="47.63731" lon="3.73578">
        <ele>116.94</ele>
        <time>2015-04-26T09:09:23Z</time>
      </trkpt>
      <trkpt lat="47.63725" lon="3.7359">
        <ele>116.94</ele>
        <time>2015-04-26T09:09:29Z</time>
      </trkpt>
      <trkpt lat="47.63723" lon="3.73604">
        <ele>116.46</ele>
        <time>2015-04-26T09:09:34Z</time>
      </trkpt>
      <trkpt lat="47.63718" lon="3.73613">
        <ele>116.46</ele>
        <time>2015-04-26T09:09:38Z</time>
      </trkpt>
      <trkpt lat="47.63713" lon="3.73627">
        <ele>117.42</ele>
        <time>2015-04-26T09:09:44Z</time>
      </trkpt>
      <trkpt lat="47.63713" lon="3.73631">
        <ele>116.46</ele>
        <time>2015-04-26T09:09:45Z</time>
      </trkpt>
      <trkpt lat="47.63712" lon="3.73635">
        <ele>116.94</ele>
        <time>2015-04-26T09:09:47Z</time>
      </trkpt>
      <trkpt lat="47.63701" lon="3.73655">
        <ele>116.94</ele>
        <time>2015-04-26T09:09:58Z</time>
      </trkpt>
      <trkpt lat="47.63689" lon="3.73676">
        <ele>116.46</ele>
        <time>2015-04-26T09:10:06Z</time>
      </trkpt>
      <trkpt lat="47.63683" lon="3.73683">
        <ele>116.46</ele>
        <time>2015-04-26T09:10:10Z</time>
      </trkpt>
      <trkpt lat="47.63667" lon="3.73702">
        <ele>116.46</ele>
        <time>2015-04-26T09:10:22Z</time>
      </trkpt>
      <trkpt lat="47.63648" lon="3.73724">
        <ele>116.46</ele>
        <time>2015-04-26T09:10:33Z</time>
      </trkpt>
      <trkpt lat="47.63628" lon="3.73745">
        <ele>115.98</ele>
        <time>2015-04-26T09:10:43Z</time>
      </trkpt>
      <trkpt lat="47.63607" lon="3.73763">
        <ele>115.98</ele>
        <time>2015-04-26T09:10:55Z</time>
      </trkpt>
      <trkpt lat="47.63585" lon="3.73776">
        <ele>115.98</ele>
        <time>2015-04-26T09:11:10Z</time>
      </trkpt>
      <trkpt lat="47.63583" lon="3.73776">
        <ele>115.98</ele>
        <time>2015-04-26T09:11:12Z</time>
      </trkpt>
      <trkpt lat="47.63573" lon="3.73781">
        <ele>115.98</ele>
        <time>2015-04-26T09:11:19Z</time>
      </trkpt>
      <trkpt lat="47.63548" lon="3.73791">
        <ele>115.5</ele>
        <time>2015-04-26T09:11:33Z</time>
      </trkpt>
      <trkpt lat="47.63541" lon="3.73795">
        <ele>115.01</ele>
        <time>2015-04-26T09:11:37Z</time>
      </trkpt>
      <trkpt lat="47.63534" lon="3.73798">
        <ele>115.01</ele>
        <time>2015-04-26T09:11:41Z</time>
      </trkpt>
      <trkpt lat="47.63525" lon="3.73796">
        <ele>115.5</ele>
        <time>2015-04-26T09:11:47Z</time>
      </trkpt>
      <trkpt lat="47.63502" lon="3.73793">
        <ele>115.5</ele>
        <time>2015-04-26T09:12:00Z</time>
      </trkpt>
      <trkpt lat="47.63501" lon="3.73794">
        <ele>115.5</ele>
        <time>2015-04-26T09:12:01Z</time>
      </trkpt>
      <trkpt lat="47.63482" lon="3.73798">
        <ele>116.46</ele>
        <time>2015-04-26T09:12:14Z</time>
      </trkpt>
      <trkpt lat="47.63471" lon="3.73796">
        <ele>117.42</ele>
        <time>2015-04-26T09:12:23Z</time>
      </trkpt>
      <trkpt lat="47.63465" lon="3.73797">
        <ele>117.9</ele>
        <time>2015-04-26T09:12:27Z</time>
      </trkpt>
      <trkpt lat="47.63454" lon="3.738">
        <ele>117.9</ele>
        <time>2015-04-26T09:12:33Z</time>
      </trkpt>
      <trkpt lat="47.6343" lon="3.73801">
        <ele>118.38</ele>
        <time>2015-04-26T09:12:45Z</time>
      </trkpt>
      <trkpt lat="47.63406" lon="3.73807">
        <ele>118.86</ele>
        <time>2015-04-26T09:12:57Z</time>
      </trkpt>
      <trkpt lat="47.634" lon="3.7381">
        <ele>118.38</ele>
        <time>2015-04-26T09:13:01Z</time>
      </trkpt>
      <trkpt lat="47.63387" lon="3.73809">
        <ele>116.94</ele>
        <time>2015-04-26T09:13:12Z</time>
      </trkpt>
      <trkpt lat="47.63382" lon="3.73812">
        <ele>116.94</ele>
        <time>2015-04-26T09:13:15Z</time>
      </trkpt>
      <trkpt lat="47.63379" lon="3.73812">
        <ele>116.46</ele>
        <time>2015-04-26T09:13:17Z</time>
      </trkpt>
      <trkpt lat="47.63369" lon="3.7382">
        <ele>115.5</ele>
        <time>2015-04-26T09:13:24Z</time>
      </trkpt>
      <trkpt lat="47.6336" lon="3.73832">
        <ele>115.01</ele>
        <time>2015-04-26T09:13:29Z</time>
      </trkpt>
      <trkpt lat="47.63356" lon="3.73833">
        <ele>115.01</ele>
        <time>2015-04-26T09:13:31Z</time>
      </trkpt>
      <trkpt lat="47.63342" lon="3.73836">
        <ele>114.05</ele>
        <time>2015-04-26T09:13:42Z</time>
      </trkpt>
      <trkpt lat="47.63324" lon="3.73848">
        <ele>114.05</ele>
        <time>2015-04-26T09:13:55Z</time>
      </trkpt>
      <trkpt lat="47.63303" lon="3.73857">
        <ele>113.57</ele>
        <time>2015-04-26T09:14:09Z</time>
      </trkpt>
      <trkpt lat="47.63288" lon="3.7387">
        <ele>113.09</ele>
        <time>2015-04-26T09:14:16Z</time>
      </trkpt>
      <trkpt lat="47.63274" lon="3.73882">
        <ele>113.09</ele>
        <time>2015-04-26T09:14:24Z</time>
      </trkpt>
      <trkpt lat="47.63271" lon="3.73883">
        <ele>113.09</ele>
        <time>2015-04-26T09:14:26Z</time>
      </trkpt>
      <trkpt lat="47.63263" lon="3.73885">
        <ele>112.61</ele>
        <time>2015-04-26T09:14:31Z</time>
      </trkpt>
      <trkpt lat="47.63243" lon="3.73893">
        <ele>112.13</ele>
        <time>2015-04-26T09:14:44Z</time>
      </trkpt>
      <trkpt lat="47.63241" lon="3.73894">
        <ele>112.61</ele>
        <time>2015-04-26T09:14:45Z</time>
      </trkpt>
      <trkpt lat="47.63227" lon="3.73897">
        <ele>112.61</ele>
        <time>2015-04-26T09:14:55Z</time>
      </trkpt>
      <trkpt lat="47.63215" lon="3.73899">
        <ele>112.61</ele>
        <time>2015-04-26T09:15:02Z</time>
      </trkpt>
      <trkpt lat="47.63185" lon="3.73893">
        <ele>112.13</ele>
        <time>2015-04-26T09:15:16Z</time>
      </trkpt>
      <trkpt lat="47.63174" lon="3.73891">
        <ele>113.09</ele>
        <time>2015-04-26T09:15:21Z</time>
      </trkpt>
      <trkpt lat="47.63158" lon="3.7389">
        <ele>112.61</ele>
        <time>2015-04-26T09:15:28Z</time>
      </trkpt>
      <trkpt lat="47.63145" lon="3.73887">
        <ele>112.61</ele>
        <time>2015-04-26T09:15:36Z</time>
      </trkpt>
      <trkpt lat="47.6314" lon="3.73887">
        <ele>112.13</ele>
        <time>2015-04-26T09:15:38Z</time>
      </trkpt>
      <trkpt lat="47.6312" lon="3.73884">
        <ele>112.13</ele>
        <time>2015-04-26T09:15:49Z</time>
      </trkpt>
      <trkpt lat="47.63114" lon="3.7388">
        <ele>112.13</ele>
        <time>2015-04-26T09:15:54Z</time>
      </trkpt>
      <trkpt lat="47.63091" lon="3.73876">
        <ele>112.13</ele>
        <time>2015-04-26T09:16:06Z</time>
      </trkpt>
      <trkpt lat="47.63074" lon="3.73875">
        <ele>112.13</ele>
        <time>2015-04-26T09:16:17Z</time>
      </trkpt>
      <trkpt lat="47.63071" lon="3.73873">
        <ele>112.13</ele>
        <time>2015-04-26T09:16:21Z</time>
      </trkpt>
      <trkpt lat="47.63066" lon="3.7387">
        <ele>112.13</ele>
        <time>2015-04-26T09:16:23Z</time>
      </trkpt>
      <trkpt lat="47.63058" lon="3.73866">
        <ele>111.65</ele>
        <time>2015-04-26T09:16:28Z</time>
      </trkpt>
      <trkpt lat="47.63051" lon="3.73862">
        <ele>112.13</ele>
        <time>2015-04-26T09:16:31Z</time>
      </trkpt>
      <trkpt lat="47.63036" lon="3.73855">
        <ele>112.13</ele>
        <time>2015-04-26T09:16:39Z</time>
      </trkpt>
      <trkpt lat="47.63022" lon="3.73847">
        <ele>112.13</ele>
        <time>2015-04-26T09:16:47Z</time>
      </trkpt>
      <trkpt lat="47.63009" lon="3.73844">
        <ele>112.13</ele>
        <time>2015-04-26T09:16:56Z</time>
      </trkpt>
      <trkpt lat="47.63003" lon="3.73839">
        <ele>112.13</ele>
        <time>2015-04-26T09:16:59Z</time>
      </trkpt>
      <trkpt lat="47.62981" lon="3.7383">
        <ele>112.13</ele>
        <time>2015-04-26T09:17:12Z</time>
      </trkpt>
      <trkpt lat="47.62975" lon="3.73828">
        <ele>112.13</ele>
        <time>2015-04-26T09:17:15Z</time>
      </trkpt>
      <trkpt lat="47.62971" lon="3.73826">
        <ele>112.13</ele>
        <time>2015-04-26T09:17:19Z</time>
      </trkpt>
      <trkpt lat="47.62964" lon="3.73823">
        <ele>112.61</ele>
        <time>2015-04-26T09:17:22Z</time>
      </trkpt>
      <trkpt lat="47.62956" lon="3.73819">
        <ele>112.61</ele>
        <time>2015-04-26T09:17:26Z</time>
      </trkpt>
      <trkpt lat="47.6294" lon="3.7381">
        <ele>112.13</ele>
        <time>2015-04-26T09:17:33Z</time>
      </trkpt>
      <trkpt lat="47.6293" lon="3.73804">
        <ele>112.61</ele>
        <time>2015-04-26T09:17:38Z</time>
      </trkpt>
      <trkpt lat="47.62913" lon="3.73795">
        <ele>112.13</ele>
        <time>2015-04-26T09:17:48Z</time>
      </trkpt>
      <trkpt lat="47.62908" lon="3.73789">
        <ele>112.61</ele>
        <time>2015-04-26T09:17:52Z</time>
      </trkpt>
      <trkpt lat="47.62894" lon="3.73782">
        <ele>113.09</ele>
        <time>2015-04-26T09:17:59Z</time>
      </trkpt>
      <trkpt lat="47.62875" lon="3.73767">
        <ele>113.09</ele>
        <time>2015-04-26T09:18:10Z</time>
      </trkpt>
      <trkpt lat="47.62863" lon="3.73765">
        <ele>113.09</ele>
        <time>2015-04-26T09:18:18Z</time>
      </trkpt>
      <trkpt lat="47.62859" lon="3.73759">
        <ele>113.09</ele>
        <time>2015-04-26T09:18:21Z</time>
      </trkpt>
      <trkpt lat="47.62839" lon="3.73755">
        <ele>113.09</ele>
        <time>2015-04-26T09:18:31Z</time>
      </trkpt>
      <trkpt lat="47.62829" lon="3.73751">
        <ele>113.09</ele>
        <time>2015-04-26T09:18:36Z</time>
      </trkpt>
      <trkpt lat="47.62826" lon="3.73753">
        <ele>113.09</ele>
        <time>2015-04-26T09:18:38Z</time>
      </trkpt>
      <trkpt lat="47.62802" lon="3.73748">
        <ele>113.57</ele>
        <time>2015-04-26T09:18:50Z</time>
      </trkpt>
      <trkpt lat="47.62798" lon="3.73747">
        <ele>113.09</ele>
        <time>2015-04-26T09:18:52Z</time>
      </trkpt>
      <trkpt lat="47.6279" lon="3.73743">
        <ele>113.09</ele>
        <time>2015-04-26T09:18:57Z</time>
      </trkpt>
      <trkpt lat="47.62774" lon="3.73737">
        <ele>113.09</ele>
        <time>2015-04-26T09:19:06Z</time>
      </trkpt>
      <trkpt lat="47.62761" lon="3.73739">
        <ele>113.09</ele>
        <time>2015-04-26T09:19:12Z</time>
      </trkpt>
      <trkpt lat="47.62753" lon="3.73736">
        <ele>113.09</ele>
        <time>2015-04-26T09:19:17Z</time>
      </trkpt>
      <trkpt lat="47.62741" lon="3.7374">
        <ele>113.09</ele>
        <time>2015-04-26T09:19:24Z</time>
      </trkpt>
      <trkpt lat="47.62728" lon="3.73739">
        <ele>112.61</ele>
        <time>2015-04-26T09:19:30Z</time>
      </trkpt>
      <trkpt lat="47.62716" lon="3.73738">
        <ele>113.09</ele>
        <time>2015-04-26T09:19:36Z</time>
      </trkpt>
      <trkpt lat="47.62709" lon="3.73737">
        <ele>113.09</ele>
        <time>2015-04-26T09:19:40Z</time>
      </trkpt>
      <trkpt lat="47.62706" lon="3.73737">
        <ele>113.09</ele>
        <time>2015-04-26T09:19:42Z</time>
      </trkpt>
      <trkpt lat="47.62679" lon="3.7374">
        <ele>112.61</ele>
        <time>2015-04-26T09:19:57Z</time>
      </trkpt>
      <trkpt lat="47.62669" lon="3.73743">
        <ele>112.61</ele>
        <time>2015-04-26T09:20:02Z</time>
      </trkpt>
      <trkpt lat="47.62656" lon="3.73742">
        <ele>112.61</ele>
        <time>2015-04-26T09:20:09Z</time>
      </trkpt>
      <trkpt lat="47.6265" lon="3.73743">
        <ele>112.61</ele>
        <time>2015-04-26T09:20:12Z</time>
      </trkpt>
      <trkpt lat="47.62639" lon="3.73743">
        <ele>112.61</ele>
        <time>2015-04-26T09:20:20Z</time>
      </trkpt>
      <trkpt lat="47.62615" lon="3.73734">
        <ele>112.13</ele>
        <time>2015-04-26T09:20:33Z</time>
      </trkpt>
      <trkpt lat="47.62601" lon="3.73728">
        <ele>112.61</ele>
        <time>2015-04-26T09:20:40Z</time>
      </trkpt>
      <trkpt lat="47.62592" lon="3.73722">
        <ele>112.61</ele>
        <time>2015-04-26T09:20:45Z</time>
      </trkpt>
      <trkpt lat="47.62571" lon="3.7372">
        <ele>112.61</ele>
        <time>2015-04-26T09:20:57Z</time>
      </trkpt>
      <trkpt lat="47.62567" lon="3.73719">
        <ele>112.61</ele>
        <time>2015-04-26T09:21:00Z</time>
      </trkpt>
      <trkpt lat="47.62549" lon="3.73729">
        <ele>112.61</ele>
        <time>2015-04-26T09:21:12Z</time>
      </trkpt>
      <trkpt lat="47.62538" lon="3.73734">
        <ele>112.13</ele>
        <time>2015-04-26T09:21:18Z</time>
      </trkpt>
      <trkpt lat="47.6253" lon="3.73733">
        <ele>112.61</ele>
        <time>2015-04-26T09:21:23Z</time>
      </trkpt>
      <trkpt lat="47.62521" lon="3.7374">
        <ele>112.13</ele>
        <time>2015-04-26T09:21:29Z</time>
      </trkpt>
      <trkpt lat="47.62508" lon="3.73738">
        <ele>112.13</ele>
        <time>2015-04-26T09:21:34Z</time>
      </trkpt>
      <trkpt lat="47.625" lon="3.73742">
        <ele>112.13</ele>
        <time>2015-04-26T09:21:39Z</time>
      </trkpt>
      <trkpt lat="47.62494" lon="3.73745">
        <ele>112.13</ele>
        <time>2015-04-26T09:21:42Z</time>
      </trkpt>
      <trkpt lat="47.6249" lon="3.73746">
        <ele>112.13</ele>
        <time>2015-04-26T09:21:45Z</time>
      </trkpt>
      <trkpt lat="47.62485" lon="3.73747">
        <ele>112.13</ele>
        <time>2015-04-26T09:21:48Z</time>
      </trkpt>
      <trkpt lat="47.62475" lon="3.73753">
        <ele>112.13</ele>
        <time>2015-04-26T09:21:55Z</time>
      </trkpt>
      <trkpt lat="47.62462" lon="3.73757">
        <ele>112.13</ele>
        <time>2015-04-26T09:22:03Z</time>
      </trkpt>
      <trkpt lat="47.6245" lon="3.73767">
        <ele>112.61</ele>
        <time>2015-04-26T09:22:12Z</time>
      </trkpt>
      <trkpt lat="47.62445" lon="3.7377">
        <ele>112.13</ele>
        <time>2015-04-26T09:22:16Z</time>
      </trkpt>
      <trkpt lat="47.62435" lon="3.73779">
        <ele>112.61</ele>
        <time>2015-04-26T09:22:22Z</time>
      </trkpt>
      <trkpt lat="47.62425" lon="3.73788">
        <ele>112.13</ele>
        <time>2015-04-26T09:22:28Z</time>
      </trkpt>
      <trkpt lat="47.62415" lon="3.73791">
        <ele>112.13</ele>
        <time>2015-04-26T09:22:34Z</time>
      </trkpt>
      <trkpt lat="47.62412" lon="3.73794">
        <ele>112.61</ele>
        <time>2015-04-26T09:22:36Z</time>
      </trkpt>
      <trkpt lat="47.62388" lon="3.73803">
        <ele>112.61</ele>
        <time>2015-04-26T09:22:48Z</time>
      </trkpt>
      <trkpt lat="47.62387" lon="3.73804">
        <ele>112.61</ele>
        <time>2015-04-26T09:22:49Z</time>
      </trkpt>
      <trkpt lat="47.62375" lon="3.73814">
        <ele>113.09</ele>
        <time>2015-04-26T09:22:56Z</time>
      </trkpt>
      <trkpt lat="47.62366" lon="3.73817">
        <ele>113.57</ele>
        <time>2015-04-26T09:23:01Z</time>
      </trkpt>
      <trkpt lat="47.6236" lon="3.73824">
        <ele>114.05</ele>
        <time>2015-04-26T09:23:05Z</time>
      </trkpt>
      <trkpt lat="47.62356" lon="3.73829">
        <ele>113.57</ele>
        <time>2015-04-26T09:23:07Z</time>
      </trkpt>
      <trkpt lat="47.62345" lon="3.73864">
        <ele>112.61</ele>
        <time>2015-04-26T09:23:20Z</time>
      </trkpt>
      <trkpt lat="47.6233" lon="3.73885">
        <ele>112.61</ele>
        <time>2015-04-26T09:23:30Z</time>
      </trkpt>
      <trkpt lat="47.62314" lon="3.739">
        <ele>112.61</ele>
        <time>2015-04-26T09:23:41Z</time>
      </trkpt>
      <trkpt lat="47.62295" lon="3.73917">
        <ele>113.09</ele>
        <time>2015-04-26T09:23:52Z</time>
      </trkpt>
      <trkpt lat="47.62288" lon="3.7392">
        <ele>112.61</ele>
        <time>2015-04-26T09:23:56Z</time>
      </trkpt>
      <trkpt lat="47.62275" lon="3.73936">
        <ele>112.61</ele>
        <time>2015-04-26T09:24:04Z</time>
      </trkpt>
      <trkpt lat="47.62264" lon="3.73945">
        <ele>112.13</ele>
        <time>2015-04-26T09:24:12Z</time>
      </trkpt>
      <trkpt lat="47.62255" lon="3.73961">
        <ele>112.13</ele>
        <time>2015-04-26T09:24:20Z</time>
      </trkpt>
      <trkpt lat="47.62248" lon="3.73971">
        <ele>112.61</ele>
        <time>2015-04-26T09:24:32Z</time>
      </trkpt>
      <trkpt lat="47.62251" lon="3.73966">
        <ele>112.61</ele>
        <time>2015-04-26T09:24:46Z</time>
      </trkpt>
      <trkpt lat="47.6227" lon="3.73947">
        <ele>113.09</ele>
        <time>2015-04-26T09:25:02Z</time>
      </trkpt>
      <trkpt lat="47.62277" lon="3.73937">
        <ele>113.09</ele>
        <time>2015-04-26T09:25:09Z</time>
      </trkpt>
      <trkpt lat="47.62289" lon="3.73933">
        <ele>113.09</ele>
        <time>2015-04-26T09:25:19Z</time>
      </trkpt>
      <trkpt lat="47.62294" lon="3.7394">
        <ele>112.13</ele>
        <time>2015-04-26T09:25:23Z</time>
      </trkpt>
      <trkpt lat="47.6231" lon="3.73955">
        <ele>111.65</ele>
        <time>2015-04-26T09:25:34Z</time>
      </trkpt>
      <trkpt lat="47.62311" lon="3.73958">
        <ele>111.17</ele>
        <time>2015-04-26T09:25:36Z</time>
      </trkpt>
      <trkpt lat="47.62298" lon="3.73983">
        <ele>111.65</ele>
        <time>2015-04-26T09:25:50Z</time>
      </trkpt>
      <trkpt lat="47.62292" lon="3.73991">
        <ele>111.65</ele>
        <time>2015-04-26T09:25:56Z</time>
      </trkpt>
      <trkpt lat="47.62289" lon="3.73999">
        <ele>111.65</ele>
        <time>2015-04-26T09:26:01Z</time>
      </trkpt>
      <trkpt lat="47.62286" lon="3.74006">
        <ele>111.65</ele>
        <time>2015-04-26T09:26:05Z</time>
      </trkpt>
      <trkpt lat="47.6227" lon="3.74026">
        <ele>112.13</ele>
        <time>2015-04-26T09:26:18Z</time>
      </trkpt>
      <trkpt lat="47.6226" lon="3.74041">
        <ele>112.13</ele>
        <time>2015-04-26T09:26:27Z</time>
      </trkpt>
      <trkpt lat="47.62253" lon="3.74054">
        <ele>112.61</ele>
        <time>2015-04-26T09:26:33Z</time>
      </trkpt>
      <trkpt lat="47.62244" lon="3.74078">
        <ele>112.13</ele>
        <time>2015-04-26T09:26:43Z</time>
      </trkpt>
      <trkpt lat="47.62237" lon="3.74101">
        <ele>112.61</ele>
        <time>2015-04-26T09:26:54Z</time>
      </trkpt>
      <trkpt lat="47.62224" lon="3.74121">
        <ele>112.61</ele>
        <time>2015-04-26T09:27:07Z</time>
      </trkpt>
      <trkpt lat="47.62207" lon="3.74141">
        <ele>112.13</ele>
        <time>2015-04-26T09:27:20Z</time>
      </trkpt>
      <trkpt lat="47.62205" lon="3.74143">
        <ele>112.13</ele>
        <time>2015-04-26T09:27:21Z</time>
      </trkpt>
      <trkpt lat="47.62202" lon="3.74149">
        <ele>112.13</ele>
        <time>2015-04-26T09:27:24Z</time>
      </trkpt>
      <trkpt lat="47.622" lon="3.74164">
        <ele>112.13</ele>
        <time>2015-04-26T09:27:32Z</time>
      </trkpt>
      <trkpt lat="47.62185" lon="3.7419">
        <ele>112.61</ele>
        <time>2015-04-26T09:27:46Z</time>
      </trkpt>
      <trkpt lat="47.6217" lon="3.74214">
        <ele>112.61</ele>
        <time>2015-04-26T09:27:59Z</time>
      </trkpt>
      <trkpt lat="47.62154" lon="3.74237">
        <ele>112.61</ele>
        <time>2015-04-26T09:28:13Z</time>
      </trkpt>
      <trkpt lat="47.62143" lon="3.74249">
        <ele>113.09</ele>
        <time>2015-04-26T09:28:21Z</time>
      </trkpt>
      <trkpt lat="47.62139" lon="3.74252">
        <ele>113.09</ele>
        <time>2015-04-26T09:28:24Z</time>
      </trkpt>
      <trkpt lat="47.62133" lon="3.74255">
        <ele>112.61</ele>
        <time>2015-04-26T09:28:28Z</time>
      </trkpt>
      <trkpt lat="47.62128" lon="3.7426">
        <ele>112.61</ele>
        <time>2015-04-26T09:28:32Z</time>
      </trkpt>
      <trkpt lat="47.62111" lon="3.74275">
        <ele>112.61</ele>
        <time>2015-04-26T09:28:45Z</time>
      </trkpt>
      <trkpt lat="47.6209" lon="3.74291">
        <ele>112.61</ele>
        <time>2015-04-26T09:28:58Z</time>
      </trkpt>
      <trkpt lat="47.62074" lon="3.74308">
        <ele>113.09</ele>
        <time>2015-04-26T09:29:10Z</time>
      </trkpt>
      <trkpt lat="47.62067" lon="3.74314">
        <ele>113.09</ele>
        <time>2015-04-26T09:29:16Z</time>
      </trkpt>
      <trkpt lat="47.62057" lon="3.74322">
        <ele>112.61</ele>
        <time>2015-04-26T09:29:22Z</time>
      </trkpt>
      <trkpt lat="47.62049" lon="3.7433">
        <ele>112.61</ele>
        <time>2015-04-26T09:29:26Z</time>
      </trkpt>
      <trkpt lat="47.62042" lon="3.74336">
        <ele>112.13</ele>
        <time>2015-04-26T09:29:30Z</time>
      </trkpt>
      <trkpt lat="47.62033" lon="3.74341">
        <ele>112.61</ele>
        <time>2015-04-26T09:29:37Z</time>
      </trkpt>
      <trkpt lat="47.62025" lon="3.74347">
        <ele>112.61</ele>
        <time>2015-04-26T09:29:43Z</time>
      </trkpt>
      <trkpt lat="47.62005" lon="3.74365">
        <ele>112.61</ele>
        <time>2015-04-26T09:29:56Z</time>
      </trkpt>
      <trkpt lat="47.62007" lon="3.74377">
        <ele>112.61</ele>
        <time>2015-04-26T09:30:01Z</time>
      </trkpt>
      <trkpt lat="47.62016" lon="3.74404">
        <ele>112.61</ele>
        <time>2015-04-26T09:30:13Z</time>
      </trkpt>
      <trkpt lat="47.62014" lon="3.74413">
        <ele>112.13</ele>
        <time>2015-04-26T09:30:17Z</time>
      </trkpt>
      <trkpt lat="47.62001" lon="3.74424">
        <ele>112.13</ele>
        <time>2015-04-26T09:30:25Z</time>
      </trkpt>
      <trkpt lat="47.61994" lon="3.74433">
        <ele>112.13</ele>
        <time>2015-04-26T09:30:30Z</time>
      </trkpt>
      <trkpt lat="47.61972" lon="3.74419">
        <ele>113.09</ele>
        <time>2015-04-26T09:30:43Z</time>
      </trkpt>
      <trkpt lat="47.61961" lon="3.74395">
        <ele>112.61</ele>
        <time>2015-04-26T09:30:56Z</time>
      </trkpt>
      <trkpt lat="47.61956" lon="3.74384">
        <ele>113.09</ele>
        <time>2015-04-26T09:31:02Z</time>
      </trkpt>
      <trkpt lat="47.61952" lon="3.74373">
        <ele>113.09</ele>
        <time>2015-04-26T09:31:08Z</time>
      </trkpt>
      <trkpt lat="47.6195" lon="3.74369">
        <ele>113.09</ele>
        <time>2015-04-26T09:31:10Z</time>
      </trkpt>
      <trkpt lat="47.61947" lon="3.7436">
        <ele>113.09</ele>
        <time>2015-04-26T09:31:14Z</time>
      </trkpt>
      <trkpt lat="47.61943" lon="3.74342">
        <ele>113.09</ele>
        <time>2015-04-26T09:31:22Z</time>
      </trkpt>
      <trkpt lat="47.61933" lon="3.74313">
        <ele>113.57</ele>
        <time>2015-04-26T09:31:33Z</time>
      </trkpt>
      <trkpt lat="47.6193" lon="3.7429">
        <ele>113.57</ele>
        <time>2015-04-26T09:31:44Z</time>
      </trkpt>
      <trkpt lat="47.61919" lon="3.74261">
        <ele>113.57</ele>
        <time>2015-04-26T09:31:57Z</time>
      </trkpt>
      <trkpt lat="47.61919" lon="3.74253">
        <ele>113.57</ele>
        <time>2015-04-26T09:32:00Z</time>
      </trkpt>
      <trkpt lat="47.61911" lon="3.74231">
        <ele>114.05</ele>
        <time>2015-04-26T09:32:11Z</time>
      </trkpt>
      <trkpt lat="47.61907" lon="3.74213">
        <ele>114.05</ele>
        <time>2015-04-26T09:32:17Z</time>
      </trkpt>
      <trkpt lat="47.61901" lon="3.74184">
        <ele>114.05</ele>
        <time>2015-04-26T09:32:31Z</time>
      </trkpt>
      <trkpt lat="47.619" lon="3.74178">
        <ele>114.53</ele>
        <time>2015-04-26T09:32:33Z</time>
      </trkpt>
      <trkpt lat="47.61894" lon="3.74173">
        <ele>114.05</ele>
        <time>2015-04-26T09:32:38Z</time>
      </trkpt>
      <trkpt lat="47.61887" lon="3.74169">
        <ele>114.53</ele>
        <time>2015-04-26T09:32:44Z</time>
      </trkpt>
      <trkpt lat="47.61882" lon="3.74158">
        <ele>115.01</ele>
        <time>2015-04-26T09:32:48Z</time>
      </trkpt>
      <trkpt lat="47.61866" lon="3.74136">
        <ele>115.5</ele>
        <time>2015-04-26T09:33:01Z</time>
      </trkpt>
      <trkpt lat="47.61861" lon="3.74135">
        <ele>115.98</ele>
        <time>2015-04-26T09:33:05Z</time>
      </trkpt>
      <trkpt lat="47.61859" lon="3.74133">
        <ele>115.98</ele>
        <time>2015-04-26T09:33:07Z</time>
      </trkpt>
      <trkpt lat="47.61842" lon="3.74128">
        <ele>117.42</ele>
        <time>2015-04-26T09:33:15Z</time>
      </trkpt>
      <trkpt lat="47.61821" lon="3.74122">
        <ele>118.86</ele>
        <time>2015-04-26T09:33:28Z</time>
      </trkpt>
      <trkpt lat="47.61796" lon="3.74131">
        <ele>119.34</ele>
        <time>2015-04-26T09:33:41Z</time>
      </trkpt>
      <trkpt lat="47.61775" lon="3.74145">
        <ele>119.82</ele>
        <time>2015-04-26T09:33:54Z</time>
      </trkpt>
      <trkpt lat="47.61754" lon="3.74168">
        <ele>120.3</ele>
        <time>2015-04-26T09:34:08Z</time>
      </trkpt>
      <trkpt lat="47.61744" lon="3.74174">
        <ele>120.78</ele>
        <time>2015-04-26T09:34:16Z</time>
      </trkpt>
      <trkpt lat="47.61725" lon="3.74187">
        <ele>121.74</ele>
        <time>2015-04-26T09:34:29Z</time>
      </trkpt>
      <trkpt lat="47.6172" lon="3.74189">
        <ele>121.26</ele>
        <time>2015-04-26T09:34:33Z</time>
      </trkpt>
      <trkpt lat="47.61711" lon="3.74187">
        <ele>121.74</ele>
        <time>2015-04-26T09:34:41Z</time>
      </trkpt>
      <trkpt lat="47.61702" lon="3.74191">
        <ele>121.26</ele>
        <time>2015-04-26T09:34:47Z</time>
      </trkpt>
      <trkpt lat="47.61681" lon="3.74203">
        <ele>120.3</ele>
        <time>2015-04-26T09:35:00Z</time>
      </trkpt>
      <trkpt lat="47.61674" lon="3.74213">
        <ele>119.82</ele>
        <time>2015-04-26T09:35:09Z</time>
      </trkpt>
      <trkpt lat="47.61671" lon="3.74222">
        <ele>119.34</ele>
        <time>2015-04-26T09:35:13Z</time>
      </trkpt>
      <trkpt lat="47.61665" lon="3.74226">
        <ele>119.34</ele>
        <time>2015-04-26T09:35:16Z</time>
      </trkpt>
      <trkpt lat="47.61648" lon="3.74221">
        <ele>120.3</ele>
        <time>2015-04-26T09:35:27Z</time>
      </trkpt>
      <trkpt lat="47.61635" lon="3.74217">
        <ele>122.71</ele>
        <time>2015-04-26T09:35:35Z</time>
      </trkpt>
      <trkpt lat="47.61632" lon="3.74217">
        <ele>123.19</ele>
        <time>2015-04-26T09:35:37Z</time>
      </trkpt>
      <trkpt lat="47.61623" lon="3.74214">
        <ele>124.15</ele>
        <time>2015-04-26T09:35:42Z</time>
      </trkpt>
      <trkpt lat="47.61606" lon="3.74209">
        <ele>127.51</ele>
        <time>2015-04-26T09:35:56Z</time>
      </trkpt>
      <trkpt lat="47.61592" lon="3.74202">
        <ele>130.4</ele>
        <time>2015-04-26T09:36:07Z</time>
      </trkpt>
      <trkpt lat="47.6158" lon="3.74195">
        <ele>132.8</ele>
        <time>2015-04-26T09:36:17Z</time>
      </trkpt>
      <trkpt lat="47.61576" lon="3.74193">
        <ele>133.76</ele>
        <time>2015-04-26T09:36:21Z</time>
      </trkpt>
      <trkpt lat="47.61558" lon="3.74182">
        <ele>136.64</ele>
        <time>2015-04-26T09:36:35Z</time>
      </trkpt>
      <trkpt lat="47.61541" lon="3.74173">
        <ele>139.53</ele>
        <time>2015-04-26T09:36:49Z</time>
      </trkpt>
      <trkpt lat="47.61521" lon="3.74166">
        <ele>142.89</ele>
        <time>2015-04-26T09:37:02Z</time>
      </trkpt>
      <trkpt lat="47.61511" lon="3.74166">
        <ele>144.34</ele>
        <time>2015-04-26T09:37:09Z</time>
      </trkpt>
      <trkpt lat="47.61496" lon="3.74172">
        <ele>147.7</ele>
        <time>2015-04-26T09:37:22Z</time>
      </trkpt>
      <trkpt lat="47.61482" lon="3.74171">
        <ele>150.1</ele>
        <time>2015-04-26T09:37:34Z</time>
      </trkpt>
      <trkpt lat="47.61466" lon="3.74172">
        <ele>152.99</ele>
        <time>2015-04-26T09:37:48Z</time>
      </trkpt>
      <trkpt lat="47.61462" lon="3.74174">
        <ele>153.47</ele>
        <time>2015-04-26T09:37:50Z</time>
      </trkpt>
      <trkpt lat="47.61446" lon="3.74178">
        <ele>156.83</ele>
        <time>2015-04-26T09:38:03Z</time>
      </trkpt>
      <trkpt lat="47.61445" lon="3.74179">
        <ele>156.35</ele>
        <time>2015-04-26T09:38:04Z</time>
      </trkpt>
      <trkpt lat="47.6143" lon="3.74192">
        <ele>159.24</ele>
        <time>2015-04-26T09:38:18Z</time>
      </trkpt>
      <trkpt lat="47.61429" lon="3.74193">
        <ele>159.72</ele>
        <time>2015-04-26T09:38:19Z</time>
      </trkpt>
      <trkpt lat="47.61408" lon="3.74204">
        <ele>162.6</ele>
        <time>2015-04-26T09:38:36Z</time>
      </trkpt>
      <trkpt lat="47.61401" lon="3.74206">
        <ele>163.56</ele>
        <time>2015-04-26T09:38:42Z</time>
      </trkpt>
      <trkpt lat="47.61389" lon="3.74219">
        <ele>165</ele>
        <time>2015-04-26T09:38:51Z</time>
      </trkpt>
      <trkpt lat="47.61371" lon="3.74219">
        <ele>166.45</ele>
        <time>2015-04-26T09:39:02Z</time>
      </trkpt>
      <trkpt lat="47.61356" lon="3.74226">
        <ele>167.89</ele>
        <time>2015-04-26T09:39:14Z</time>
      </trkpt>
      <trkpt lat="47.61347" lon="3.7423">
        <ele>168.37</ele>
        <time>2015-04-26T09:39:21Z</time>
      </trkpt>
      <trkpt lat="47.61341" lon="3.74233">
        <ele>168.37</ele>
        <time>2015-04-26T09:39:25Z</time>
      </trkpt>
      <trkpt lat="47.61327" lon="3.74234">
        <ele>169.33</ele>
        <time>2015-04-26T09:39:34Z</time>
      </trkpt>
      <trkpt lat="47.61315" lon="3.74236">
        <ele>169.81</ele>
        <time>2015-04-26T09:39:40Z</time>
      </trkpt>
      <trkpt lat="47.61298" lon="3.74241">
        <ele>170.77</ele>
        <time>2015-04-26T09:39:51Z</time>
      </trkpt>
      <trkpt lat="47.61289" lon="3.74245">
        <ele>171.25</ele>
        <time>2015-04-26T09:39:57Z</time>
      </trkpt>
      <trkpt lat="47.61278" lon="3.74252">
        <ele>172.21</ele>
        <time>2015-04-26T09:40:04Z</time>
      </trkpt>
      <trkpt lat="47.61272" lon="3.74254">
        <ele>172.21</ele>
        <time>2015-04-26T09:40:08Z</time>
      </trkpt>
      <trkpt lat="47.61255" lon="3.74258">
        <ele>172.69</ele>
        <time>2015-04-26T09:40:19Z</time>
      </trkpt>
      <trkpt lat="47.6124" lon="3.74264">
        <ele>173.17</ele>
        <time>2015-04-26T09:40:28Z</time>
      </trkpt>
      <trkpt lat="47.61232" lon="3.74265">
        <ele>173.66</ele>
        <time>2015-04-26T09:40:32Z</time>
      </trkpt>
      <trkpt lat="47.6121" lon="3.74269">
        <ele>175.1</ele>
        <time>2015-04-26T09:40:46Z</time>
      </trkpt>
      <trkpt lat="47.61204" lon="3.74278">
        <ele>175.1</ele>
        <time>2015-04-26T09:40:50Z</time>
      </trkpt>
      <trkpt lat="47.612" lon="3.7429">
        <ele>176.06</ele>
        <time>2015-04-26T09:40:56Z</time>
      </trkpt>
      <trkpt lat="47.61196" lon="3.743">
        <ele>176.06</ele>
        <time>2015-04-26T09:41:01Z</time>
      </trkpt>
      <trkpt lat="47.61194" lon="3.74304">
        <ele>176.54</ele>
        <time>2015-04-26T09:41:03Z</time>
      </trkpt>
      <trkpt lat="47.61183" lon="3.74328">
        <ele>177.02</ele>
        <time>2015-04-26T09:41:14Z</time>
      </trkpt>
      <trkpt lat="47.6117" lon="3.74357">
        <ele>178.46</ele>
        <time>2015-04-26T09:41:27Z</time>
      </trkpt>
      <trkpt lat="47.61159" lon="3.7438">
        <ele>178.46</ele>
        <time>2015-04-26T09:41:41Z</time>
      </trkpt>
      <trkpt lat="47.61155" lon="3.74388">
        <ele>178.46</ele>
        <time>2015-04-26T09:41:46Z</time>
      </trkpt>
      <trkpt lat="47.61152" lon="3.74394">
        <ele>178.94</ele>
        <time>2015-04-26T09:41:50Z</time>
      </trkpt>
      <trkpt lat="47.61147" lon="3.74402">
        <ele>178.94</ele>
        <time>2015-04-26T09:41:55Z</time>
      </trkpt>
      <trkpt lat="47.61135" lon="3.74437">
        <ele>178.94</ele>
        <time>2015-04-26T09:42:10Z</time>
      </trkpt>
      <trkpt lat="47.61134" lon="3.7444">
        <ele>178.94</ele>
        <time>2015-04-26T09:42:12Z</time>
      </trkpt>
      <trkpt lat="47.61124" lon="3.74461">
        <ele>179.42</ele>
        <time>2015-04-26T09:42:25Z</time>
      </trkpt>
      <trkpt lat="47.61118" lon="3.74474">
        <ele>179.42</ele>
        <time>2015-04-26T09:42:33Z</time>
      </trkpt>
      <trkpt lat="47.61105" lon="3.74506">
        <ele>179.9</ele>
        <time>2015-04-26T09:42:46Z</time>
      </trkpt>
      <trkpt lat="47.61098" lon="3.7452">
        <ele>179.9</ele>
        <time>2015-04-26T09:42:53Z</time>
      </trkpt>
      <trkpt lat="47.61092" lon="3.74534">
        <ele>179.42</ele>
        <time>2015-04-26T09:43:00Z</time>
      </trkpt>
      <trkpt lat="47.61082" lon="3.74555">
        <ele>179.42</ele>
        <time>2015-04-26T09:43:09Z</time>
      </trkpt>
      <trkpt lat="47.61079" lon="3.74562">
        <ele>179.42</ele>
        <time>2015-04-26T09:43:11Z</time>
      </trkpt>
      <trkpt lat="47.61073" lon="3.74578">
        <ele>178.94</ele>
        <time>2015-04-26T09:43:17Z</time>
      </trkpt>
      <trkpt lat="47.61072" lon="3.74583">
        <ele>177.02</ele>
        <time>2015-04-26T09:43:19Z</time>
      </trkpt>
      <trkpt lat="47.6107" lon="3.74588">
        <ele>180.38</ele>
        <time>2015-04-26T09:43:21Z</time>
      </trkpt>
      <trkpt lat="47.61066" lon="3.74595">
        <ele>171.25</ele>
        <time>2015-04-26T09:43:25Z</time>
      </trkpt>
      <trkpt lat="47.61064" lon="3.74596">
        <ele>184.23</ele>
        <time>2015-04-26T09:43:26Z</time>
      </trkpt>
      <trkpt lat="47.61059" lon="3.74609">
        <ele>177.5</ele>
        <time>2015-04-26T09:43:31Z</time>
      </trkpt>
      <trkpt lat="47.61051" lon="3.74626">
        <ele>176.06</ele>
        <time>2015-04-26T09:43:38Z</time>
      </trkpt>
      <trkpt lat="47.61047" lon="3.74635">
        <ele>176.06</ele>
        <time>2015-04-26T09:43:41Z</time>
      </trkpt>
      <trkpt lat="47.6104" lon="3.74651">
        <ele>175.1</ele>
        <time>2015-04-26T09:43:48Z</time>
      </trkpt>
      <trkpt lat="47.6103" lon="3.74674">
        <ele>171.25</ele>
        <time>2015-04-26T09:44:02Z</time>
      </trkpt>
      <trkpt lat="47.61026" lon="3.74682">
        <ele>167.89</ele>
        <time>2015-04-26T09:44:14Z</time>
      </trkpt>
      <trkpt lat="47.61026" lon="3.74684">
        <ele>166.93</ele>
        <time>2015-04-26T09:44:16Z</time>
      </trkpt>
      <trkpt lat="47.61025" lon="3.74689">
        <ele>163.56</ele>
        <time>2015-04-26T09:44:27Z</time>
      </trkpt>
      <trkpt lat="47.61021" lon="3.74697">
        <ele>160.2</ele>
        <time>2015-04-26T09:44:36Z</time>
      </trkpt>
      <trkpt lat="47.6102" lon="3.74698">
        <ele>159.72</ele>
        <time>2015-04-26T09:44:38Z</time>
      </trkpt>
      <trkpt lat="47.61017" lon="3.74704">
        <ele>156.35</ele>
        <time>2015-04-26T09:44:47Z</time>
      </trkpt>
      <trkpt lat="47.61015" lon="3.74709">
        <ele>152.99</ele>
        <time>2015-04-26T09:44:56Z</time>
      </trkpt>
      <trkpt lat="47.61013" lon="3.74715">
        <ele>149.62</ele>
        <time>2015-04-26T09:45:04Z</time>
      </trkpt>
      <trkpt lat="47.6101" lon="3.74721">
        <ele>147.7</ele>
        <time>2015-04-26T09:45:09Z</time>
      </trkpt>
      <trkpt lat="47.61006" lon="3.74729">
        <ele>145.3</ele>
        <time>2015-04-26T09:45:13Z</time>
      </trkpt>
      <trkpt lat="47.61003" lon="3.74738">
        <ele>144.34</ele>
        <time>2015-04-26T09:45:17Z</time>
      </trkpt>
      <trkpt lat="47.60997" lon="3.74751">
        <ele>144.34</ele>
        <time>2015-04-26T09:45:23Z</time>
      </trkpt>
      <trkpt lat="47.60985" lon="3.74778">
        <ele>147.7</ele>
        <time>2015-04-26T09:45:35Z</time>
      </trkpt>
      <trkpt lat="47.60983" lon="3.74781">
        <ele>147.7</ele>
        <time>2015-04-26T09:45:36Z</time>
      </trkpt>
      <trkpt lat="47.60967" lon="3.74807">
        <ele>151.06</ele>
        <time>2015-04-26T09:45:48Z</time>
      </trkpt>
      <trkpt lat="47.60959" lon="3.7482">
        <ele>154.43</ele>
        <time>2015-04-26T09:45:58Z</time>
      </trkpt>
      <trkpt lat="47.60949" lon="3.74836">
        <ele>156.35</ele>
        <time>2015-04-26T09:46:11Z</time>
      </trkpt>
      <trkpt lat="47.60943" lon="3.74849">
        <ele>159.72</ele>
        <time>2015-04-26T09:46:23Z</time>
      </trkpt>
      <trkpt lat="47.60938" lon="3.74861">
        <ele>162.12</ele>
        <time>2015-04-26T09:46:37Z</time>
      </trkpt>
      <trkpt lat="47.60933" lon="3.74874">
        <ele>165.48</ele>
        <time>2015-04-26T09:46:46Z</time>
      </trkpt>
      <trkpt lat="47.60933" lon="3.74874">
        <ele>165.48</ele>
        <time>2015-04-26T09:46:47Z</time>
      </trkpt>
      <trkpt lat="47.60927" lon="3.74888">
        <ele>168.37</ele>
        <time>2015-04-26T09:46:59Z</time>
      </trkpt>
      <trkpt lat="47.6092" lon="3.74904">
        <ele>170.77</ele>
        <time>2015-04-26T09:47:12Z</time>
      </trkpt>
      <trkpt lat="47.60915" lon="3.74916">
        <ele>171.73</ele>
        <time>2015-04-26T09:47:19Z</time>
      </trkpt>
      <trkpt lat="47.60905" lon="3.74926">
        <ele>172.69</ele>
        <time>2015-04-26T09:47:28Z</time>
      </trkpt>
      <trkpt lat="47.60894" lon="3.74946">
        <ele>173.17</ele>
        <time>2015-04-26T09:47:41Z</time>
      </trkpt>
      <trkpt lat="47.60887" lon="3.74966">
        <ele>172.69</ele>
        <time>2015-04-26T09:47:52Z</time>
      </trkpt>
      <trkpt lat="47.60875" lon="3.74983">
        <ele>171.25</ele>
        <time>2015-04-26T09:48:03Z</time>
      </trkpt>
      <trkpt lat="47.60863" lon="3.75">
        <ele>169.81</ele>
        <time>2015-04-26T09:48:12Z</time>
      </trkpt>
      <trkpt lat="47.60858" lon="3.75009">
        <ele>168.85</ele>
        <time>2015-04-26T09:48:17Z</time>
      </trkpt>
      <trkpt lat="47.60851" lon="3.75023">
        <ele>167.41</ele>
        <time>2015-04-26T09:48:25Z</time>
      </trkpt>
      <trkpt lat="47.60843" lon="3.75034">
        <ele>164.04</ele>
        <time>2015-04-26T09:48:37Z</time>
      </trkpt>
      <trkpt lat="47.60831" lon="3.75039">
        <ele>161.16</ele>
        <time>2015-04-26T09:48:49Z</time>
      </trkpt>
      <trkpt lat="47.60828" lon="3.7504">
        <ele>159.72</ele>
        <time>2015-04-26T09:48:53Z</time>
      </trkpt>
      <trkpt lat="47.60818" lon="3.75047">
        <ele>156.35</ele>
        <time>2015-04-26T09:49:02Z</time>
      </trkpt>
      <trkpt lat="47.60814" lon="3.75049">
        <ele>153.47</ele>
        <time>2015-04-26T09:49:11Z</time>
      </trkpt>
      <trkpt lat="47.60809" lon="3.75055">
        <ele>152.03</ele>
        <time>2015-04-26T09:49:16Z</time>
      </trkpt>
      <trkpt lat="47.60802" lon="3.75064">
        <ele>150.1</ele>
        <time>2015-04-26T09:49:22Z</time>
      </trkpt>
      <trkpt lat="47.60798" lon="3.75069">
        <ele>149.14</ele>
        <time>2015-04-26T09:49:24Z</time>
      </trkpt>
      <trkpt lat="47.60782" lon="3.75104">
        <ele>146.26</ele>
        <time>2015-04-26T09:49:36Z</time>
      </trkpt>
      <trkpt lat="47.60779" lon="3.75108">
        <ele>145.3</ele>
        <time>2015-04-26T09:49:39Z</time>
      </trkpt>
      <trkpt lat="47.60776" lon="3.75115">
        <ele>144.34</ele>
        <time>2015-04-26T09:49:42Z</time>
      </trkpt>
      <trkpt lat="47.60772" lon="3.75136">
        <ele>140.97</ele>
        <time>2015-04-26T09:49:55Z</time>
      </trkpt>
      <trkpt lat="47.60771" lon="3.75143">
        <ele>139.53</ele>
        <time>2015-04-26T09:49:59Z</time>
      </trkpt>
      <trkpt lat="47.60768" lon="3.7515">
        <ele>138.57</ele>
        <time>2015-04-26T09:50:02Z</time>
      </trkpt>
      <trkpt lat="47.60767" lon="3.75165">
        <ele>136.16</ele>
        <time>2015-04-26T09:50:09Z</time>
      </trkpt>
      <trkpt lat="47.60768" lon="3.75172">
        <ele>135.2</ele>
        <time>2015-04-26T09:50:12Z</time>
      </trkpt>
      <trkpt lat="47.60764" lon="3.75201">
        <ele>131.84</ele>
        <time>2015-04-26T09:50:22Z</time>
      </trkpt>
      <trkpt lat="47.60761" lon="3.75207">
        <ele>131.36</ele>
        <time>2015-04-26T09:50:24Z</time>
      </trkpt>
      <trkpt lat="47.6075" lon="3.75218">
        <ele>130.4</ele>
        <time>2015-04-26T09:50:30Z</time>
      </trkpt>
      <trkpt lat="47.60746" lon="3.75219">
        <ele>129.43</ele>
        <time>2015-04-26T09:50:32Z</time>
      </trkpt>
      <trkpt lat="47.60734" lon="3.75223">
        <ele>128.47</ele>
        <time>2015-04-26T09:50:38Z</time>
      </trkpt>
      <trkpt lat="47.60729" lon="3.75223">
        <ele>127.99</ele>
        <time>2015-04-26T09:50:42Z</time>
      </trkpt>
      <trkpt lat="47.60721" lon="3.75222">
        <ele>126.55</ele>
        <time>2015-04-26T09:50:50Z</time>
      </trkpt>
      <trkpt lat="47.60713" lon="3.75235">
        <ele>126.07</ele>
        <time>2015-04-26T09:50:56Z</time>
      </trkpt>
      <trkpt lat="47.60713" lon="3.75241">
        <ele>125.59</ele>
        <time>2015-04-26T09:51:00Z</time>
      </trkpt>
      <trkpt lat="47.60718" lon="3.75263">
        <ele>124.15</ele>
        <time>2015-04-26T09:51:12Z</time>
      </trkpt>
      <trkpt lat="47.6072" lon="3.75276">
        <ele>121.26</ele>
        <time>2015-04-26T09:51:23Z</time>
      </trkpt>
      <trkpt lat="47.60722" lon="3.75294">
        <ele>117.9</ele>
        <time>2015-04-26T09:51:32Z</time>
      </trkpt>
      <trkpt lat="47.60719" lon="3.75302">
        <ele>117.9</ele>
        <time>2015-04-26T09:51:36Z</time>
      </trkpt>
      <trkpt lat="47.60697" lon="3.75344">
        <ele>117.9</ele>
        <time>2015-04-26T09:51:50Z</time>
      </trkpt>
      <trkpt lat="47.60689" lon="3.75352">
        <ele>117.42</ele>
        <time>2015-04-26T09:51:58Z</time>
      </trkpt>
      <trkpt lat="47.60678" lon="3.75363">
        <ele>117.42</ele>
        <time>2015-04-26T09:52:06Z</time>
      </trkpt>
      <trkpt lat="47.60677" lon="3.75365">
        <ele>120.78</ele>
        <time>2015-04-26T09:52:08Z</time>
      </trkpt>
      <trkpt lat="47.60672" lon="3.7537">
        <ele>111.65</ele>
        <time>2015-04-26T09:52:12Z</time>
      </trkpt>
      <trkpt lat="47.6067" lon="3.75371">
        <ele>123.67</ele>
        <time>2015-04-26T09:52:13Z</time>
      </trkpt>
      <trkpt lat="47.60669" lon="3.75372">
        <ele>118.38</ele>
        <time>2015-04-26T09:52:14Z</time>
      </trkpt>
      <trkpt lat="47.60665" lon="3.75376">
        <ele>117.42</ele>
        <time>2015-04-26T09:52:17Z</time>
      </trkpt>
      <trkpt lat="47.6065" lon="3.7539">
        <ele>117.9</ele>
        <time>2015-04-26T09:52:26Z</time>
      </trkpt>
      <trkpt lat="47.60624" lon="3.7541">
        <ele>117.9</ele>
        <time>2015-04-26T09:52:43Z</time>
      </trkpt>
      <trkpt lat="47.60613" lon="3.75421">
        <ele>117.9</ele>
        <time>2015-04-26T09:52:49Z</time>
      </trkpt>
      <trkpt lat="47.60606" lon="3.75423">
        <ele>117.9</ele>
        <time>2015-04-26T09:52:55Z</time>
      </trkpt>
      <trkpt lat="47.60601" lon="3.75424">
        <ele>117.42</ele>
        <time>2015-04-26T09:52:59Z</time>
      </trkpt>
      <trkpt lat="47.60597" lon="3.75425">
        <ele>117.9</ele>
        <time>2015-04-26T09:53:03Z</time>
      </trkpt>
      <trkpt lat="47.60574" lon="3.75447">
        <ele>117.9</ele>
        <time>2015-04-26T09:53:17Z</time>
      </trkpt>
      <trkpt lat="47.60556" lon="3.75458">
        <ele>118.38</ele>
        <time>2015-04-26T09:53:30Z</time>
      </trkpt>
      <trkpt lat="47.60535" lon="3.7547">
        <ele>117.9</ele>
        <time>2015-04-26T09:53:43Z</time>
      </trkpt>
      <trkpt lat="47.60533" lon="3.75471">
        <ele>117.9</ele>
        <time>2015-04-26T09:53:44Z</time>
      </trkpt>
      <trkpt lat="47.60507" lon="3.7549">
        <ele>117.42</ele>
        <time>2015-04-26T09:54:00Z</time>
      </trkpt>
      <trkpt lat="47.60486" lon="3.75496">
        <ele>118.38</ele>
        <time>2015-04-26T09:54:12Z</time>
      </trkpt>
      <trkpt lat="47.60479" lon="3.75496">
        <ele>118.38</ele>
        <time>2015-04-26T09:54:17Z</time>
      </trkpt>
      <trkpt lat="47.60474" lon="3.75495">
        <ele>117.9</ele>
        <time>2015-04-26T09:54:21Z</time>
      </trkpt>
      <trkpt lat="47.60455" lon="3.7549">
        <ele>119.34</ele>
        <time>2015-04-26T09:54:33Z</time>
      </trkpt>
      <trkpt lat="47.60432" lon="3.75497">
        <ele>120.3</ele>
        <time>2015-04-26T09:54:48Z</time>
      </trkpt>
      <trkpt lat="47.60428" lon="3.75501">
        <ele>120.3</ele>
        <time>2015-04-26T09:54:51Z</time>
      </trkpt>
      <trkpt lat="47.60415" lon="3.755">
        <ele>121.26</ele>
        <time>2015-04-26T09:55:04Z</time>
      </trkpt>
      <trkpt lat="47.60415" lon="3.755">
        <ele>121.74</ele>
        <time>2015-04-26T09:55:22Z</time>
      </trkpt>
      <trkpt lat="47.60415" lon="3.75499">
        <ele>121.74</ele>
        <time>2015-04-26T09:55:36Z</time>
      </trkpt>
      <trkpt lat="47.6041" lon="3.75503">
        <ele>121.74</ele>
        <time>2015-04-26T09:55:49Z</time>
      </trkpt>
      <trkpt lat="47.60409" lon="3.75503">
        <ele>121.74</ele>
        <time>2015-04-26T09:56:06Z</time>
      </trkpt>
      <trkpt lat="47.60407" lon="3.75506">
        <ele>122.22</ele>
        <time>2015-04-26T09:56:22Z</time>
      </trkpt>
      <trkpt lat="47.60409" lon="3.75505">
        <ele>121.74</ele>
        <time>2015-04-26T09:56:40Z</time>
      </trkpt>
      <trkpt lat="47.6041" lon="3.75504">
        <ele>122.22</ele>
        <time>2015-04-26T09:56:59Z</time>
      </trkpt>
      <trkpt lat="47.6041" lon="3.75503">
        <ele>121.74</ele>
        <time>2015-04-26T09:57:18Z</time>
      </trkpt>
      <trkpt lat="47.60409" lon="3.75503">
        <ele>121.74</ele>
        <time>2015-04-26T09:57:35Z</time>
      </trkpt>
      <trkpt lat="47.60408" lon="3.75505">
        <ele>122.22</ele>
        <time>2015-04-26T09:57:52Z</time>
      </trkpt>
      <trkpt lat="47.60407" lon="3.75506">
        <ele>122.22</ele>
        <time>2015-04-26T09:58:08Z</time>
      </trkpt>
      <trkpt lat="47.60406" lon="3.75505">
        <ele>122.71</ele>
        <time>2015-04-26T09:58:33Z</time>
      </trkpt>
      <trkpt lat="47.60407" lon="3.75505">
        <ele>122.71</ele>
        <time>2015-04-26T09:58:52Z</time>
      </trkpt>
      <trkpt lat="47.60407" lon="3.75505">
        <ele>122.22</ele>
        <time>2015-04-26T09:59:09Z</time>
      </trkpt>
      <trkpt lat="47.60407" lon="3.75505">
        <ele>122.22</ele>
        <time>2015-04-26T09:59:26Z</time>
      </trkpt>
      <trkpt lat="47.60406" lon="3.75505">
        <ele>122.22</ele>
        <time>2015-04-26T09:59:46Z</time>
      </trkpt>
      <trkpt lat="47.60407" lon="3.75509">
        <ele>122.71</ele>
        <time>2015-04-26T09:59:59Z</time>
      </trkpt>
      <trkpt lat="47.60406" lon="3.75508">
        <ele>123.19</ele>
        <time>2015-04-26T10:00:13Z</time>
      </trkpt>
      <trkpt lat="47.60406" lon="3.7551">
        <ele>122.71</ele>
        <time>2015-04-26T10:00:26Z</time>
      </trkpt>
      <trkpt lat="47.60409" lon="3.75505">
        <ele>122.71</ele>
        <time>2015-04-26T10:00:41Z</time>
      </trkpt>
      <trkpt lat="47.6041" lon="3.75504">
        <ele>122.22</ele>
        <time>2015-04-26T10:00:58Z</time>
      </trkpt>
      <trkpt lat="47.6041" lon="3.75505">
        <ele>122.71</ele>
        <time>2015-04-26T10:01:12Z</time>
      </trkpt>
      <trkpt lat="47.60406" lon="3.75508">
        <ele>123.19</ele>
        <time>2015-04-26T10:01:28Z</time>
      </trkpt>
      <trkpt lat="47.60408" lon="3.75509">
        <ele>123.19</ele>
        <time>2015-04-26T10:01:41Z</time>
      </trkpt>
      <trkpt lat="47.6041" lon="3.75504">
        <ele>122.71</ele>
        <time>2015-04-26T10:01:54Z</time>
      </trkpt>
      <trkpt lat="47.60414" lon="3.75502">
        <ele>122.71</ele>
        <time>2015-04-26T10:02:11Z</time>
      </trkpt>
      <trkpt lat="47.60416" lon="3.75502">
        <ele>122.71</ele>
        <time>2015-04-26T10:02:23Z</time>
      </trkpt>
      <trkpt lat="47.60415" lon="3.755">
        <ele>122.71</ele>
        <time>2015-04-26T10:02:35Z</time>
      </trkpt>
      <trkpt lat="47.60416" lon="3.75505">
        <ele>122.71</ele>
        <time>2015-04-26T10:02:48Z</time>
      </trkpt>
      <trkpt lat="47.60414" lon="3.75507">
        <ele>122.71</ele>
        <time>2015-04-26T10:02:58Z</time>
      </trkpt>
      <trkpt lat="47.60414" lon="3.75504">
        <ele>122.71</ele>
        <time>2015-04-26T10:03:11Z</time>
      </trkpt>
      <trkpt lat="47.60414" lon="3.75503">
        <ele>123.19</ele>
        <time>2015-04-26T10:03:28Z</time>
      </trkpt>
      <trkpt lat="47.60415" lon="3.75501">
        <ele>123.19</ele>
        <time>2015-04-26T10:03:46Z</time>
      </trkpt>
      <trkpt lat="47.60417" lon="3.75506">
        <ele>122.71</ele>
        <time>2015-04-26T10:03:59Z</time>
      </trkpt>
      <trkpt lat="47.60416" lon="3.75505">
        <ele>123.19</ele>
        <time>2015-04-26T10:04:19Z</time>
      </trkpt>
      <trkpt lat="47.60416" lon="3.75501">
        <ele>123.19</ele>
        <time>2015-04-26T10:04:32Z</time>
      </trkpt>
      <trkpt lat="47.60417" lon="3.75503">
        <ele>123.19</ele>
        <time>2015-04-26T10:04:47Z</time>
      </trkpt>
      <trkpt lat="47.60419" lon="3.75504">
        <ele>123.19</ele>
        <time>2015-04-26T10:04:50Z</time>
      </trkpt>
      <trkpt lat="47.60436" lon="3.7549">
        <ele>122.71</ele>
        <time>2015-04-26T10:05:07Z</time>
      </trkpt>
      <trkpt lat="47.60448" lon="3.7548">
        <ele>124.15</ele>
        <time>2015-04-26T10:05:18Z</time>
      </trkpt>
      <trkpt lat="47.60449" lon="3.75477">
        <ele>118.38</ele>
        <time>2015-04-26T10:05:20Z</time>
      </trkpt>
      <trkpt lat="47.60449" lon="3.75476">
        <ele>129.43</ele>
        <time>2015-04-26T10:05:21Z</time>
      </trkpt>
      <trkpt lat="47.6045" lon="3.75475">
        <ele>125.11</ele>
        <time>2015-04-26T10:05:22Z</time>
      </trkpt>
      <trkpt lat="47.60451" lon="3.75469">
        <ele>125.11</ele>
        <time>2015-04-26T10:05:27Z</time>
      </trkpt>
      <trkpt lat="47.6045" lon="3.75461">
        <ele>125.59</ele>
        <time>2015-04-26T10:05:32Z</time>
      </trkpt>
      <trkpt lat="47.60445" lon="3.7544">
        <ele>127.03</ele>
        <time>2015-04-26T10:05:42Z</time>
      </trkpt>
      <trkpt lat="47.60442" lon="3.75414">
        <ele>127.99</ele>
        <time>2015-04-26T10:05:56Z</time>
      </trkpt>
      <trkpt lat="47.60441" lon="3.75404">
        <ele>128.95</ele>
        <time>2015-04-26T10:06:01Z</time>
      </trkpt>
      <trkpt lat="47.60441" lon="3.75393">
        <ele>130.88</ele>
        <time>2015-04-26T10:06:08Z</time>
      </trkpt>
      <trkpt lat="47.6044" lon="3.7539">
        <ele>129.92</ele>
        <time>2015-04-26T10:06:10Z</time>
      </trkpt>
      <trkpt lat="47.60438" lon="3.75372">
        <ele>129.43</ele>
        <time>2015-04-26T10:06:16Z</time>
      </trkpt>
      <trkpt lat="47.60436" lon="3.75366">
        <ele>130.88</ele>
        <time>2015-04-26T10:06:19Z</time>
      </trkpt>
      <trkpt lat="47.60429" lon="3.75332">
        <ele>131.84</ele>
        <time>2015-04-26T10:06:35Z</time>
      </trkpt>
      <trkpt lat="47.60421" lon="3.75307">
        <ele>132.8</ele>
        <time>2015-04-26T10:06:48Z</time>
      </trkpt>
      <trkpt lat="47.60404" lon="3.75291">
        <ele>133.28</ele>
        <time>2015-04-26T10:07:03Z</time>
      </trkpt>
      <trkpt lat="47.60401" lon="3.7529">
        <ele>132.8</ele>
        <time>2015-04-26T10:07:05Z</time>
      </trkpt>
      <trkpt lat="47.60381" lon="3.75302">
        <ele>133.28</ele>
        <time>2015-04-26T10:07:20Z</time>
      </trkpt>
      <trkpt lat="47.6036" lon="3.75313">
        <ele>133.76</ele>
        <time>2015-04-26T10:07:35Z</time>
      </trkpt>
      <trkpt lat="47.60343" lon="3.75322">
        <ele>134.24</ele>
        <time>2015-04-26T10:07:47Z</time>
      </trkpt>
      <trkpt lat="47.6033" lon="3.75332">
        <ele>133.76</ele>
        <time>2015-04-26T10:07:57Z</time>
      </trkpt>
      <trkpt lat="47.60324" lon="3.75329">
        <ele>134.24</ele>
        <time>2015-04-26T10:08:03Z</time>
      </trkpt>
      <trkpt lat="47.60323" lon="3.75325">
        <ele>133.76</ele>
        <time>2015-04-26T10:08:06Z</time>
      </trkpt>
      <trkpt lat="47.60319" lon="3.75325">
        <ele>134.24</ele>
        <time>2015-04-26T10:08:10Z</time>
      </trkpt>
      <trkpt lat="47.60315" lon="3.75327">
        <ele>133.76</ele>
        <time>2015-04-26T10:08:13Z</time>
      </trkpt>
      <trkpt lat="47.60308" lon="3.7533">
        <ele>134.24</ele>
        <time>2015-04-26T10:08:18Z</time>
      </trkpt>
      <trkpt lat="47.60304" lon="3.75334">
        <ele>134.24</ele>
        <time>2015-04-26T10:08:24Z</time>
      </trkpt>
      <trkpt lat="47.60301" lon="3.75337">
        <ele>133.76</ele>
        <time>2015-04-26T10:08:27Z</time>
      </trkpt>
      <trkpt lat="47.60295" lon="3.75342">
        <ele>133.76</ele>
        <time>2015-04-26T10:08:31Z</time>
      </trkpt>
      <trkpt lat="47.60291" lon="3.75344">
        <ele>134.24</ele>
        <time>2015-04-26T10:08:33Z</time>
      </trkpt>
      <trkpt lat="47.6028" lon="3.75351">
        <ele>134.24</ele>
        <time>2015-04-26T10:08:40Z</time>
      </trkpt>
      <trkpt lat="47.60271" lon="3.75357">
        <ele>134.72</ele>
        <time>2015-04-26T10:08:45Z</time>
      </trkpt>
      <trkpt lat="47.60269" lon="3.75357">
        <ele>134.72</ele>
        <time>2015-04-26T10:08:46Z</time>
      </trkpt>
      <trkpt lat="47.60255" lon="3.75369">
        <ele>135.2</ele>
        <time>2015-04-26T10:08:57Z</time>
      </trkpt>
      <trkpt lat="47.60251" lon="3.75371">
        <ele>135.68</ele>
        <time>2015-04-26T10:09:01Z</time>
      </trkpt>
      <trkpt lat="47.60243" lon="3.75375">
        <ele>136.16</ele>
        <time>2015-04-26T10:09:08Z</time>
      </trkpt>
      <trkpt lat="47.60234" lon="3.75385">
        <ele>137.13</ele>
        <time>2015-04-26T10:09:14Z</time>
      </trkpt>
      <trkpt lat="47.60217" lon="3.7541">
        <ele>137.61</ele>
        <time>2015-04-26T10:09:23Z</time>
      </trkpt>
      <trkpt lat="47.60201" lon="3.75433">
        <ele>137.61</ele>
        <time>2015-04-26T10:09:35Z</time>
      </trkpt>
      <trkpt lat="47.60185" lon="3.75451">
        <ele>137.13</ele>
        <time>2015-04-26T10:09:48Z</time>
      </trkpt>
      <trkpt lat="47.60179" lon="3.75462">
        <ele>136.16</ele>
        <time>2015-04-26T10:09:55Z</time>
      </trkpt>
      <trkpt lat="47.60176" lon="3.75467">
        <ele>136.16</ele>
        <time>2015-04-26T10:09:58Z</time>
      </trkpt>
      <trkpt lat="47.60172" lon="3.75474">
        <ele>135.2</ele>
        <time>2015-04-26T10:10:04Z</time>
      </trkpt>
      <trkpt lat="47.60168" lon="3.75489">
        <ele>133.76</ele>
        <time>2015-04-26T10:10:11Z</time>
      </trkpt>
      <trkpt lat="47.60162" lon="3.75501">
        <ele>131.84</ele>
        <time>2015-04-26T10:10:18Z</time>
      </trkpt>
      <trkpt lat="47.60159" lon="3.75505">
        <ele>131.84</ele>
        <time>2015-04-26T10:10:20Z</time>
      </trkpt>
      <trkpt lat="47.6014" lon="3.75528">
        <ele>130.4</ele>
        <time>2015-04-26T10:10:32Z</time>
      </trkpt>
      <trkpt lat="47.60123" lon="3.75536">
        <ele>131.36</ele>
        <time>2015-04-26T10:10:42Z</time>
      </trkpt>
      <trkpt lat="47.60107" lon="3.75552">
        <ele>132.32</ele>
        <time>2015-04-26T10:10:54Z</time>
      </trkpt>
      <trkpt lat="47.60101" lon="3.75558">
        <ele>132.32</ele>
        <time>2015-04-26T10:11:00Z</time>
      </trkpt>
      <trkpt lat="47.60095" lon="3.75564">
        <ele>133.76</ele>
        <time>2015-04-26T10:11:05Z</time>
      </trkpt>
      <trkpt lat="47.60089" lon="3.75575">
        <ele>133.76</ele>
        <time>2015-04-26T10:11:11Z</time>
      </trkpt>
      <trkpt lat="47.60092" lon="3.75587">
        <ele>133.76</ele>
        <time>2015-04-26T10:11:16Z</time>
      </trkpt>
      <trkpt lat="47.60103" lon="3.75606">
        <ele>132.32</ele>
        <time>2015-04-26T10:11:25Z</time>
      </trkpt>
      <trkpt lat="47.60112" lon="3.75623">
        <ele>131.36</ele>
        <time>2015-04-26T10:11:36Z</time>
      </trkpt>
      <trkpt lat="47.60111" lon="3.75628">
        <ele>131.36</ele>
        <time>2015-04-26T10:11:39Z</time>
      </trkpt>
      <trkpt lat="47.60106" lon="3.75633">
        <ele>132.32</ele>
        <time>2015-04-26T10:11:43Z</time>
      </trkpt>
      <trkpt lat="47.60095" lon="3.75644">
        <ele>133.76</ele>
        <time>2015-04-26T10:11:54Z</time>
      </trkpt>
      <trkpt lat="47.60084" lon="3.75654">
        <ele>134.72</ele>
        <time>2015-04-26T10:12:05Z</time>
      </trkpt>
      <trkpt lat="47.60077" lon="3.75658">
        <ele>135.68</ele>
        <time>2015-04-26T10:12:13Z</time>
      </trkpt>
      <trkpt lat="47.60063" lon="3.75666">
        <ele>136.16</ele>
        <time>2015-04-26T10:12:26Z</time>
      </trkpt>
      <trkpt lat="47.60049" lon="3.75679">
        <ele>137.61</ele>
        <time>2015-04-26T10:12:38Z</time>
      </trkpt>
      <trkpt lat="47.60036" lon="3.75691">
        <ele>138.09</ele>
        <time>2015-04-26T10:12:47Z</time>
      </trkpt>
      <trkpt lat="47.6003" lon="3.75696">
        <ele>138.09</ele>
        <time>2015-04-26T10:12:50Z</time>
      </trkpt>
      <trkpt lat="47.60011" lon="3.75724">
        <ele>137.61</ele>
        <time>2015-04-26T10:13:01Z</time>
      </trkpt>
      <trkpt lat="47.59997" lon="3.75743">
        <ele>136.16</ele>
        <time>2015-04-26T10:13:14Z</time>
      </trkpt>
      <trkpt lat="47.59981" lon="3.75757">
        <ele>135.2</ele>
        <time>2015-04-26T10:13:28Z</time>
      </trkpt>
      <trkpt lat="47.59975" lon="3.75765">
        <ele>134.24</ele>
        <time>2015-04-26T10:13:34Z</time>
      </trkpt>
      <trkpt lat="47.59953" lon="3.75773">
        <ele>132.8</ele>
        <time>2015-04-26T10:13:46Z</time>
      </trkpt>
      <trkpt lat="47.59932" lon="3.75798">
        <ele>129.43</ele>
        <time>2015-04-26T10:13:58Z</time>
      </trkpt>
      <trkpt lat="47.59919" lon="3.75799">
        <ele>128.47</ele>
        <time>2015-04-26T10:14:04Z</time>
      </trkpt>
      <trkpt lat="47.59899" lon="3.75808">
        <ele>127.99</ele>
        <time>2015-04-26T10:14:16Z</time>
      </trkpt>
      <trkpt lat="47.59876" lon="3.75809">
        <ele>128.95</ele>
        <time>2015-04-26T10:14:30Z</time>
      </trkpt>
      <trkpt lat="47.59866" lon="3.75809">
        <ele>130.88</ele>
        <time>2015-04-26T10:14:38Z</time>
      </trkpt>
      <trkpt lat="47.59859" lon="3.75818">
        <ele>132.8</ele>
        <time>2015-04-26T10:14:47Z</time>
      </trkpt>
      <trkpt lat="47.59853" lon="3.75825">
        <ele>134.72</ele>
        <time>2015-04-26T10:14:54Z</time>
      </trkpt>
      <trkpt lat="47.5985" lon="3.75827">
        <ele>135.2</ele>
        <time>2015-04-26T10:14:56Z</time>
      </trkpt>
      <trkpt lat="47.59846" lon="3.75835">
        <ele>136.16</ele>
        <time>2015-04-26T10:15:01Z</time>
      </trkpt>
      <trkpt lat="47.59843" lon="3.75844">
        <ele>136.16</ele>
        <time>2015-04-26T10:15:06Z</time>
      </trkpt>
      <trkpt lat="47.59833" lon="3.75862">
        <ele>138.09</ele>
        <time>2015-04-26T10:15:18Z</time>
      </trkpt>
      <trkpt lat="47.59831" lon="3.75868">
        <ele>138.09</ele>
        <time>2015-04-26T10:15:21Z</time>
      </trkpt>
      <trkpt lat="47.59815" lon="3.75887">
        <ele>140.49</ele>
        <time>2015-04-26T10:15:37Z</time>
      </trkpt>
      <trkpt lat="47.59799" lon="3.75906">
        <ele>141.93</ele>
        <time>2015-04-26T10:15:52Z</time>
      </trkpt>
      <trkpt lat="47.59798" lon="3.75908">
        <ele>141.93</ele>
        <time>2015-04-26T10:15:54Z</time>
      </trkpt>
      <trkpt lat="47.59784" lon="3.75921">
        <ele>144.34</ele>
        <time>2015-04-26T10:16:06Z</time>
      </trkpt>
      <trkpt lat="47.59778" lon="3.75929">
        <ele>144.82</ele>
        <time>2015-04-26T10:16:12Z</time>
      </trkpt>
      <trkpt lat="47.59772" lon="3.75933">
        <ele>146.26</ele>
        <time>2015-04-26T10:16:16Z</time>
      </trkpt>
      <trkpt lat="47.59758" lon="3.75943">
        <ele>146.74</ele>
        <time>2015-04-26T10:16:27Z</time>
      </trkpt>
      <trkpt lat="47.59741" lon="3.75952">
        <ele>147.7</ele>
        <time>2015-04-26T10:16:38Z</time>
      </trkpt>
      <trkpt lat="47.59725" lon="3.75974">
        <ele>148.66</ele>
        <time>2015-04-26T10:16:53Z</time>
      </trkpt>
      <trkpt lat="47.5972" lon="3.7598">
        <ele>148.66</ele>
        <time>2015-04-26T10:16:57Z</time>
      </trkpt>
      <trkpt lat="47.59713" lon="3.75985">
        <ele>149.62</ele>
        <time>2015-04-26T10:17:03Z</time>
      </trkpt>
      <trkpt lat="47.59708" lon="3.75989">
        <ele>150.1</ele>
        <time>2015-04-26T10:17:08Z</time>
      </trkpt>
      <trkpt lat="47.59691" lon="3.76015">
        <ele>151.06</ele>
        <time>2015-04-26T10:17:22Z</time>
      </trkpt>
      <trkpt lat="47.5969" lon="3.76021">
        <ele>151.06</ele>
        <time>2015-04-26T10:17:25Z</time>
      </trkpt>
      <trkpt lat="47.59687" lon="3.76026">
        <ele>151.54</ele>
        <time>2015-04-26T10:17:28Z</time>
      </trkpt>
      <trkpt lat="47.59675" lon="3.76034">
        <ele>152.51</ele>
        <time>2015-04-26T10:17:36Z</time>
      </trkpt>
      <trkpt lat="47.59673" lon="3.76036">
        <ele>152.99</ele>
        <time>2015-04-26T10:17:38Z</time>
      </trkpt>
      <trkpt lat="47.59666" lon="3.76041">
        <ele>153.47</ele>
        <time>2015-04-26T10:17:43Z</time>
      </trkpt>
      <trkpt lat="47.5965" lon="3.7603">
        <ele>156.83</ele>
        <time>2015-04-26T10:17:57Z</time>
      </trkpt>
      <trkpt lat="47.59646" lon="3.76026">
        <ele>157.31</ele>
        <time>2015-04-26T10:18:02Z</time>
      </trkpt>
      <trkpt lat="47.59638" lon="3.76016">
        <ele>158.75</ele>
        <time>2015-04-26T10:18:11Z</time>
      </trkpt>
      <trkpt lat="47.59621" lon="3.75995">
        <ele>161.64</ele>
        <time>2015-04-26T10:18:28Z</time>
      </trkpt>
      <trkpt lat="47.59607" lon="3.75994">
        <ele>164.04</ele>
        <time>2015-04-26T10:18:41Z</time>
      </trkpt>
      <trkpt lat="47.59605" lon="3.75994">
        <ele>164.52</ele>
        <time>2015-04-26T10:18:43Z</time>
      </trkpt>
      <trkpt lat="47.59586" lon="3.75993">
        <ele>166.45</ele>
        <time>2015-04-26T10:18:56Z</time>
      </trkpt>
      <trkpt lat="47.59575" lon="3.75987">
        <ele>167.41</ele>
        <time>2015-04-26T10:19:05Z</time>
      </trkpt>
      <trkpt lat="47.59556" lon="3.75982">
        <ele>168.85</ele>
        <time>2015-04-26T10:19:19Z</time>
      </trkpt>
      <trkpt lat="47.59537" lon="3.75977">
        <ele>170.77</ele>
        <time>2015-04-26T10:19:34Z</time>
      </trkpt>
      <trkpt lat="47.59522" lon="3.75972">
        <ele>172.21</ele>
        <time>2015-04-26T10:19:45Z</time>
      </trkpt>
      <trkpt lat="47.59512" lon="3.75962">
        <ele>173.17</ele>
        <time>2015-04-26T10:19:54Z</time>
      </trkpt>
      <trkpt lat="47.59495" lon="3.75952">
        <ele>174.62</ele>
        <time>2015-04-26T10:20:07Z</time>
      </trkpt>
      <trkpt lat="47.59486" lon="3.75946">
        <ele>175.58</ele>
        <time>2015-04-26T10:20:14Z</time>
      </trkpt>
      <trkpt lat="47.59482" lon="3.75944">
        <ele>176.06</ele>
        <time>2015-04-26T10:20:17Z</time>
      </trkpt>
      <trkpt lat="47.59477" lon="3.7594">
        <ele>176.54</ele>
        <time>2015-04-26T10:20:21Z</time>
      </trkpt>
      <trkpt lat="47.59465" lon="3.75932">
        <ele>177.5</ele>
        <time>2015-04-26T10:20:31Z</time>
      </trkpt>
      <trkpt lat="47.59462" lon="3.75929">
        <ele>178.46</ele>
        <time>2015-04-26T10:20:34Z</time>
      </trkpt>
      <trkpt lat="47.59456" lon="3.75921">
        <ele>178.94</ele>
        <time>2015-04-26T10:20:41Z</time>
      </trkpt>
      <trkpt lat="47.59437" lon="3.75902">
        <ele>180.87</ele>
        <time>2015-04-26T10:20:56Z</time>
      </trkpt>
      <trkpt lat="47.59434" lon="3.759">
        <ele>180.87</ele>
        <time>2015-04-26T10:20:59Z</time>
      </trkpt>
      <trkpt lat="47.59412" lon="3.7588">
        <ele>182.79</ele>
        <time>2015-04-26T10:21:15Z</time>
      </trkpt>
      <trkpt lat="47.59387" lon="3.7586">
        <ele>183.75</ele>
        <time>2015-04-26T10:21:32Z</time>
      </trkpt>
      <trkpt lat="47.59375" lon="3.7585">
        <ele>184.23</ele>
        <time>2015-04-26T10:21:42Z</time>
      </trkpt>
      <trkpt lat="47.59365" lon="3.75838">
        <ele>184.71</ele>
        <time>2015-04-26T10:21:51Z</time>
      </trkpt>
      <trkpt lat="47.59342" lon="3.75819">
        <ele>185.19</ele>
        <time>2015-04-26T10:22:08Z</time>
      </trkpt>
      <trkpt lat="47.59317" lon="3.75801">
        <ele>186.63</ele>
        <time>2015-04-26T10:22:25Z</time>
      </trkpt>
      <trkpt lat="47.59293" lon="3.75786">
        <ele>187.11</ele>
        <time>2015-04-26T10:22:40Z</time>
      </trkpt>
      <trkpt lat="47.59285" lon="3.75782">
        <ele>186.63</ele>
        <time>2015-04-26T10:22:46Z</time>
      </trkpt>
      <trkpt lat="47.5927" lon="3.75774">
        <ele>186.63</ele>
        <time>2015-04-26T10:22:56Z</time>
      </trkpt>
      <trkpt lat="47.59268" lon="3.75772">
        <ele>186.15</ele>
        <time>2015-04-26T10:22:58Z</time>
      </trkpt>
      <trkpt lat="47.59258" lon="3.7576">
        <ele>186.63</ele>
        <time>2015-04-26T10:23:07Z</time>
      </trkpt>
      <trkpt lat="47.59246" lon="3.75751">
        <ele>186.63</ele>
        <time>2015-04-26T10:23:16Z</time>
      </trkpt>
      <trkpt lat="47.59229" lon="3.75732">
        <ele>187.11</ele>
        <time>2015-04-26T10:23:31Z</time>
      </trkpt>
      <trkpt lat="47.59216" lon="3.75719">
        <ele>187.11</ele>
        <time>2015-04-26T10:23:40Z</time>
      </trkpt>
      <trkpt lat="47.59203" lon="3.75703">
        <ele>186.63</ele>
        <time>2015-04-26T10:23:49Z</time>
      </trkpt>
      <trkpt lat="47.59187" lon="3.75676">
        <ele>188.08</ele>
        <time>2015-04-26T10:24:04Z</time>
      </trkpt>
      <trkpt lat="47.59176" lon="3.75652">
        <ele>188.08</ele>
        <time>2015-04-26T10:24:16Z</time>
      </trkpt>
      <trkpt lat="47.59169" lon="3.75635">
        <ele>188.56</ele>
        <time>2015-04-26T10:24:24Z</time>
      </trkpt>
      <trkpt lat="47.59155" lon="3.75613">
        <ele>188.08</ele>
        <time>2015-04-26T10:24:38Z</time>
      </trkpt>
      <trkpt lat="47.59137" lon="3.75582">
        <ele>189.04</ele>
        <time>2015-04-26T10:24:55Z</time>
      </trkpt>
      <trkpt lat="47.59123" lon="3.75551">
        <ele>189.52</ele>
        <time>2015-04-26T10:25:11Z</time>
      </trkpt>
      <trkpt lat="47.59112" lon="3.75517">
        <ele>190</ele>
        <time>2015-04-26T10:25:27Z</time>
      </trkpt>
      <trkpt lat="47.59106" lon="3.75487">
        <ele>190.48</ele>
        <time>2015-04-26T10:25:41Z</time>
      </trkpt>
      <trkpt lat="47.591" lon="3.75451">
        <ele>190</ele>
        <time>2015-04-26T10:25:56Z</time>
      </trkpt>
      <trkpt lat="47.59095" lon="3.75413">
        <ele>190</ele>
        <time>2015-04-26T10:26:11Z</time>
      </trkpt>
      <trkpt lat="47.59096" lon="3.75385">
        <ele>190</ele>
        <time>2015-04-26T10:26:23Z</time>
      </trkpt>
      <trkpt lat="47.59099" lon="3.75356">
        <ele>190.48</ele>
        <time>2015-04-26T10:26:37Z</time>
      </trkpt>
      <trkpt lat="47.59092" lon="3.75326">
        <ele>191.92</ele>
        <time>2015-04-26T10:26:52Z</time>
      </trkpt>
      <trkpt lat="47.59087" lon="3.75326">
        <ele>192.4</ele>
        <time>2015-04-26T10:26:56Z</time>
      </trkpt>
      <trkpt lat="47.59083" lon="3.75326">
        <ele>192.88</ele>
        <time>2015-04-26T10:27:03Z</time>
      </trkpt>
      <trkpt lat="47.59073" lon="3.7533">
        <ele>193.36</ele>
        <time>2015-04-26T10:27:12Z</time>
      </trkpt>
      <trkpt lat="47.59063" lon="3.75332">
        <ele>193.84</ele>
        <time>2015-04-26T10:27:25Z</time>
      </trkpt>
      <trkpt lat="47.59063" lon="3.75332">
        <ele>193.36</ele>
        <time>2015-04-26T10:27:38Z</time>
      </trkpt>
      <trkpt lat="47.59063" lon="3.75332">
        <ele>193.84</ele>
        <time>2015-04-26T10:27:55Z</time>
      </trkpt>
      <trkpt lat="47.59063" lon="3.75332">
        <ele>193.36</ele>
        <time>2015-04-26T10:28:03Z</time>
      </trkpt>
      <trkpt lat="47.59059" lon="3.75331">
        <ele>193.36</ele>
        <time>2015-04-26T10:28:05Z</time>
      </trkpt>
      <trkpt lat="47.59035" lon="3.75335">
        <ele>194.32</ele>
        <time>2015-04-26T10:28:18Z</time>
      </trkpt>
      <trkpt lat="47.59013" lon="3.75339">
        <ele>194.32</ele>
        <time>2015-04-26T10:28:31Z</time>
      </trkpt>
      <trkpt lat="47.5899" lon="3.7535">
        <ele>193.84</ele>
        <time>2015-04-26T10:28:47Z</time>
      </trkpt>
      <trkpt lat="47.58974" lon="3.75357">
        <ele>192.88</ele>
        <time>2015-04-26T10:28:59Z</time>
      </trkpt>
      <trkpt lat="47.58944" lon="3.75372">
        <ele>192.88</ele>
        <time>2015-04-26T10:29:17Z</time>
      </trkpt>
      <trkpt lat="47.58927" lon="3.75377">
        <ele>192.4</ele>
        <time>2015-04-26T10:29:30Z</time>
      </trkpt>
      <trkpt lat="47.58926" lon="3.75377">
        <ele>192.4</ele>
        <time>2015-04-26T10:29:31Z</time>
      </trkpt>
      <trkpt lat="47.58924" lon="3.75376">
        <ele>192.4</ele>
        <time>2015-04-26T10:29:33Z</time>
      </trkpt>
      <trkpt lat="47.58908" lon="3.75375">
        <ele>191.44</ele>
        <time>2015-04-26T10:29:44Z</time>
      </trkpt>
      <trkpt lat="47.58881" lon="3.75375">
        <ele>191.44</ele>
        <time>2015-04-26T10:29:59Z</time>
      </trkpt>
      <trkpt lat="47.58859" lon="3.75376">
        <ele>191.44</ele>
        <time>2015-04-26T10:30:14Z</time>
      </trkpt>
      <trkpt lat="47.58844" lon="3.75374">
        <ele>191.44</ele>
        <time>2015-04-26T10:30:26Z</time>
      </trkpt>
      <trkpt lat="47.58841" lon="3.75372">
        <ele>190.96</ele>
        <time>2015-04-26T10:30:29Z</time>
      </trkpt>
      <trkpt lat="47.58835" lon="3.75368">
        <ele>190.96</ele>
        <time>2015-04-26T10:30:33Z</time>
      </trkpt>
      <trkpt lat="47.58826" lon="3.75364">
        <ele>190.96</ele>
        <time>2015-04-26T10:30:41Z</time>
      </trkpt>
      <trkpt lat="47.58823" lon="3.75365">
        <ele>191.44</ele>
        <time>2015-04-26T10:30:44Z</time>
      </trkpt>
      <trkpt lat="47.58806" lon="3.7537">
        <ele>193.36</ele>
        <time>2015-04-26T10:30:57Z</time>
      </trkpt>
      <trkpt lat="47.58791" lon="3.75377">
        <ele>196.25</ele>
        <time>2015-04-26T10:31:10Z</time>
      </trkpt>
      <trkpt lat="47.58782" lon="3.75383">
        <ele>198.65</ele>
        <time>2015-04-26T10:31:24Z</time>
      </trkpt>
      <trkpt lat="47.58771" lon="3.75395">
        <ele>201.53</ele>
        <time>2015-04-26T10:31:36Z</time>
      </trkpt>
      <trkpt lat="47.58755" lon="3.75408">
        <ele>204.42</ele>
        <time>2015-04-26T10:31:50Z</time>
      </trkpt>
      <trkpt lat="47.58745" lon="3.75424">
        <ele>206.82</ele>
        <time>2015-04-26T10:32:02Z</time>
      </trkpt>
      <trkpt lat="47.5874" lon="3.75435">
        <ele>209.7</ele>
        <time>2015-04-26T10:32:16Z</time>
      </trkpt>
      <trkpt lat="47.58734" lon="3.7544">
        <ele>212.11</ele>
        <time>2015-04-26T10:32:28Z</time>
      </trkpt>
      <trkpt lat="47.58719" lon="3.7545">
        <ele>214.99</ele>
        <time>2015-04-26T10:32:42Z</time>
      </trkpt>
      <trkpt lat="47.58717" lon="3.75452">
        <ele>215.47</ele>
        <time>2015-04-26T10:32:43Z</time>
      </trkpt>
      <trkpt lat="47.58703" lon="3.75455">
        <ele>217.88</ele>
        <time>2015-04-26T10:32:58Z</time>
      </trkpt>
      <trkpt lat="47.58687" lon="3.75455">
        <ele>219.8</ele>
        <time>2015-04-26T10:33:13Z</time>
      </trkpt>
      <trkpt lat="47.58673" lon="3.75456">
        <ele>222.2</ele>
        <time>2015-04-26T10:33:27Z</time>
      </trkpt>
      <trkpt lat="47.58654" lon="3.75452">
        <ele>224.12</ele>
        <time>2015-04-26T10:33:40Z</time>
      </trkpt>
      <trkpt lat="47.58648" lon="3.75451">
        <ele>225.09</ele>
        <time>2015-04-26T10:33:46Z</time>
      </trkpt>
      <trkpt lat="47.58639" lon="3.75451">
        <ele>226.05</ele>
        <time>2015-04-26T10:33:54Z</time>
      </trkpt>
      <trkpt lat="47.58631" lon="3.75451">
        <ele>226.53</ele>
        <time>2015-04-26T10:34:01Z</time>
      </trkpt>
      <trkpt lat="47.58608" lon="3.75442">
        <ele>227.97</ele>
        <time>2015-04-26T10:34:16Z</time>
      </trkpt>
      <trkpt lat="47.58602" lon="3.75443">
        <ele>228.45</ele>
        <time>2015-04-26T10:34:21Z</time>
      </trkpt>
      <trkpt lat="47.58598" lon="3.75442">
        <ele>228.45</ele>
        <time>2015-04-26T10:34:24Z</time>
      </trkpt>
      <trkpt lat="47.58582" lon="3.7544">
        <ele>229.41</ele>
        <time>2015-04-26T10:34:39Z</time>
      </trkpt>
      <trkpt lat="47.58562" lon="3.75434">
        <ele>230.85</ele>
        <time>2015-04-26T10:34:53Z</time>
      </trkpt>
      <trkpt lat="47.58558" lon="3.75432">
        <ele>231.33</ele>
        <time>2015-04-26T10:34:56Z</time>
      </trkpt>
      <trkpt lat="47.58546" lon="3.75429">
        <ele>232.3</ele>
        <time>2015-04-26T10:35:07Z</time>
      </trkpt>
      <trkpt lat="47.58525" lon="3.75424">
        <ele>232.78</ele>
        <time>2015-04-26T10:35:20Z</time>
      </trkpt>
      <trkpt lat="47.58504" lon="3.75416">
        <ele>232.3</ele>
        <time>2015-04-26T10:35:35Z</time>
      </trkpt>
      <trkpt lat="47.58503" lon="3.75416">
        <ele>232.3</ele>
        <time>2015-04-26T10:35:36Z</time>
      </trkpt>
      <trkpt lat="47.58482" lon="3.75417">
        <ele>232.3</ele>
        <time>2015-04-26T10:35:50Z</time>
      </trkpt>
      <trkpt lat="47.5848" lon="3.75417">
        <ele>232.3</ele>
        <time>2015-04-26T10:35:51Z</time>
      </trkpt>
      <trkpt lat="47.58457" lon="3.75417">
        <ele>232.3</ele>
        <time>2015-04-26T10:36:07Z</time>
      </trkpt>
      <trkpt lat="47.58446" lon="3.75417">
        <ele>231.81</ele>
        <time>2015-04-26T10:36:13Z</time>
      </trkpt>
      <trkpt lat="47.58439" lon="3.75417">
        <ele>231.81</ele>
        <time>2015-04-26T10:36:17Z</time>
      </trkpt>
      <trkpt lat="47.58416" lon="3.75419">
        <ele>231.81</ele>
        <time>2015-04-26T10:36:33Z</time>
      </trkpt>
      <trkpt lat="47.58398" lon="3.75416">
        <ele>231.33</ele>
        <time>2015-04-26T10:36:49Z</time>
      </trkpt>
      <trkpt lat="47.58379" lon="3.75422">
        <ele>231.81</ele>
        <time>2015-04-26T10:37:06Z</time>
      </trkpt>
      <trkpt lat="47.58374" lon="3.75424">
        <ele>231.33</ele>
        <time>2015-04-26T10:37:11Z</time>
      </trkpt>
      <trkpt lat="47.58371" lon="3.75429">
        <ele>230.85</ele>
        <time>2015-04-26T10:37:14Z</time>
      </trkpt>
      <trkpt lat="47.58352" lon="3.75459">
        <ele>230.85</ele>
        <time>2015-04-26T10:37:26Z</time>
      </trkpt>
      <trkpt lat="47.58331" lon="3.75494">
        <ele>229.89</ele>
        <time>2015-04-26T10:37:41Z</time>
      </trkpt>
      <trkpt lat="47.58317" lon="3.75519">
        <ele>229.41</ele>
        <time>2015-04-26T10:37:55Z</time>
      </trkpt>
      <trkpt lat="47.58309" lon="3.75546">
        <ele>228.93</ele>
        <time>2015-04-26T10:38:09Z</time>
      </trkpt>
      <trkpt lat="47.583" lon="3.75572">
        <ele>228.93</ele>
        <time>2015-04-26T10:38:23Z</time>
      </trkpt>
      <trkpt lat="47.58294" lon="3.75589">
        <ele>229.41</ele>
        <time>2015-04-26T10:38:39Z</time>
      </trkpt>
      <trkpt lat="47.58293" lon="3.75591">
        <ele>229.89</ele>
        <time>2015-04-26T10:38:42Z</time>
      </trkpt>
      <trkpt lat="47.58292" lon="3.75594">
        <ele>229.89</ele>
        <time>2015-04-26T10:38:45Z</time>
      </trkpt>
      <trkpt lat="47.58275" lon="3.75623">
        <ele>229.89</ele>
        <time>2015-04-26T10:39:00Z</time>
      </trkpt>
      <trkpt lat="47.58256" lon="3.75646">
        <ele>227.97</ele>
        <time>2015-04-26T10:39:16Z</time>
      </trkpt>
      <trkpt lat="47.5824" lon="3.75666">
        <ele>226.05</ele>
        <time>2015-04-26T10:39:31Z</time>
      </trkpt>
      <trkpt lat="47.58226" lon="3.7568">
        <ele>224.12</ele>
        <time>2015-04-26T10:39:41Z</time>
      </trkpt>
      <trkpt lat="47.58217" lon="3.75693">
        <ele>223.64</ele>
        <time>2015-04-26T10:39:48Z</time>
      </trkpt>
      <trkpt lat="47.582" lon="3.75716">
        <ele>221.24</ele>
        <time>2015-04-26T10:39:58Z</time>
      </trkpt>
      <trkpt lat="47.5818" lon="3.75739">
        <ele>219.32</ele>
        <time>2015-04-26T10:40:12Z</time>
      </trkpt>
      <trkpt lat="47.58164" lon="3.75758">
        <ele>217.88</ele>
        <time>2015-04-26T10:40:25Z</time>
      </trkpt>
      <trkpt lat="47.58157" lon="3.75769">
        <ele>216.43</ele>
        <time>2015-04-26T10:40:39Z</time>
      </trkpt>
      <trkpt lat="47.58147" lon="3.75787">
        <ele>214.99</ele>
        <time>2015-04-26T10:40:55Z</time>
      </trkpt>
      <trkpt lat="47.58146" lon="3.7579">
        <ele>215.47</ele>
        <time>2015-04-26T10:40:57Z</time>
      </trkpt>
      <trkpt lat="47.58125" lon="3.7583">
        <ele>214.99</ele>
        <time>2015-04-26T10:41:13Z</time>
      </trkpt>
      <trkpt lat="47.5812" lon="3.75841">
        <ele>213.55</ele>
        <time>2015-04-26T10:41:20Z</time>
      </trkpt>
      <trkpt lat="47.58118" lon="3.75846">
        <ele>213.55</ele>
        <time>2015-04-26T10:41:23Z</time>
      </trkpt>
      <trkpt lat="47.58115" lon="3.75874">
        <ele>213.55</ele>
        <time>2015-04-26T10:41:34Z</time>
      </trkpt>
      <trkpt lat="47.58113" lon="3.75889">
        <ele>212.59</ele>
        <time>2015-04-26T10:41:38Z</time>
      </trkpt>
      <trkpt lat="47.58098" lon="3.75939">
        <ele>211.15</ele>
        <time>2015-04-26T10:41:52Z</time>
      </trkpt>
      <trkpt lat="47.58096" lon="3.7596">
        <ele>210.67</ele>
        <time>2015-04-26T10:42:03Z</time>
      </trkpt>
      <trkpt lat="47.58099" lon="3.75973">
        <ele>210.19</ele>
        <time>2015-04-26T10:42:13Z</time>
      </trkpt>
      <trkpt lat="47.58092" lon="3.76008">
        <ele>210.19</ele>
        <time>2015-04-26T10:42:26Z</time>
      </trkpt>
      <trkpt lat="47.58086" lon="3.76042">
        <ele>209.7</ele>
        <time>2015-04-26T10:42:39Z</time>
      </trkpt>
      <trkpt lat="47.58086" lon="3.76066">
        <ele>208.74</ele>
        <time>2015-04-26T10:42:53Z</time>
      </trkpt>
      <trkpt lat="47.58083" lon="3.76093">
        <ele>208.74</ele>
        <time>2015-04-26T10:43:05Z</time>
      </trkpt>
      <trkpt lat="47.58075" lon="3.76134">
        <ele>207.3</ele>
        <time>2015-04-26T10:43:19Z</time>
      </trkpt>
      <trkpt lat="47.58075" lon="3.7614">
        <ele>206.34</ele>
        <time>2015-04-26T10:43:22Z</time>
      </trkpt>
      <trkpt lat="47.58077" lon="3.76168">
        <ele>204.42</ele>
        <time>2015-04-26T10:43:37Z</time>
      </trkpt>
      <trkpt lat="47.58077" lon="3.76177">
        <ele>204.42</ele>
        <time>2015-04-26T10:43:43Z</time>
      </trkpt>
      <trkpt lat="47.58075" lon="3.76206">
        <ele>202.98</ele>
        <time>2015-04-26T10:43:55Z</time>
      </trkpt>
      <trkpt lat="47.5807" lon="3.76247">
        <ele>201.05</ele>
        <time>2015-04-26T10:44:08Z</time>
      </trkpt>
      <trkpt lat="47.5807" lon="3.76272">
        <ele>198.17</ele>
        <time>2015-04-26T10:44:23Z</time>
      </trkpt>
      <trkpt lat="47.58069" lon="3.76275">
        <ele>197.69</ele>
        <time>2015-04-26T10:44:25Z</time>
      </trkpt>
      <trkpt lat="47.58057" lon="3.76294">
        <ele>196.73</ele>
        <time>2015-04-26T10:44:34Z</time>
      </trkpt>
      <trkpt lat="47.58048" lon="3.76306">
        <ele>194.8</ele>
        <time>2015-04-26T10:44:41Z</time>
      </trkpt>
      <trkpt lat="47.5802" lon="3.76316">
        <ele>193.36</ele>
        <time>2015-04-26T10:44:56Z</time>
      </trkpt>
      <trkpt lat="47.58019" lon="3.76315">
        <ele>192.88</ele>
        <time>2015-04-26T10:44:57Z</time>
      </trkpt>
      <trkpt lat="47.58006" lon="3.76308">
        <ele>192.4</ele>
        <time>2015-04-26T10:45:04Z</time>
      </trkpt>
      <trkpt lat="47.57983" lon="3.76301">
        <ele>192.4</ele>
        <time>2015-04-26T10:45:18Z</time>
      </trkpt>
      <trkpt lat="47.57977" lon="3.76324">
        <ele>193.84</ele>
        <time>2015-04-26T10:45:33Z</time>
      </trkpt>
      <trkpt lat="47.57981" lon="3.76351">
        <ele>192.88</ele>
        <time>2015-04-26T10:45:50Z</time>
      </trkpt>
      <trkpt lat="47.57984" lon="3.76364">
        <ele>192.4</ele>
        <time>2015-04-26T10:45:58Z</time>
      </trkpt>
      <trkpt lat="47.57989" lon="3.76376">
        <ele>191.92</ele>
        <time>2015-04-26T10:46:07Z</time>
      </trkpt>
      <trkpt lat="47.57991" lon="3.76379">
        <ele>191.92</ele>
        <time>2015-04-26T10:46:09Z</time>
      </trkpt>
      <trkpt lat="47.58" lon="3.76394">
        <ele>190.48</ele>
        <time>2015-04-26T10:46:20Z</time>
      </trkpt>
      <trkpt lat="47.58006" lon="3.76404">
        <ele>190</ele>
        <time>2015-04-26T10:46:26Z</time>
      </trkpt>
      <trkpt lat="47.58006" lon="3.76408">
        <ele>190</ele>
        <time>2015-04-26T10:46:28Z</time>
      </trkpt>
      <trkpt lat="47.58013" lon="3.76448">
        <ele>188.08</ele>
        <time>2015-04-26T10:46:43Z</time>
      </trkpt>
      <trkpt lat="47.58019" lon="3.76472">
        <ele>185.19</ele>
        <time>2015-04-26T10:46:55Z</time>
      </trkpt>
      <trkpt lat="47.58018" lon="3.76488">
        <ele>184.23</ele>
        <time>2015-04-26T10:47:02Z</time>
      </trkpt>
      <trkpt lat="47.58018" lon="3.76493">
        <ele>184.23</ele>
        <time>2015-04-26T10:47:04Z</time>
      </trkpt>
      <trkpt lat="47.58021" lon="3.76523">
        <ele>181.35</ele>
        <time>2015-04-26T10:47:18Z</time>
      </trkpt>
      <trkpt lat="47.58023" lon="3.76533">
        <ele>179.9</ele>
        <time>2015-04-26T10:47:23Z</time>
      </trkpt>
      <trkpt lat="47.58022" lon="3.76539">
        <ele>179.42</ele>
        <time>2015-04-26T10:47:25Z</time>
      </trkpt>
      <trkpt lat="47.58017" lon="3.76569">
        <ele>177.98</ele>
        <time>2015-04-26T10:47:37Z</time>
      </trkpt>
      <trkpt lat="47.58016" lon="3.76607">
        <ele>174.62</ele>
        <time>2015-04-26T10:47:52Z</time>
      </trkpt>
      <trkpt lat="47.5801" lon="3.76632">
        <ele>174.62</ele>
        <time>2015-04-26T10:47:57Z</time>
      </trkpt>
      <trkpt lat="47.58015" lon="3.76641">
        <ele>173.66</ele>
        <time>2015-04-26T10:48:03Z</time>
      </trkpt>
      <trkpt lat="47.58041" lon="3.76659">
        <ele>173.17</ele>
        <time>2015-04-26T10:48:22Z</time>
      </trkpt>
      <trkpt lat="47.58059" lon="3.7667">
        <ele>172.21</ele>
        <time>2015-04-26T10:48:36Z</time>
      </trkpt>
      <trkpt lat="47.58073" lon="3.76688">
        <ele>170.29</ele>
        <time>2015-04-26T10:48:48Z</time>
      </trkpt>
      <trkpt lat="47.58093" lon="3.7671">
        <ele>167.89</ele>
        <time>2015-04-26T10:49:04Z</time>
      </trkpt>
      <trkpt lat="47.58111" lon="3.76738">
        <ele>165</ele>
        <time>2015-04-26T10:49:19Z</time>
      </trkpt>
      <trkpt lat="47.5812" lon="3.76767">
        <ele>163.56</ele>
        <time>2015-04-26T10:49:33Z</time>
      </trkpt>
      <trkpt lat="47.58131" lon="3.76791">
        <ele>161.64</ele>
        <time>2015-04-26T10:49:47Z</time>
      </trkpt>
      <trkpt lat="47.58142" lon="3.76814">
        <ele>160.2</ele>
        <time>2015-04-26T10:50:00Z</time>
      </trkpt>
      <trkpt lat="47.58146" lon="3.76823">
        <ele>159.24</ele>
        <time>2015-04-26T10:50:05Z</time>
      </trkpt>
      <trkpt lat="47.58148" lon="3.76831">
        <ele>158.27</ele>
        <time>2015-04-26T10:50:09Z</time>
      </trkpt>
      <trkpt lat="47.58149" lon="3.76843">
        <ele>158.75</ele>
        <time>2015-04-26T10:50:15Z</time>
      </trkpt>
      <trkpt lat="47.58151" lon="3.76857">
        <ele>157.79</ele>
        <time>2015-04-26T10:50:21Z</time>
      </trkpt>
      <trkpt lat="47.58154" lon="3.76864">
        <ele>157.31</ele>
        <time>2015-04-26T10:50:25Z</time>
      </trkpt>
      <trkpt lat="47.58157" lon="3.76883">
        <ele>156.83</ele>
        <time>2015-04-26T10:50:33Z</time>
      </trkpt>
      <trkpt lat="47.58159" lon="3.76893">
        <ele>156.83</ele>
        <time>2015-04-26T10:50:37Z</time>
      </trkpt>
      <trkpt lat="47.58173" lon="3.76925">
        <ele>154.43</ele>
        <time>2015-04-26T10:50:51Z</time>
      </trkpt>
      <trkpt lat="47.58182" lon="3.76942">
        <ele>152.51</ele>
        <time>2015-04-26T10:51:03Z</time>
      </trkpt>
      <trkpt lat="47.58183" lon="3.76944">
        <ele>151.54</ele>
        <time>2015-04-26T10:51:06Z</time>
      </trkpt>
      <trkpt lat="47.58185" lon="3.76946">
        <ele>155.39</ele>
        <time>2015-04-26T10:51:08Z</time>
      </trkpt>
      <trkpt lat="47.58187" lon="3.76961">
        <ele>153.47</ele>
        <time>2015-04-26T10:51:15Z</time>
      </trkpt>
      <trkpt lat="47.58186" lon="3.76969">
        <ele>152.51</ele>
        <time>2015-04-26T10:51:19Z</time>
      </trkpt>
      <trkpt lat="47.58188" lon="3.76975">
        <ele>152.51</ele>
        <time>2015-04-26T10:51:21Z</time>
      </trkpt>
      <trkpt lat="47.58198" lon="3.7699">
        <ele>150.58</ele>
        <time>2015-04-26T10:51:28Z</time>
      </trkpt>
      <trkpt lat="47.58201" lon="3.76997">
        <ele>148.66</ele>
        <time>2015-04-26T10:51:32Z</time>
      </trkpt>
      <trkpt lat="47.58202" lon="3.76998">
        <ele>153.47</ele>
        <time>2015-04-26T10:51:33Z</time>
      </trkpt>
      <trkpt lat="47.58204" lon="3.76999">
        <ele>151.54</ele>
        <time>2015-04-26T10:51:34Z</time>
      </trkpt>
      <trkpt lat="47.58212" lon="3.77018">
        <ele>150.1</ele>
        <time>2015-04-26T10:51:44Z</time>
      </trkpt>
      <trkpt lat="47.58222" lon="3.77039">
        <ele>149.62</ele>
        <time>2015-04-26T10:51:54Z</time>
      </trkpt>
      <trkpt lat="47.58233" lon="3.77065">
        <ele>147.7</ele>
        <time>2015-04-26T10:52:09Z</time>
      </trkpt>
      <trkpt lat="47.58235" lon="3.77071">
        <ele>147.7</ele>
        <time>2015-04-26T10:52:13Z</time>
      </trkpt>
      <trkpt lat="47.58238" lon="3.77081">
        <ele>146.26</ele>
        <time>2015-04-26T10:52:17Z</time>
      </trkpt>
      <trkpt lat="47.5825" lon="3.77114">
        <ele>143.85</ele>
        <time>2015-04-26T10:52:32Z</time>
      </trkpt>
      <trkpt lat="47.58263" lon="3.77144">
        <ele>141.45</ele>
        <time>2015-04-26T10:52:49Z</time>
      </trkpt>
      <trkpt lat="47.58277" lon="3.77167">
        <ele>138.57</ele>
        <time>2015-04-26T10:53:02Z</time>
      </trkpt>
      <trkpt lat="47.58279" lon="3.77171">
        <ele>138.09</ele>
        <time>2015-04-26T10:53:05Z</time>
      </trkpt>
      <trkpt lat="47.58287" lon="3.77181">
        <ele>136.64</ele>
        <time>2015-04-26T10:53:12Z</time>
      </trkpt>
      <trkpt lat="47.58294" lon="3.77188">
        <ele>136.16</ele>
        <time>2015-04-26T10:53:17Z</time>
      </trkpt>
      <trkpt lat="47.58312" lon="3.77217">
        <ele>134.72</ele>
        <time>2015-04-26T10:53:34Z</time>
      </trkpt>
      <trkpt lat="47.58321" lon="3.7724">
        <ele>133.76</ele>
        <time>2015-04-26T10:53:46Z</time>
      </trkpt>
      <trkpt lat="47.58324" lon="3.77244">
        <ele>133.28</ele>
        <time>2015-04-26T10:53:49Z</time>
      </trkpt>
      <trkpt lat="47.58328" lon="3.77256">
        <ele>132.8</ele>
        <time>2015-04-26T10:53:54Z</time>
      </trkpt>
      <trkpt lat="47.58347" lon="3.77274">
        <ele>130.88</ele>
        <time>2015-04-26T10:54:10Z</time>
      </trkpt>
      <trkpt lat="47.58354" lon="3.77282">
        <ele>130.4</ele>
        <time>2015-04-26T10:54:17Z</time>
      </trkpt>
      <trkpt lat="47.58361" lon="3.77292">
        <ele>129.43</ele>
        <time>2015-04-26T10:54:24Z</time>
      </trkpt>
      <trkpt lat="47.58383" lon="3.77288">
        <ele>128.95</ele>
        <time>2015-04-26T10:54:38Z</time>
      </trkpt>
      <trkpt lat="47.58398" lon="3.77265">
        <ele>128.47</ele>
        <time>2015-04-26T10:54:53Z</time>
      </trkpt>
      <trkpt lat="47.58408" lon="3.77243">
        <ele>127.99</ele>
        <time>2015-04-26T10:55:05Z</time>
      </trkpt>
      <trkpt lat="47.58421" lon="3.77226">
        <ele>127.51</ele>
        <time>2015-04-26T10:55:17Z</time>
      </trkpt>
      <trkpt lat="47.58436" lon="3.77207">
        <ele>126.55</ele>
        <time>2015-04-26T10:55:30Z</time>
      </trkpt>
      <trkpt lat="47.58456" lon="3.77184">
        <ele>125.59</ele>
        <time>2015-04-26T10:55:47Z</time>
      </trkpt>
      <trkpt lat="47.58464" lon="3.77174">
        <ele>125.59</ele>
        <time>2015-04-26T10:55:54Z</time>
      </trkpt>
      <trkpt lat="47.58478" lon="3.77159">
        <ele>124.63</ele>
        <time>2015-04-26T10:56:06Z</time>
      </trkpt>
      <trkpt lat="47.58493" lon="3.77146">
        <ele>124.63</ele>
        <time>2015-04-26T10:56:18Z</time>
      </trkpt>
      <trkpt lat="47.585" lon="3.7714">
        <ele>124.15</ele>
        <time>2015-04-26T10:56:24Z</time>
      </trkpt>
      <trkpt lat="47.58504" lon="3.77136">
        <ele>124.15</ele>
        <time>2015-04-26T10:56:28Z</time>
      </trkpt>
      <trkpt lat="47.58512" lon="3.77132">
        <ele>123.67</ele>
        <time>2015-04-26T10:56:34Z</time>
      </trkpt>
      <trkpt lat="47.58539" lon="3.77115">
        <ele>123.19</ele>
        <time>2015-04-26T10:56:53Z</time>
      </trkpt>
      <trkpt lat="47.58565" lon="3.77103">
        <ele>123.19</ele>
        <time>2015-04-26T10:57:11Z</time>
      </trkpt>
      <trkpt lat="47.58582" lon="3.77097">
        <ele>123.19</ele>
        <time>2015-04-26T10:57:23Z</time>
      </trkpt>
      <trkpt lat="47.5859" lon="3.77094">
        <ele>122.71</ele>
        <time>2015-04-26T10:57:31Z</time>
      </trkpt>
      <trkpt lat="47.58596" lon="3.77106">
        <ele>122.71</ele>
        <time>2015-04-26T10:57:38Z</time>
      </trkpt>
      <trkpt lat="47.58595" lon="3.77135">
        <ele>122.22</ele>
        <time>2015-04-26T10:57:49Z</time>
      </trkpt>
      <trkpt lat="47.58592" lon="3.77156">
        <ele>122.71</ele>
        <time>2015-04-26T10:57:59Z</time>
      </trkpt>
      <trkpt lat="47.5859" lon="3.77163">
        <ele>122.71</ele>
        <time>2015-04-26T10:58:03Z</time>
      </trkpt>
      <trkpt lat="47.58589" lon="3.77183">
        <ele>123.67</ele>
        <time>2015-04-26T10:58:17Z</time>
      </trkpt>
      <trkpt lat="47.5859" lon="3.77185">
        <ele>123.67</ele>
        <time>2015-04-26T10:58:18Z</time>
      </trkpt>
      <trkpt lat="47.58588" lon="3.7719">
        <ele>124.15</ele>
        <time>2015-04-26T10:58:20Z</time>
      </trkpt>
      <trkpt lat="47.58588" lon="3.77201">
        <ele>123.67</ele>
        <time>2015-04-26T10:58:26Z</time>
      </trkpt>
      <trkpt lat="47.58586" lon="3.77214">
        <ele>123.67</ele>
        <time>2015-04-26T10:58:38Z</time>
      </trkpt>
      <trkpt lat="47.58585" lon="3.77225">
        <ele>123.67</ele>
        <time>2015-04-26T10:58:44Z</time>
      </trkpt>
      <trkpt lat="47.58576" lon="3.77254">
        <ele>124.15</ele>
        <time>2015-04-26T10:58:57Z</time>
      </trkpt>
      <trkpt lat="47.58574" lon="3.77258">
        <ele>124.15</ele>
        <time>2015-04-26T10:58:59Z</time>
      </trkpt>
      <trkpt lat="47.58572" lon="3.77265">
        <ele>124.15</ele>
        <time>2015-04-26T10:59:03Z</time>
      </trkpt>
      <trkpt lat="47.58571" lon="3.77269">
        <ele>124.15</ele>
        <time>2015-04-26T10:59:05Z</time>
      </trkpt>
      <trkpt lat="47.58561" lon="3.7729">
        <ele>124.63</ele>
        <time>2015-04-26T10:59:17Z</time>
      </trkpt>
      <trkpt lat="47.58556" lon="3.77298">
        <ele>124.15</ele>
        <time>2015-04-26T10:59:23Z</time>
      </trkpt>
      <trkpt lat="47.58554" lon="3.77303">
        <ele>124.15</ele>
        <time>2015-04-26T10:59:26Z</time>
      </trkpt>
      <trkpt lat="47.58547" lon="3.77315">
        <ele>124.63</ele>
        <time>2015-04-26T10:59:32Z</time>
      </trkpt>
      <trkpt lat="47.58546" lon="3.77319">
        <ele>124.63</ele>
        <time>2015-04-26T10:59:35Z</time>
      </trkpt>
      <trkpt lat="47.58542" lon="3.77329">
        <ele>124.15</ele>
        <time>2015-04-26T10:59:42Z</time>
      </trkpt>
      <trkpt lat="47.5853" lon="3.77349">
        <ele>124.15</ele>
        <time>2015-04-26T10:59:54Z</time>
      </trkpt>
      <trkpt lat="47.58519" lon="3.77364">
        <ele>123.67</ele>
        <time>2015-04-26T11:00:01Z</time>
      </trkpt>
      <trkpt lat="47.58516" lon="3.7737">
        <ele>124.15</ele>
        <time>2015-04-26T11:00:03Z</time>
      </trkpt>
      <trkpt lat="47.5851" lon="3.77378">
        <ele>124.15</ele>
        <time>2015-04-26T11:00:07Z</time>
      </trkpt>
      <trkpt lat="47.58499" lon="3.77391">
        <ele>124.15</ele>
        <time>2015-04-26T11:00:15Z</time>
      </trkpt>
      <trkpt lat="47.58497" lon="3.77394">
        <ele>124.15</ele>
        <time>2015-04-26T11:00:17Z</time>
      </trkpt>
      <trkpt lat="47.58493" lon="3.77397">
        <ele>124.15</ele>
        <time>2015-04-26T11:00:20Z</time>
      </trkpt>
      <trkpt lat="47.58466" lon="3.77434">
        <ele>124.15</ele>
        <time>2015-04-26T11:00:36Z</time>
      </trkpt>
      <trkpt lat="47.58453" lon="3.7745">
        <ele>125.11</ele>
        <time>2015-04-26T11:00:48Z</time>
      </trkpt>
      <trkpt lat="47.58451" lon="3.77453">
        <ele>124.63</ele>
        <time>2015-04-26T11:00:50Z</time>
      </trkpt>
      <trkpt lat="47.58438" lon="3.77469">
        <ele>124.63</ele>
        <time>2015-04-26T11:01:01Z</time>
      </trkpt>
      <trkpt lat="47.58431" lon="3.77475">
        <ele>124.63</ele>
        <time>2015-04-26T11:01:06Z</time>
      </trkpt>
      <trkpt lat="47.58415" lon="3.77497">
        <ele>125.11</ele>
        <time>2015-04-26T11:01:22Z</time>
      </trkpt>
      <trkpt lat="47.58399" lon="3.77514">
        <ele>125.59</ele>
        <time>2015-04-26T11:01:37Z</time>
      </trkpt>
      <trkpt lat="47.58379" lon="3.77527">
        <ele>125.11</ele>
        <time>2015-04-26T11:01:51Z</time>
      </trkpt>
      <trkpt lat="47.58353" lon="3.77535">
        <ele>124.63</ele>
        <time>2015-04-26T11:02:03Z</time>
      </trkpt>
      <trkpt lat="47.58335" lon="3.77539">
        <ele>124.63</ele>
        <time>2015-04-26T11:02:18Z</time>
      </trkpt>
      <trkpt lat="47.58327" lon="3.77543">
        <ele>124.15</ele>
        <time>2015-04-26T11:02:25Z</time>
      </trkpt>
      <trkpt lat="47.5831" lon="3.77546">
        <ele>123.67</ele>
        <time>2015-04-26T11:02:36Z</time>
      </trkpt>
      <trkpt lat="47.58282" lon="3.77551">
        <ele>124.15</ele>
        <time>2015-04-26T11:02:52Z</time>
      </trkpt>
      <trkpt lat="47.58277" lon="3.77552">
        <ele>123.67</ele>
        <time>2015-04-26T11:02:56Z</time>
      </trkpt>
      <trkpt lat="47.58261" lon="3.77554">
        <ele>123.67</ele>
        <time>2015-04-26T11:03:07Z</time>
      </trkpt>
      <trkpt lat="47.58253" lon="3.7756">
        <ele>123.67</ele>
        <time>2015-04-26T11:03:13Z</time>
      </trkpt>
      <trkpt lat="47.58233" lon="3.77571">
        <ele>123.19</ele>
        <time>2015-04-26T11:03:29Z</time>
      </trkpt>
      <trkpt lat="47.58213" lon="3.77586">
        <ele>123.19</ele>
        <time>2015-04-26T11:03:44Z</time>
      </trkpt>
      <trkpt lat="47.58191" lon="3.77604">
        <ele>123.19</ele>
        <time>2015-04-26T11:03:59Z</time>
      </trkpt>
      <trkpt lat="47.58185" lon="3.77609">
        <ele>123.19</ele>
        <time>2015-04-26T11:04:02Z</time>
      </trkpt>
      <trkpt lat="47.58159" lon="3.77624">
        <ele>123.67</ele>
        <time>2015-04-26T11:04:18Z</time>
      </trkpt>
      <trkpt lat="47.58135" lon="3.77633">
        <ele>124.15</ele>
        <time>2015-04-26T11:04:33Z</time>
      </trkpt>
      <trkpt lat="47.58118" lon="3.77638">
        <ele>124.15</ele>
        <time>2015-04-26T11:04:44Z</time>
      </trkpt>
      <trkpt lat="47.58089" lon="3.77641">
        <ele>123.67</ele>
        <time>2015-04-26T11:05:00Z</time>
      </trkpt>
      <trkpt lat="47.58069" lon="3.77641">
        <ele>124.15</ele>
        <time>2015-04-26T11:05:15Z</time>
      </trkpt>
      <trkpt lat="47.58038" lon="3.77645">
        <ele>124.15</ele>
        <time>2015-04-26T11:05:32Z</time>
      </trkpt>
      <trkpt lat="47.58004" lon="3.7764">
        <ele>124.63</ele>
        <time>2015-04-26T11:05:50Z</time>
      </trkpt>
      <trkpt lat="47.57984" lon="3.77639">
        <ele>125.11</ele>
        <time>2015-04-26T11:06:05Z</time>
      </trkpt>
      <trkpt lat="47.5796" lon="3.77647">
        <ele>125.11</ele>
        <time>2015-04-26T11:06:20Z</time>
      </trkpt>
      <trkpt lat="47.57951" lon="3.77652">
        <ele>125.11</ele>
        <time>2015-04-26T11:06:27Z</time>
      </trkpt>
      <trkpt lat="47.57938" lon="3.77657">
        <ele>125.11</ele>
        <time>2015-04-26T11:06:35Z</time>
      </trkpt>
      <trkpt lat="47.57917" lon="3.77669">
        <ele>125.11</ele>
        <time>2015-04-26T11:06:48Z</time>
      </trkpt>
      <trkpt lat="47.57895" lon="3.77682">
        <ele>125.59</ele>
        <time>2015-04-26T11:07:03Z</time>
      </trkpt>
      <trkpt lat="47.57881" lon="3.77692">
        <ele>125.59</ele>
        <time>2015-04-26T11:07:14Z</time>
      </trkpt>
      <trkpt lat="47.57858" lon="3.77719">
        <ele>125.11</ele>
        <time>2015-04-26T11:07:32Z</time>
      </trkpt>
      <trkpt lat="47.5784" lon="3.77737">
        <ele>125.11</ele>
        <time>2015-04-26T11:07:46Z</time>
      </trkpt>
      <trkpt lat="47.57826" lon="3.77749">
        <ele>125.11</ele>
        <time>2015-04-26T11:07:55Z</time>
      </trkpt>
      <trkpt lat="47.57807" lon="3.77764">
        <ele>125.11</ele>
        <time>2015-04-26T11:08:08Z</time>
      </trkpt>
      <trkpt lat="47.57784" lon="3.77774">
        <ele>125.59</ele>
        <time>2015-04-26T11:08:22Z</time>
      </trkpt>
      <trkpt lat="47.5778" lon="3.77775">
        <ele>125.59</ele>
        <time>2015-04-26T11:08:24Z</time>
      </trkpt>
      <trkpt lat="47.57774" lon="3.77773">
        <ele>125.59</ele>
        <time>2015-04-26T11:08:28Z</time>
      </trkpt>
      <trkpt lat="47.57753" lon="3.77773">
        <ele>125.11</ele>
        <time>2015-04-26T11:08:40Z</time>
      </trkpt>
      <trkpt lat="47.5775" lon="3.77773">
        <ele>125.11</ele>
        <time>2015-04-26T11:08:41Z</time>
      </trkpt>
      <trkpt lat="47.57742" lon="3.77776">
        <ele>125.59</ele>
        <time>2015-04-26T11:08:46Z</time>
      </trkpt>
      <trkpt lat="47.57719" lon="3.7778">
        <ele>125.59</ele>
        <time>2015-04-26T11:08:59Z</time>
      </trkpt>
      <trkpt lat="47.57715" lon="3.77779">
        <ele>126.07</ele>
        <time>2015-04-26T11:09:07Z</time>
      </trkpt>
      <trkpt lat="47.57712" lon="3.77781">
        <ele>126.07</ele>
        <time>2015-04-26T11:09:10Z</time>
      </trkpt>
      <trkpt lat="47.57694" lon="3.77784">
        <ele>126.07</ele>
        <time>2015-04-26T11:09:23Z</time>
      </trkpt>
      <trkpt lat="47.57672" lon="3.77782">
        <ele>126.55</ele>
        <time>2015-04-26T11:09:36Z</time>
      </trkpt>
      <trkpt lat="47.57654" lon="3.77769">
        <ele>127.51</ele>
        <time>2015-04-26T11:09:51Z</time>
      </trkpt>
      <trkpt lat="47.57634" lon="3.77756">
        <ele>127.99</ele>
        <time>2015-04-26T11:10:03Z</time>
      </trkpt>
      <trkpt lat="47.57616" lon="3.77725">
        <ele>127.99</ele>
        <time>2015-04-26T11:10:11Z</time>
      </trkpt>
      <trkpt lat="47.57615" lon="3.7772">
        <ele>128.47</ele>
        <time>2015-04-26T11:10:12Z</time>
      </trkpt>
      <trkpt lat="47.57614" lon="3.77715">
        <ele>128.47</ele>
        <time>2015-04-26T11:10:13Z</time>
      </trkpt>
      <trkpt lat="47.57617" lon="3.77704">
        <ele>128.47</ele>
        <time>2015-04-26T11:10:24Z</time>
      </trkpt>
      <trkpt lat="47.5762" lon="3.77705">
        <ele>127.99</ele>
        <time>2015-04-26T11:10:39Z</time>
      </trkpt>
      <trkpt lat="47.57619" lon="3.77716">
        <ele>128.47</ele>
        <time>2015-04-26T11:10:52Z</time>
      </trkpt>
      <trkpt lat="47.5762" lon="3.77718">
        <ele>128.47</ele>
        <time>2015-04-26T11:10:53Z</time>
      </trkpt>
      <trkpt lat="47.57618" lon="3.77725">
        <ele>128.95</ele>
        <time>2015-04-26T11:10:56Z</time>
      </trkpt>
      <trkpt lat="47.57618" lon="3.77727">
        <ele>128.95</ele>
        <time>2015-04-26T11:10:57Z</time>
      </trkpt>
      <trkpt lat="47.57614" lon="3.77745">
        <ele>128.95</ele>
        <time>2015-04-26T11:11:08Z</time>
      </trkpt>
      <trkpt lat="47.57613" lon="3.77746">
        <ele>128.95</ele>
        <time>2015-04-26T11:11:09Z</time>
      </trkpt>
      <trkpt lat="47.57609" lon="3.77748">
        <ele>128.95</ele>
        <time>2015-04-26T11:11:20Z</time>
      </trkpt>
      <trkpt lat="47.57609" lon="3.77745">
        <ele>128.95</ele>
        <time>2015-04-26T11:11:36Z</time>
      </trkpt>
      <trkpt lat="47.5761" lon="3.77744">
        <ele>129.43</ele>
        <time>2015-04-26T11:11:53Z</time>
      </trkpt>
      <trkpt lat="47.57611" lon="3.77745">
        <ele>129.43</ele>
        <time>2015-04-26T11:12:05Z</time>
      </trkpt>
      <trkpt lat="47.5761" lon="3.77745">
        <ele>129.92</ele>
        <time>2015-04-26T11:12:30Z</time>
      </trkpt>
      <trkpt lat="47.5761" lon="3.77743">
        <ele>128.95</ele>
        <time>2015-04-26T11:12:49Z</time>
      </trkpt>
      <trkpt lat="47.57609" lon="3.77745">
        <ele>129.43</ele>
        <time>2015-04-26T11:13:04Z</time>
      </trkpt>
      <trkpt lat="47.57608" lon="3.77746">
        <ele>129.43</ele>
        <time>2015-04-26T11:13:22Z</time>
      </trkpt>
      <trkpt lat="47.57608" lon="3.77746">
        <ele>129.43</ele>
        <time>2015-04-26T11:13:36Z</time>
      </trkpt>
      <trkpt lat="47.57608" lon="3.77746">
        <ele>129.43</ele>
        <time>2015-04-26T11:13:52Z</time>
      </trkpt>
      <trkpt lat="47.57608" lon="3.77747">
        <ele>120.3</ele>
        <time>2015-04-26T11:14:02Z</time>
      </trkpt>
      <trkpt lat="47.57608" lon="3.77747">
        <ele>132.32</ele>
        <time>2015-04-26T11:14:03Z</time>
      </trkpt>
      <trkpt lat="47.57608" lon="3.77747">
        <ele>130.88</ele>
        <time>2015-04-26T11:14:06Z</time>
      </trkpt>
      <trkpt lat="47.57607" lon="3.77748">
        <ele>129.43</ele>
        <time>2015-04-26T11:14:30Z</time>
      </trkpt>
      <trkpt lat="47.57607" lon="3.77748">
        <ele>129.92</ele>
        <time>2015-04-26T11:14:54Z</time>
      </trkpt>
      <trkpt lat="47.57607" lon="3.77748">
        <ele>122.22</ele>
        <time>2015-04-26T11:15:09Z</time>
      </trkpt>
      <trkpt lat="47.57607" lon="3.77748">
        <ele>130.88</ele>
        <time>2015-04-26T11:15:10Z</time>
      </trkpt>
      <trkpt lat="47.57607" lon="3.77748">
        <ele>135.68</ele>
        <time>2015-04-26T11:15:11Z</time>
      </trkpt>
      <trkpt lat="47.57607" lon="3.77748">
        <ele>130.88</ele>
        <time>2015-04-26T11:15:12Z</time>
      </trkpt>
      <trkpt lat="47.57606" lon="3.77748">
        <ele>129.92</ele>
        <time>2015-04-26T11:15:14Z</time>
      </trkpt>
      <trkpt lat="47.57605" lon="3.77749">
        <ele>129.92</ele>
        <time>2015-04-26T11:15:31Z</time>
      </trkpt>
      <trkpt lat="47.57605" lon="3.77749">
        <ele>130.4</ele>
        <time>2015-04-26T11:15:59Z</time>
      </trkpt>
      <trkpt lat="47.57606" lon="3.77751">
        <ele>129.92</ele>
        <time>2015-04-26T11:16:17Z</time>
      </trkpt>
      <trkpt lat="47.57608" lon="3.77751">
        <ele>129.92</ele>
        <time>2015-04-26T11:16:22Z</time>
      </trkpt>
      <trkpt lat="47.57611" lon="3.77751">
        <ele>129.92</ele>
        <time>2015-04-26T11:16:25Z</time>
      </trkpt>
      <trkpt lat="47.57614" lon="3.7775">
        <ele>129.92</ele>
        <time>2015-04-26T11:16:29Z</time>
      </trkpt>
      <trkpt lat="47.57616" lon="3.77747">
        <ele>129.43</ele>
        <time>2015-04-26T11:16:39Z</time>
      </trkpt>
      <trkpt lat="47.57615" lon="3.77748">
        <ele>130.4</ele>
        <time>2015-04-26T11:16:51Z</time>
      </trkpt>
      <trkpt lat="47.57619" lon="3.77737">
        <ele>129.43</ele>
        <time>2015-04-26T11:17:03Z</time>
      </trkpt>
      <trkpt lat="47.57618" lon="3.77733">
        <ele>129.43</ele>
        <time>2015-04-26T11:17:05Z</time>
      </trkpt>
      <trkpt lat="47.57619" lon="3.77725">
        <ele>129.92</ele>
        <time>2015-04-26T11:17:11Z</time>
      </trkpt>
      <trkpt lat="47.57619" lon="3.77722">
        <ele>128.95</ele>
        <time>2015-04-26T11:17:12Z</time>
      </trkpt>
      <trkpt lat="47.57619" lon="3.7772">
        <ele>129.43</ele>
        <time>2015-04-26T11:17:13Z</time>
      </trkpt>
      <trkpt lat="47.57618" lon="3.77718">
        <ele>129.43</ele>
        <time>2015-04-26T11:17:14Z</time>
      </trkpt>
      <trkpt lat="47.57617" lon="3.77696">
        <ele>129.43</ele>
        <time>2015-04-26T11:17:25Z</time>
      </trkpt>
      <trkpt lat="47.57621" lon="3.77673">
        <ele>129.92</ele>
        <time>2015-04-26T11:17:37Z</time>
      </trkpt>
      <trkpt lat="47.57622" lon="3.7767">
        <ele>129.92</ele>
        <time>2015-04-26T11:17:39Z</time>
      </trkpt>
      <trkpt lat="47.57632" lon="3.77655">
        <ele>129.92</ele>
        <time>2015-04-26T11:17:51Z</time>
      </trkpt>
      <trkpt lat="47.57633" lon="3.7765">
        <ele>129.43</ele>
        <time>2015-04-26T11:17:54Z</time>
      </trkpt>
      <trkpt lat="47.57642" lon="3.77624">
        <ele>129.43</ele>
        <time>2015-04-26T11:18:08Z</time>
      </trkpt>
      <trkpt lat="47.57657" lon="3.77617">
        <ele>129.43</ele>
        <time>2015-04-26T11:18:15Z</time>
      </trkpt>
      <trkpt lat="47.57661" lon="3.77613">
        <ele>129.92</ele>
        <time>2015-04-26T11:18:18Z</time>
      </trkpt>
      <trkpt lat="47.57661" lon="3.77611">
        <ele>129.92</ele>
        <time>2015-04-26T11:18:19Z</time>
      </trkpt>
      <trkpt lat="47.57663" lon="3.77608">
        <ele>129.92</ele>
        <time>2015-04-26T11:18:21Z</time>
      </trkpt>
      <trkpt lat="47.57665" lon="3.77607">
        <ele>129.43</ele>
        <time>2015-04-26T11:18:22Z</time>
      </trkpt>
      <trkpt lat="47.57671" lon="3.77598">
        <ele>129.92</ele>
        <time>2015-04-26T11:18:28Z</time>
      </trkpt>
      <trkpt lat="47.57672" lon="3.77596">
        <ele>129.43</ele>
        <time>2015-04-26T11:18:29Z</time>
      </trkpt>
      <trkpt lat="47.5768" lon="3.77575">
        <ele>130.4</ele>
        <time>2015-04-26T11:18:42Z</time>
      </trkpt>
      <trkpt lat="47.57679" lon="3.77571">
        <ele>129.92</ele>
        <time>2015-04-26T11:18:44Z</time>
      </trkpt>
      <trkpt lat="47.57678" lon="3.7757">
        <ele>130.4</ele>
        <time>2015-04-26T11:18:45Z</time>
      </trkpt>
      <trkpt lat="47.57677" lon="3.77568">
        <ele>130.4</ele>
        <time>2015-04-26T11:18:47Z</time>
      </trkpt>
      <trkpt lat="47.5767" lon="3.77565">
        <ele>130.4</ele>
        <time>2015-04-26T11:18:54Z</time>
      </trkpt>
      <trkpt lat="47.57669" lon="3.77566">
        <ele>130.88</ele>
        <time>2015-04-26T11:18:55Z</time>
      </trkpt>
      <trkpt lat="47.57667" lon="3.77567">
        <ele>130.4</ele>
        <time>2015-04-26T11:18:56Z</time>
      </trkpt>
      <trkpt lat="47.57666" lon="3.77568">
        <ele>130.4</ele>
        <time>2015-04-26T11:18:57Z</time>
      </trkpt>
      <trkpt lat="47.57665" lon="3.77568">
        <ele>129.92</ele>
        <time>2015-04-26T11:18:58Z</time>
      </trkpt>
      <trkpt lat="47.57663" lon="3.77568">
        <ele>129.92</ele>
        <time>2015-04-26T11:18:59Z</time>
      </trkpt>
      <trkpt lat="47.57662" lon="3.77568">
        <ele>130.4</ele>
        <time>2015-04-26T11:19:00Z</time>
      </trkpt>
      <trkpt lat="47.57644" lon="3.77571">
        <ele>129.43</ele>
        <time>2015-04-26T11:19:13Z</time>
      </trkpt>
      <trkpt lat="47.57628" lon="3.77569">
        <ele>129.43</ele>
        <time>2015-04-26T11:19:25Z</time>
      </trkpt>
      <trkpt lat="47.57626" lon="3.77569">
        <ele>129.43</ele>
        <time>2015-04-26T11:19:26Z</time>
      </trkpt>
      <trkpt lat="47.57625" lon="3.77569">
        <ele>129.43</ele>
        <time>2015-04-26T11:19:27Z</time>
      </trkpt>
      <trkpt lat="47.57624" lon="3.77569">
        <ele>129.43</ele>
        <time>2015-04-26T11:19:28Z</time>
      </trkpt>
      <trkpt lat="47.57603" lon="3.7757">
        <ele>130.4</ele>
        <time>2015-04-26T11:19:43Z</time>
      </trkpt>
      <trkpt lat="47.5759" lon="3.77568">
        <ele>130.88</ele>
        <time>2015-04-26T11:19:53Z</time>
      </trkpt>
      <trkpt lat="47.57584" lon="3.77568">
        <ele>130.4</ele>
        <time>2015-04-26T11:19:56Z</time>
      </trkpt>
      <trkpt lat="47.57582" lon="3.77568">
        <ele>130.4</ele>
        <time>2015-04-26T11:19:57Z</time>
      </trkpt>
      <trkpt lat="47.57581" lon="3.77568">
        <ele>130.88</ele>
        <time>2015-04-26T11:19:58Z</time>
      </trkpt>
      <trkpt lat="47.57579" lon="3.77568">
        <ele>130.4</ele>
        <time>2015-04-26T11:19:59Z</time>
      </trkpt>
      <trkpt lat="47.57578" lon="3.77568">
        <ele>130.88</ele>
        <time>2015-04-26T11:20:00Z</time>
      </trkpt>
      <trkpt lat="47.57558" lon="3.77568">
        <ele>130.4</ele>
        <time>2015-04-26T11:20:13Z</time>
      </trkpt>
      <trkpt lat="47.57538" lon="3.77574">
        <ele>130.4</ele>
        <time>2015-04-26T11:20:28Z</time>
      </trkpt>
      <trkpt lat="47.57515" lon="3.7758">
        <ele>131.36</ele>
        <time>2015-04-26T11:20:43Z</time>
      </trkpt>
      <trkpt lat="47.57491" lon="3.77586">
        <ele>131.36</ele>
        <time>2015-04-26T11:20:57Z</time>
      </trkpt>
      <trkpt lat="47.57472" lon="3.77591">
        <ele>131.84</ele>
        <time>2015-04-26T11:21:09Z</time>
      </trkpt>
      <trkpt lat="47.57451" lon="3.77598">
        <ele>132.32</ele>
        <time>2015-04-26T11:21:23Z</time>
      </trkpt>
      <trkpt lat="47.57448" lon="3.77598">
        <ele>132.32</ele>
        <time>2015-04-26T11:21:25Z</time>
      </trkpt>
      <trkpt lat="47.57447" lon="3.77599">
        <ele>132.32</ele>
        <time>2015-04-26T11:21:26Z</time>
      </trkpt>
      <trkpt lat="47.57445" lon="3.776">
        <ele>132.32</ele>
        <time>2015-04-26T11:21:27Z</time>
      </trkpt>
      <trkpt lat="47.57444" lon="3.77601">
        <ele>132.32</ele>
        <time>2015-04-26T11:21:28Z</time>
      </trkpt>
      <trkpt lat="47.57443" lon="3.77602">
        <ele>132.32</ele>
        <time>2015-04-26T11:21:29Z</time>
      </trkpt>
      <trkpt lat="47.57442" lon="3.77603">
        <ele>132.32</ele>
        <time>2015-04-26T11:21:30Z</time>
      </trkpt>
      <trkpt lat="47.57441" lon="3.77603">
        <ele>132.32</ele>
        <time>2015-04-26T11:21:31Z</time>
      </trkpt>
      <trkpt lat="47.57439" lon="3.77604">
        <ele>132.8</ele>
        <time>2015-04-26T11:21:32Z</time>
      </trkpt>
      <trkpt lat="47.57438" lon="3.77605">
        <ele>132.32</ele>
        <time>2015-04-26T11:21:33Z</time>
      </trkpt>
      <trkpt lat="47.57413" lon="3.77614">
        <ele>132.8</ele>
        <time>2015-04-26T11:21:48Z</time>
      </trkpt>
      <trkpt lat="47.57406" lon="3.77616">
        <ele>133.28</ele>
        <time>2015-04-26T11:21:54Z</time>
      </trkpt>
      <trkpt lat="47.57404" lon="3.77616">
        <ele>133.28</ele>
        <time>2015-04-26T11:21:55Z</time>
      </trkpt>
      <trkpt lat="47.57388" lon="3.77627">
        <ele>133.76</ele>
        <time>2015-04-26T11:22:09Z</time>
      </trkpt>
      <trkpt lat="47.57382" lon="3.77632">
        <ele>134.24</ele>
        <time>2015-04-26T11:22:18Z</time>
      </trkpt>
      <trkpt lat="47.5738" lon="3.77632">
        <ele>134.24</ele>
        <time>2015-04-26T11:22:19Z</time>
      </trkpt>
      <trkpt lat="47.57361" lon="3.77644">
        <ele>134.72</ele>
        <time>2015-04-26T11:22:33Z</time>
      </trkpt>
      <trkpt lat="47.57351" lon="3.77648">
        <ele>135.2</ele>
        <time>2015-04-26T11:22:41Z</time>
      </trkpt>
      <trkpt lat="47.5735" lon="3.77649">
        <ele>134.72</ele>
        <time>2015-04-26T11:22:42Z</time>
      </trkpt>
      <trkpt lat="47.57349" lon="3.7765">
        <ele>135.2</ele>
        <time>2015-04-26T11:22:43Z</time>
      </trkpt>
      <trkpt lat="47.57347" lon="3.7765">
        <ele>135.68</ele>
        <time>2015-04-26T11:22:44Z</time>
      </trkpt>
      <trkpt lat="47.57345" lon="3.77651">
        <ele>135.2</ele>
        <time>2015-04-26T11:22:45Z</time>
      </trkpt>
      <trkpt lat="47.57344" lon="3.77653">
        <ele>135.68</ele>
        <time>2015-04-26T11:22:46Z</time>
      </trkpt>
      <trkpt lat="47.5733" lon="3.77666">
        <ele>135.68</ele>
        <time>2015-04-26T11:22:59Z</time>
      </trkpt>
      <trkpt lat="47.57327" lon="3.77669">
        <ele>136.16</ele>
        <time>2015-04-26T11:23:02Z</time>
      </trkpt>
      <trkpt lat="47.57313" lon="3.77675">
        <ele>136.16</ele>
        <time>2015-04-26T11:23:12Z</time>
      </trkpt>
      <trkpt lat="47.57313" lon="3.77676">
        <ele>136.16</ele>
        <time>2015-04-26T11:23:13Z</time>
      </trkpt>
      <trkpt lat="47.5731" lon="3.7768">
        <ele>136.16</ele>
        <time>2015-04-26T11:23:16Z</time>
      </trkpt>
      <trkpt lat="47.57308" lon="3.7768">
        <ele>135.68</ele>
        <time>2015-04-26T11:23:17Z</time>
      </trkpt>
      <trkpt lat="47.57307" lon="3.77681">
        <ele>136.16</ele>
        <time>2015-04-26T11:23:18Z</time>
      </trkpt>
      <trkpt lat="47.57306" lon="3.77681">
        <ele>136.16</ele>
        <time>2015-04-26T11:23:19Z</time>
      </trkpt>
      <trkpt lat="47.57305" lon="3.77683">
        <ele>136.16</ele>
        <time>2015-04-26T11:23:20Z</time>
      </trkpt>
      <trkpt lat="47.57285" lon="3.77693">
        <ele>136.64</ele>
        <time>2015-04-26T11:23:34Z</time>
      </trkpt>
      <trkpt lat="47.57266" lon="3.77706">
        <ele>137.61</ele>
        <time>2015-04-26T11:23:48Z</time>
      </trkpt>
      <trkpt lat="47.5725" lon="3.7772">
        <ele>138.57</ele>
        <time>2015-04-26T11:24:02Z</time>
      </trkpt>
      <trkpt lat="47.57231" lon="3.77735">
        <ele>139.53</ele>
        <time>2015-04-26T11:24:17Z</time>
      </trkpt>
      <trkpt lat="47.5721" lon="3.77752">
        <ele>141.45</ele>
        <time>2015-04-26T11:24:33Z</time>
      </trkpt>
      <trkpt lat="47.57187" lon="3.77753">
        <ele>142.89</ele>
        <time>2015-04-26T11:24:50Z</time>
      </trkpt>
      <trkpt lat="47.57174" lon="3.77732">
        <ele>143.85</ele>
        <time>2015-04-26T11:25:03Z</time>
      </trkpt>
      <trkpt lat="47.57163" lon="3.77713">
        <ele>144.82</ele>
        <time>2015-04-26T11:25:15Z</time>
      </trkpt>
      <trkpt lat="47.57158" lon="3.77705">
        <ele>144.82</ele>
        <time>2015-04-26T11:25:21Z</time>
      </trkpt>
      <trkpt lat="47.57157" lon="3.77704">
        <ele>145.3</ele>
        <time>2015-04-26T11:25:22Z</time>
      </trkpt>
      <trkpt lat="47.57147" lon="3.77689">
        <ele>145.78</ele>
        <time>2015-04-26T11:25:32Z</time>
      </trkpt>
      <trkpt lat="47.57144" lon="3.77684">
        <ele>146.26</ele>
        <time>2015-04-26T11:25:37Z</time>
      </trkpt>
      <trkpt lat="47.57143" lon="3.77682">
        <ele>146.74</ele>
        <time>2015-04-26T11:25:38Z</time>
      </trkpt>
      <trkpt lat="47.57132" lon="3.77669">
        <ele>148.66</ele>
        <time>2015-04-26T11:25:50Z</time>
      </trkpt>
      <trkpt lat="47.57122" lon="3.77654">
        <ele>152.03</ele>
        <time>2015-04-26T11:26:03Z</time>
      </trkpt>
      <trkpt lat="47.57114" lon="3.77635">
        <ele>152.99</ele>
        <time>2015-04-26T11:26:16Z</time>
      </trkpt>
      <trkpt lat="47.57098" lon="3.7762">
        <ele>155.87</ele>
        <time>2015-04-26T11:26:30Z</time>
      </trkpt>
      <trkpt lat="47.57085" lon="3.77621">
        <ele>157.79</ele>
        <time>2015-04-26T11:26:43Z</time>
      </trkpt>
      <trkpt lat="47.57078" lon="3.77625">
        <ele>160.68</ele>
        <time>2015-04-26T11:26:54Z</time>
      </trkpt>
      <trkpt lat="47.57056" lon="3.77627">
        <ele>162.6</ele>
        <time>2015-04-26T11:27:07Z</time>
      </trkpt>
      <trkpt lat="47.57042" lon="3.77629">
        <ele>165.48</ele>
        <time>2015-04-26T11:27:22Z</time>
      </trkpt>
      <trkpt lat="47.57036" lon="3.77634">
        <ele>165.96</ele>
        <time>2015-04-26T11:27:28Z</time>
      </trkpt>
      <trkpt lat="47.57034" lon="3.77634">
        <ele>166.45</ele>
        <time>2015-04-26T11:27:29Z</time>
      </trkpt>
      <trkpt lat="47.57022" lon="3.77636">
        <ele>167.89</ele>
        <time>2015-04-26T11:27:37Z</time>
      </trkpt>
      <trkpt lat="47.5702" lon="3.77635">
        <ele>168.37</ele>
        <time>2015-04-26T11:27:39Z</time>
      </trkpt>
      <trkpt lat="47.57014" lon="3.77628">
        <ele>169.81</ele>
        <time>2015-04-26T11:27:46Z</time>
      </trkpt>
      <trkpt lat="47.57009" lon="3.77621">
        <ele>170.29</ele>
        <time>2015-04-26T11:27:52Z</time>
      </trkpt>
      <trkpt lat="47.57003" lon="3.77609">
        <ele>171.73</ele>
        <time>2015-04-26T11:28:02Z</time>
      </trkpt>
      <trkpt lat="47.57" lon="3.77598">
        <ele>173.17</ele>
        <time>2015-04-26T11:28:09Z</time>
      </trkpt>
      <trkpt lat="47.56998" lon="3.77587">
        <ele>174.62</ele>
        <time>2015-04-26T11:28:17Z</time>
      </trkpt>
      <trkpt lat="47.56998" lon="3.77578">
        <ele>175.1</ele>
        <time>2015-04-26T11:28:22Z</time>
      </trkpt>
      <trkpt lat="47.56998" lon="3.77576">
        <ele>176.06</ele>
        <time>2015-04-26T11:28:23Z</time>
      </trkpt>
      <trkpt lat="47.56996" lon="3.77571">
        <ele>176.54</ele>
        <time>2015-04-26T11:28:27Z</time>
      </trkpt>
      <trkpt lat="47.56994" lon="3.77557">
        <ele>177.98</ele>
        <time>2015-04-26T11:28:36Z</time>
      </trkpt>
      <trkpt lat="47.56994" lon="3.77535">
        <ele>178.94</ele>
        <time>2015-04-26T11:28:49Z</time>
      </trkpt>
      <trkpt lat="47.56993" lon="3.77533">
        <ele>179.42</ele>
        <time>2015-04-26T11:28:50Z</time>
      </trkpt>
      <trkpt lat="47.56992" lon="3.77524">
        <ele>180.38</ele>
        <time>2015-04-26T11:28:56Z</time>
      </trkpt>
      <trkpt lat="47.56991" lon="3.77504">
        <ele>181.35</ele>
        <time>2015-04-26T11:29:08Z</time>
      </trkpt>
      <trkpt lat="47.56991" lon="3.77499">
        <ele>181.83</ele>
        <time>2015-04-26T11:29:10Z</time>
      </trkpt>
      <trkpt lat="47.5699" lon="3.77496">
        <ele>182.31</ele>
        <time>2015-04-26T11:29:11Z</time>
      </trkpt>
      <trkpt lat="47.56989" lon="3.77471">
        <ele>184.23</ele>
        <time>2015-04-26T11:29:25Z</time>
      </trkpt>
      <trkpt lat="47.56991" lon="3.77463">
        <ele>184.71</ele>
        <time>2015-04-26T11:29:28Z</time>
      </trkpt>
      <trkpt lat="47.56989" lon="3.77445">
        <ele>186.63</ele>
        <time>2015-04-26T11:29:38Z</time>
      </trkpt>
      <trkpt lat="47.56985" lon="3.77431">
        <ele>187.11</ele>
        <time>2015-04-26T11:29:46Z</time>
      </trkpt>
      <trkpt lat="47.56978" lon="3.77402">
        <ele>189.52</ele>
        <time>2015-04-26T11:30:02Z</time>
      </trkpt>
      <trkpt lat="47.56971" lon="3.77383">
        <ele>191.92</ele>
        <time>2015-04-26T11:30:16Z</time>
      </trkpt>
      <trkpt lat="47.56968" lon="3.77364">
        <ele>193.36</ele>
        <time>2015-04-26T11:30:30Z</time>
      </trkpt>
      <trkpt lat="47.56959" lon="3.77344">
        <ele>196.25</ele>
        <time>2015-04-26T11:30:45Z</time>
      </trkpt>
      <trkpt lat="47.56952" lon="3.77323">
        <ele>198.65</ele>
        <time>2015-04-26T11:30:59Z</time>
      </trkpt>
      <trkpt lat="47.56941" lon="3.77297">
        <ele>200.57</ele>
        <time>2015-04-26T11:31:13Z</time>
      </trkpt>
      <trkpt lat="47.56937" lon="3.77281">
        <ele>200.57</ele>
        <time>2015-04-26T11:31:22Z</time>
      </trkpt>
      <trkpt lat="47.56939" lon="3.77253">
        <ele>201.05</ele>
        <time>2015-04-26T11:31:37Z</time>
      </trkpt>
      <trkpt lat="47.56939" lon="3.77251">
        <ele>200.57</ele>
        <time>2015-04-26T11:31:38Z</time>
      </trkpt>
      <trkpt lat="47.56939" lon="3.77249">
        <ele>200.57</ele>
        <time>2015-04-26T11:31:39Z</time>
      </trkpt>
      <trkpt lat="47.5694" lon="3.77247">
        <ele>200.57</ele>
        <time>2015-04-26T11:31:40Z</time>
      </trkpt>
      <trkpt lat="47.5694" lon="3.77236">
        <ele>200.09</ele>
        <time>2015-04-26T11:31:45Z</time>
      </trkpt>
      <trkpt lat="47.56943" lon="3.77214">
        <ele>200.09</ele>
        <time>2015-04-26T11:31:54Z</time>
      </trkpt>
      <trkpt lat="47.56943" lon="3.77212">
        <ele>200.09</ele>
        <time>2015-04-26T11:31:55Z</time>
      </trkpt>
      <trkpt lat="47.56944" lon="3.7721">
        <ele>200.09</ele>
        <time>2015-04-26T11:31:56Z</time>
      </trkpt>
      <trkpt lat="47.56946" lon="3.77193">
        <ele>199.61</ele>
        <time>2015-04-26T11:32:03Z</time>
      </trkpt>
      <trkpt lat="47.56945" lon="3.7719">
        <ele>199.61</ele>
        <time>2015-04-26T11:32:04Z</time>
      </trkpt>
      <trkpt lat="47.56944" lon="3.77188">
        <ele>199.13</ele>
        <time>2015-04-26T11:32:05Z</time>
      </trkpt>
      <trkpt lat="47.56945" lon="3.77177">
        <ele>199.61</ele>
        <time>2015-04-26T11:32:18Z</time>
      </trkpt>
      <trkpt lat="47.56947" lon="3.77171">
        <ele>199.13</ele>
        <time>2015-04-26T11:32:29Z</time>
      </trkpt>
      <trkpt lat="47.56948" lon="3.77141">
        <ele>199.61</ele>
        <time>2015-04-26T11:32:44Z</time>
      </trkpt>
      <trkpt lat="47.56946" lon="3.77133">
        <ele>200.09</ele>
        <time>2015-04-26T11:32:49Z</time>
      </trkpt>
      <trkpt lat="47.5694" lon="3.77117">
        <ele>201.05</ele>
        <time>2015-04-26T11:32:57Z</time>
      </trkpt>
      <trkpt lat="47.56938" lon="3.77101">
        <ele>202.98</ele>
        <time>2015-04-26T11:33:06Z</time>
      </trkpt>
      <trkpt lat="47.56946" lon="3.7707">
        <ele>203.46</ele>
        <time>2015-04-26T11:33:21Z</time>
      </trkpt>
      <trkpt lat="47.56955" lon="3.7705">
        <ele>202.49</ele>
        <time>2015-04-26T11:33:33Z</time>
      </trkpt>
      <trkpt lat="47.56959" lon="3.77046">
        <ele>202.01</ele>
        <time>2015-04-26T11:33:36Z</time>
      </trkpt>
      <trkpt lat="47.56966" lon="3.77028">
        <ele>202.01</ele>
        <time>2015-04-26T11:33:46Z</time>
      </trkpt>
      <trkpt lat="47.56967" lon="3.77009">
        <ele>201.53</ele>
        <time>2015-04-26T11:34:01Z</time>
      </trkpt>
      <trkpt lat="47.56967" lon="3.77009">
        <ele>195.28</ele>
        <time>2015-04-26T11:34:04Z</time>
      </trkpt>
      <trkpt lat="47.56967" lon="3.77008">
        <ele>207.78</ele>
        <time>2015-04-26T11:34:05Z</time>
      </trkpt>
      <trkpt lat="47.56967" lon="3.77008">
        <ele>207.78</ele>
        <time>2015-04-26T11:34:06Z</time>
      </trkpt>
      <trkpt lat="47.56966" lon="3.77008">
        <ele>200.57</ele>
        <time>2015-04-26T11:34:07Z</time>
      </trkpt>
      <trkpt lat="47.56967" lon="3.77008">
        <ele>201.53</ele>
        <time>2015-04-26T11:34:08Z</time>
      </trkpt>
      <trkpt lat="47.56967" lon="3.77007">
        <ele>202.49</ele>
        <time>2015-04-26T11:34:10Z</time>
      </trkpt>
      <trkpt lat="47.56967" lon="3.77007">
        <ele>201.53</ele>
        <time>2015-04-26T11:34:12Z</time>
      </trkpt>
      <trkpt lat="47.56967" lon="3.77007">
        <ele>199.13</ele>
        <time>2015-04-26T11:34:21Z</time>
      </trkpt>
      <trkpt lat="47.56967" lon="3.77007">
        <ele>202.49</ele>
        <time>2015-04-26T11:34:22Z</time>
      </trkpt>
      <trkpt lat="47.56967" lon="3.77007">
        <ele>201.05</ele>
        <time>2015-04-26T11:34:23Z</time>
      </trkpt>
      <trkpt lat="47.56968" lon="3.77008">
        <ele>200.09</ele>
        <time>2015-04-26T11:34:38Z</time>
      </trkpt>
      <trkpt lat="47.56968" lon="3.77008">
        <ele>203.94</ele>
        <time>2015-04-26T11:34:40Z</time>
      </trkpt>
      <trkpt lat="47.56968" lon="3.77008">
        <ele>203.94</ele>
        <time>2015-04-26T11:34:41Z</time>
      </trkpt>
      <trkpt lat="47.56968" lon="3.77008">
        <ele>201.05</ele>
        <time>2015-04-26T11:34:44Z</time>
      </trkpt>
      <trkpt lat="47.56969" lon="3.77008">
        <ele>202.98</ele>
        <time>2015-04-26T11:34:52Z</time>
      </trkpt>
      <trkpt lat="47.56969" lon="3.77003">
        <ele>202.98</ele>
        <time>2015-04-26T11:35:00Z</time>
      </trkpt>
      <trkpt lat="47.56971" lon="3.76992">
        <ele>202.98</ele>
        <time>2015-04-26T11:35:08Z</time>
      </trkpt>
      <trkpt lat="47.56972" lon="3.76986">
        <ele>200.09</ele>
        <time>2015-04-26T11:35:13Z</time>
      </trkpt>
      <trkpt lat="47.56972" lon="3.76985">
        <ele>206.34</ele>
        <time>2015-04-26T11:35:14Z</time>
      </trkpt>
      <trkpt lat="47.56974" lon="3.76976">
        <ele>203.94</ele>
        <time>2015-04-26T11:35:20Z</time>
      </trkpt>
      <trkpt lat="47.56957" lon="3.7695">
        <ele>206.82</ele>
        <time>2015-04-26T11:35:36Z</time>
      </trkpt>
      <trkpt lat="47.56937" lon="3.7693">
        <ele>208.74</ele>
        <time>2015-04-26T11:35:51Z</time>
      </trkpt>
      <trkpt lat="47.56923" lon="3.76911">
        <ele>209.7</ele>
        <time>2015-04-26T11:36:05Z</time>
      </trkpt>
      <trkpt lat="47.56907" lon="3.7689">
        <ele>209.7</ele>
        <time>2015-04-26T11:36:20Z</time>
      </trkpt>
      <trkpt lat="47.56894" lon="3.76871">
        <ele>208.74</ele>
        <time>2015-04-26T11:36:34Z</time>
      </trkpt>
      <trkpt lat="47.56881" lon="3.76846">
        <ele>205.86</ele>
        <time>2015-04-26T11:36:47Z</time>
      </trkpt>
      <trkpt lat="47.56874" lon="3.76827">
        <ele>205.38</ele>
        <time>2015-04-26T11:36:57Z</time>
      </trkpt>
      <trkpt lat="47.56873" lon="3.76822">
        <ele>204.9</ele>
        <time>2015-04-26T11:36:59Z</time>
      </trkpt>
      <trkpt lat="47.56871" lon="3.76813">
        <ele>203.94</ele>
        <time>2015-04-26T11:37:03Z</time>
      </trkpt>
      <trkpt lat="47.56858" lon="3.76792">
        <ele>201.05</ele>
        <time>2015-04-26T11:37:17Z</time>
      </trkpt>
      <trkpt lat="47.56849" lon="3.7678">
        <ele>200.09</ele>
        <time>2015-04-26T11:37:21Z</time>
      </trkpt>
      <trkpt lat="47.56839" lon="3.76774">
        <ele>196.73</ele>
        <time>2015-04-26T11:37:29Z</time>
      </trkpt>
      <trkpt lat="47.56834" lon="3.76772">
        <ele>194.8</ele>
        <time>2015-04-26T11:37:36Z</time>
      </trkpt>
      <trkpt lat="47.56818" lon="3.76769">
        <ele>190.96</ele>
        <time>2015-04-26T11:37:48Z</time>
      </trkpt>
      <trkpt lat="47.56807" lon="3.76764">
        <ele>187.59</ele>
        <time>2015-04-26T11:37:59Z</time>
      </trkpt>
      <trkpt lat="47.568" lon="3.7676">
        <ele>184.71</ele>
        <time>2015-04-26T11:38:08Z</time>
      </trkpt>
      <trkpt lat="47.56795" lon="3.76757">
        <ele>183.27</ele>
        <time>2015-04-26T11:38:12Z</time>
      </trkpt>
      <trkpt lat="47.56787" lon="3.76747">
        <ele>179.42</ele>
        <time>2015-04-26T11:38:23Z</time>
      </trkpt>
      <trkpt lat="47.56776" lon="3.76736">
        <ele>176.54</ele>
        <time>2015-04-26T11:38:33Z</time>
      </trkpt>
      <trkpt lat="47.56775" lon="3.76734">
        <ele>176.54</ele>
        <time>2015-04-26T11:38:34Z</time>
      </trkpt>
      <trkpt lat="47.5677" lon="3.76726">
        <ele>174.62</ele>
        <time>2015-04-26T11:38:38Z</time>
      </trkpt>
      <trkpt lat="47.56759" lon="3.76719">
        <ele>173.17</ele>
        <time>2015-04-26T11:38:44Z</time>
      </trkpt>
      <trkpt lat="47.56751" lon="3.76717">
        <ele>172.21</ele>
        <time>2015-04-26T11:38:47Z</time>
      </trkpt>
      <trkpt lat="47.56718" lon="3.76691">
        <ele>168.37</ele>
        <time>2015-04-26T11:38:59Z</time>
      </trkpt>
      <trkpt lat="47.56709" lon="3.76689">
        <ele>165.96</ele>
        <time>2015-04-26T11:39:06Z</time>
      </trkpt>
      <trkpt lat="47.56697" lon="3.7668">
        <ele>162.6</ele>
        <time>2015-04-26T11:39:18Z</time>
      </trkpt>
      <trkpt lat="47.56689" lon="3.76673">
        <ele>161.16</ele>
        <time>2015-04-26T11:39:22Z</time>
      </trkpt>
      <trkpt lat="47.56681" lon="3.7667">
        <ele>160.2</ele>
        <time>2015-04-26T11:39:26Z</time>
      </trkpt>
      <trkpt lat="47.56667" lon="3.76669">
        <ele>155.87</ele>
        <time>2015-04-26T11:39:37Z</time>
      </trkpt>
      <trkpt lat="47.56663" lon="3.76668">
        <ele>155.87</ele>
        <time>2015-04-26T11:39:39Z</time>
      </trkpt>
      <trkpt lat="47.56645" lon="3.76672">
        <ele>153.47</ele>
        <time>2015-04-26T11:39:50Z</time>
      </trkpt>
      <trkpt lat="47.56642" lon="3.7667">
        <ele>152.99</ele>
        <time>2015-04-26T11:39:57Z</time>
      </trkpt>
      <trkpt lat="47.56635" lon="3.76681">
        <ele>152.51</ele>
        <time>2015-04-26T11:40:05Z</time>
      </trkpt>
      <trkpt lat="47.56628" lon="3.76686">
        <ele>152.03</ele>
        <time>2015-04-26T11:40:10Z</time>
      </trkpt>
      <trkpt lat="47.56624" lon="3.76694">
        <ele>152.03</ele>
        <time>2015-04-26T11:40:15Z</time>
      </trkpt>
      <trkpt lat="47.56604" lon="3.76716">
        <ele>150.58</ele>
        <time>2015-04-26T11:40:30Z</time>
      </trkpt>
      <trkpt lat="47.56597" lon="3.76722">
        <ele>150.58</ele>
        <time>2015-04-26T11:40:36Z</time>
      </trkpt>
      <trkpt lat="47.56593" lon="3.76727">
        <ele>150.58</ele>
        <time>2015-04-26T11:40:40Z</time>
      </trkpt>
      <trkpt lat="47.56568" lon="3.76734">
        <ele>150.1</ele>
        <time>2015-04-26T11:40:57Z</time>
      </trkpt>
      <trkpt lat="47.56545" lon="3.76734">
        <ele>149.14</ele>
        <time>2015-04-26T11:41:12Z</time>
      </trkpt>
      <trkpt lat="47.5652" lon="3.76733">
        <ele>149.14</ele>
        <time>2015-04-26T11:41:29Z</time>
      </trkpt>
      <trkpt lat="47.56498" lon="3.76731">
        <ele>148.66</ele>
        <time>2015-04-26T11:41:45Z</time>
      </trkpt>
      <trkpt lat="47.56496" lon="3.76731">
        <ele>148.18</ele>
        <time>2015-04-26T11:41:47Z</time>
      </trkpt>
      <trkpt lat="47.56491" lon="3.76729">
        <ele>148.18</ele>
        <time>2015-04-26T11:41:50Z</time>
      </trkpt>
      <trkpt lat="47.56473" lon="3.76725">
        <ele>148.18</ele>
        <time>2015-04-26T11:42:01Z</time>
      </trkpt>
      <trkpt lat="47.56455" lon="3.76718">
        <ele>146.74</ele>
        <time>2015-04-26T11:42:14Z</time>
      </trkpt>
      <trkpt lat="47.56454" lon="3.76717">
        <ele>146.74</ele>
        <time>2015-04-26T11:42:15Z</time>
      </trkpt>
      <trkpt lat="47.56458" lon="3.76704">
        <ele>145.3</ele>
        <time>2015-04-26T11:42:25Z</time>
      </trkpt>
      <trkpt lat="47.5647" lon="3.76685">
        <ele>144.82</ele>
        <time>2015-04-26T11:42:37Z</time>
      </trkpt>
      <trkpt lat="47.56486" lon="3.76667">
        <ele>144.34</ele>
        <time>2015-04-26T11:42:49Z</time>
      </trkpt>
      <trkpt lat="47.56509" lon="3.76654">
        <ele>144.34</ele>
        <time>2015-04-26T11:43:02Z</time>
      </trkpt>
      <trkpt lat="47.56522" lon="3.76645">
        <ele>145.78</ele>
        <time>2015-04-26T11:43:12Z</time>
      </trkpt>
      <trkpt lat="47.56526" lon="3.76636">
        <ele>145.78</ele>
        <time>2015-04-26T11:43:18Z</time>
      </trkpt>
      <trkpt lat="47.56539" lon="3.76625">
        <ele>147.7</ele>
        <time>2015-04-26T11:43:30Z</time>
      </trkpt>
      <trkpt lat="47.56542" lon="3.76621">
        <ele>148.18</ele>
        <time>2015-04-26T11:43:33Z</time>
      </trkpt>
      <trkpt lat="47.56546" lon="3.76614">
        <ele>149.14</ele>
        <time>2015-04-26T11:43:37Z</time>
      </trkpt>
      <trkpt lat="47.56547" lon="3.76586">
        <ele>149.62</ele>
        <time>2015-04-26T11:43:50Z</time>
      </trkpt>
      <trkpt lat="47.56545" lon="3.76578">
        <ele>149.62</ele>
        <time>2015-04-26T11:43:54Z</time>
      </trkpt>
      <trkpt lat="47.56543" lon="3.76575">
        <ele>149.14</ele>
        <time>2015-04-26T11:43:56Z</time>
      </trkpt>
      <trkpt lat="47.5654" lon="3.76567">
        <ele>149.62</ele>
        <time>2015-04-26T11:44:01Z</time>
      </trkpt>
      <trkpt lat="47.56526" lon="3.7654">
        <ele>149.62</ele>
        <time>2015-04-26T11:44:15Z</time>
      </trkpt>
      <trkpt lat="47.5652" lon="3.76517">
        <ele>149.62</ele>
        <time>2015-04-26T11:44:27Z</time>
      </trkpt>
      <trkpt lat="47.56513" lon="3.76501">
        <ele>150.1</ele>
        <time>2015-04-26T11:44:38Z</time>
      </trkpt>
      <trkpt lat="47.56512" lon="3.76489">
        <ele>150.1</ele>
        <time>2015-04-26T11:44:43Z</time>
      </trkpt>
      <trkpt lat="47.56509" lon="3.76454">
        <ele>151.06</ele>
        <time>2015-04-26T11:44:56Z</time>
      </trkpt>
      <trkpt lat="47.56504" lon="3.76428">
        <ele>151.06</ele>
        <time>2015-04-26T11:45:10Z</time>
      </trkpt>
      <trkpt lat="47.56493" lon="3.76395">
        <ele>152.03</ele>
        <time>2015-04-26T11:45:25Z</time>
      </trkpt>
      <trkpt lat="47.56482" lon="3.76364">
        <ele>152.03</ele>
        <time>2015-04-26T11:45:38Z</time>
      </trkpt>
      <trkpt lat="47.56478" lon="3.76338">
        <ele>152.51</ele>
        <time>2015-04-26T11:45:50Z</time>
      </trkpt>
      <trkpt lat="47.56465" lon="3.76307">
        <ele>153.47</ele>
        <time>2015-04-26T11:46:06Z</time>
      </trkpt>
      <trkpt lat="47.5646" lon="3.76276">
        <ele>154.43</ele>
        <time>2015-04-26T11:46:21Z</time>
      </trkpt>
      <trkpt lat="47.56459" lon="3.76271">
        <ele>154.43</ele>
        <time>2015-04-26T11:46:23Z</time>
      </trkpt>
      <trkpt lat="47.56463" lon="3.76238">
        <ele>155.87</ele>
        <time>2015-04-26T11:46:39Z</time>
      </trkpt>
      <trkpt lat="47.56465" lon="3.76226">
        <ele>155.87</ele>
        <time>2015-04-26T11:46:44Z</time>
      </trkpt>
      <trkpt lat="47.56469" lon="3.76199">
        <ele>156.35</ele>
        <time>2015-04-26T11:46:57Z</time>
      </trkpt>
      <trkpt lat="47.56472" lon="3.76168">
        <ele>157.31</ele>
        <time>2015-04-26T11:47:11Z</time>
      </trkpt>
      <trkpt lat="47.56469" lon="3.76143">
        <ele>157.79</ele>
        <time>2015-04-26T11:47:27Z</time>
      </trkpt>
      <trkpt lat="47.56458" lon="3.76119">
        <ele>159.24</ele>
        <time>2015-04-26T11:47:40Z</time>
      </trkpt>
      <trkpt lat="47.56456" lon="3.76115">
        <ele>159.24</ele>
        <time>2015-04-26T11:47:42Z</time>
      </trkpt>
      <trkpt lat="47.56454" lon="3.76109">
        <ele>159.24</ele>
        <time>2015-04-26T11:47:45Z</time>
      </trkpt>
      <trkpt lat="47.56448" lon="3.761">
        <ele>159.24</ele>
        <time>2015-04-26T11:47:49Z</time>
      </trkpt>
      <trkpt lat="47.56439" lon="3.76086">
        <ele>159.72</ele>
        <time>2015-04-26T11:47:58Z</time>
      </trkpt>
      <trkpt lat="47.56432" lon="3.76073">
        <ele>160.2</ele>
        <time>2015-04-26T11:48:11Z</time>
      </trkpt>
      <trkpt lat="47.56426" lon="3.76062">
        <ele>160.68</ele>
        <time>2015-04-26T11:48:26Z</time>
      </trkpt>
      <trkpt lat="47.56424" lon="3.76058">
        <ele>161.64</ele>
        <time>2015-04-26T11:48:42Z</time>
      </trkpt>
      <trkpt lat="47.56415" lon="3.76049">
        <ele>162.6</ele>
        <time>2015-04-26T11:48:55Z</time>
      </trkpt>
      <trkpt lat="47.56372" lon="3.76022">
        <ele>163.56</ele>
        <time>2015-04-26T11:49:13Z</time>
      </trkpt>
      <trkpt lat="47.56368" lon="3.7602">
        <ele>163.56</ele>
        <time>2015-04-26T11:49:15Z</time>
      </trkpt>
      <trkpt lat="47.56348" lon="3.76015">
        <ele>164.52</ele>
        <time>2015-04-26T11:49:22Z</time>
      </trkpt>
      <trkpt lat="47.56317" lon="3.76004">
        <ele>165</ele>
        <time>2015-04-26T11:49:32Z</time>
      </trkpt>
      <trkpt lat="47.56304" lon="3.76006">
        <ele>165.48</ele>
        <time>2015-04-26T11:49:43Z</time>
      </trkpt>
      <trkpt lat="47.56278" lon="3.76011">
        <ele>165.96</ele>
        <time>2015-04-26T11:49:57Z</time>
      </trkpt>
      <trkpt lat="47.56267" lon="3.76014">
        <ele>166.93</ele>
        <time>2015-04-26T11:50:09Z</time>
      </trkpt>
      <trkpt lat="47.56249" lon="3.76022">
        <ele>167.41</ele>
        <time>2015-04-26T11:50:21Z</time>
      </trkpt>
      <trkpt lat="47.56232" lon="3.76026">
        <ele>167.41</ele>
        <time>2015-04-26T11:50:33Z</time>
      </trkpt>
      <trkpt lat="47.5622" lon="3.76027">
        <ele>167.89</ele>
        <time>2015-04-26T11:50:38Z</time>
      </trkpt>
      <trkpt lat="47.562" lon="3.76025">
        <ele>168.37</ele>
        <time>2015-04-26T11:50:52Z</time>
      </trkpt>
      <trkpt lat="47.56186" lon="3.76017">
        <ele>168.85</ele>
        <time>2015-04-26T11:51:01Z</time>
      </trkpt>
      <trkpt lat="47.5618" lon="3.76011">
        <ele>169.33</ele>
        <time>2015-04-26T11:51:14Z</time>
      </trkpt>
      <trkpt lat="47.56175" lon="3.75999">
        <ele>170.29</ele>
        <time>2015-04-26T11:51:29Z</time>
      </trkpt>
      <trkpt lat="47.56152" lon="3.75977">
        <ele>171.25</ele>
        <time>2015-04-26T11:51:47Z</time>
      </trkpt>
      <trkpt lat="47.56122" lon="3.75945">
        <ele>172.69</ele>
        <time>2015-04-26T11:52:06Z</time>
      </trkpt>
      <trkpt lat="47.56114" lon="3.75926">
        <ele>174.14</ele>
        <time>2015-04-26T11:52:19Z</time>
      </trkpt>
      <trkpt lat="47.5611" lon="3.75915">
        <ele>174.14</ele>
        <time>2015-04-26T11:52:25Z</time>
      </trkpt>
      <trkpt lat="47.56099" lon="3.75883">
        <ele>174.62</ele>
        <time>2015-04-26T11:52:35Z</time>
      </trkpt>
      <trkpt lat="47.56084" lon="3.75866">
        <ele>175.1</ele>
        <time>2015-04-26T11:52:39Z</time>
      </trkpt>
      <trkpt lat="47.5607" lon="3.75838">
        <ele>176.06</ele>
        <time>2015-04-26T11:52:50Z</time>
      </trkpt>
      <trkpt lat="47.56068" lon="3.75834">
        <ele>175.58</ele>
        <time>2015-04-26T11:52:52Z</time>
      </trkpt>
      <trkpt lat="47.56065" lon="3.75815">
        <ele>176.54</ele>
        <time>2015-04-26T11:53:06Z</time>
      </trkpt>
      <trkpt lat="47.56069" lon="3.75804">
        <ele>177.02</ele>
        <time>2015-04-26T11:53:16Z</time>
      </trkpt>
      <trkpt lat="47.56067" lon="3.75783">
        <ele>177.98</ele>
        <time>2015-04-26T11:53:30Z</time>
      </trkpt>
      <trkpt lat="47.5605" lon="3.75746">
        <ele>178.94</ele>
        <time>2015-04-26T11:53:43Z</time>
      </trkpt>
      <trkpt lat="47.56024" lon="3.75703">
        <ele>179.9</ele>
        <time>2015-04-26T11:53:58Z</time>
      </trkpt>
      <trkpt lat="47.56006" lon="3.75671">
        <ele>180.87</ele>
        <time>2015-04-26T11:54:09Z</time>
      </trkpt>
      <trkpt lat="47.55996" lon="3.75641">
        <ele>181.83</ele>
        <time>2015-04-26T11:54:23Z</time>
      </trkpt>
      <trkpt lat="47.55995" lon="3.75631">
        <ele>182.31</ele>
        <time>2015-04-26T11:54:28Z</time>
      </trkpt>
      <trkpt lat="47.55993" lon="3.75623">
        <ele>182.31</ele>
        <time>2015-04-26T11:54:30Z</time>
      </trkpt>
      <trkpt lat="47.55994" lon="3.75597">
        <ele>182.79</ele>
        <time>2015-04-26T11:54:41Z</time>
      </trkpt>
      <trkpt lat="47.55995" lon="3.75591">
        <ele>183.27</ele>
        <time>2015-04-26T11:54:44Z</time>
      </trkpt>
      <trkpt lat="47.55992" lon="3.75577">
        <ele>183.27</ele>
        <time>2015-04-26T11:54:50Z</time>
      </trkpt>
      <trkpt lat="47.55982" lon="3.75566">
        <ele>183.75</ele>
        <time>2015-04-26T11:54:56Z</time>
      </trkpt>
      <trkpt lat="47.55974" lon="3.75548">
        <ele>184.23</ele>
        <time>2015-04-26T11:55:04Z</time>
      </trkpt>
      <trkpt lat="47.55973" lon="3.75541">
        <ele>184.71</ele>
        <time>2015-04-26T11:55:07Z</time>
      </trkpt>
      <trkpt lat="47.55965" lon="3.75524">
        <ele>185.19</ele>
        <time>2015-04-26T11:55:16Z</time>
      </trkpt>
      <trkpt lat="47.55958" lon="3.75501">
        <ele>185.19</ele>
        <time>2015-04-26T11:55:27Z</time>
      </trkpt>
      <trkpt lat="47.55955" lon="3.75488">
        <ele>185.67</ele>
        <time>2015-04-26T11:55:34Z</time>
      </trkpt>
      <trkpt lat="47.55952" lon="3.75476">
        <ele>186.15</ele>
        <time>2015-04-26T11:55:42Z</time>
      </trkpt>
      <trkpt lat="47.55946" lon="3.75461">
        <ele>186.63</ele>
        <time>2015-04-26T11:55:50Z</time>
      </trkpt>
      <trkpt lat="47.55942" lon="3.75438">
        <ele>186.63</ele>
        <time>2015-04-26T11:56:00Z</time>
      </trkpt>
      <trkpt lat="47.5594" lon="3.7543">
        <ele>186.63</ele>
        <time>2015-04-26T11:56:04Z</time>
      </trkpt>
      <trkpt lat="47.55934" lon="3.75417">
        <ele>186.63</ele>
        <time>2015-04-26T11:56:09Z</time>
      </trkpt>
      <trkpt lat="47.55931" lon="3.75403">
        <ele>186.63</ele>
        <time>2015-04-26T11:56:14Z</time>
      </trkpt>
      <trkpt lat="47.55922" lon="3.75378">
        <ele>187.11</ele>
        <time>2015-04-26T11:56:27Z</time>
      </trkpt>
      <trkpt lat="47.5592" lon="3.75366">
        <ele>187.59</ele>
        <time>2015-04-26T11:56:33Z</time>
      </trkpt>
      <trkpt lat="47.55913" lon="3.75339">
        <ele>188.08</ele>
        <time>2015-04-26T11:56:46Z</time>
      </trkpt>
      <trkpt lat="47.55906" lon="3.75304">
        <ele>189.04</ele>
        <time>2015-04-26T11:57:01Z</time>
      </trkpt>
      <trkpt lat="47.55903" lon="3.75282">
        <ele>190.48</ele>
        <time>2015-04-26T11:57:16Z</time>
      </trkpt>
      <trkpt lat="47.55903" lon="3.7526">
        <ele>190.48</ele>
        <time>2015-04-26T11:57:27Z</time>
      </trkpt>
      <trkpt lat="47.55901" lon="3.75253">
        <ele>190.96</ele>
        <time>2015-04-26T11:57:29Z</time>
      </trkpt>
      <trkpt lat="47.55891" lon="3.75236">
        <ele>190.96</ele>
        <time>2015-04-26T11:57:32Z</time>
      </trkpt>
      <trkpt lat="47.55887" lon="3.75224">
        <ele>191.44</ele>
        <time>2015-04-26T11:57:35Z</time>
      </trkpt>
      <trkpt lat="47.55887" lon="3.75204">
        <ele>191.44</ele>
        <time>2015-04-26T11:57:42Z</time>
      </trkpt>
      <trkpt lat="47.55888" lon="3.75186">
        <ele>191.92</ele>
        <time>2015-04-26T11:57:50Z</time>
      </trkpt>
      <trkpt lat="47.55888" lon="3.7518">
        <ele>191.92</ele>
        <time>2015-04-26T11:57:53Z</time>
      </trkpt>
      <trkpt lat="47.55885" lon="3.75158">
        <ele>192.88</ele>
        <time>2015-04-26T11:58:06Z</time>
      </trkpt>
      <trkpt lat="47.55879" lon="3.75141">
        <ele>195.28</ele>
        <time>2015-04-26T11:58:22Z</time>
      </trkpt>
      <trkpt lat="47.55862" lon="3.75105">
        <ele>195.77</ele>
        <time>2015-04-26T11:58:34Z</time>
      </trkpt>
      <trkpt lat="47.55863" lon="3.75103">
        <ele>195.77</ele>
        <time>2015-04-26T11:58:35Z</time>
      </trkpt>
      <trkpt lat="47.55871" lon="3.75097">
        <ele>195.28</ele>
        <time>2015-04-26T11:58:42Z</time>
      </trkpt>
      <trkpt lat="47.55894" lon="3.75096">
        <ele>196.73</ele>
        <time>2015-04-26T11:58:57Z</time>
      </trkpt>
      <trkpt lat="47.55898" lon="3.75098">
        <ele>197.69</ele>
        <time>2015-04-26T11:59:02Z</time>
      </trkpt>
      <trkpt lat="47.55921" lon="3.75096">
        <ele>201.05</ele>
        <time>2015-04-26T11:59:19Z</time>
      </trkpt>
      <trkpt lat="47.55923" lon="3.75094">
        <ele>201.53</ele>
        <time>2015-04-26T11:59:21Z</time>
      </trkpt>
      <trkpt lat="47.55925" lon="3.7509">
        <ele>202.01</ele>
        <time>2015-04-26T11:59:23Z</time>
      </trkpt>
      <trkpt lat="47.5593" lon="3.75079">
        <ele>202.49</ele>
        <time>2015-04-26T11:59:28Z</time>
      </trkpt>
      <trkpt lat="47.55928" lon="3.7504">
        <ele>204.42</ele>
        <time>2015-04-26T11:59:47Z</time>
      </trkpt>
      <trkpt lat="47.55928" lon="3.75033">
        <ele>204.42</ele>
        <time>2015-04-26T11:59:50Z</time>
      </trkpt>
      <trkpt lat="47.55927" lon="3.74997">
        <ele>203.94</ele>
        <time>2015-04-26T12:00:04Z</time>
      </trkpt>
      <trkpt lat="47.55927" lon="3.74994">
        <ele>203.94</ele>
        <time>2015-04-26T12:00:05Z</time>
      </trkpt>
      <trkpt lat="47.55926" lon="3.74986">
        <ele>203.94</ele>
        <time>2015-04-26T12:00:08Z</time>
      </trkpt>
      <trkpt lat="47.55925" lon="3.74977">
        <ele>203.94</ele>
        <time>2015-04-26T12:00:12Z</time>
      </trkpt>
      <trkpt lat="47.55925" lon="3.74968">
        <ele>203.94</ele>
        <time>2015-04-26T12:00:16Z</time>
      </trkpt>
      <trkpt lat="47.55925" lon="3.74963">
        <ele>203.46</ele>
        <time>2015-04-26T12:00:18Z</time>
      </trkpt>
      <trkpt lat="47.55922" lon="3.74932">
        <ele>202.49</ele>
        <time>2015-04-26T12:00:33Z</time>
      </trkpt>
      <trkpt lat="47.55924" lon="3.74921">
        <ele>202.01</ele>
        <time>2015-04-26T12:00:38Z</time>
      </trkpt>
      <trkpt lat="47.55927" lon="3.74892">
        <ele>201.05</ele>
        <time>2015-04-26T12:00:50Z</time>
      </trkpt>
      <trkpt lat="47.55928" lon="3.74866">
        <ele>201.05</ele>
        <time>2015-04-26T12:01:05Z</time>
      </trkpt>
      <trkpt lat="47.55926" lon="3.7484">
        <ele>201.05</ele>
        <time>2015-04-26T12:01:17Z</time>
      </trkpt>
      <trkpt lat="47.55923" lon="3.74832">
        <ele>201.53</ele>
        <time>2015-04-26T12:01:21Z</time>
      </trkpt>
      <trkpt lat="47.55922" lon="3.74826">
        <ele>202.01</ele>
        <time>2015-04-26T12:01:24Z</time>
      </trkpt>
      <trkpt lat="47.5591" lon="3.74805">
        <ele>202.01</ele>
        <time>2015-04-26T12:01:30Z</time>
      </trkpt>
      <trkpt lat="47.55895" lon="3.74775">
        <ele>201.53</ele>
        <time>2015-04-26T12:01:47Z</time>
      </trkpt>
      <trkpt lat="47.55894" lon="3.74773">
        <ele>202.01</ele>
        <time>2015-04-26T12:01:48Z</time>
      </trkpt>
      <trkpt lat="47.55882" lon="3.7475">
        <ele>202.01</ele>
        <time>2015-04-26T12:02:02Z</time>
      </trkpt>
      <trkpt lat="47.55874" lon="3.74725">
        <ele>202.49</ele>
        <time>2015-04-26T12:02:17Z</time>
      </trkpt>
      <trkpt lat="47.55874" lon="3.74722">
        <ele>202.49</ele>
        <time>2015-04-26T12:02:18Z</time>
      </trkpt>
      <trkpt lat="47.55871" lon="3.74713">
        <ele>202.49</ele>
        <time>2015-04-26T12:02:22Z</time>
      </trkpt>
      <trkpt lat="47.55863" lon="3.74688">
        <ele>202.98</ele>
        <time>2015-04-26T12:02:38Z</time>
      </trkpt>
      <trkpt lat="47.55857" lon="3.74673">
        <ele>203.46</ele>
        <time>2015-04-26T12:02:50Z</time>
      </trkpt>
      <trkpt lat="47.55847" lon="3.74641">
        <ele>204.42</ele>
        <time>2015-04-26T12:03:04Z</time>
      </trkpt>
      <trkpt lat="47.55834" lon="3.74611">
        <ele>204.42</ele>
        <time>2015-04-26T12:03:17Z</time>
      </trkpt>
      <trkpt lat="47.55822" lon="3.74576">
        <ele>204.42</ele>
        <time>2015-04-26T12:03:34Z</time>
      </trkpt>
      <trkpt lat="47.55819" lon="3.74571">
        <ele>204.9</ele>
        <time>2015-04-26T12:03:36Z</time>
      </trkpt>
      <trkpt lat="47.55801" lon="3.74547">
        <ele>204.9</ele>
        <time>2015-04-26T12:03:44Z</time>
      </trkpt>
      <trkpt lat="47.55778" lon="3.74524">
        <ele>205.38</ele>
        <time>2015-04-26T12:03:58Z</time>
      </trkpt>
      <trkpt lat="47.55764" lon="3.7451">
        <ele>205.86</ele>
        <time>2015-04-26T12:04:11Z</time>
      </trkpt>
      <trkpt lat="47.55747" lon="3.74489">
        <ele>206.34</ele>
        <time>2015-04-26T12:04:24Z</time>
      </trkpt>
      <trkpt lat="47.55744" lon="3.74486">
        <ele>206.34</ele>
        <time>2015-04-26T12:04:26Z</time>
      </trkpt>
      <trkpt lat="47.55732" lon="3.74464">
        <ele>207.78</ele>
        <time>2015-04-26T12:04:39Z</time>
      </trkpt>
      <trkpt lat="47.55717" lon="3.74443">
        <ele>208.26</ele>
        <time>2015-04-26T12:04:53Z</time>
      </trkpt>
      <trkpt lat="47.55705" lon="3.74422">
        <ele>209.22</ele>
        <time>2015-04-26T12:05:06Z</time>
      </trkpt>
      <trkpt lat="47.557" lon="3.74413">
        <ele>209.7</ele>
        <time>2015-04-26T12:05:11Z</time>
      </trkpt>
      <trkpt lat="47.55694" lon="3.74405">
        <ele>210.67</ele>
        <time>2015-04-26T12:05:16Z</time>
      </trkpt>
      <trkpt lat="47.55684" lon="3.74386">
        <ele>211.63</ele>
        <time>2015-04-26T12:05:30Z</time>
      </trkpt>
      <trkpt lat="47.55681" lon="3.74382">
        <ele>212.11</ele>
        <time>2015-04-26T12:05:33Z</time>
      </trkpt>
      <trkpt lat="47.55679" lon="3.74371">
        <ele>212.59</ele>
        <time>2015-04-26T12:05:38Z</time>
      </trkpt>
      <trkpt lat="47.55676" lon="3.74362">
        <ele>212.59</ele>
        <time>2015-04-26T12:05:42Z</time>
      </trkpt>
      <trkpt lat="47.55668" lon="3.74354">
        <ele>213.55</ele>
        <time>2015-04-26T12:05:49Z</time>
      </trkpt>
      <trkpt lat="47.55658" lon="3.74342">
        <ele>214.03</ele>
        <time>2015-04-26T12:05:57Z</time>
      </trkpt>
      <trkpt lat="47.55645" lon="3.74324">
        <ele>214.99</ele>
        <time>2015-04-26T12:06:10Z</time>
      </trkpt>
      <trkpt lat="47.55642" lon="3.74316">
        <ele>214.99</ele>
        <time>2015-04-26T12:06:16Z</time>
      </trkpt>
      <trkpt lat="47.55635" lon="3.74308">
        <ele>215.47</ele>
        <time>2015-04-26T12:06:21Z</time>
      </trkpt>
      <trkpt lat="47.55627" lon="3.74298">
        <ele>215.47</ele>
        <time>2015-04-26T12:06:28Z</time>
      </trkpt>
      <trkpt lat="47.55619" lon="3.74282">
        <ele>216.43</ele>
        <time>2015-04-26T12:06:38Z</time>
      </trkpt>
      <trkpt lat="47.55615" lon="3.74276">
        <ele>216.43</ele>
        <time>2015-04-26T12:06:44Z</time>
      </trkpt>
      <trkpt lat="47.55605" lon="3.74267">
        <ele>216.43</ele>
        <time>2015-04-26T12:06:52Z</time>
      </trkpt>
      <trkpt lat="47.55588" lon="3.74247">
        <ele>216.91</ele>
        <time>2015-04-26T12:07:06Z</time>
      </trkpt>
      <trkpt lat="47.5558" lon="3.74251">
        <ele>216.43</ele>
        <time>2015-04-26T12:07:21Z</time>
      </trkpt>
      <trkpt lat="47.55579" lon="3.74253">
        <ele>215.95</ele>
        <time>2015-04-26T12:07:36Z</time>
      </trkpt>
      <trkpt lat="47.55575" lon="3.74262">
        <ele>215.95</ele>
        <time>2015-04-26T12:07:49Z</time>
      </trkpt>
      <trkpt lat="47.55575" lon="3.7426">
        <ele>215.95</ele>
        <time>2015-04-26T12:08:07Z</time>
      </trkpt>
      <trkpt lat="47.55574" lon="3.74261">
        <ele>215.95</ele>
        <time>2015-04-26T12:08:25Z</time>
      </trkpt>
      <trkpt lat="47.55573" lon="3.74262">
        <ele>215.47</ele>
        <time>2015-04-26T12:08:42Z</time>
      </trkpt>
      <trkpt lat="47.55574" lon="3.74262">
        <ele>216.43</ele>
        <time>2015-04-26T12:08:54Z</time>
      </trkpt>
      <trkpt lat="47.55577" lon="3.7426">
        <ele>215.95</ele>
        <time>2015-04-26T12:09:05Z</time>
      </trkpt>
      <trkpt lat="47.55577" lon="3.74261">
        <ele>216.43</ele>
        <time>2015-04-26T12:09:06Z</time>
      </trkpt>
      <trkpt lat="47.55577" lon="3.74269">
        <ele>215.95</ele>
        <time>2015-04-26T12:09:11Z</time>
      </trkpt>
      <trkpt lat="47.55576" lon="3.74277">
        <ele>215.95</ele>
        <time>2015-04-26T12:09:15Z</time>
      </trkpt>
      <trkpt lat="47.55576" lon="3.74281">
        <ele>215.95</ele>
        <time>2015-04-26T12:09:17Z</time>
      </trkpt>
      <trkpt lat="47.55571" lon="3.74289">
        <ele>215.47</ele>
        <time>2015-04-26T12:09:23Z</time>
      </trkpt>
      <trkpt lat="47.55574" lon="3.74287">
        <ele>214.51</ele>
        <time>2015-04-26T12:09:39Z</time>
      </trkpt>
      <trkpt lat="47.55572" lon="3.74294">
        <ele>215.47</ele>
        <time>2015-04-26T12:10:11Z</time>
      </trkpt>
      <trkpt lat="47.55574" lon="3.74285">
        <ele>215.47</ele>
        <time>2015-04-26T12:10:24Z</time>
      </trkpt>
      <trkpt lat="47.55575" lon="3.74284">
        <ele>215.95</ele>
        <time>2015-04-26T12:10:25Z</time>
      </trkpt>
      <trkpt lat="47.55576" lon="3.74276">
        <ele>215.47</ele>
        <time>2015-04-26T12:10:29Z</time>
      </trkpt>
      <trkpt lat="47.55578" lon="3.74268">
        <ele>215.95</ele>
        <time>2015-04-26T12:10:34Z</time>
      </trkpt>
      <trkpt lat="47.55583" lon="3.74252">
        <ele>216.43</ele>
        <time>2015-04-26T12:10:46Z</time>
      </trkpt>
      <trkpt lat="47.55582" lon="3.74247">
        <ele>216.43</ele>
        <time>2015-04-26T12:11:02Z</time>
      </trkpt>
      <trkpt lat="47.55583" lon="3.74249">
        <ele>215.95</ele>
        <time>2015-04-26T12:11:26Z</time>
      </trkpt>
      <trkpt lat="47.55582" lon="3.74251">
        <ele>215.95</ele>
        <time>2015-04-26T12:11:47Z</time>
      </trkpt>
      <trkpt lat="47.55575" lon="3.7426">
        <ele>215.95</ele>
        <time>2015-04-26T12:12:00Z</time>
      </trkpt>
      <trkpt lat="47.55573" lon="3.74263">
        <ele>215.47</ele>
        <time>2015-04-26T12:12:14Z</time>
      </trkpt>
      <trkpt lat="47.55571" lon="3.74262">
        <ele>215.47</ele>
        <time>2015-04-26T12:12:19Z</time>
      </trkpt>
      <trkpt lat="47.55567" lon="3.74262">
        <ele>215.47</ele>
        <time>2015-04-26T12:12:30Z</time>
      </trkpt>
      <trkpt lat="47.55566" lon="3.74264">
        <ele>215.47</ele>
        <time>2015-04-26T12:12:45Z</time>
      </trkpt>
      <trkpt lat="47.55567" lon="3.74262">
        <ele>214.99</ele>
        <time>2015-04-26T12:13:00Z</time>
      </trkpt>
      <trkpt lat="47.55567" lon="3.74266">
        <ele>215.47</ele>
        <time>2015-04-26T12:13:13Z</time>
      </trkpt>
      <trkpt lat="47.55569" lon="3.74263">
        <ele>215.95</ele>
        <time>2015-04-26T12:13:28Z</time>
      </trkpt>
      <trkpt lat="47.55572" lon="3.74261">
        <ele>215.95</ele>
        <time>2015-04-26T12:13:45Z</time>
      </trkpt>
      <trkpt lat="47.55567" lon="3.74262">
        <ele>215.47</ele>
        <time>2015-04-26T12:13:56Z</time>
      </trkpt>
      <trkpt lat="47.55569" lon="3.74263">
        <ele>215.47</ele>
        <time>2015-04-26T12:14:00Z</time>
      </trkpt>
      <trkpt lat="47.55575" lon="3.74258">
        <ele>215.95</ele>
        <time>2015-04-26T12:14:09Z</time>
      </trkpt>
      <trkpt lat="47.55579" lon="3.74255">
        <ele>216.43</ele>
        <time>2015-04-26T12:14:25Z</time>
      </trkpt>
      <trkpt lat="47.5558" lon="3.74256">
        <ele>216.43</ele>
        <time>2015-04-26T12:14:46Z</time>
      </trkpt>
      <trkpt lat="47.5558" lon="3.74262">
        <ele>216.91</ele>
        <time>2015-04-26T12:15:05Z</time>
      </trkpt>
      <trkpt lat="47.55583" lon="3.74265">
        <ele>215.95</ele>
        <time>2015-04-26T12:15:16Z</time>
      </trkpt>
      <trkpt lat="47.55579" lon="3.74266">
        <ele>216.43</ele>
        <time>2015-04-26T12:15:29Z</time>
      </trkpt>
      <trkpt lat="47.55581" lon="3.74279">
        <ele>215.47</ele>
        <time>2015-04-26T12:15:42Z</time>
      </trkpt>
      <trkpt lat="47.55581" lon="3.74283">
        <ele>215.47</ele>
        <time>2015-04-26T12:15:56Z</time>
      </trkpt>
      <trkpt lat="47.55578" lon="3.74289">
        <ele>215.47</ele>
        <time>2015-04-26T12:16:02Z</time>
      </trkpt>
      <trkpt lat="47.55577" lon="3.74297">
        <ele>215.47</ele>
        <time>2015-04-26T12:16:07Z</time>
      </trkpt>
      <trkpt lat="47.55573" lon="3.74304">
        <ele>214.51</ele>
        <time>2015-04-26T12:16:23Z</time>
      </trkpt>
      <trkpt lat="47.55573" lon="3.74304">
        <ele>214.99</ele>
        <time>2015-04-26T12:16:46Z</time>
      </trkpt>
      <trkpt lat="47.55573" lon="3.74297">
        <ele>214.99</ele>
        <time>2015-04-26T12:17:08Z</time>
      </trkpt>
      <trkpt lat="47.55576" lon="3.74291">
        <ele>215.47</ele>
        <time>2015-04-26T12:17:19Z</time>
      </trkpt>
      <trkpt lat="47.55576" lon="3.74289">
        <ele>215.47</ele>
        <time>2015-04-26T12:17:20Z</time>
      </trkpt>
      <trkpt lat="47.55578" lon="3.74282">
        <ele>215.95</ele>
        <time>2015-04-26T12:17:25Z</time>
      </trkpt>
      <trkpt lat="47.55584" lon="3.74256">
        <ele>215.95</ele>
        <time>2015-04-26T12:17:39Z</time>
      </trkpt>
      <trkpt lat="47.55583" lon="3.74256">
        <ele>215.95</ele>
        <time>2015-04-26T12:17:56Z</time>
      </trkpt>
      <trkpt lat="47.55578" lon="3.74253">
        <ele>216.43</ele>
        <time>2015-04-26T12:18:20Z</time>
      </trkpt>
      <trkpt lat="47.55577" lon="3.74253">
        <ele>215.95</ele>
        <time>2015-04-26T12:18:32Z</time>
      </trkpt>
      <trkpt lat="47.55576" lon="3.74258">
        <ele>215.95</ele>
        <time>2015-04-26T12:18:42Z</time>
      </trkpt>
      <trkpt lat="47.55575" lon="3.74266">
        <ele>215.95</ele>
        <time>2015-04-26T12:18:55Z</time>
      </trkpt>
      <trkpt lat="47.55577" lon="3.74262">
        <ele>215.47</ele>
        <time>2015-04-26T12:19:08Z</time>
      </trkpt>
      <trkpt lat="47.55576" lon="3.74263">
        <ele>215.47</ele>
        <time>2015-04-26T12:19:10Z</time>
      </trkpt>
      <trkpt lat="47.55571" lon="3.74262">
        <ele>215.47</ele>
        <time>2015-04-26T12:19:23Z</time>
      </trkpt>
      <trkpt lat="47.55571" lon="3.74262">
        <ele>215.47</ele>
        <time>2015-04-26T12:19:27Z</time>
      </trkpt>
      <trkpt lat="47.55578" lon="3.74254">
        <ele>215.47</ele>
        <time>2015-04-26T12:19:39Z</time>
      </trkpt>
      <trkpt lat="47.5558" lon="3.74256">
        <ele>215.47</ele>
        <time>2015-04-26T12:19:55Z</time>
      </trkpt>
      <trkpt lat="47.55579" lon="3.74252">
        <ele>215.95</ele>
        <time>2015-04-26T12:20:05Z</time>
      </trkpt>
      <trkpt lat="47.5558" lon="3.74252">
        <ele>215.47</ele>
        <time>2015-04-26T12:20:24Z</time>
      </trkpt>
      <trkpt lat="47.55573" lon="3.74257">
        <ele>215.95</ele>
        <time>2015-04-26T12:20:31Z</time>
      </trkpt>
      <trkpt lat="47.55568" lon="3.74263">
        <ele>215.47</ele>
        <time>2015-04-26T12:20:42Z</time>
      </trkpt>
      <trkpt lat="47.55571" lon="3.74263">
        <ele>215.47</ele>
        <time>2015-04-26T12:20:58Z</time>
      </trkpt>
      <trkpt lat="47.55577" lon="3.74259">
        <ele>215.47</ele>
        <time>2015-04-26T12:21:11Z</time>
      </trkpt>
      <trkpt lat="47.55577" lon="3.74255">
        <ele>215.47</ele>
        <time>2015-04-26T12:21:24Z</time>
      </trkpt>
      <trkpt lat="47.55578" lon="3.74254">
        <ele>215.95</ele>
        <time>2015-04-26T12:21:45Z</time>
      </trkpt>
      <trkpt lat="47.55578" lon="3.74254">
        <ele>215.47</ele>
        <time>2015-04-26T12:22:10Z</time>
      </trkpt>
      <trkpt lat="47.55579" lon="3.74252">
        <ele>215.47</ele>
        <time>2015-04-26T12:22:31Z</time>
      </trkpt>
      <trkpt lat="47.55577" lon="3.74255">
        <ele>215.47</ele>
        <time>2015-04-26T12:22:53Z</time>
      </trkpt>
      <trkpt lat="47.55569" lon="3.74262">
        <ele>214.99</ele>
        <time>2015-04-26T12:23:06Z</time>
      </trkpt>
      <trkpt lat="47.5557" lon="3.74261">
        <ele>214.51</ele>
        <time>2015-04-26T12:23:22Z</time>
      </trkpt>
      <trkpt lat="47.55569" lon="3.74259">
        <ele>215.47</ele>
        <time>2015-04-26T12:23:46Z</time>
      </trkpt>
      <trkpt lat="47.55571" lon="3.7426">
        <ele>215.47</ele>
        <time>2015-04-26T12:24:04Z</time>
      </trkpt>
      <trkpt lat="47.55577" lon="3.74262">
        <ele>215.47</ele>
        <time>2015-04-26T12:24:18Z</time>
      </trkpt>
      <trkpt lat="47.55576" lon="3.74254">
        <ele>215.47</ele>
        <time>2015-04-26T12:24:33Z</time>
      </trkpt>
      <trkpt lat="47.55575" lon="3.74253">
        <ele>214.99</ele>
        <time>2015-04-26T12:24:49Z</time>
      </trkpt>
      <trkpt lat="47.55575" lon="3.74253">
        <ele>214.99</ele>
        <time>2015-04-26T12:25:18Z</time>
      </trkpt>
      <trkpt lat="47.55575" lon="3.74253">
        <ele>215.47</ele>
        <time>2015-04-26T12:25:42Z</time>
      </trkpt>
      <trkpt lat="47.55575" lon="3.74253">
        <ele>215.47</ele>
        <time>2015-04-26T12:26:09Z</time>
      </trkpt>
      <trkpt lat="47.55575" lon="3.74253">
        <ele>215.47</ele>
        <time>2015-04-26T12:26:33Z</time>
      </trkpt>
      <trkpt lat="47.55575" lon="3.74254">
        <ele>214.99</ele>
        <time>2015-04-26T12:27:01Z</time>
      </trkpt>
      <trkpt lat="47.55577" lon="3.74256">
        <ele>215.95</ele>
        <time>2015-04-26T12:27:06Z</time>
      </trkpt>
      <trkpt lat="47.55576" lon="3.74264">
        <ele>215.95</ele>
        <time>2015-04-26T12:27:18Z</time>
      </trkpt>
      <trkpt lat="47.55577" lon="3.74262">
        <ele>215.95</ele>
        <time>2015-04-26T12:27:32Z</time>
      </trkpt>
      <trkpt lat="47.55582" lon="3.74259">
        <ele>216.43</ele>
        <time>2015-04-26T12:27:46Z</time>
      </trkpt>
      <trkpt lat="47.55583" lon="3.74259">
        <ele>216.43</ele>
        <time>2015-04-26T12:28:01Z</time>
      </trkpt>
      <trkpt lat="47.55586" lon="3.7425">
        <ele>216.91</ele>
        <time>2015-04-26T12:28:14Z</time>
      </trkpt>
      <trkpt lat="47.55584" lon="3.74244">
        <ele>216.43</ele>
        <time>2015-04-26T12:28:17Z</time>
      </trkpt>
      <trkpt lat="47.55578" lon="3.74236">
        <ele>216.91</ele>
        <time>2015-04-26T12:28:24Z</time>
      </trkpt>
      <trkpt lat="47.55573" lon="3.74228">
        <ele>216.91</ele>
        <time>2015-04-26T12:28:30Z</time>
      </trkpt>
      <trkpt lat="47.55562" lon="3.74221">
        <ele>216.91</ele>
        <time>2015-04-26T12:28:39Z</time>
      </trkpt>
      <trkpt lat="47.55557" lon="3.74218">
        <ele>216.43</ele>
        <time>2015-04-26T12:28:44Z</time>
      </trkpt>
      <trkpt lat="47.55551" lon="3.74213">
        <ele>216.43</ele>
        <time>2015-04-26T12:28:52Z</time>
      </trkpt>
      <trkpt lat="47.55548" lon="3.7421">
        <ele>216.43</ele>
        <time>2015-04-26T12:28:54Z</time>
      </trkpt>
      <trkpt lat="47.55546" lon="3.74207">
        <ele>215.95</ele>
        <time>2015-04-26T12:28:56Z</time>
      </trkpt>
      <trkpt lat="47.55523" lon="3.74199">
        <ele>216.43</ele>
        <time>2015-04-26T12:29:11Z</time>
      </trkpt>
      <trkpt lat="47.55502" lon="3.74187">
        <ele>215.95</ele>
        <time>2015-04-26T12:29:25Z</time>
      </trkpt>
      <trkpt lat="47.55488" lon="3.74178">
        <ele>215.47</ele>
        <time>2015-04-26T12:29:35Z</time>
      </trkpt>
      <trkpt lat="47.55479" lon="3.74176">
        <ele>215.47</ele>
        <time>2015-04-26T12:29:41Z</time>
      </trkpt>
      <trkpt lat="47.55466" lon="3.74169">
        <ele>214.99</ele>
        <time>2015-04-26T12:29:50Z</time>
      </trkpt>
      <trkpt lat="47.55464" lon="3.74168">
        <ele>217.4</ele>
        <time>2015-04-26T12:29:52Z</time>
      </trkpt>
      <trkpt lat="47.55461" lon="3.74167">
        <ele>214.99</ele>
        <time>2015-04-26T12:29:54Z</time>
      </trkpt>
      <trkpt lat="47.55451" lon="3.74159">
        <ele>214.03</ele>
        <time>2015-04-26T12:30:05Z</time>
      </trkpt>
      <trkpt lat="47.55436" lon="3.74154">
        <ele>213.55</ele>
        <time>2015-04-26T12:30:15Z</time>
      </trkpt>
      <trkpt lat="47.55429" lon="3.74151">
        <ele>214.03</ele>
        <time>2015-04-26T12:30:19Z</time>
      </trkpt>
      <trkpt lat="47.55414" lon="3.74146">
        <ele>214.03</ele>
        <time>2015-04-26T12:30:28Z</time>
      </trkpt>
      <trkpt lat="47.55389" lon="3.74147">
        <ele>214.03</ele>
        <time>2015-04-26T12:30:44Z</time>
      </trkpt>
      <trkpt lat="47.55368" lon="3.74153">
        <ele>214.99</ele>
        <time>2015-04-26T12:30:56Z</time>
      </trkpt>
      <trkpt lat="47.55367" lon="3.74153">
        <ele>214.51</ele>
        <time>2015-04-26T12:30:57Z</time>
      </trkpt>
      <trkpt lat="47.55363" lon="3.74155">
        <ele>214.99</ele>
        <time>2015-04-26T12:31:01Z</time>
      </trkpt>
      <trkpt lat="47.55342" lon="3.74154">
        <ele>215.47</ele>
        <time>2015-04-26T12:31:14Z</time>
      </trkpt>
      <trkpt lat="47.5532" lon="3.74151">
        <ele>215.95</ele>
        <time>2015-04-26T12:31:28Z</time>
      </trkpt>
      <trkpt lat="47.55302" lon="3.74152">
        <ele>216.43</ele>
        <time>2015-04-26T12:31:40Z</time>
      </trkpt>
      <trkpt lat="47.55282" lon="3.74148">
        <ele>215.95</ele>
        <time>2015-04-26T12:31:55Z</time>
      </trkpt>
      <trkpt lat="47.55277" lon="3.74148">
        <ele>215.95</ele>
        <time>2015-04-26T12:31:59Z</time>
      </trkpt>
      <trkpt lat="47.55269" lon="3.74145">
        <ele>215.95</ele>
        <time>2015-04-26T12:32:04Z</time>
      </trkpt>
      <trkpt lat="47.5525" lon="3.74142">
        <ele>215.95</ele>
        <time>2015-04-26T12:32:17Z</time>
      </trkpt>
      <trkpt lat="47.55234" lon="3.7414">
        <ele>215.95</ele>
        <time>2015-04-26T12:32:27Z</time>
      </trkpt>
      <trkpt lat="47.55211" lon="3.74136">
        <ele>215.47</ele>
        <time>2015-04-26T12:32:42Z</time>
      </trkpt>
      <trkpt lat="47.55201" lon="3.74133">
        <ele>215.47</ele>
        <time>2015-04-26T12:32:49Z</time>
      </trkpt>
      <trkpt lat="47.55182" lon="3.74127">
        <ele>214.99</ele>
        <time>2015-04-26T12:33:04Z</time>
      </trkpt>
      <trkpt lat="47.55158" lon="3.74129">
        <ele>215.95</ele>
        <time>2015-04-26T12:33:19Z</time>
      </trkpt>
      <trkpt lat="47.55138" lon="3.74135">
        <ele>216.43</ele>
        <time>2015-04-26T12:33:33Z</time>
      </trkpt>
      <trkpt lat="47.55116" lon="3.74148">
        <ele>217.4</ele>
        <time>2015-04-26T12:33:48Z</time>
      </trkpt>
      <trkpt lat="47.55103" lon="3.74157">
        <ele>218.84</ele>
        <time>2015-04-26T12:33:59Z</time>
      </trkpt>
      <trkpt lat="47.55088" lon="3.74175">
        <ele>219.32</ele>
        <time>2015-04-26T12:34:13Z</time>
      </trkpt>
      <trkpt lat="47.55078" lon="3.74191">
        <ele>220.28</ele>
        <time>2015-04-26T12:34:25Z</time>
      </trkpt>
      <trkpt lat="47.55065" lon="3.74218">
        <ele>221.24</ele>
        <time>2015-04-26T12:34:40Z</time>
      </trkpt>
      <trkpt lat="47.55051" lon="3.74233">
        <ele>222.2</ele>
        <time>2015-04-26T12:34:53Z</time>
      </trkpt>
      <trkpt lat="47.55049" lon="3.74235">
        <ele>222.2</ele>
        <time>2015-04-26T12:34:55Z</time>
      </trkpt>
      <trkpt lat="47.55035" lon="3.74261">
        <ele>223.16</ele>
        <time>2015-04-26T12:35:09Z</time>
      </trkpt>
      <trkpt lat="47.55034" lon="3.74263">
        <ele>222.68</ele>
        <time>2015-04-26T12:35:10Z</time>
      </trkpt>
      <trkpt lat="47.55028" lon="3.74268">
        <ele>223.16</ele>
        <time>2015-04-26T12:35:15Z</time>
      </trkpt>
      <trkpt lat="47.55021" lon="3.74272">
        <ele>223.16</ele>
        <time>2015-04-26T12:35:20Z</time>
      </trkpt>
      <trkpt lat="47.55014" lon="3.74277">
        <ele>223.16</ele>
        <time>2015-04-26T12:35:25Z</time>
      </trkpt>
      <trkpt lat="47.55012" lon="3.7428">
        <ele>223.64</ele>
        <time>2015-04-26T12:35:27Z</time>
      </trkpt>
      <trkpt lat="47.55005" lon="3.74287">
        <ele>223.64</ele>
        <time>2015-04-26T12:35:39Z</time>
      </trkpt>
      <trkpt lat="47.55" lon="3.74294">
        <ele>223.64</ele>
        <time>2015-04-26T12:35:43Z</time>
      </trkpt>
      <trkpt lat="47.54986" lon="3.74314">
        <ele>224.12</ele>
        <time>2015-04-26T12:35:56Z</time>
      </trkpt>
      <trkpt lat="47.54974" lon="3.74333">
        <ele>224.61</ele>
        <time>2015-04-26T12:36:08Z</time>
      </trkpt>
      <trkpt lat="47.5496" lon="3.74354">
        <ele>224.12</ele>
        <time>2015-04-26T12:36:22Z</time>
      </trkpt>
      <trkpt lat="47.54948" lon="3.74372">
        <ele>223.16</ele>
        <time>2015-04-26T12:36:33Z</time>
      </trkpt>
      <trkpt lat="47.54931" lon="3.74396">
        <ele>222.2</ele>
        <time>2015-04-26T12:36:48Z</time>
      </trkpt>
      <trkpt lat="47.5492" lon="3.74417">
        <ele>221.72</ele>
        <time>2015-04-26T12:37:00Z</time>
      </trkpt>
      <trkpt lat="47.54913" lon="3.74425">
        <ele>221.72</ele>
        <time>2015-04-26T12:37:05Z</time>
      </trkpt>
      <trkpt lat="47.54899" lon="3.7444">
        <ele>220.76</ele>
        <time>2015-04-26T12:37:17Z</time>
      </trkpt>
      <trkpt lat="47.54897" lon="3.74441">
        <ele>220.76</ele>
        <time>2015-04-26T12:37:18Z</time>
      </trkpt>
      <trkpt lat="47.54891" lon="3.7445">
        <ele>220.28</ele>
        <time>2015-04-26T12:37:23Z</time>
      </trkpt>
      <trkpt lat="47.54882" lon="3.74466">
        <ele>219.8</ele>
        <time>2015-04-26T12:37:33Z</time>
      </trkpt>
      <trkpt lat="47.54876" lon="3.74485">
        <ele>219.32</ele>
        <time>2015-04-26T12:37:43Z</time>
      </trkpt>
      <trkpt lat="47.54877" lon="3.74492">
        <ele>219.32</ele>
        <time>2015-04-26T12:37:46Z</time>
      </trkpt>
      <trkpt lat="47.54879" lon="3.74503">
        <ele>218.84</ele>
        <time>2015-04-26T12:37:50Z</time>
      </trkpt>
      <trkpt lat="47.54876" lon="3.74535">
        <ele>218.84</ele>
        <time>2015-04-26T12:38:02Z</time>
      </trkpt>
      <trkpt lat="47.54857" lon="3.74558">
        <ele>217.4</ele>
        <time>2015-04-26T12:38:16Z</time>
      </trkpt>
      <trkpt lat="47.54838" lon="3.74575">
        <ele>216.91</ele>
        <time>2015-04-26T12:38:29Z</time>
      </trkpt>
      <trkpt lat="47.54813" lon="3.74593">
        <ele>215.95</ele>
        <time>2015-04-26T12:38:46Z</time>
      </trkpt>
      <trkpt lat="47.54797" lon="3.74609">
        <ele>214.51</ele>
        <time>2015-04-26T12:38:59Z</time>
      </trkpt>
      <trkpt lat="47.54773" lon="3.74632">
        <ele>213.55</ele>
        <time>2015-04-26T12:39:15Z</time>
      </trkpt>
      <trkpt lat="47.54754" lon="3.74652">
        <ele>213.07</ele>
        <time>2015-04-26T12:39:31Z</time>
      </trkpt>
      <trkpt lat="47.54748" lon="3.74655">
        <ele>212.59</ele>
        <time>2015-04-26T12:39:36Z</time>
      </trkpt>
      <trkpt lat="47.54746" lon="3.74657">
        <ele>212.59</ele>
        <time>2015-04-26T12:39:38Z</time>
      </trkpt>
      <trkpt lat="47.54742" lon="3.74659">
        <ele>212.59</ele>
        <time>2015-04-26T12:39:42Z</time>
      </trkpt>
      <trkpt lat="47.54736" lon="3.74664">
        <ele>212.59</ele>
        <time>2015-04-26T12:39:47Z</time>
      </trkpt>
      <trkpt lat="47.54728" lon="3.7467">
        <ele>212.11</ele>
        <time>2015-04-26T12:39:54Z</time>
      </trkpt>
      <trkpt lat="47.54705" lon="3.7469">
        <ele>212.11</ele>
        <time>2015-04-26T12:40:12Z</time>
      </trkpt>
      <trkpt lat="47.54701" lon="3.74695">
        <ele>212.11</ele>
        <time>2015-04-26T12:40:15Z</time>
      </trkpt>
      <trkpt lat="47.54682" lon="3.74714">
        <ele>212.11</ele>
        <time>2015-04-26T12:40:30Z</time>
      </trkpt>
      <trkpt lat="47.54663" lon="3.74731">
        <ele>211.15</ele>
        <time>2015-04-26T12:40:45Z</time>
      </trkpt>
      <trkpt lat="47.54656" lon="3.74736">
        <ele>210.67</ele>
        <time>2015-04-26T12:40:50Z</time>
      </trkpt>
      <trkpt lat="47.54651" lon="3.7474">
        <ele>210.67</ele>
        <time>2015-04-26T12:40:54Z</time>
      </trkpt>
      <trkpt lat="47.54643" lon="3.74747">
        <ele>210.67</ele>
        <time>2015-04-26T12:41:00Z</time>
      </trkpt>
      <trkpt lat="47.54621" lon="3.74766">
        <ele>211.15</ele>
        <time>2015-04-26T12:41:16Z</time>
      </trkpt>
      <trkpt lat="47.54603" lon="3.74781">
        <ele>212.11</ele>
        <time>2015-04-26T12:41:29Z</time>
      </trkpt>
      <trkpt lat="47.54585" lon="3.74796">
        <ele>212.59</ele>
        <time>2015-04-26T12:41:43Z</time>
      </trkpt>
      <trkpt lat="47.54564" lon="3.74813">
        <ele>213.55</ele>
        <time>2015-04-26T12:41:59Z</time>
      </trkpt>
      <trkpt lat="47.5454" lon="3.74829">
        <ele>214.51</ele>
        <time>2015-04-26T12:42:15Z</time>
      </trkpt>
      <trkpt lat="47.54512" lon="3.74845">
        <ele>214.99</ele>
        <time>2015-04-26T12:42:33Z</time>
      </trkpt>
      <trkpt lat="47.54491" lon="3.74858">
        <ele>214.51</ele>
        <time>2015-04-26T12:42:48Z</time>
      </trkpt>
      <trkpt lat="47.54468" lon="3.74868">
        <ele>215.47</ele>
        <time>2015-04-26T12:43:02Z</time>
      </trkpt>
      <trkpt lat="47.5445" lon="3.74881">
        <ele>214.99</ele>
        <time>2015-04-26T12:43:14Z</time>
      </trkpt>
      <trkpt lat="47.54431" lon="3.7489">
        <ele>215.47</ele>
        <time>2015-04-26T12:43:27Z</time>
      </trkpt>
      <trkpt lat="47.5441" lon="3.74894">
        <ele>215.47</ele>
        <time>2015-04-26T12:43:41Z</time>
      </trkpt>
      <trkpt lat="47.54389" lon="3.74902">
        <ele>215.47</ele>
        <time>2015-04-26T12:43:54Z</time>
      </trkpt>
      <trkpt lat="47.54367" lon="3.74909">
        <ele>216.43</ele>
        <time>2015-04-26T12:44:10Z</time>
      </trkpt>
      <trkpt lat="47.54347" lon="3.74911">
        <ele>216.91</ele>
        <time>2015-04-26T12:44:22Z</time>
      </trkpt>
      <trkpt lat="47.54326" lon="3.74916">
        <ele>217.88</ele>
        <time>2015-04-26T12:44:36Z</time>
      </trkpt>
      <trkpt lat="47.54305" lon="3.74924">
        <ele>217.4</ele>
        <time>2015-04-26T12:44:51Z</time>
      </trkpt>
      <trkpt lat="47.5428" lon="3.74931">
        <ele>218.84</ele>
        <time>2015-04-26T12:45:07Z</time>
      </trkpt>
      <trkpt lat="47.5427" lon="3.74931">
        <ele>219.8</ele>
        <time>2015-04-26T12:45:15Z</time>
      </trkpt>
      <trkpt lat="47.54249" lon="3.74936">
        <ele>220.76</ele>
        <time>2015-04-26T12:45:30Z</time>
      </trkpt>
      <trkpt lat="47.54237" lon="3.74942">
        <ele>221.72</ele>
        <time>2015-04-26T12:45:41Z</time>
      </trkpt>
      <trkpt lat="47.54232" lon="3.74942">
        <ele>221.72</ele>
        <time>2015-04-26T12:45:45Z</time>
      </trkpt>
      <trkpt lat="47.54211" lon="3.74951">
        <ele>222.68</ele>
        <time>2015-04-26T12:46:00Z</time>
      </trkpt>
      <trkpt lat="47.54206" lon="3.74952">
        <ele>222.68</ele>
        <time>2015-04-26T12:46:04Z</time>
      </trkpt>
      <trkpt lat="47.54193" lon="3.74956">
        <ele>223.16</ele>
        <time>2015-04-26T12:46:17Z</time>
      </trkpt>
      <trkpt lat="47.54188" lon="3.74957">
        <ele>223.16</ele>
        <time>2015-04-26T12:46:22Z</time>
      </trkpt>
      <trkpt lat="47.54167" lon="3.74957">
        <ele>224.12</ele>
        <time>2015-04-26T12:46:33Z</time>
      </trkpt>
      <trkpt lat="47.54151" lon="3.74964">
        <ele>224.61</ele>
        <time>2015-04-26T12:46:43Z</time>
      </trkpt>
      <trkpt lat="47.54135" lon="3.74969">
        <ele>226.05</ele>
        <time>2015-04-26T12:46:58Z</time>
      </trkpt>
      <trkpt lat="47.54118" lon="3.74972">
        <ele>226.53</ele>
        <time>2015-04-26T12:47:12Z</time>
      </trkpt>
      <trkpt lat="47.54116" lon="3.74972">
        <ele>227.01</ele>
        <time>2015-04-26T12:47:16Z</time>
      </trkpt>
      <trkpt lat="47.54093" lon="3.74979">
        <ele>227.97</ele>
        <time>2015-04-26T12:47:29Z</time>
      </trkpt>
      <trkpt lat="47.54071" lon="3.74993">
        <ele>228.93</ele>
        <time>2015-04-26T12:47:45Z</time>
      </trkpt>
      <trkpt lat="47.54053" lon="3.75">
        <ele>230.37</ele>
        <time>2015-04-26T12:48:02Z</time>
      </trkpt>
      <trkpt lat="47.54049" lon="3.75002">
        <ele>230.37</ele>
        <time>2015-04-26T12:48:06Z</time>
      </trkpt>
      <trkpt lat="47.54027" lon="3.75016">
        <ele>232.3</ele>
        <time>2015-04-26T12:48:24Z</time>
      </trkpt>
      <trkpt lat="47.54009" lon="3.75024">
        <ele>233.74</ele>
        <time>2015-04-26T12:48:37Z</time>
      </trkpt>
      <trkpt lat="47.53991" lon="3.75038">
        <ele>234.22</ele>
        <time>2015-04-26T12:48:46Z</time>
      </trkpt>
      <trkpt lat="47.53973" lon="3.75053">
        <ele>234.7</ele>
        <time>2015-04-26T12:49:00Z</time>
      </trkpt>
      <trkpt lat="47.5396" lon="3.75072">
        <ele>235.18</ele>
        <time>2015-04-26T12:49:15Z</time>
      </trkpt>
      <trkpt lat="47.53951" lon="3.75078">
        <ele>236.14</ele>
        <time>2015-04-26T12:49:28Z</time>
      </trkpt>
      <trkpt lat="47.53945" lon="3.7508">
        <ele>236.62</ele>
        <time>2015-04-26T12:49:33Z</time>
      </trkpt>
      <trkpt lat="47.5394" lon="3.75085">
        <ele>236.62</ele>
        <time>2015-04-26T12:49:36Z</time>
      </trkpt>
      <trkpt lat="47.53917" lon="3.75102">
        <ele>237.1</ele>
        <time>2015-04-26T12:49:50Z</time>
      </trkpt>
      <trkpt lat="47.53901" lon="3.75111">
        <ele>237.58</ele>
        <time>2015-04-26T12:50:02Z</time>
      </trkpt>
      <trkpt lat="47.53888" lon="3.75116">
        <ele>237.58</ele>
        <time>2015-04-26T12:50:12Z</time>
      </trkpt>
      <trkpt lat="47.53883" lon="3.75122">
        <ele>238.06</ele>
        <time>2015-04-26T12:50:16Z</time>
      </trkpt>
      <trkpt lat="47.53877" lon="3.75127">
        <ele>238.54</ele>
        <time>2015-04-26T12:50:20Z</time>
      </trkpt>
      <trkpt lat="47.53867" lon="3.75137">
        <ele>239.51</ele>
        <time>2015-04-26T12:50:27Z</time>
      </trkpt>
      <trkpt lat="47.53863" lon="3.75142">
        <ele>239.51</ele>
        <time>2015-04-26T12:50:31Z</time>
      </trkpt>
      <trkpt lat="47.5386" lon="3.75144">
        <ele>239.99</ele>
        <time>2015-04-26T12:50:33Z</time>
      </trkpt>
      <trkpt lat="47.53849" lon="3.75156">
        <ele>240.95</ele>
        <time>2015-04-26T12:50:45Z</time>
      </trkpt>
      <trkpt lat="47.53846" lon="3.75158">
        <ele>241.43</ele>
        <time>2015-04-26T12:50:48Z</time>
      </trkpt>
      <trkpt lat="47.53836" lon="3.75167">
        <ele>241.91</ele>
        <time>2015-04-26T12:50:56Z</time>
      </trkpt>
      <trkpt lat="47.53819" lon="3.75181">
        <ele>242.39</ele>
        <time>2015-04-26T12:51:12Z</time>
      </trkpt>
      <trkpt lat="47.53807" lon="3.7519">
        <ele>242.87</ele>
        <time>2015-04-26T12:51:21Z</time>
      </trkpt>
      <trkpt lat="47.53799" lon="3.75195">
        <ele>243.83</ele>
        <time>2015-04-26T12:51:26Z</time>
      </trkpt>
      <trkpt lat="47.53786" lon="3.75202">
        <ele>243.83</ele>
        <time>2015-04-26T12:51:35Z</time>
      </trkpt>
      <trkpt lat="47.53769" lon="3.75209">
        <ele>244.31</ele>
        <time>2015-04-26T12:51:46Z</time>
      </trkpt>
      <trkpt lat="47.53748" lon="3.75217">
        <ele>245.75</ele>
        <time>2015-04-26T12:52:03Z</time>
      </trkpt>
      <trkpt lat="47.53729" lon="3.75224">
        <ele>246.23</ele>
        <time>2015-04-26T12:52:17Z</time>
      </trkpt>
      <trkpt lat="47.53728" lon="3.75223">
        <ele>247.2</ele>
        <time>2015-04-26T12:52:19Z</time>
      </trkpt>
      <trkpt lat="47.53715" lon="3.75238">
        <ele>247.2</ele>
        <time>2015-04-26T12:52:33Z</time>
      </trkpt>
      <trkpt lat="47.53696" lon="3.75247">
        <ele>247.68</ele>
        <time>2015-04-26T12:52:47Z</time>
      </trkpt>
      <trkpt lat="47.53683" lon="3.75254">
        <ele>247.68</ele>
        <time>2015-04-26T12:52:59Z</time>
      </trkpt>
      <trkpt lat="47.53677" lon="3.75257">
        <ele>248.16</ele>
        <time>2015-04-26T12:53:04Z</time>
      </trkpt>
      <trkpt lat="47.53654" lon="3.75258">
        <ele>249.12</ele>
        <time>2015-04-26T12:53:16Z</time>
      </trkpt>
      <trkpt lat="47.53638" lon="3.75259">
        <ele>249.6</ele>
        <time>2015-04-26T12:53:28Z</time>
      </trkpt>
      <trkpt lat="47.53625" lon="3.75263">
        <ele>249.12</ele>
        <time>2015-04-26T12:53:39Z</time>
      </trkpt>
      <trkpt lat="47.53605" lon="3.75269">
        <ele>249.6</ele>
        <time>2015-04-26T12:53:49Z</time>
      </trkpt>
      <trkpt lat="47.5359" lon="3.75265">
        <ele>249.6</ele>
        <time>2015-04-26T12:53:59Z</time>
      </trkpt>
      <trkpt lat="47.53576" lon="3.75263">
        <ele>249.6</ele>
        <time>2015-04-26T12:54:09Z</time>
      </trkpt>
      <trkpt lat="47.53565" lon="3.75279">
        <ele>248.16</ele>
        <time>2015-04-26T12:54:25Z</time>
      </trkpt>
      <trkpt lat="47.53564" lon="3.75283">
        <ele>248.16</ele>
        <time>2015-04-26T12:54:28Z</time>
      </trkpt>
      <trkpt lat="47.53559" lon="3.75318">
        <ele>245.75</ele>
        <time>2015-04-26T12:54:45Z</time>
      </trkpt>
      <trkpt lat="47.53557" lon="3.75334">
        <ele>244.79</ele>
        <time>2015-04-26T12:54:52Z</time>
      </trkpt>
      <trkpt lat="47.53555" lon="3.75369">
        <ele>242.39</ele>
        <time>2015-04-26T12:55:07Z</time>
      </trkpt>
      <trkpt lat="47.53548" lon="3.75402">
        <ele>240.95</ele>
        <time>2015-04-26T12:55:21Z</time>
      </trkpt>
      <trkpt lat="47.53548" lon="3.75406">
        <ele>240.95</ele>
        <time>2015-04-26T12:55:24Z</time>
      </trkpt>
      <trkpt lat="47.53548" lon="3.75411">
        <ele>240.95</ele>
        <time>2015-04-26T12:55:27Z</time>
      </trkpt>
      <trkpt lat="47.53548" lon="3.75427">
        <ele>239.99</ele>
        <time>2015-04-26T12:55:34Z</time>
      </trkpt>
      <trkpt lat="47.5355" lon="3.75437">
        <ele>239.51</ele>
        <time>2015-04-26T12:55:38Z</time>
      </trkpt>
      <trkpt lat="47.5355" lon="3.75448">
        <ele>239.51</ele>
        <time>2015-04-26T12:55:43Z</time>
      </trkpt>
      <trkpt lat="47.5355" lon="3.75456">
        <ele>235.66</ele>
        <time>2015-04-26T12:55:47Z</time>
      </trkpt>
      <trkpt lat="47.5355" lon="3.75459">
        <ele>242.87</ele>
        <time>2015-04-26T12:55:48Z</time>
      </trkpt>
      <trkpt lat="47.53549" lon="3.75464">
        <ele>239.51</ele>
        <time>2015-04-26T12:55:50Z</time>
      </trkpt>
      <trkpt lat="47.53548" lon="3.75465">
        <ele>239.51</ele>
        <time>2015-04-26T12:55:51Z</time>
      </trkpt>
      <trkpt lat="47.53548" lon="3.75471">
        <ele>239.02</ele>
        <time>2015-04-26T12:55:53Z</time>
      </trkpt>
      <trkpt lat="47.53548" lon="3.75481">
        <ele>238.06</ele>
        <time>2015-04-26T12:55:57Z</time>
      </trkpt>
      <trkpt lat="47.53547" lon="3.75487">
        <ele>238.54</ele>
        <time>2015-04-26T12:56:01Z</time>
      </trkpt>
      <trkpt lat="47.53546" lon="3.75495">
        <ele>234.22</ele>
        <time>2015-04-26T12:56:06Z</time>
      </trkpt>
      <trkpt lat="47.53546" lon="3.75506">
        <ele>238.06</ele>
        <time>2015-04-26T12:56:10Z</time>
      </trkpt>
      <trkpt lat="47.53545" lon="3.75534">
        <ele>237.1</ele>
        <time>2015-04-26T12:56:23Z</time>
      </trkpt>
      <trkpt lat="47.53545" lon="3.75536">
        <ele>237.1</ele>
        <time>2015-04-26T12:56:24Z</time>
      </trkpt>
      <trkpt lat="47.53545" lon="3.75547">
        <ele>237.1</ele>
        <time>2015-04-26T12:56:28Z</time>
      </trkpt>
      <trkpt lat="47.53542" lon="3.75587">
        <ele>235.66</ele>
        <time>2015-04-26T12:56:43Z</time>
      </trkpt>
      <trkpt lat="47.53539" lon="3.7562">
        <ele>234.7</ele>
        <time>2015-04-26T12:56:57Z</time>
      </trkpt>
      <trkpt lat="47.53535" lon="3.75642">
        <ele>234.22</ele>
        <time>2015-04-26T12:57:09Z</time>
      </trkpt>
      <trkpt lat="47.53532" lon="3.75654">
        <ele>233.26</ele>
        <time>2015-04-26T12:57:15Z</time>
      </trkpt>
      <trkpt lat="47.53513" lon="3.75678">
        <ele>232.78</ele>
        <time>2015-04-26T12:57:32Z</time>
      </trkpt>
      <trkpt lat="47.53512" lon="3.75679">
        <ele>232.3</ele>
        <time>2015-04-26T12:57:33Z</time>
      </trkpt>
      <trkpt lat="47.53506" lon="3.75689">
        <ele>231.81</ele>
        <time>2015-04-26T12:57:39Z</time>
      </trkpt>
      <trkpt lat="47.53495" lon="3.7571">
        <ele>231.33</ele>
        <time>2015-04-26T12:57:51Z</time>
      </trkpt>
      <trkpt lat="47.53478" lon="3.75734">
        <ele>230.37</ele>
        <time>2015-04-26T12:58:06Z</time>
      </trkpt>
      <trkpt lat="47.53466" lon="3.75757">
        <ele>229.89</ele>
        <time>2015-04-26T12:58:17Z</time>
      </trkpt>
      <trkpt lat="47.53441" lon="3.7577">
        <ele>227.97</ele>
        <time>2015-04-26T12:58:33Z</time>
      </trkpt>
      <trkpt lat="47.53425" lon="3.75787">
        <ele>226.53</ele>
        <time>2015-04-26T12:58:46Z</time>
      </trkpt>
      <trkpt lat="47.53416" lon="3.75796">
        <ele>225.57</ele>
        <time>2015-04-26T12:58:55Z</time>
      </trkpt>
      <trkpt lat="47.53396" lon="3.75822">
        <ele>225.57</ele>
        <time>2015-04-26T12:59:11Z</time>
      </trkpt>
      <trkpt lat="47.53391" lon="3.75834">
        <ele>226.53</ele>
        <time>2015-04-26T12:59:19Z</time>
      </trkpt>
      <trkpt lat="47.5339" lon="3.75848">
        <ele>227.49</ele>
        <time>2015-04-26T12:59:26Z</time>
      </trkpt>
      <trkpt lat="47.53382" lon="3.75867">
        <ele>229.41</ele>
        <time>2015-04-26T12:59:34Z</time>
      </trkpt>
      <trkpt lat="47.53367" lon="3.75878">
        <ele>230.85</ele>
        <time>2015-04-26T12:59:44Z</time>
      </trkpt>
      <trkpt lat="47.53349" lon="3.75869">
        <ele>232.3</ele>
        <time>2015-04-26T12:59:58Z</time>
      </trkpt>
      <trkpt lat="47.53345" lon="3.75867">
        <ele>233.26</ele>
        <time>2015-04-26T13:00:00Z</time>
      </trkpt>
      <trkpt lat="47.53333" lon="3.75863">
        <ele>233.74</ele>
        <time>2015-04-26T13:00:08Z</time>
      </trkpt>
      <trkpt lat="47.53317" lon="3.75854">
        <ele>235.66</ele>
        <time>2015-04-26T13:00:22Z</time>
      </trkpt>
      <trkpt lat="47.53311" lon="3.75854">
        <ele>236.62</ele>
        <time>2015-04-26T13:00:27Z</time>
      </trkpt>
      <trkpt lat="47.53296" lon="3.75848">
        <ele>238.54</ele>
        <time>2015-04-26T13:00:42Z</time>
      </trkpt>
      <trkpt lat="47.53295" lon="3.75847">
        <ele>238.54</ele>
        <time>2015-04-26T13:00:43Z</time>
      </trkpt>
      <trkpt lat="47.53284" lon="3.75835">
        <ele>239.02</ele>
        <time>2015-04-26T13:00:54Z</time>
      </trkpt>
      <trkpt lat="47.53276" lon="3.75827">
        <ele>239.51</ele>
        <time>2015-04-26T13:01:01Z</time>
      </trkpt>
      <trkpt lat="47.53264" lon="3.75814">
        <ele>239.99</ele>
        <time>2015-04-26T13:01:12Z</time>
      </trkpt>
      <trkpt lat="47.53256" lon="3.75811">
        <ele>240.95</ele>
        <time>2015-04-26T13:01:18Z</time>
      </trkpt>
      <trkpt lat="47.53251" lon="3.75817">
        <ele>241.91</ele>
        <time>2015-04-26T13:01:24Z</time>
      </trkpt>
      <trkpt lat="47.53239" lon="3.75829">
        <ele>244.31</ele>
        <time>2015-04-26T13:01:37Z</time>
      </trkpt>
      <trkpt lat="47.53238" lon="3.7583">
        <ele>244.31</ele>
        <time>2015-04-26T13:01:38Z</time>
      </trkpt>
      <trkpt lat="47.53225" lon="3.75844">
        <ele>246.23</ele>
        <time>2015-04-26T13:01:51Z</time>
      </trkpt>
      <trkpt lat="47.53223" lon="3.75846">
        <ele>246.72</ele>
        <time>2015-04-26T13:01:53Z</time>
      </trkpt>
      <trkpt lat="47.53215" lon="3.75853">
        <ele>247.68</ele>
        <time>2015-04-26T13:02:00Z</time>
      </trkpt>
      <trkpt lat="47.53213" lon="3.75855">
        <ele>247.68</ele>
        <time>2015-04-26T13:02:02Z</time>
      </trkpt>
      <trkpt lat="47.53199" lon="3.75867">
        <ele>250.08</ele>
        <time>2015-04-26T13:02:17Z</time>
      </trkpt>
      <trkpt lat="47.53198" lon="3.75869">
        <ele>250.56</ele>
        <time>2015-04-26T13:02:19Z</time>
      </trkpt>
      <trkpt lat="47.53183" lon="3.75881">
        <ele>252</ele>
        <time>2015-04-26T13:02:31Z</time>
      </trkpt>
      <trkpt lat="47.53181" lon="3.75882">
        <ele>251.52</ele>
        <time>2015-04-26T13:02:33Z</time>
      </trkpt>
      <trkpt lat="47.53174" lon="3.7589">
        <ele>252.48</ele>
        <time>2015-04-26T13:02:42Z</time>
      </trkpt>
      <trkpt lat="47.53169" lon="3.75896">
        <ele>253.44</ele>
        <time>2015-04-26T13:02:46Z</time>
      </trkpt>
      <trkpt lat="47.53155" lon="3.75911">
        <ele>253.93</ele>
        <time>2015-04-26T13:02:59Z</time>
      </trkpt>
      <trkpt lat="47.53151" lon="3.75915">
        <ele>254.89</ele>
        <time>2015-04-26T13:03:03Z</time>
      </trkpt>
      <trkpt lat="47.53143" lon="3.75924">
        <ele>254.89</ele>
        <time>2015-04-26T13:03:10Z</time>
      </trkpt>
      <trkpt lat="47.5314" lon="3.75927">
        <ele>254.89</ele>
        <time>2015-04-26T13:03:12Z</time>
      </trkpt>
      <trkpt lat="47.53124" lon="3.75943">
        <ele>255.85</ele>
        <time>2015-04-26T13:03:25Z</time>
      </trkpt>
      <trkpt lat="47.53122" lon="3.75946">
        <ele>255.85</ele>
        <time>2015-04-26T13:03:27Z</time>
      </trkpt>
      <trkpt lat="47.53111" lon="3.75957">
        <ele>256.33</ele>
        <time>2015-04-26T13:03:36Z</time>
      </trkpt>
      <trkpt lat="47.53104" lon="3.75963">
        <ele>256.81</ele>
        <time>2015-04-26T13:03:42Z</time>
      </trkpt>
      <trkpt lat="47.53097" lon="3.75972">
        <ele>256.81</ele>
        <time>2015-04-26T13:03:48Z</time>
      </trkpt>
      <trkpt lat="47.53088" lon="3.75981">
        <ele>256.81</ele>
        <time>2015-04-26T13:03:54Z</time>
      </trkpt>
      <trkpt lat="47.53076" lon="3.75992">
        <ele>257.29</ele>
        <time>2015-04-26T13:04:03Z</time>
      </trkpt>
      <trkpt lat="47.53066" lon="3.76001">
        <ele>257.29</ele>
        <time>2015-04-26T13:04:14Z</time>
      </trkpt>
      <trkpt lat="47.53058" lon="3.76009">
        <ele>257.29</ele>
        <time>2015-04-26T13:04:21Z</time>
      </trkpt>
      <trkpt lat="47.53043" lon="3.76026">
        <ele>257.29</ele>
        <time>2015-04-26T13:04:34Z</time>
      </trkpt>
      <trkpt lat="47.53027" lon="3.76043">
        <ele>257.29</ele>
        <time>2015-04-26T13:04:47Z</time>
      </trkpt>
      <trkpt lat="47.53009" lon="3.76062">
        <ele>256.81</ele>
        <time>2015-04-26T13:05:00Z</time>
      </trkpt>
      <trkpt lat="47.52992" lon="3.76077">
        <ele>256.81</ele>
        <time>2015-04-26T13:05:14Z</time>
      </trkpt>
      <trkpt lat="47.52974" lon="3.76092">
        <ele>256.33</ele>
        <time>2015-04-26T13:05:28Z</time>
      </trkpt>
      <trkpt lat="47.52963" lon="3.76099">
        <ele>255.85</ele>
        <time>2015-04-26T13:05:41Z</time>
      </trkpt>
      <trkpt lat="47.5296" lon="3.76102">
        <ele>255.37</ele>
        <time>2015-04-26T13:05:43Z</time>
      </trkpt>
      <trkpt lat="47.52946" lon="3.76111">
        <ele>254.41</ele>
        <time>2015-04-26T13:05:54Z</time>
      </trkpt>
      <trkpt lat="47.52941" lon="3.7611">
        <ele>254.89</ele>
        <time>2015-04-26T13:05:57Z</time>
      </trkpt>
      <trkpt lat="47.52937" lon="3.76107">
        <ele>254.41</ele>
        <time>2015-04-26T13:06:02Z</time>
      </trkpt>
      <trkpt lat="47.52925" lon="3.76096">
        <ele>254.41</ele>
        <time>2015-04-26T13:06:12Z</time>
      </trkpt>
      <trkpt lat="47.52914" lon="3.76086">
        <ele>254.41</ele>
        <time>2015-04-26T13:06:20Z</time>
      </trkpt>
      <trkpt lat="47.52908" lon="3.76082">
        <ele>254.89</ele>
        <time>2015-04-26T13:06:24Z</time>
      </trkpt>
      <trkpt lat="47.52897" lon="3.7607">
        <ele>254.89</ele>
        <time>2015-04-26T13:06:33Z</time>
      </trkpt>
      <trkpt lat="47.5289" lon="3.76061">
        <ele>254.89</ele>
        <time>2015-04-26T13:06:40Z</time>
      </trkpt>
      <trkpt lat="47.52887" lon="3.76057">
        <ele>255.37</ele>
        <time>2015-04-26T13:06:42Z</time>
      </trkpt>
      <trkpt lat="47.52868" lon="3.7603">
        <ele>255.37</ele>
        <time>2015-04-26T13:06:56Z</time>
      </trkpt>
      <trkpt lat="47.52867" lon="3.76029">
        <ele>255.85</ele>
        <time>2015-04-26T13:06:57Z</time>
      </trkpt>
      <trkpt lat="47.52856" lon="3.76008">
        <ele>255.85</ele>
        <time>2015-04-26T13:07:12Z</time>
      </trkpt>
      <trkpt lat="47.52852" lon="3.76004">
        <ele>256.33</ele>
        <time>2015-04-26T13:07:17Z</time>
      </trkpt>
      <trkpt lat="47.5285" lon="3.75998">
        <ele>256.33</ele>
        <time>2015-04-26T13:07:19Z</time>
      </trkpt>
      <trkpt lat="47.52837" lon="3.75972">
        <ele>256.33</ele>
        <time>2015-04-26T13:07:33Z</time>
      </trkpt>
      <trkpt lat="47.52836" lon="3.75969">
        <ele>256.33</ele>
        <time>2015-04-26T13:07:34Z</time>
      </trkpt>
      <trkpt lat="47.52834" lon="3.75963">
        <ele>256.33</ele>
        <time>2015-04-26T13:07:37Z</time>
      </trkpt>
      <trkpt lat="47.52821" lon="3.75941">
        <ele>256.33</ele>
        <time>2015-04-26T13:07:52Z</time>
      </trkpt>
      <trkpt lat="47.52819" lon="3.75937">
        <ele>256.33</ele>
        <time>2015-04-26T13:07:54Z</time>
      </trkpt>
      <trkpt lat="47.52819" lon="3.75932">
        <ele>256.33</ele>
        <time>2015-04-26T13:07:56Z</time>
      </trkpt>
      <trkpt lat="47.52813" lon="3.75916">
        <ele>255.85</ele>
        <time>2015-04-26T13:08:04Z</time>
      </trkpt>
      <trkpt lat="47.52807" lon="3.75892">
        <ele>255.85</ele>
        <time>2015-04-26T13:08:17Z</time>
      </trkpt>
      <trkpt lat="47.52806" lon="3.75887">
        <ele>255.85</ele>
        <time>2015-04-26T13:08:20Z</time>
      </trkpt>
      <trkpt lat="47.52798" lon="3.75868">
        <ele>255.37</ele>
        <time>2015-04-26T13:08:35Z</time>
      </trkpt>
      <trkpt lat="47.52797" lon="3.75867">
        <ele>255.37</ele>
        <time>2015-04-26T13:08:39Z</time>
      </trkpt>
      <trkpt lat="47.52782" lon="3.75848">
        <ele>255.37</ele>
        <time>2015-04-26T13:08:50Z</time>
      </trkpt>
      <trkpt lat="47.52778" lon="3.75842">
        <ele>254.89</ele>
        <time>2015-04-26T13:08:52Z</time>
      </trkpt>
      <trkpt lat="47.52757" lon="3.75815">
        <ele>255.37</ele>
        <time>2015-04-26T13:09:05Z</time>
      </trkpt>
      <trkpt lat="47.52752" lon="3.75808">
        <ele>254.89</ele>
        <time>2015-04-26T13:09:09Z</time>
      </trkpt>
      <trkpt lat="47.52747" lon="3.75798">
        <ele>255.37</ele>
        <time>2015-04-26T13:09:13Z</time>
      </trkpt>
      <trkpt lat="47.52735" lon="3.75776">
        <ele>254.89</ele>
        <time>2015-04-26T13:09:27Z</time>
      </trkpt>
      <trkpt lat="47.52723" lon="3.75754">
        <ele>254.41</ele>
        <time>2015-04-26T13:09:38Z</time>
      </trkpt>
      <trkpt lat="47.52713" lon="3.75743">
        <ele>254.89</ele>
        <time>2015-04-26T13:09:48Z</time>
      </trkpt>
      <trkpt lat="47.52707" lon="3.75731">
        <ele>255.37</ele>
        <time>2015-04-26T13:09:57Z</time>
      </trkpt>
      <trkpt lat="47.52704" lon="3.75727">
        <ele>255.37</ele>
        <time>2015-04-26T13:10:01Z</time>
      </trkpt>
      <trkpt lat="47.52697" lon="3.75715">
        <ele>255.85</ele>
        <time>2015-04-26T13:10:07Z</time>
      </trkpt>
      <trkpt lat="47.52692" lon="3.75709">
        <ele>256.33</ele>
        <time>2015-04-26T13:10:10Z</time>
      </trkpt>
      <trkpt lat="47.52684" lon="3.75704">
        <ele>256.33</ele>
        <time>2015-04-26T13:10:15Z</time>
      </trkpt>
      <trkpt lat="47.5267" lon="3.75694">
        <ele>256.81</ele>
        <time>2015-04-26T13:10:26Z</time>
      </trkpt>
      <trkpt lat="47.52662" lon="3.75689">
        <ele>257.29</ele>
        <time>2015-04-26T13:10:32Z</time>
      </trkpt>
      <trkpt lat="47.52648" lon="3.75671">
        <ele>257.29</ele>
        <time>2015-04-26T13:10:44Z</time>
      </trkpt>
      <trkpt lat="47.52637" lon="3.75655">
        <ele>257.77</ele>
        <time>2015-04-26T13:10:56Z</time>
      </trkpt>
      <trkpt lat="47.52632" lon="3.75649">
        <ele>257.77</ele>
        <time>2015-04-26T13:11:01Z</time>
      </trkpt>
      <trkpt lat="47.5263" lon="3.75645">
        <ele>257.77</ele>
        <time>2015-04-26T13:11:03Z</time>
      </trkpt>
      <trkpt lat="47.52624" lon="3.7564">
        <ele>257.77</ele>
        <time>2015-04-26T13:11:07Z</time>
      </trkpt>
      <trkpt lat="47.52615" lon="3.75628">
        <ele>257.77</ele>
        <time>2015-04-26T13:11:15Z</time>
      </trkpt>
      <trkpt lat="47.52611" lon="3.75621">
        <ele>258.25</ele>
        <time>2015-04-26T13:11:20Z</time>
      </trkpt>
      <trkpt lat="47.52603" lon="3.75609">
        <ele>258.25</ele>
        <time>2015-04-26T13:11:30Z</time>
      </trkpt>
      <trkpt lat="47.52601" lon="3.75605">
        <ele>258.25</ele>
        <time>2015-04-26T13:11:33Z</time>
      </trkpt>
      <trkpt lat="47.52587" lon="3.75586">
        <ele>258.73</ele>
        <time>2015-04-26T13:11:45Z</time>
      </trkpt>
      <trkpt lat="47.52578" lon="3.75565">
        <ele>259.69</ele>
        <time>2015-04-26T13:11:58Z</time>
      </trkpt>
      <trkpt lat="47.52572" lon="3.75549">
        <ele>259.69</ele>
        <time>2015-04-26T13:12:08Z</time>
      </trkpt>
      <trkpt lat="47.52568" lon="3.75546">
        <ele>260.17</ele>
        <time>2015-04-26T13:12:13Z</time>
      </trkpt>
      <trkpt lat="47.52565" lon="3.75545">
        <ele>260.65</ele>
        <time>2015-04-26T13:12:16Z</time>
      </trkpt>
      <trkpt lat="47.52556" lon="3.75542">
        <ele>260.65</ele>
        <time>2015-04-26T13:12:23Z</time>
      </trkpt>
      <trkpt lat="47.52553" lon="3.75537">
        <ele>260.65</ele>
        <time>2015-04-26T13:12:26Z</time>
      </trkpt>
      <trkpt lat="47.52543" lon="3.75531">
        <ele>261.14</ele>
        <time>2015-04-26T13:12:34Z</time>
      </trkpt>
      <trkpt lat="47.52532" lon="3.75524">
        <ele>261.62</ele>
        <time>2015-04-26T13:12:40Z</time>
      </trkpt>
      <trkpt lat="47.52519" lon="3.75518">
        <ele>262.58</ele>
        <time>2015-04-26T13:12:48Z</time>
      </trkpt>
      <trkpt lat="47.52506" lon="3.75509">
        <ele>263.54</ele>
        <time>2015-04-26T13:12:59Z</time>
      </trkpt>
      <trkpt lat="47.52501" lon="3.75507">
        <ele>263.06</ele>
        <time>2015-04-26T13:13:02Z</time>
      </trkpt>
      <trkpt lat="47.52487" lon="3.75506">
        <ele>263.54</ele>
        <time>2015-04-26T13:13:14Z</time>
      </trkpt>
      <trkpt lat="47.52472" lon="3.75496">
        <ele>263.06</ele>
        <time>2015-04-26T13:13:29Z</time>
      </trkpt>
      <trkpt lat="47.52472" lon="3.75496">
        <ele>264.98</ele>
        <time>2015-04-26T13:13:34Z</time>
      </trkpt>
      <trkpt lat="47.52463" lon="3.75491">
        <ele>264.02</ele>
        <time>2015-04-26T13:13:41Z</time>
      </trkpt>
      <trkpt lat="47.52446" lon="3.75485">
        <ele>263.06</ele>
        <time>2015-04-26T13:13:51Z</time>
      </trkpt>
      <trkpt lat="47.52439" lon="3.75483">
        <ele>263.54</ele>
        <time>2015-04-26T13:13:55Z</time>
      </trkpt>
      <trkpt lat="47.5243" lon="3.75479">
        <ele>263.06</ele>
        <time>2015-04-26T13:14:02Z</time>
      </trkpt>
      <trkpt lat="47.52418" lon="3.75482">
        <ele>262.1</ele>
        <time>2015-04-26T13:14:10Z</time>
      </trkpt>
      <trkpt lat="47.52412" lon="3.75484">
        <ele>262.1</ele>
        <time>2015-04-26T13:14:14Z</time>
      </trkpt>
      <trkpt lat="47.52404" lon="3.75479">
        <ele>261.62</ele>
        <time>2015-04-26T13:14:18Z</time>
      </trkpt>
      <trkpt lat="47.52397" lon="3.75479">
        <ele>260.17</ele>
        <time>2015-04-26T13:14:26Z</time>
      </trkpt>
      <trkpt lat="47.52389" lon="3.75476">
        <ele>259.69</ele>
        <time>2015-04-26T13:14:28Z</time>
      </trkpt>
      <trkpt lat="47.52386" lon="3.75475">
        <ele>259.69</ele>
        <time>2015-04-26T13:14:30Z</time>
      </trkpt>
      <trkpt lat="47.52378" lon="3.7547">
        <ele>259.21</ele>
        <time>2015-04-26T13:14:33Z</time>
      </trkpt>
      <trkpt lat="47.52353" lon="3.75458">
        <ele>257.29</ele>
        <time>2015-04-26T13:14:45Z</time>
      </trkpt>
      <trkpt lat="47.52334" lon="3.75457">
        <ele>254.41</ele>
        <time>2015-04-26T13:15:00Z</time>
      </trkpt>
      <trkpt lat="47.52331" lon="3.7546">
        <ele>253.44</ele>
        <time>2015-04-26T13:15:03Z</time>
      </trkpt>
      <trkpt lat="47.52314" lon="3.75472">
        <ele>250.56</ele>
        <time>2015-04-26T13:15:18Z</time>
      </trkpt>
      <trkpt lat="47.52303" lon="3.75482">
        <ele>247.2</ele>
        <time>2015-04-26T13:15:30Z</time>
      </trkpt>
      <trkpt lat="47.52287" lon="3.75481">
        <ele>244.79</ele>
        <time>2015-04-26T13:15:42Z</time>
      </trkpt>
      <trkpt lat="47.52275" lon="3.75475">
        <ele>242.39</ele>
        <time>2015-04-26T13:15:50Z</time>
      </trkpt>
      <trkpt lat="47.52269" lon="3.75472">
        <ele>241.91</ele>
        <time>2015-04-26T13:15:54Z</time>
      </trkpt>
      <trkpt lat="47.52252" lon="3.75457">
        <ele>238.54</ele>
        <time>2015-04-26T13:16:08Z</time>
      </trkpt>
      <trkpt lat="47.52251" lon="3.75456">
        <ele>238.54</ele>
        <time>2015-04-26T13:16:09Z</time>
      </trkpt>
      <trkpt lat="47.52235" lon="3.75442">
        <ele>236.62</ele>
        <time>2015-04-26T13:16:22Z</time>
      </trkpt>
      <trkpt lat="47.52219" lon="3.75434">
        <ele>234.22</ele>
        <time>2015-04-26T13:16:33Z</time>
      </trkpt>
      <trkpt lat="47.52203" lon="3.75423">
        <ele>231.33</ele>
        <time>2015-04-26T13:16:46Z</time>
      </trkpt>
      <trkpt lat="47.52194" lon="3.75422">
        <ele>227.97</ele>
        <time>2015-04-26T13:16:57Z</time>
      </trkpt>
      <trkpt lat="47.5219" lon="3.7542">
        <ele>227.01</ele>
        <time>2015-04-26T13:17:01Z</time>
      </trkpt>
      <trkpt lat="47.52185" lon="3.75416">
        <ele>225.57</ele>
        <time>2015-04-26T13:17:05Z</time>
      </trkpt>
      <trkpt lat="47.52172" lon="3.75412">
        <ele>221.72</ele>
        <time>2015-04-26T13:17:17Z</time>
      </trkpt>
      <trkpt lat="47.52163" lon="3.75411">
        <ele>219.8</ele>
        <time>2015-04-26T13:17:25Z</time>
      </trkpt>
      <trkpt lat="47.52143" lon="3.75403">
        <ele>215.95</ele>
        <time>2015-04-26T13:17:38Z</time>
      </trkpt>
      <trkpt lat="47.52137" lon="3.75401">
        <ele>214.99</ele>
        <time>2015-04-26T13:17:42Z</time>
      </trkpt>
      <trkpt lat="47.5212" lon="3.75391">
        <ele>212.11</ele>
        <time>2015-04-26T13:17:53Z</time>
      </trkpt>
      <trkpt lat="47.52112" lon="3.75393">
        <ele>210.67</ele>
        <time>2015-04-26T13:17:58Z</time>
      </trkpt>
      <trkpt lat="47.52095" lon="3.75394">
        <ele>207.3</ele>
        <time>2015-04-26T13:18:10Z</time>
      </trkpt>
      <trkpt lat="47.5208" lon="3.75398">
        <ele>204.42</ele>
        <time>2015-04-26T13:18:20Z</time>
      </trkpt>
      <trkpt lat="47.52066" lon="3.75396">
        <ele>201.05</ele>
        <time>2015-04-26T13:18:32Z</time>
      </trkpt>
      <trkpt lat="47.52065" lon="3.75395">
        <ele>201.05</ele>
        <time>2015-04-26T13:18:33Z</time>
      </trkpt>
      <trkpt lat="47.52061" lon="3.75393">
        <ele>200.57</ele>
        <time>2015-04-26T13:18:35Z</time>
      </trkpt>
      <trkpt lat="47.52059" lon="3.7539">
        <ele>200.09</ele>
        <time>2015-04-26T13:18:37Z</time>
      </trkpt>
      <trkpt lat="47.5205" lon="3.75392">
        <ele>198.17</ele>
        <time>2015-04-26T13:18:46Z</time>
      </trkpt>
      <trkpt lat="47.52043" lon="3.75389">
        <ele>197.21</ele>
        <time>2015-04-26T13:18:52Z</time>
      </trkpt>
      <trkpt lat="47.52026" lon="3.75381">
        <ele>194.8</ele>
        <time>2015-04-26T13:19:04Z</time>
      </trkpt>
      <trkpt lat="47.52001" lon="3.75378">
        <ele>191.92</ele>
        <time>2015-04-26T13:19:15Z</time>
      </trkpt>
      <trkpt lat="47.51993" lon="3.75378">
        <ele>191.92</ele>
        <time>2015-04-26T13:19:19Z</time>
      </trkpt>
      <trkpt lat="47.51973" lon="3.75374">
        <ele>190.48</ele>
        <time>2015-04-26T13:19:32Z</time>
      </trkpt>
      <trkpt lat="47.51963" lon="3.75369">
        <ele>190</ele>
        <time>2015-04-26T13:19:36Z</time>
      </trkpt>
      <trkpt lat="47.51941" lon="3.75364">
        <ele>189.52</ele>
        <time>2015-04-26T13:19:48Z</time>
      </trkpt>
      <trkpt lat="47.51937" lon="3.75362">
        <ele>188.56</ele>
        <time>2015-04-26T13:19:50Z</time>
      </trkpt>
      <trkpt lat="47.51925" lon="3.75358">
        <ele>188.56</ele>
        <time>2015-04-26T13:19:57Z</time>
      </trkpt>
      <trkpt lat="47.51922" lon="3.75356">
        <ele>188.08</ele>
        <time>2015-04-26T13:19:59Z</time>
      </trkpt>
      <trkpt lat="47.519" lon="3.75345">
        <ele>187.11</ele>
        <time>2015-04-26T13:20:12Z</time>
      </trkpt>
      <trkpt lat="47.5188" lon="3.7533">
        <ele>186.63</ele>
        <time>2015-04-26T13:20:25Z</time>
      </trkpt>
      <trkpt lat="47.51858" lon="3.7531">
        <ele>184.71</ele>
        <time>2015-04-26T13:20:39Z</time>
      </trkpt>
      <trkpt lat="47.51839" lon="3.75293">
        <ele>184.23</ele>
        <time>2015-04-26T13:20:53Z</time>
      </trkpt>
      <trkpt lat="47.51822" lon="3.75282">
        <ele>183.27</ele>
        <time>2015-04-26T13:21:05Z</time>
      </trkpt>
      <trkpt lat="47.51806" lon="3.75266">
        <ele>182.79</ele>
        <time>2015-04-26T13:21:16Z</time>
      </trkpt>
      <trkpt lat="47.51782" lon="3.75254">
        <ele>181.83</ele>
        <time>2015-04-26T13:21:30Z</time>
      </trkpt>
      <trkpt lat="47.5176" lon="3.75239">
        <ele>180.87</ele>
        <time>2015-04-26T13:21:45Z</time>
      </trkpt>
      <trkpt lat="47.51743" lon="3.75225">
        <ele>180.38</ele>
        <time>2015-04-26T13:21:57Z</time>
      </trkpt>
      <trkpt lat="47.51724" lon="3.75211">
        <ele>179.9</ele>
        <time>2015-04-26T13:22:10Z</time>
      </trkpt>
      <trkpt lat="47.517" lon="3.7519">
        <ele>178.94</ele>
        <time>2015-04-26T13:22:25Z</time>
      </trkpt>
      <trkpt lat="47.51682" lon="3.75172">
        <ele>178.46</ele>
        <time>2015-04-26T13:22:39Z</time>
      </trkpt>
      <trkpt lat="47.51668" lon="3.7516">
        <ele>177.98</ele>
        <time>2015-04-26T13:22:48Z</time>
      </trkpt>
      <trkpt lat="47.51647" lon="3.75141">
        <ele>177.5</ele>
        <time>2015-04-26T13:23:04Z</time>
      </trkpt>
      <trkpt lat="47.51636" lon="3.75128">
        <ele>176.54</ele>
        <time>2015-04-26T13:23:13Z</time>
      </trkpt>
      <trkpt lat="47.51623" lon="3.75115">
        <ele>176.54</ele>
        <time>2015-04-26T13:23:23Z</time>
      </trkpt>
      <trkpt lat="47.51607" lon="3.75106">
        <ele>176.06</ele>
        <time>2015-04-26T13:23:32Z</time>
      </trkpt>
      <trkpt lat="47.51591" lon="3.75087">
        <ele>176.06</ele>
        <time>2015-04-26T13:23:44Z</time>
      </trkpt>
      <trkpt lat="47.51574" lon="3.75074">
        <ele>174.62</ele>
        <time>2015-04-26T13:23:54Z</time>
      </trkpt>
      <trkpt lat="47.51552" lon="3.75056">
        <ele>174.14</ele>
        <time>2015-04-26T13:24:08Z</time>
      </trkpt>
      <trkpt lat="47.51538" lon="3.7504">
        <ele>174.14</ele>
        <time>2015-04-26T13:24:19Z</time>
      </trkpt>
      <trkpt lat="47.51515" lon="3.75026">
        <ele>173.17</ele>
        <time>2015-04-26T13:24:33Z</time>
      </trkpt>
      <trkpt lat="47.51495" lon="3.75009">
        <ele>173.17</ele>
        <time>2015-04-26T13:24:45Z</time>
      </trkpt>
      <trkpt lat="47.51488" lon="3.75007">
        <ele>172.21</ele>
        <time>2015-04-26T13:24:49Z</time>
      </trkpt>
      <trkpt lat="47.51478" lon="3.75002">
        <ele>171.73</ele>
        <time>2015-04-26T13:24:55Z</time>
      </trkpt>
      <trkpt lat="47.51455" lon="3.74979">
        <ele>171.25</ele>
        <time>2015-04-26T13:25:10Z</time>
      </trkpt>
      <trkpt lat="47.51454" lon="3.74975">
        <ele>171.25</ele>
        <time>2015-04-26T13:25:12Z</time>
      </trkpt>
      <trkpt lat="47.5145" lon="3.74971">
        <ele>171.25</ele>
        <time>2015-04-26T13:25:15Z</time>
      </trkpt>
      <trkpt lat="47.51433" lon="3.74955">
        <ele>172.21</ele>
        <time>2015-04-26T13:25:27Z</time>
      </trkpt>
      <trkpt lat="47.51422" lon="3.74942">
        <ele>173.17</ele>
        <time>2015-04-26T13:25:37Z</time>
      </trkpt>
      <trkpt lat="47.51397" lon="3.74935">
        <ele>172.69</ele>
        <time>2015-04-26T13:25:50Z</time>
      </trkpt>
      <trkpt lat="47.5138" lon="3.74931">
        <ele>172.69</ele>
        <time>2015-04-26T13:26:03Z</time>
      </trkpt>
      <trkpt lat="47.51376" lon="3.74928">
        <ele>173.66</ele>
        <time>2015-04-26T13:26:07Z</time>
      </trkpt>
      <trkpt lat="47.51372" lon="3.74926">
        <ele>173.66</ele>
        <time>2015-04-26T13:26:09Z</time>
      </trkpt>
      <trkpt lat="47.51352" lon="3.74919">
        <ele>173.66</ele>
        <time>2015-04-26T13:26:21Z</time>
      </trkpt>
      <trkpt lat="47.51349" lon="3.74917">
        <ele>176.06</ele>
        <time>2015-04-26T13:26:23Z</time>
      </trkpt>
      <trkpt lat="47.51346" lon="3.74915">
        <ele>173.17</ele>
        <time>2015-04-26T13:26:25Z</time>
      </trkpt>
      <trkpt lat="47.51343" lon="3.74912">
        <ele>166.45</ele>
        <time>2015-04-26T13:26:27Z</time>
      </trkpt>
      <trkpt lat="47.51342" lon="3.74911">
        <ele>177.98</ele>
        <time>2015-04-26T13:26:28Z</time>
      </trkpt>
      <trkpt lat="47.51341" lon="3.74909">
        <ele>173.17</ele>
        <time>2015-04-26T13:26:29Z</time>
      </trkpt>
      <trkpt lat="47.51339" lon="3.74906">
        <ele>172.21</ele>
        <time>2015-04-26T13:26:31Z</time>
      </trkpt>
      <trkpt lat="47.51319" lon="3.74893">
        <ele>170.77</ele>
        <time>2015-04-26T13:26:43Z</time>
      </trkpt>
      <trkpt lat="47.51314" lon="3.7489">
        <ele>171.25</ele>
        <time>2015-04-26T13:26:48Z</time>
      </trkpt>
      <trkpt lat="47.51289" lon="3.74896">
        <ele>171.25</ele>
        <time>2015-04-26T13:27:05Z</time>
      </trkpt>
      <trkpt lat="47.51272" lon="3.74911">
        <ele>172.69</ele>
        <time>2015-04-26T13:27:19Z</time>
      </trkpt>
      <trkpt lat="47.51251" lon="3.74925">
        <ele>173.66</ele>
        <time>2015-04-26T13:27:34Z</time>
      </trkpt>
      <trkpt lat="47.51235" lon="3.7492">
        <ele>175.58</ele>
        <time>2015-04-26T13:27:48Z</time>
      </trkpt>
      <trkpt lat="47.51238" lon="3.74901">
        <ele>176.54</ele>
        <time>2015-04-26T13:27:59Z</time>
      </trkpt>
      <trkpt lat="47.51241" lon="3.74893">
        <ele>177.5</ele>
        <time>2015-04-26T13:28:03Z</time>
      </trkpt>
      <trkpt lat="47.5124" lon="3.74881">
        <ele>178.46</ele>
        <time>2015-04-26T13:28:12Z</time>
      </trkpt>
      <trkpt lat="47.51234" lon="3.7488">
        <ele>178.94</ele>
        <time>2015-04-26T13:28:16Z</time>
      </trkpt>
      <trkpt lat="47.51218" lon="3.74881">
        <ele>180.38</ele>
        <time>2015-04-26T13:28:32Z</time>
      </trkpt>
      <trkpt lat="47.51216" lon="3.7487">
        <ele>181.83</ele>
        <time>2015-04-26T13:28:43Z</time>
      </trkpt>
      <trkpt lat="47.51216" lon="3.74869">
        <ele>181.83</ele>
        <time>2015-04-26T13:28:46Z</time>
      </trkpt>
      <trkpt lat="47.51212" lon="3.74853">
        <ele>182.79</ele>
        <time>2015-04-26T13:28:58Z</time>
      </trkpt>
      <trkpt lat="47.51211" lon="3.74847">
        <ele>183.27</ele>
        <time>2015-04-26T13:29:02Z</time>
      </trkpt>
      <trkpt lat="47.51211" lon="3.74832">
        <ele>184.23</ele>
        <time>2015-04-26T13:29:16Z</time>
      </trkpt>
      <trkpt lat="47.51203" lon="3.74822">
        <ele>185.19</ele>
        <time>2015-04-26T13:29:30Z</time>
      </trkpt>
      <trkpt lat="47.512" lon="3.74821">
        <ele>185.19</ele>
        <time>2015-04-26T13:29:46Z</time>
      </trkpt>
      <trkpt lat="47.51197" lon="3.74816">
        <ele>185.67</ele>
        <time>2015-04-26T13:30:00Z</time>
      </trkpt>
      <trkpt lat="47.51197" lon="3.74819">
        <ele>185.19</ele>
        <time>2015-04-26T13:30:17Z</time>
      </trkpt>
      <trkpt lat="47.51196" lon="3.74821">
        <ele>185.67</ele>
        <time>2015-04-26T13:30:32Z</time>
      </trkpt>
      <trkpt lat="47.51198" lon="3.74819">
        <ele>185.67</ele>
        <time>2015-04-26T13:30:46Z</time>
      </trkpt>
      <trkpt lat="47.512" lon="3.74819">
        <ele>185.67</ele>
        <time>2015-04-26T13:31:01Z</time>
      </trkpt>
      <trkpt lat="47.51201" lon="3.74817">
        <ele>185.67</ele>
        <time>2015-04-26T13:31:18Z</time>
      </trkpt>
      <trkpt lat="47.512" lon="3.74817">
        <ele>185.67</ele>
        <time>2015-04-26T13:31:38Z</time>
      </trkpt>
      <trkpt lat="47.51203" lon="3.74816">
        <ele>186.15</ele>
        <time>2015-04-26T13:32:02Z</time>
      </trkpt>
      <trkpt lat="47.51203" lon="3.74817">
        <ele>186.15</ele>
        <time>2015-04-26T13:32:15Z</time>
      </trkpt>
      <trkpt lat="47.51203" lon="3.74817">
        <ele>186.15</ele>
        <time>2015-04-26T13:32:34Z</time>
      </trkpt>
      <trkpt lat="47.51201" lon="3.74817">
        <ele>186.15</ele>
        <time>2015-04-26T13:32:50Z</time>
      </trkpt>
      <trkpt lat="47.51204" lon="3.74819">
        <ele>185.67</ele>
        <time>2015-04-26T13:33:06Z</time>
      </trkpt>
      <trkpt lat="47.51204" lon="3.74818">
        <ele>186.15</ele>
        <time>2015-04-26T13:33:25Z</time>
      </trkpt>
      <trkpt lat="47.51204" lon="3.74818">
        <ele>186.15</ele>
        <time>2015-04-26T13:33:45Z</time>
      </trkpt>
      <trkpt lat="47.51197" lon="3.74818">
        <ele>186.63</ele>
        <time>2015-04-26T13:34:02Z</time>
      </trkpt>
      <trkpt lat="47.51196" lon="3.74818">
        <ele>186.63</ele>
        <time>2015-04-26T13:34:19Z</time>
      </trkpt>
      <trkpt lat="47.51197" lon="3.74819">
        <ele>186.15</ele>
        <time>2015-04-26T13:34:36Z</time>
      </trkpt>
      <trkpt lat="47.51197" lon="3.74819">
        <ele>186.63</ele>
        <time>2015-04-26T13:34:56Z</time>
      </trkpt>
      <trkpt lat="47.51196" lon="3.74819">
        <ele>186.63</ele>
        <time>2015-04-26T13:35:13Z</time>
      </trkpt>
      <trkpt lat="47.51195" lon="3.74819">
        <ele>186.63</ele>
        <time>2015-04-26T13:35:32Z</time>
      </trkpt>
      <trkpt lat="47.51195" lon="3.74817">
        <ele>187.11</ele>
        <time>2015-04-26T13:35:52Z</time>
      </trkpt>
      <trkpt lat="47.51197" lon="3.74818">
        <ele>186.63</ele>
        <time>2015-04-26T13:36:06Z</time>
      </trkpt>
      <trkpt lat="47.51195" lon="3.74818">
        <ele>187.11</ele>
        <time>2015-04-26T13:36:23Z</time>
      </trkpt>
      <trkpt lat="47.51194" lon="3.74817">
        <ele>187.11</ele>
        <time>2015-04-26T13:36:36Z</time>
      </trkpt>
      <trkpt lat="47.51194" lon="3.74817">
        <ele>187.11</ele>
        <time>2015-04-26T13:36:51Z</time>
      </trkpt>
      <trkpt lat="47.51194" lon="3.74818">
        <ele>187.59</ele>
        <time>2015-04-26T13:37:11Z</time>
      </trkpt>
      <trkpt lat="47.51193" lon="3.74819">
        <ele>187.59</ele>
        <time>2015-04-26T13:37:29Z</time>
      </trkpt>
      <trkpt lat="47.51193" lon="3.7482">
        <ele>187.11</ele>
        <time>2015-04-26T13:37:43Z</time>
      </trkpt>
      <trkpt lat="47.51195" lon="3.74826">
        <ele>187.11</ele>
        <time>2015-04-26T13:37:48Z</time>
      </trkpt>
      <trkpt lat="47.51193" lon="3.74843">
        <ele>186.15</ele>
        <time>2015-04-26T13:38:00Z</time>
      </trkpt>
      <trkpt lat="47.51182" lon="3.74853">
        <ele>185.67</ele>
        <time>2015-04-26T13:38:13Z</time>
      </trkpt>
      <trkpt lat="47.51166" lon="3.74852">
        <ele>186.15</ele>
        <time>2015-04-26T13:38:27Z</time>
      </trkpt>
      <trkpt lat="47.51164" lon="3.74848">
        <ele>186.15</ele>
        <time>2015-04-26T13:38:29Z</time>
      </trkpt>
      <trkpt lat="47.51146" lon="3.74837">
        <ele>186.15</ele>
        <time>2015-04-26T13:38:44Z</time>
      </trkpt>
      <trkpt lat="47.51144" lon="3.74838">
        <ele>182.79</ele>
        <time>2015-04-26T13:38:47Z</time>
      </trkpt>
      <trkpt lat="47.51143" lon="3.74839">
        <ele>186.15</ele>
        <time>2015-04-26T13:38:48Z</time>
      </trkpt>
      <trkpt lat="47.51138" lon="3.74847">
        <ele>183.75</ele>
        <time>2015-04-26T13:38:57Z</time>
      </trkpt>
      <trkpt lat="47.51134" lon="3.74855">
        <ele>183.27</ele>
        <time>2015-04-26T13:39:02Z</time>
      </trkpt>
      <trkpt lat="47.51121" lon="3.74889">
        <ele>180.38</ele>
        <time>2015-04-26T13:39:19Z</time>
      </trkpt>
      <trkpt lat="47.51116" lon="3.74906">
        <ele>178.46</ele>
        <time>2015-04-26T13:39:30Z</time>
      </trkpt>
      <trkpt lat="47.51112" lon="3.74918">
        <ele>177.02</ele>
        <time>2015-04-26T13:39:36Z</time>
      </trkpt>
      <trkpt lat="47.5111" lon="3.7494">
        <ele>175.1</ele>
        <time>2015-04-26T13:39:47Z</time>
      </trkpt>
      <trkpt lat="47.51105" lon="3.74971">
        <ele>172.21</ele>
        <time>2015-04-26T13:40:03Z</time>
      </trkpt>
      <trkpt lat="47.51098" lon="3.75001">
        <ele>169.33</ele>
        <time>2015-04-26T13:40:19Z</time>
      </trkpt>
      <trkpt lat="47.51087" lon="3.75021">
        <ele>167.89</ele>
        <time>2015-04-26T13:40:32Z</time>
      </trkpt>
      <trkpt lat="47.51074" lon="3.75051">
        <ele>166.45</ele>
        <time>2015-04-26T13:40:49Z</time>
      </trkpt>
      <trkpt lat="47.51062" lon="3.75081">
        <ele>165</ele>
        <time>2015-04-26T13:41:04Z</time>
      </trkpt>
      <trkpt lat="47.51049" lon="3.75112">
        <ele>164.04</ele>
        <time>2015-04-26T13:41:21Z</time>
      </trkpt>
      <trkpt lat="47.51038" lon="3.75136">
        <ele>163.56</ele>
        <time>2015-04-26T13:41:34Z</time>
      </trkpt>
      <trkpt lat="47.51025" lon="3.75161">
        <ele>163.08</ele>
        <time>2015-04-26T13:41:49Z</time>
      </trkpt>
      <trkpt lat="47.5101" lon="3.75184">
        <ele>162.12</ele>
        <time>2015-04-26T13:42:04Z</time>
      </trkpt>
      <trkpt lat="47.51006" lon="3.75189">
        <ele>162.12</ele>
        <time>2015-04-26T13:42:08Z</time>
      </trkpt>
      <trkpt lat="47.50983" lon="3.75189">
        <ele>161.16</ele>
        <time>2015-04-26T13:42:25Z</time>
      </trkpt>
      <trkpt lat="47.5096" lon="3.75177">
        <ele>160.2</ele>
        <time>2015-04-26T13:42:39Z</time>
      </trkpt>
      <trkpt lat="47.50938" lon="3.75169">
        <ele>160.68</ele>
        <time>2015-04-26T13:42:52Z</time>
      </trkpt>
      <trkpt lat="47.50916" lon="3.75169">
        <ele>160.68</ele>
        <time>2015-04-26T13:43:07Z</time>
      </trkpt>
      <trkpt lat="47.50893" lon="3.75176">
        <ele>160.68</ele>
        <time>2015-04-26T13:43:22Z</time>
      </trkpt>
      <trkpt lat="47.50883" lon="3.75192">
        <ele>160.68</ele>
        <time>2015-04-26T13:43:34Z</time>
      </trkpt>
      <trkpt lat="47.50869" lon="3.75208">
        <ele>160.2</ele>
        <time>2015-04-26T13:43:47Z</time>
      </trkpt>
      <trkpt lat="47.5085" lon="3.75238">
        <ele>159.72</ele>
        <time>2015-04-26T13:44:03Z</time>
      </trkpt>
      <trkpt lat="47.50836" lon="3.7526">
        <ele>159.72</ele>
        <time>2015-04-26T13:44:16Z</time>
      </trkpt>
      <trkpt lat="47.50819" lon="3.75282">
        <ele>159.72</ele>
        <time>2015-04-26T13:44:31Z</time>
      </trkpt>
      <trkpt lat="47.50809" lon="3.753">
        <ele>158.75</ele>
        <time>2015-04-26T13:44:44Z</time>
      </trkpt>
      <trkpt lat="47.50796" lon="3.75309">
        <ele>159.72</ele>
        <time>2015-04-26T13:44:56Z</time>
      </trkpt>
      <trkpt lat="47.5078" lon="3.75311">
        <ele>160.68</ele>
        <time>2015-04-26T13:45:10Z</time>
      </trkpt>
      <trkpt lat="47.50774" lon="3.7531">
        <ele>162.12</ele>
        <time>2015-04-26T13:45:16Z</time>
      </trkpt>
      <trkpt lat="47.50763" lon="3.75313">
        <ele>164.04</ele>
        <time>2015-04-26T13:45:25Z</time>
      </trkpt>
      <trkpt lat="47.50751" lon="3.75317">
        <ele>165.96</ele>
        <time>2015-04-26T13:45:38Z</time>
      </trkpt>
      <trkpt lat="47.50738" lon="3.75309">
        <ele>167.89</ele>
        <time>2015-04-26T13:45:52Z</time>
      </trkpt>
      <trkpt lat="47.50734" lon="3.75309">
        <ele>167.89</ele>
        <time>2015-04-26T13:45:56Z</time>
      </trkpt>
      <trkpt lat="47.5073" lon="3.75309">
        <ele>168.37</ele>
        <time>2015-04-26T13:45:59Z</time>
      </trkpt>
      <trkpt lat="47.50722" lon="3.75304">
        <ele>169.33</ele>
        <time>2015-04-26T13:46:11Z</time>
      </trkpt>
      <trkpt lat="47.50719" lon="3.753">
        <ele>169.33</ele>
        <time>2015-04-26T13:46:15Z</time>
      </trkpt>
      <trkpt lat="47.50713" lon="3.75299">
        <ele>169.81</ele>
        <time>2015-04-26T13:46:20Z</time>
      </trkpt>
      <trkpt lat="47.50696" lon="3.75298">
        <ele>170.77</ele>
        <time>2015-04-26T13:46:33Z</time>
      </trkpt>
      <trkpt lat="47.50692" lon="3.75296">
        <ele>171.25</ele>
        <time>2015-04-26T13:46:38Z</time>
      </trkpt>
      <trkpt lat="47.50675" lon="3.75294">
        <ele>172.21</ele>
        <time>2015-04-26T13:46:50Z</time>
      </trkpt>
      <trkpt lat="47.50661" lon="3.75291">
        <ele>173.17</ele>
        <time>2015-04-26T13:47:01Z</time>
      </trkpt>
      <trkpt lat="47.50652" lon="3.7529">
        <ele>172.69</ele>
        <time>2015-04-26T13:47:09Z</time>
      </trkpt>
      <trkpt lat="47.50648" lon="3.75288">
        <ele>172.69</ele>
        <time>2015-04-26T13:47:12Z</time>
      </trkpt>
      <trkpt lat="47.50629" lon="3.75278">
        <ele>172.21</ele>
        <time>2015-04-26T13:47:27Z</time>
      </trkpt>
      <trkpt lat="47.50612" lon="3.75271">
        <ele>170.77</ele>
        <time>2015-04-26T13:47:40Z</time>
      </trkpt>
      <trkpt lat="47.50601" lon="3.75267">
        <ele>170.77</ele>
        <time>2015-04-26T13:47:48Z</time>
      </trkpt>
      <trkpt lat="47.50593" lon="3.75259">
        <ele>170.29</ele>
        <time>2015-04-26T13:47:54Z</time>
      </trkpt>
      <trkpt lat="47.50591" lon="3.75256">
        <ele>170.29</ele>
        <time>2015-04-26T13:47:57Z</time>
      </trkpt>
      <trkpt lat="47.50567" lon="3.75243">
        <ele>169.81</ele>
        <time>2015-04-26T13:48:15Z</time>
      </trkpt>
      <trkpt lat="47.50552" lon="3.75236">
        <ele>170.29</ele>
        <time>2015-04-26T13:48:27Z</time>
      </trkpt>
      <trkpt lat="47.50538" lon="3.75231">
        <ele>170.77</ele>
        <time>2015-04-26T13:48:38Z</time>
      </trkpt>
      <trkpt lat="47.50519" lon="3.75229">
        <ele>171.25</ele>
        <time>2015-04-26T13:48:54Z</time>
      </trkpt>
      <trkpt lat="47.50504" lon="3.7523">
        <ele>171.73</ele>
        <time>2015-04-26T13:49:05Z</time>
      </trkpt>
      <trkpt lat="47.50496" lon="3.75229">
        <ele>171.73</ele>
        <time>2015-04-26T13:49:14Z</time>
      </trkpt>
      <trkpt lat="47.50481" lon="3.75219">
        <ele>173.17</ele>
        <time>2015-04-26T13:49:29Z</time>
      </trkpt>
      <trkpt lat="47.50473" lon="3.75219">
        <ele>174.14</ele>
        <time>2015-04-26T13:49:40Z</time>
      </trkpt>
      <trkpt lat="47.50462" lon="3.75219">
        <ele>175.1</ele>
        <time>2015-04-26T13:49:51Z</time>
      </trkpt>
      <trkpt lat="47.50442" lon="3.75215">
        <ele>176.06</ele>
        <time>2015-04-26T13:50:04Z</time>
      </trkpt>
      <trkpt lat="47.5044" lon="3.75216">
        <ele>176.06</ele>
        <time>2015-04-26T13:50:05Z</time>
      </trkpt>
      <trkpt lat="47.50422" lon="3.75207">
        <ele>177.5</ele>
        <time>2015-04-26T13:50:19Z</time>
      </trkpt>
      <trkpt lat="47.50411" lon="3.75199">
        <ele>178.94</ele>
        <time>2015-04-26T13:50:32Z</time>
      </trkpt>
      <trkpt lat="47.50381" lon="3.75184">
        <ele>181.35</ele>
        <time>2015-04-26T13:50:49Z</time>
      </trkpt>
      <trkpt lat="47.50364" lon="3.75173">
        <ele>183.75</ele>
        <time>2015-04-26T13:51:06Z</time>
      </trkpt>
      <trkpt lat="47.50358" lon="3.75166">
        <ele>185.19</ele>
        <time>2015-04-26T13:51:24Z</time>
      </trkpt>
      <trkpt lat="47.50348" lon="3.75155">
        <ele>187.11</ele>
        <time>2015-04-26T13:51:39Z</time>
      </trkpt>
      <trkpt lat="47.50346" lon="3.75148">
        <ele>188.56</ele>
        <time>2015-04-26T13:51:52Z</time>
      </trkpt>
      <trkpt lat="47.50328" lon="3.75143">
        <ele>190</ele>
        <time>2015-04-26T13:52:05Z</time>
      </trkpt>
      <trkpt lat="47.50311" lon="3.75141">
        <ele>191.44</ele>
        <time>2015-04-26T13:52:21Z</time>
      </trkpt>
      <trkpt lat="47.50303" lon="3.75135">
        <ele>193.36</ele>
        <time>2015-04-26T13:52:32Z</time>
      </trkpt>
      <trkpt lat="47.5028" lon="3.75131">
        <ele>195.77</ele>
        <time>2015-04-26T13:52:46Z</time>
      </trkpt>
      <trkpt lat="47.50277" lon="3.75129">
        <ele>196.25</ele>
        <time>2015-04-26T13:52:49Z</time>
      </trkpt>
      <trkpt lat="47.50254" lon="3.75109">
        <ele>199.61</ele>
        <time>2015-04-26T13:53:06Z</time>
      </trkpt>
      <trkpt lat="47.50246" lon="3.75105">
        <ele>200.57</ele>
        <time>2015-04-26T13:53:13Z</time>
      </trkpt>
      <trkpt lat="47.50242" lon="3.75105">
        <ele>202.01</ele>
        <time>2015-04-26T13:53:16Z</time>
      </trkpt>
      <trkpt lat="47.50239" lon="3.75106">
        <ele>202.01</ele>
        <time>2015-04-26T13:53:19Z</time>
      </trkpt>
      <trkpt lat="47.50224" lon="3.75118">
        <ele>204.42</ele>
        <time>2015-04-26T13:53:32Z</time>
      </trkpt>
      <trkpt lat="47.50211" lon="3.7514">
        <ele>207.3</ele>
        <time>2015-04-26T13:53:45Z</time>
      </trkpt>
      <trkpt lat="47.50206" lon="3.75147">
        <ele>207.3</ele>
        <time>2015-04-26T13:53:49Z</time>
      </trkpt>
      <trkpt lat="47.50186" lon="3.75167">
        <ele>208.74</ele>
        <time>2015-04-26T13:54:04Z</time>
      </trkpt>
      <trkpt lat="47.5018" lon="3.75169">
        <ele>209.7</ele>
        <time>2015-04-26T13:54:08Z</time>
      </trkpt>
      <trkpt lat="47.50176" lon="3.75174">
        <ele>210.19</ele>
        <time>2015-04-26T13:54:12Z</time>
      </trkpt>
      <trkpt lat="47.50162" lon="3.75183">
        <ele>210.67</ele>
        <time>2015-04-26T13:54:24Z</time>
      </trkpt>
      <trkpt lat="47.50145" lon="3.75191">
        <ele>211.63</ele>
        <time>2015-04-26T13:54:39Z</time>
      </trkpt>
      <trkpt lat="47.5013" lon="3.75195">
        <ele>211.15</ele>
        <time>2015-04-26T13:54:51Z</time>
      </trkpt>
      <trkpt lat="47.50118" lon="3.75197">
        <ele>211.15</ele>
        <time>2015-04-26T13:55:00Z</time>
      </trkpt>
      <trkpt lat="47.50107" lon="3.75204">
        <ele>211.63</ele>
        <time>2015-04-26T13:55:07Z</time>
      </trkpt>
      <trkpt lat="47.50099" lon="3.75209">
        <ele>212.11</ele>
        <time>2015-04-26T13:55:13Z</time>
      </trkpt>
      <trkpt lat="47.50093" lon="3.7521">
        <ele>211.63</ele>
        <time>2015-04-26T13:55:18Z</time>
      </trkpt>
      <trkpt lat="47.50081" lon="3.75218">
        <ele>212.11</ele>
        <time>2015-04-26T13:55:28Z</time>
      </trkpt>
      <trkpt lat="47.50078" lon="3.75218">
        <ele>212.11</ele>
        <time>2015-04-26T13:55:30Z</time>
      </trkpt>
      <trkpt lat="47.50068" lon="3.75223">
        <ele>212.11</ele>
        <time>2015-04-26T13:55:37Z</time>
      </trkpt>
      <trkpt lat="47.5006" lon="3.75232">
        <ele>211.63</ele>
        <time>2015-04-26T13:55:45Z</time>
      </trkpt>
      <trkpt lat="47.50055" lon="3.75232">
        <ele>211.63</ele>
        <time>2015-04-26T13:55:49Z</time>
      </trkpt>
      <trkpt lat="47.50038" lon="3.75243">
        <ele>212.11</ele>
        <time>2015-04-26T13:56:02Z</time>
      </trkpt>
      <trkpt lat="47.5002" lon="3.75247">
        <ele>212.11</ele>
        <time>2015-04-26T13:56:15Z</time>
      </trkpt>
      <trkpt lat="47.49999" lon="3.75252">
        <ele>211.63</ele>
        <time>2015-04-26T13:56:29Z</time>
      </trkpt>
      <trkpt lat="47.49982" lon="3.75251">
        <ele>212.11</ele>
        <time>2015-04-26T13:56:42Z</time>
      </trkpt>
      <trkpt lat="47.49959" lon="3.75254">
        <ele>212.11</ele>
        <time>2015-04-26T13:56:56Z</time>
      </trkpt>
      <trkpt lat="47.49952" lon="3.75254">
        <ele>212.59</ele>
        <time>2015-04-26T13:57:01Z</time>
      </trkpt>
      <trkpt lat="47.49932" lon="3.75251">
        <ele>212.59</ele>
        <time>2015-04-26T13:57:16Z</time>
      </trkpt>
      <trkpt lat="47.49927" lon="3.75252">
        <ele>212.59</ele>
        <time>2015-04-26T13:57:19Z</time>
      </trkpt>
      <trkpt lat="47.49924" lon="3.75255">
        <ele>213.07</ele>
        <time>2015-04-26T13:57:22Z</time>
      </trkpt>
      <trkpt lat="47.49906" lon="3.75253">
        <ele>212.59</ele>
        <time>2015-04-26T13:57:34Z</time>
      </trkpt>
      <trkpt lat="47.4989" lon="3.75256">
        <ele>213.55</ele>
        <time>2015-04-26T13:57:46Z</time>
      </trkpt>
      <trkpt lat="47.49871" lon="3.75252">
        <ele>214.51</ele>
        <time>2015-04-26T13:57:57Z</time>
      </trkpt>
      <trkpt lat="47.49854" lon="3.75251">
        <ele>215.47</ele>
        <time>2015-04-26T13:58:10Z</time>
      </trkpt>
      <trkpt lat="47.49847" lon="3.75247">
        <ele>215.95</ele>
        <time>2015-04-26T13:58:15Z</time>
      </trkpt>
      <trkpt lat="47.49836" lon="3.75246">
        <ele>215.95</ele>
        <time>2015-04-26T13:58:24Z</time>
      </trkpt>
      <trkpt lat="47.4982" lon="3.75241">
        <ele>217.4</ele>
        <time>2015-04-26T13:58:37Z</time>
      </trkpt>
      <trkpt lat="47.49819" lon="3.75243">
        <ele>217.4</ele>
        <time>2015-04-26T13:58:38Z</time>
      </trkpt>
      <trkpt lat="47.49813" lon="3.7524">
        <ele>217.4</ele>
        <time>2015-04-26T13:58:43Z</time>
      </trkpt>
      <trkpt lat="47.49793" lon="3.75235">
        <ele>218.84</ele>
        <time>2015-04-26T13:59:00Z</time>
      </trkpt>
      <trkpt lat="47.49792" lon="3.75234">
        <ele>218.84</ele>
        <time>2015-04-26T13:59:01Z</time>
      </trkpt>
      <trkpt lat="47.49776" lon="3.75231">
        <ele>219.32</ele>
        <time>2015-04-26T13:59:12Z</time>
      </trkpt>
      <trkpt lat="47.49757" lon="3.75229">
        <ele>219.8</ele>
        <time>2015-04-26T13:59:26Z</time>
      </trkpt>
      <trkpt lat="47.4974" lon="3.75231">
        <ele>221.24</ele>
        <time>2015-04-26T13:59:39Z</time>
      </trkpt>
      <trkpt lat="47.49726" lon="3.75231">
        <ele>221.72</ele>
        <time>2015-04-26T13:59:51Z</time>
      </trkpt>
      <trkpt lat="47.49709" lon="3.75231">
        <ele>221.72</ele>
        <time>2015-04-26T14:00:05Z</time>
      </trkpt>
      <trkpt lat="47.49688" lon="3.75233">
        <ele>221.72</ele>
        <time>2015-04-26T14:00:19Z</time>
      </trkpt>
      <trkpt lat="47.49682" lon="3.75233">
        <ele>221.24</ele>
        <time>2015-04-26T14:00:24Z</time>
      </trkpt>
      <trkpt lat="47.4966" lon="3.75235">
        <ele>221.24</ele>
        <time>2015-04-26T14:00:41Z</time>
      </trkpt>
      <trkpt lat="47.4965" lon="3.75234">
        <ele>218.36</ele>
        <time>2015-04-26T14:00:49Z</time>
      </trkpt>
      <trkpt lat="47.49648" lon="3.75234">
        <ele>223.16</ele>
        <time>2015-04-26T14:00:50Z</time>
      </trkpt>
      <trkpt lat="47.4963" lon="3.75233">
        <ele>221.24</ele>
        <time>2015-04-26T14:01:04Z</time>
      </trkpt>
      <trkpt lat="47.49622" lon="3.75232">
        <ele>215.47</ele>
        <time>2015-04-26T14:01:10Z</time>
      </trkpt>
      <trkpt lat="47.49621" lon="3.75232">
        <ele>225.57</ele>
        <time>2015-04-26T14:01:11Z</time>
      </trkpt>
      <trkpt lat="47.49617" lon="3.75231">
        <ele>220.28</ele>
        <time>2015-04-26T14:01:14Z</time>
      </trkpt>
      <trkpt lat="47.49595" lon="3.75221">
        <ele>219.8</ele>
        <time>2015-04-26T14:01:28Z</time>
      </trkpt>
      <trkpt lat="47.49568" lon="3.75218">
        <ele>219.32</ele>
        <time>2015-04-26T14:01:45Z</time>
      </trkpt>
      <trkpt lat="47.49546" lon="3.75214">
        <ele>218.36</ele>
        <time>2015-04-26T14:02:01Z</time>
      </trkpt>
      <trkpt lat="47.49539" lon="3.75215">
        <ele>218.84</ele>
        <time>2015-04-26T14:02:06Z</time>
      </trkpt>
      <trkpt lat="47.49529" lon="3.75212">
        <ele>218.36</ele>
        <time>2015-04-26T14:02:14Z</time>
      </trkpt>
      <trkpt lat="47.49508" lon="3.75209">
        <ele>217.88</ele>
        <time>2015-04-26T14:02:29Z</time>
      </trkpt>
      <trkpt lat="47.49491" lon="3.75197">
        <ele>217.88</ele>
        <time>2015-04-26T14:02:41Z</time>
      </trkpt>
      <trkpt lat="47.49475" lon="3.75186">
        <ele>216.43</ele>
        <time>2015-04-26T14:02:53Z</time>
      </trkpt>
      <trkpt lat="47.49468" lon="3.75179">
        <ele>216.43</ele>
        <time>2015-04-26T14:03:00Z</time>
      </trkpt>
      <trkpt lat="47.49464" lon="3.75173">
        <ele>215.95</ele>
        <time>2015-04-26T14:03:04Z</time>
      </trkpt>
      <trkpt lat="47.49455" lon="3.7517">
        <ele>215.95</ele>
        <time>2015-04-26T14:03:10Z</time>
      </trkpt>
      <trkpt lat="47.4944" lon="3.75163">
        <ele>214.51</ele>
        <time>2015-04-26T14:03:21Z</time>
      </trkpt>
      <trkpt lat="47.49438" lon="3.75162">
        <ele>214.51</ele>
        <time>2015-04-26T14:03:23Z</time>
      </trkpt>
      <trkpt lat="47.49423" lon="3.75155">
        <ele>213.55</ele>
        <time>2015-04-26T14:03:38Z</time>
      </trkpt>
      <trkpt lat="47.49422" lon="3.75154">
        <ele>213.07</ele>
        <time>2015-04-26T14:03:39Z</time>
      </trkpt>
      <trkpt lat="47.49416" lon="3.7515">
        <ele>212.59</ele>
        <time>2015-04-26T14:03:45Z</time>
      </trkpt>
      <trkpt lat="47.4941" lon="3.75149">
        <ele>212.11</ele>
        <time>2015-04-26T14:03:49Z</time>
      </trkpt>
      <trkpt lat="47.494" lon="3.7515">
        <ele>210.19</ele>
        <time>2015-04-26T14:03:59Z</time>
      </trkpt>
      <trkpt lat="47.49385" lon="3.75151">
        <ele>207.78</ele>
        <time>2015-04-26T14:04:14Z</time>
      </trkpt>
      <trkpt lat="47.49367" lon="3.75146">
        <ele>204.42</ele>
        <time>2015-04-26T14:04:29Z</time>
      </trkpt>
      <trkpt lat="47.49352" lon="3.7514">
        <ele>202.49</ele>
        <time>2015-04-26T14:04:42Z</time>
      </trkpt>
      <trkpt lat="47.4935" lon="3.75141">
        <ele>202.49</ele>
        <time>2015-04-26T14:04:45Z</time>
      </trkpt>
      <trkpt lat="47.49338" lon="3.75138">
        <ele>201.53</ele>
        <time>2015-04-26T14:04:50Z</time>
      </trkpt>
      <trkpt lat="47.49318" lon="3.75133">
        <ele>198.65</ele>
        <time>2015-04-26T14:05:06Z</time>
      </trkpt>
      <trkpt lat="47.49305" lon="3.75133">
        <ele>196.25</ele>
        <time>2015-04-26T14:05:20Z</time>
      </trkpt>
      <trkpt lat="47.49289" lon="3.75127">
        <ele>194.8</ele>
        <time>2015-04-26T14:05:31Z</time>
      </trkpt>
      <trkpt lat="47.49265" lon="3.75114">
        <ele>192.4</ele>
        <time>2015-04-26T14:05:47Z</time>
      </trkpt>
      <trkpt lat="47.49255" lon="3.7511">
        <ele>186.63</ele>
        <time>2015-04-26T14:05:53Z</time>
      </trkpt>
      <trkpt lat="47.49254" lon="3.75109">
        <ele>195.77</ele>
        <time>2015-04-26T14:05:54Z</time>
      </trkpt>
      <trkpt lat="47.49252" lon="3.75108">
        <ele>191.92</ele>
        <time>2015-04-26T14:05:55Z</time>
      </trkpt>
      <trkpt lat="47.49237" lon="3.75103">
        <ele>190</ele>
        <time>2015-04-26T14:06:04Z</time>
      </trkpt>
      <trkpt lat="47.49217" lon="3.75096">
        <ele>188.56</ele>
        <time>2015-04-26T14:06:15Z</time>
      </trkpt>
      <trkpt lat="47.49193" lon="3.75089">
        <ele>186.63</ele>
        <time>2015-04-26T14:06:30Z</time>
      </trkpt>
      <trkpt lat="47.4917" lon="3.75083">
        <ele>185.67</ele>
        <time>2015-04-26T14:06:44Z</time>
      </trkpt>
      <trkpt lat="47.49157" lon="3.7508">
        <ele>184.71</ele>
        <time>2015-04-26T14:06:52Z</time>
      </trkpt>
      <trkpt lat="47.49151" lon="3.75078">
        <ele>184.23</ele>
        <time>2015-04-26T14:06:56Z</time>
      </trkpt>
      <trkpt lat="47.49136" lon="3.75071">
        <ele>183.75</ele>
        <time>2015-04-26T14:07:04Z</time>
      </trkpt>
      <trkpt lat="47.49129" lon="3.75069">
        <ele>183.27</ele>
        <time>2015-04-26T14:07:09Z</time>
      </trkpt>
      <trkpt lat="47.49121" lon="3.75068">
        <ele>182.31</ele>
        <time>2015-04-26T14:07:15Z</time>
      </trkpt>
      <trkpt lat="47.49106" lon="3.75063">
        <ele>181.83</ele>
        <time>2015-04-26T14:07:24Z</time>
      </trkpt>
      <trkpt lat="47.491" lon="3.75059">
        <ele>181.35</ele>
        <time>2015-04-26T14:07:29Z</time>
      </trkpt>
      <trkpt lat="47.49084" lon="3.75055">
        <ele>179.9</ele>
        <time>2015-04-26T14:07:44Z</time>
      </trkpt>
      <trkpt lat="47.49076" lon="3.75058">
        <ele>178.46</ele>
        <time>2015-04-26T14:07:52Z</time>
      </trkpt>
      <trkpt lat="47.49068" lon="3.75063">
        <ele>178.46</ele>
        <time>2015-04-26T14:07:58Z</time>
      </trkpt>
      <trkpt lat="47.4905" lon="3.75068">
        <ele>176.06</ele>
        <time>2015-04-26T14:08:13Z</time>
      </trkpt>
      <trkpt lat="47.49043" lon="3.7507">
        <ele>175.58</ele>
        <time>2015-04-26T14:08:17Z</time>
      </trkpt>
      <trkpt lat="47.49015" lon="3.75055">
        <ele>175.1</ele>
        <time>2015-04-26T14:08:33Z</time>
      </trkpt>
      <trkpt lat="47.48987" lon="3.75048">
        <ele>173.66</ele>
        <time>2015-04-26T14:08:49Z</time>
      </trkpt>
      <trkpt lat="47.48964" lon="3.75039">
        <ele>172.21</ele>
        <time>2015-04-26T14:09:03Z</time>
      </trkpt>
      <trkpt lat="47.48942" lon="3.75032">
        <ele>171.73</ele>
        <time>2015-04-26T14:09:17Z</time>
      </trkpt>
      <trkpt lat="47.4892" lon="3.75021">
        <ele>170.77</ele>
        <time>2015-04-26T14:09:32Z</time>
      </trkpt>
      <trkpt lat="47.489" lon="3.75011">
        <ele>169.81</ele>
        <time>2015-04-26T14:09:47Z</time>
      </trkpt>
      <trkpt lat="47.48877" lon="3.75001">
        <ele>168.85</ele>
        <time>2015-04-26T14:10:03Z</time>
      </trkpt>
      <trkpt lat="47.48862" lon="3.74995">
        <ele>168.85</ele>
        <time>2015-04-26T14:10:15Z</time>
      </trkpt>
      <trkpt lat="47.48844" lon="3.74987">
        <ele>167.89</ele>
        <time>2015-04-26T14:10:30Z</time>
      </trkpt>
      <trkpt lat="47.4883" lon="3.74979">
        <ele>167.89</ele>
        <time>2015-04-26T14:10:42Z</time>
      </trkpt>
      <trkpt lat="47.48817" lon="3.74981">
        <ele>167.41</ele>
        <time>2015-04-26T14:10:48Z</time>
      </trkpt>
      <trkpt lat="47.48811" lon="3.74981">
        <ele>167.41</ele>
        <time>2015-04-26T14:10:51Z</time>
      </trkpt>
      <trkpt lat="47.48807" lon="3.74982">
        <ele>166.93</ele>
        <time>2015-04-26T14:10:55Z</time>
      </trkpt>
      <trkpt lat="47.48801" lon="3.74982">
        <ele>167.41</ele>
        <time>2015-04-26T14:10:58Z</time>
      </trkpt>
      <trkpt lat="47.48786" lon="3.74973">
        <ele>166.45</ele>
        <time>2015-04-26T14:11:10Z</time>
      </trkpt>
      <trkpt lat="47.48763" lon="3.74966">
        <ele>165.48</ele>
        <time>2015-04-26T14:11:24Z</time>
      </trkpt>
      <trkpt lat="47.48741" lon="3.74963">
        <ele>164.04</ele>
        <time>2015-04-26T14:11:38Z</time>
      </trkpt>
      <trkpt lat="47.48721" lon="3.74961">
        <ele>162.6</ele>
        <time>2015-04-26T14:11:52Z</time>
      </trkpt>
      <trkpt lat="47.4871" lon="3.74959">
        <ele>161.64</ele>
        <time>2015-04-26T14:12:00Z</time>
      </trkpt>
      <trkpt lat="47.48709" lon="3.74943">
        <ele>160.68</ele>
        <time>2015-04-26T14:12:08Z</time>
      </trkpt>
      <trkpt lat="47.48714" lon="3.74937">
        <ele>161.16</ele>
        <time>2015-04-26T14:12:13Z</time>
      </trkpt>
      <trkpt lat="47.48728" lon="3.74912">
        <ele>161.16</ele>
        <time>2015-04-26T14:12:27Z</time>
      </trkpt>
      <trkpt lat="47.48731" lon="3.74892">
        <ele>156.83</ele>
        <time>2015-04-26T14:12:38Z</time>
      </trkpt>
      <trkpt lat="47.48731" lon="3.74889">
        <ele>156.83</ele>
        <time>2015-04-26T14:12:39Z</time>
      </trkpt>
      <trkpt lat="47.48731" lon="3.74887">
        <ele>164.04</ele>
        <time>2015-04-26T14:12:40Z</time>
      </trkpt>
      <trkpt lat="47.48731" lon="3.74885">
        <ele>161.16</ele>
        <time>2015-04-26T14:12:41Z</time>
      </trkpt>
      <trkpt lat="47.48728" lon="3.74879">
        <ele>160.68</ele>
        <time>2015-04-26T14:12:45Z</time>
      </trkpt>
      <trkpt lat="47.48716" lon="3.7487">
        <ele>160.2</ele>
        <time>2015-04-26T14:12:56Z</time>
      </trkpt>
      <trkpt lat="47.48707" lon="3.74873">
        <ele>159.72</ele>
        <time>2015-04-26T14:13:03Z</time>
      </trkpt>
      <trkpt lat="47.48682" lon="3.74886">
        <ele>159.24</ele>
        <time>2015-04-26T14:13:18Z</time>
      </trkpt>
      <trkpt lat="47.48659" lon="3.74897">
        <ele>158.75</ele>
        <time>2015-04-26T14:13:33Z</time>
      </trkpt>
      <trkpt lat="47.48633" lon="3.74907">
        <ele>158.27</ele>
        <time>2015-04-26T14:13:51Z</time>
      </trkpt>
      <trkpt lat="47.48613" lon="3.74914">
        <ele>158.27</ele>
        <time>2015-04-26T14:14:06Z</time>
      </trkpt>
      <trkpt lat="47.48601" lon="3.74922">
        <ele>158.75</ele>
        <time>2015-04-26T14:14:14Z</time>
      </trkpt>
      <trkpt lat="47.48596" lon="3.74924">
        <ele>158.75</ele>
        <time>2015-04-26T14:14:18Z</time>
      </trkpt>
      <trkpt lat="47.48581" lon="3.74943">
        <ele>158.75</ele>
        <time>2015-04-26T14:14:32Z</time>
      </trkpt>
      <trkpt lat="47.48578" lon="3.74948">
        <ele>158.27</ele>
        <time>2015-04-26T14:14:35Z</time>
      </trkpt>
      <trkpt lat="47.48568" lon="3.74967">
        <ele>158.75</ele>
        <time>2015-04-26T14:14:50Z</time>
      </trkpt>
      <trkpt lat="47.48553" lon="3.74997">
        <ele>159.24</ele>
        <time>2015-04-26T14:15:07Z</time>
      </trkpt>
      <trkpt lat="47.48531" lon="3.75009">
        <ele>160.68</ele>
        <time>2015-04-26T14:15:23Z</time>
      </trkpt>
      <trkpt lat="47.48511" lon="3.75019">
        <ele>161.16</ele>
        <time>2015-04-26T14:15:36Z</time>
      </trkpt>
      <trkpt lat="47.48491" lon="3.75021">
        <ele>161.64</ele>
        <time>2015-04-26T14:15:51Z</time>
      </trkpt>
      <trkpt lat="47.48471" lon="3.75026">
        <ele>161.64</ele>
        <time>2015-04-26T14:16:06Z</time>
      </trkpt>
      <trkpt lat="47.48446" lon="3.75033">
        <ele>162.6</ele>
        <time>2015-04-26T14:16:22Z</time>
      </trkpt>
      <trkpt lat="47.48424" lon="3.75046">
        <ele>162.6</ele>
        <time>2015-04-26T14:16:37Z</time>
      </trkpt>
      <trkpt lat="47.48401" lon="3.75059">
        <ele>163.56</ele>
        <time>2015-04-26T14:16:52Z</time>
      </trkpt>
      <trkpt lat="47.48385" lon="3.75067">
        <ele>164.52</ele>
        <time>2015-04-26T14:17:03Z</time>
      </trkpt>
      <trkpt lat="47.48364" lon="3.75073">
        <ele>166.45</ele>
        <time>2015-04-26T14:17:18Z</time>
      </trkpt>
      <trkpt lat="47.48343" lon="3.7508">
        <ele>168.85</ele>
        <time>2015-04-26T14:17:33Z</time>
      </trkpt>
      <trkpt lat="47.48325" lon="3.75085">
        <ele>170.29</ele>
        <time>2015-04-26T14:17:48Z</time>
      </trkpt>
      <trkpt lat="47.48307" lon="3.75083">
        <ele>170.29</ele>
        <time>2015-04-26T14:18:01Z</time>
      </trkpt>
      <trkpt lat="47.48292" lon="3.75079">
        <ele>169.81</ele>
        <time>2015-04-26T14:18:14Z</time>
      </trkpt>
      <trkpt lat="47.4827" lon="3.7507">
        <ele>167.89</ele>
        <time>2015-04-26T14:18:29Z</time>
      </trkpt>
      <trkpt lat="47.48258" lon="3.75067">
        <ele>166.45</ele>
        <time>2015-04-26T14:18:37Z</time>
      </trkpt>
      <trkpt lat="47.4823" lon="3.75066">
        <ele>165</ele>
        <time>2015-04-26T14:18:53Z</time>
      </trkpt>
      <trkpt lat="47.48206" lon="3.75066">
        <ele>164.04</ele>
        <time>2015-04-26T14:19:09Z</time>
      </trkpt>
      <trkpt lat="47.48181" lon="3.75067">
        <ele>163.08</ele>
        <time>2015-04-26T14:19:25Z</time>
      </trkpt>
      <trkpt lat="47.48159" lon="3.75065">
        <ele>163.56</ele>
        <time>2015-04-26T14:19:37Z</time>
      </trkpt>
      <trkpt lat="47.48138" lon="3.75067">
        <ele>163.08</ele>
        <time>2015-04-26T14:19:51Z</time>
      </trkpt>
      <trkpt lat="47.48119" lon="3.75063">
        <ele>163.56</ele>
        <time>2015-04-26T14:20:04Z</time>
      </trkpt>
      <trkpt lat="47.48104" lon="3.75063">
        <ele>164.04</ele>
        <time>2015-04-26T14:20:15Z</time>
      </trkpt>
      <trkpt lat="47.48086" lon="3.75063">
        <ele>164.52</ele>
        <time>2015-04-26T14:20:28Z</time>
      </trkpt>
      <trkpt lat="47.48067" lon="3.75066">
        <ele>165.96</ele>
        <time>2015-04-26T14:20:41Z</time>
      </trkpt>
      <trkpt lat="47.48066" lon="3.75067">
        <ele>165.96</ele>
        <time>2015-04-26T14:20:42Z</time>
      </trkpt>
      <trkpt lat="47.48048" lon="3.7506">
        <ele>166.45</ele>
        <time>2015-04-26T14:20:59Z</time>
      </trkpt>
      <trkpt lat="47.48047" lon="3.7506">
        <ele>166.93</ele>
        <time>2015-04-26T14:21:00Z</time>
      </trkpt>
      <trkpt lat="47.48037" lon="3.75055">
        <ele>166.45</ele>
        <time>2015-04-26T14:21:09Z</time>
      </trkpt>
      <trkpt lat="47.4802" lon="3.75043">
        <ele>166.93</ele>
        <time>2015-04-26T14:21:22Z</time>
      </trkpt>
      <trkpt lat="47.47994" lon="3.75035">
        <ele>167.89</ele>
        <time>2015-04-26T14:21:37Z</time>
      </trkpt>
      <trkpt lat="47.47987" lon="3.75031">
        <ele>168.37</ele>
        <time>2015-04-26T14:21:42Z</time>
      </trkpt>
      <trkpt lat="47.47982" lon="3.7503">
        <ele>168.37</ele>
        <time>2015-04-26T14:21:46Z</time>
      </trkpt>
      <trkpt lat="47.47976" lon="3.75031">
        <ele>167.89</ele>
        <time>2015-04-26T14:21:50Z</time>
      </trkpt>
      <trkpt lat="47.47953" lon="3.75045">
        <ele>166.45</ele>
        <time>2015-04-26T14:22:06Z</time>
      </trkpt>
      <trkpt lat="47.4795" lon="3.75048">
        <ele>166.93</ele>
        <time>2015-04-26T14:22:09Z</time>
      </trkpt>
      <trkpt lat="47.47939" lon="3.75056">
        <ele>165.48</ele>
        <time>2015-04-26T14:22:21Z</time>
      </trkpt>
      <trkpt lat="47.47919" lon="3.75057">
        <ele>163.56</ele>
        <time>2015-04-26T14:22:36Z</time>
      </trkpt>
      <trkpt lat="47.4791" lon="3.75059">
        <ele>163.08</ele>
        <time>2015-04-26T14:22:43Z</time>
      </trkpt>
      <trkpt lat="47.47889" lon="3.75051">
        <ele>160.68</ele>
        <time>2015-04-26T14:22:59Z</time>
      </trkpt>
      <trkpt lat="47.47887" lon="3.7505">
        <ele>160.68</ele>
        <time>2015-04-26T14:23:00Z</time>
      </trkpt>
      <trkpt lat="47.47869" lon="3.75042">
        <ele>159.72</ele>
        <time>2015-04-26T14:23:13Z</time>
      </trkpt>
      <trkpt lat="47.47866" lon="3.7504">
        <ele>159.72</ele>
        <time>2015-04-26T14:23:15Z</time>
      </trkpt>
      <trkpt lat="47.47848" lon="3.75034">
        <ele>159.24</ele>
        <time>2015-04-26T14:23:28Z</time>
      </trkpt>
      <trkpt lat="47.47846" lon="3.75034">
        <ele>159.24</ele>
        <time>2015-04-26T14:23:29Z</time>
      </trkpt>
      <trkpt lat="47.47827" lon="3.75033">
        <ele>158.27</ele>
        <time>2015-04-26T14:23:41Z</time>
      </trkpt>
      <trkpt lat="47.47809" lon="3.75047">
        <ele>158.27</ele>
        <time>2015-04-26T14:23:56Z</time>
      </trkpt>
      <trkpt lat="47.478" lon="3.75057">
        <ele>157.79</ele>
        <time>2015-04-26T14:24:03Z</time>
      </trkpt>
      <trkpt lat="47.47784" lon="3.75079">
        <ele>158.75</ele>
        <time>2015-04-26T14:24:17Z</time>
      </trkpt>
      <trkpt lat="47.47767" lon="3.75099">
        <ele>160.2</ele>
        <time>2015-04-26T14:24:31Z</time>
      </trkpt>
      <trkpt lat="47.47752" lon="3.75113">
        <ele>161.64</ele>
        <time>2015-04-26T14:24:46Z</time>
      </trkpt>
      <trkpt lat="47.47739" lon="3.75124">
        <ele>163.08</ele>
        <time>2015-04-26T14:24:58Z</time>
      </trkpt>
      <trkpt lat="47.47731" lon="3.7513">
        <ele>164.52</ele>
        <time>2015-04-26T14:25:07Z</time>
      </trkpt>
      <trkpt lat="47.47724" lon="3.75135">
        <ele>165</ele>
        <time>2015-04-26T14:25:12Z</time>
      </trkpt>
      <trkpt lat="47.47706" lon="3.75125">
        <ele>167.41</ele>
        <time>2015-04-26T14:25:29Z</time>
      </trkpt>
      <trkpt lat="47.47693" lon="3.75125">
        <ele>168.85</ele>
        <time>2015-04-26T14:25:40Z</time>
      </trkpt>
      <trkpt lat="47.47688" lon="3.75124">
        <ele>169.81</ele>
        <time>2015-04-26T14:25:44Z</time>
      </trkpt>
      <trkpt lat="47.47665" lon="3.75114">
        <ele>170.77</ele>
        <time>2015-04-26T14:26:00Z</time>
      </trkpt>
      <trkpt lat="47.47642" lon="3.75106">
        <ele>172.21</ele>
        <time>2015-04-26T14:26:14Z</time>
      </trkpt>
      <trkpt lat="47.47624" lon="3.75094">
        <ele>172.69</ele>
        <time>2015-04-26T14:26:28Z</time>
      </trkpt>
      <trkpt lat="47.47604" lon="3.75088">
        <ele>174.14</ele>
        <time>2015-04-26T14:26:41Z</time>
      </trkpt>
      <trkpt lat="47.47589" lon="3.75077">
        <ele>175.1</ele>
        <time>2015-04-26T14:26:55Z</time>
      </trkpt>
      <trkpt lat="47.47569" lon="3.75069">
        <ele>176.54</ele>
        <time>2015-04-26T14:27:09Z</time>
      </trkpt>
      <trkpt lat="47.47553" lon="3.75056">
        <ele>177.02</ele>
        <time>2015-04-26T14:27:23Z</time>
      </trkpt>
      <trkpt lat="47.4753" lon="3.75046">
        <ele>177.98</ele>
        <time>2015-04-26T14:27:38Z</time>
      </trkpt>
      <trkpt lat="47.47515" lon="3.75039">
        <ele>178.46</ele>
        <time>2015-04-26T14:27:50Z</time>
      </trkpt>
      <trkpt lat="47.47496" lon="3.75027">
        <ele>178.94</ele>
        <time>2015-04-26T14:28:06Z</time>
      </trkpt>
      <trkpt lat="47.47485" lon="3.75026">
        <ele>179.9</ele>
        <time>2015-04-26T14:28:16Z</time>
      </trkpt>
      <trkpt lat="47.47478" lon="3.75023">
        <ele>179.9</ele>
        <time>2015-04-26T14:28:21Z</time>
      </trkpt>
      <trkpt lat="47.47464" lon="3.75016">
        <ele>180.87</ele>
        <time>2015-04-26T14:28:32Z</time>
      </trkpt>
      <trkpt lat="47.4744" lon="3.7501">
        <ele>180.87</ele>
        <time>2015-04-26T14:28:48Z</time>
      </trkpt>
      <trkpt lat="47.47427" lon="3.75003">
        <ele>181.83</ele>
        <time>2015-04-26T14:29:01Z</time>
      </trkpt>
      <trkpt lat="47.47426" lon="3.75002">
        <ele>181.83</ele>
        <time>2015-04-26T14:29:03Z</time>
      </trkpt>
      <trkpt lat="47.47406" lon="3.74992">
        <ele>182.79</ele>
        <time>2015-04-26T14:29:18Z</time>
      </trkpt>
      <trkpt lat="47.47386" lon="3.74987">
        <ele>183.75</ele>
        <time>2015-04-26T14:29:30Z</time>
      </trkpt>
      <trkpt lat="47.47364" lon="3.74986">
        <ele>184.23</ele>
        <time>2015-04-26T14:29:45Z</time>
      </trkpt>
      <trkpt lat="47.47344" lon="3.74982">
        <ele>185.19</ele>
        <time>2015-04-26T14:29:59Z</time>
      </trkpt>
      <trkpt lat="47.4732" lon="3.74985">
        <ele>186.15</ele>
        <time>2015-04-26T14:30:14Z</time>
      </trkpt>
      <trkpt lat="47.47301" lon="3.74986">
        <ele>186.63</ele>
        <time>2015-04-26T14:30:27Z</time>
      </trkpt>
      <trkpt lat="47.47283" lon="3.74989">
        <ele>187.11</ele>
        <time>2015-04-26T14:30:39Z</time>
      </trkpt>
      <trkpt lat="47.47279" lon="3.7499">
        <ele>187.59</ele>
        <time>2015-04-26T14:30:42Z</time>
      </trkpt>
      <trkpt lat="47.47275" lon="3.74989">
        <ele>188.08</ele>
        <time>2015-04-26T14:30:47Z</time>
      </trkpt>
      <trkpt lat="47.47264" lon="3.74993">
        <ele>188.56</ele>
        <time>2015-04-26T14:30:54Z</time>
      </trkpt>
      <trkpt lat="47.47243" lon="3.74996">
        <ele>190</ele>
        <time>2015-04-26T14:31:09Z</time>
      </trkpt>
      <trkpt lat="47.47242" lon="3.74996">
        <ele>190</ele>
        <time>2015-04-26T14:31:10Z</time>
      </trkpt>
      <trkpt lat="47.47237" lon="3.75">
        <ele>190.96</ele>
        <time>2015-04-26T14:31:16Z</time>
      </trkpt>
      <trkpt lat="47.47222" lon="3.75005">
        <ele>193.36</ele>
        <time>2015-04-26T14:31:32Z</time>
      </trkpt>
      <trkpt lat="47.47215" lon="3.75006">
        <ele>195.28</ele>
        <time>2015-04-26T14:31:45Z</time>
      </trkpt>
      <trkpt lat="47.47199" lon="3.75009">
        <ele>197.21</ele>
        <time>2015-04-26T14:32:00Z</time>
      </trkpt>
      <trkpt lat="47.47181" lon="3.7501">
        <ele>198.65</ele>
        <time>2015-04-26T14:32:13Z</time>
      </trkpt>
      <trkpt lat="47.47159" lon="3.75012">
        <ele>201.53</ele>
        <time>2015-04-26T14:32:30Z</time>
      </trkpt>
      <trkpt lat="47.47153" lon="3.75014">
        <ele>202.01</ele>
        <time>2015-04-26T14:32:35Z</time>
      </trkpt>
      <trkpt lat="47.4715" lon="3.75014">
        <ele>202.49</ele>
        <time>2015-04-26T14:32:37Z</time>
      </trkpt>
      <trkpt lat="47.47126" lon="3.75019">
        <ele>204.42</ele>
        <time>2015-04-26T14:32:54Z</time>
      </trkpt>
      <trkpt lat="47.47109" lon="3.75033">
        <ele>207.3</ele>
        <time>2015-04-26T14:33:08Z</time>
      </trkpt>
      <trkpt lat="47.47099" lon="3.7504">
        <ele>208.26</ele>
        <time>2015-04-26T14:33:16Z</time>
      </trkpt>
      <trkpt lat="47.47098" lon="3.75042">
        <ele>207.78</ele>
        <time>2015-04-26T14:33:18Z</time>
      </trkpt>
      <trkpt lat="47.47078" lon="3.7505">
        <ele>210.19</ele>
        <time>2015-04-26T14:33:35Z</time>
      </trkpt>
      <trkpt lat="47.47076" lon="3.75051">
        <ele>210.67</ele>
        <time>2015-04-26T14:33:38Z</time>
      </trkpt>
      <trkpt lat="47.47072" lon="3.75053">
        <ele>211.15</ele>
        <time>2015-04-26T14:33:42Z</time>
      </trkpt>
      <trkpt lat="47.47058" lon="3.75052">
        <ele>212.11</ele>
        <time>2015-04-26T14:33:50Z</time>
      </trkpt>
      <trkpt lat="47.47046" lon="3.75054">
        <ele>213.55</ele>
        <time>2015-04-26T14:34:01Z</time>
      </trkpt>
      <trkpt lat="47.47032" lon="3.75055">
        <ele>215.95</ele>
        <time>2015-04-26T14:34:16Z</time>
      </trkpt>
      <trkpt lat="47.47017" lon="3.75057">
        <ele>218.36</ele>
        <time>2015-04-26T14:34:32Z</time>
      </trkpt>
      <trkpt lat="47.47005" lon="3.75058">
        <ele>219.8</ele>
        <time>2015-04-26T14:34:45Z</time>
      </trkpt>
      <trkpt lat="47.46985" lon="3.75062">
        <ele>221.72</ele>
        <time>2015-04-26T14:34:59Z</time>
      </trkpt>
      <trkpt lat="47.46966" lon="3.75062">
        <ele>224.61</ele>
        <time>2015-04-26T14:35:12Z</time>
      </trkpt>
      <trkpt lat="47.46951" lon="3.75062">
        <ele>227.01</ele>
        <time>2015-04-26T14:35:26Z</time>
      </trkpt>
      <trkpt lat="47.46945" lon="3.75063">
        <ele>228.45</ele>
        <time>2015-04-26T14:35:33Z</time>
      </trkpt>
      <trkpt lat="47.46935" lon="3.75064">
        <ele>230.37</ele>
        <time>2015-04-26T14:35:46Z</time>
      </trkpt>
      <trkpt lat="47.46925" lon="3.75057">
        <ele>233.74</ele>
        <time>2015-04-26T14:36:00Z</time>
      </trkpt>
      <trkpt lat="47.46913" lon="3.75042">
        <ele>235.66</ele>
        <time>2015-04-26T14:36:13Z</time>
      </trkpt>
      <trkpt lat="47.46905" lon="3.75034">
        <ele>238.06</ele>
        <time>2015-04-26T14:36:26Z</time>
      </trkpt>
      <trkpt lat="47.46897" lon="3.75018">
        <ele>241.43</ele>
        <time>2015-04-26T14:36:41Z</time>
      </trkpt>
      <trkpt lat="47.46885" lon="3.75001">
        <ele>242.87</ele>
        <time>2015-04-26T14:36:56Z</time>
      </trkpt>
      <trkpt lat="47.46878" lon="3.74989">
        <ele>246.23</ele>
        <time>2015-04-26T14:37:09Z</time>
      </trkpt>
      <trkpt lat="47.46869" lon="3.74975">
        <ele>249.12</ele>
        <time>2015-04-26T14:37:24Z</time>
      </trkpt>
      <trkpt lat="47.46861" lon="3.74955">
        <ele>251.52</ele>
        <time>2015-04-26T14:37:39Z</time>
      </trkpt>
      <trkpt lat="47.46857" lon="3.74942">
        <ele>253.44</ele>
        <time>2015-04-26T14:37:51Z</time>
      </trkpt>
      <trkpt lat="47.46851" lon="3.74924">
        <ele>255.37</ele>
        <time>2015-04-26T14:38:04Z</time>
      </trkpt>
      <trkpt lat="47.46849" lon="3.74905">
        <ele>258.73</ele>
        <time>2015-04-26T14:38:19Z</time>
      </trkpt>
      <trkpt lat="47.46831" lon="3.74893">
        <ele>260.65</ele>
        <time>2015-04-26T14:38:31Z</time>
      </trkpt>
      <trkpt lat="47.46824" lon="3.74881">
        <ele>263.54</ele>
        <time>2015-04-26T14:38:45Z</time>
      </trkpt>
      <trkpt lat="47.46819" lon="3.74882">
        <ele>264.02</ele>
        <time>2015-04-26T14:39:01Z</time>
      </trkpt>
      <trkpt lat="47.46809" lon="3.74871">
        <ele>267.38</ele>
        <time>2015-04-26T14:39:17Z</time>
      </trkpt>
      <trkpt lat="47.46803" lon="3.74863">
        <ele>270.27</ele>
        <time>2015-04-26T14:39:33Z</time>
      </trkpt>
      <trkpt lat="47.46791" lon="3.74849">
        <ele>272.19</ele>
        <time>2015-04-26T14:39:47Z</time>
      </trkpt>
      <trkpt lat="47.46775" lon="3.74833">
        <ele>274.59</ele>
        <time>2015-04-26T14:39:59Z</time>
      </trkpt>
      <trkpt lat="47.46758" lon="3.74812">
        <ele>277</ele>
        <time>2015-04-26T14:40:14Z</time>
      </trkpt>
      <trkpt lat="47.46752" lon="3.74803">
        <ele>279.88</ele>
        <time>2015-04-26T14:40:27Z</time>
      </trkpt>
      <trkpt lat="47.46748" lon="3.748">
        <ele>279.88</ele>
        <time>2015-04-26T14:40:31Z</time>
      </trkpt>
      <trkpt lat="47.46728" lon="3.74782">
        <ele>283.25</ele>
        <time>2015-04-26T14:40:48Z</time>
      </trkpt>
      <trkpt lat="47.46725" lon="3.74776">
        <ele>283.73</ele>
        <time>2015-04-26T14:40:52Z</time>
      </trkpt>
      <trkpt lat="47.46709" lon="3.74761">
        <ele>286.61</ele>
        <time>2015-04-26T14:41:07Z</time>
      </trkpt>
      <trkpt lat="47.46694" lon="3.74753">
        <ele>290.46</ele>
        <time>2015-04-26T14:41:25Z</time>
      </trkpt>
      <trkpt lat="47.46679" lon="3.74751">
        <ele>293.34</ele>
        <time>2015-04-26T14:41:40Z</time>
      </trkpt>
      <trkpt lat="47.46678" lon="3.74752">
        <ele>293.34</ele>
        <time>2015-04-26T14:41:42Z</time>
      </trkpt>
      <trkpt lat="47.46669" lon="3.74757">
        <ele>294.78</ele>
        <time>2015-04-26T14:41:58Z</time>
      </trkpt>
      <trkpt lat="47.46664" lon="3.74746">
        <ele>295.74</ele>
        <time>2015-04-26T14:42:08Z</time>
      </trkpt>
      <trkpt lat="47.46668" lon="3.74742">
        <ele>295.74</ele>
        <time>2015-04-26T14:42:20Z</time>
      </trkpt>
      <trkpt lat="47.46666" lon="3.74744">
        <ele>296.22</ele>
        <time>2015-04-26T14:42:24Z</time>
      </trkpt>
      <trkpt lat="47.46662" lon="3.74748">
        <ele>296.22</ele>
        <time>2015-04-26T14:42:29Z</time>
      </trkpt>
      <trkpt lat="47.46653" lon="3.7476">
        <ele>296.22</ele>
        <time>2015-04-26T14:42:41Z</time>
      </trkpt>
      <trkpt lat="47.46647" lon="3.74762">
        <ele>299.11</ele>
        <time>2015-04-26T14:42:52Z</time>
      </trkpt>
      <trkpt lat="47.46646" lon="3.74763">
        <ele>293.82</ele>
        <time>2015-04-26T14:42:53Z</time>
      </trkpt>
      <trkpt lat="47.46644" lon="3.74764">
        <ele>294.78</ele>
        <time>2015-04-26T14:42:55Z</time>
      </trkpt>
      <trkpt lat="47.46643" lon="3.74765">
        <ele>298.15</ele>
        <time>2015-04-26T14:42:56Z</time>
      </trkpt>
    </trkseg>
  </trk>
</gpx>